<?xml version="1.0" encoding="UTF-8" standalone="no" ?>
<gpx xmlns="http://www.topografix.com/GPX/1/1" xmlns:xsi="http://www.w3.org/2001/XMLSchema-instance" xsi:schemaLocation="http://www.topografix.com/GPX/1/1 http://www.topografix.com/GPX/1/1/gpx.xsd" version="1.1" creator="VisuGPX - https://www.visugpx.com">
  <metadata>
    <name>2018-04-15 Bike ride-Val d-Azergues 31km</name>
    <desc><![CDATA[2018-04-15 Bike ride-Val d-Azergues 31km]]></desc>
  </metadata>
  <wpt lat="45.92465" lon="4.73716">
    <ele>174</ele>
    <name><![CDATA[2018-04-15 10:51 (Start)]]></name>
  </wpt>
  <wpt lat="45.92457" lon="4.73716">
    <ele>174</ele>
    <name><![CDATA[2018-04-15 10:51 (End)]]></name>
  </wpt>
  <trk>
    <name><![CDATA[2018-04-15 10:51]]></name>
    <trkseg>
      <trkpt lat="45.92465" lon="4.73716">
        <ele>174</ele>
        <time>2018-04-15T08:51:18.389Z</time>
      </trkpt>
      <trkpt lat="45.92465" lon="4.73715">
        <ele>174</ele>
        <time>2018-04-15T08:51:21.011Z</time>
      </trkpt>
      <trkpt lat="45.92464" lon="4.73716">
        <ele>174</ele>
        <time>2018-04-15T08:51:22.011Z</time>
      </trkpt>
      <trkpt lat="45.92463" lon="4.73715">
        <ele>174</ele>
        <time>2018-04-15T08:51:23.011Z</time>
      </trkpt>
      <trkpt lat="45.92463" lon="4.73719">
        <ele>174</ele>
        <time>2018-04-15T08:51:26.011Z</time>
      </trkpt>
      <trkpt lat="45.92464" lon="4.7372">
        <ele>174</ele>
        <time>2018-04-15T08:51:27.011Z</time>
      </trkpt>
      <trkpt lat="45.92465" lon="4.73722">
        <ele>174</ele>
        <time>2018-04-15T08:51:28.011Z</time>
      </trkpt>
      <trkpt lat="45.92466" lon="4.73723">
        <ele>174</ele>
        <time>2018-04-15T08:51:29.011Z</time>
      </trkpt>
      <trkpt lat="45.92466" lon="4.73724">
        <ele>174</ele>
        <time>2018-04-15T08:51:30.011Z</time>
      </trkpt>
      <trkpt lat="45.9247" lon="4.73717">
        <ele>174</ele>
        <time>2018-04-15T08:51:38Z</time>
      </trkpt>
      <trkpt lat="45.92471" lon="4.73712">
        <ele>174</ele>
        <time>2018-04-15T08:51:39Z</time>
      </trkpt>
      <trkpt lat="45.92471" lon="4.73702">
        <ele>174</ele>
        <time>2018-04-15T08:51:42Z</time>
      </trkpt>
      <trkpt lat="45.92472" lon="4.73698">
        <ele>174</ele>
        <time>2018-04-15T08:51:43Z</time>
      </trkpt>
      <trkpt lat="45.92473" lon="4.73686">
        <ele>174</ele>
        <time>2018-04-15T08:51:46Z</time>
      </trkpt>
      <trkpt lat="45.92473" lon="4.73682">
        <ele>174</ele>
        <time>2018-04-15T08:51:47Z</time>
      </trkpt>
      <trkpt lat="45.92473" lon="4.73669">
        <ele>174</ele>
        <time>2018-04-15T08:51:50Z</time>
      </trkpt>
      <trkpt lat="45.92473" lon="4.73665">
        <ele>174</ele>
        <time>2018-04-15T08:51:51Z</time>
      </trkpt>
      <trkpt lat="45.92475" lon="4.73654">
        <ele>174</ele>
        <time>2018-04-15T08:51:54Z</time>
      </trkpt>
      <trkpt lat="45.92477" lon="4.73651">
        <ele>174</ele>
        <time>2018-04-15T08:51:55Z</time>
      </trkpt>
      <trkpt lat="45.92482" lon="4.73648">
        <ele>174</ele>
        <time>2018-04-15T08:51:58Z</time>
      </trkpt>
      <trkpt lat="45.9249" lon="4.73646">
        <ele>174</ele>
        <time>2018-04-15T08:51:59Z</time>
      </trkpt>
      <trkpt lat="45.92495" lon="4.73645">
        <ele>174</ele>
        <time>2018-04-15T08:52:00Z</time>
      </trkpt>
      <trkpt lat="45.925" lon="4.73645">
        <ele>174</ele>
        <time>2018-04-15T08:52:01Z</time>
      </trkpt>
      <trkpt lat="45.92504" lon="4.73644">
        <ele>174</ele>
        <time>2018-04-15T08:52:03Z</time>
      </trkpt>
      <trkpt lat="45.9251" lon="4.73644">
        <ele>174</ele>
        <time>2018-04-15T08:52:04Z</time>
      </trkpt>
      <trkpt lat="45.92518" lon="4.73646">
        <ele>174</ele>
        <time>2018-04-15T08:52:06Z</time>
      </trkpt>
      <trkpt lat="45.92524" lon="4.73645">
        <ele>173</ele>
        <time>2018-04-15T08:52:07Z</time>
      </trkpt>
      <trkpt lat="45.92531" lon="4.73645">
        <ele>173</ele>
        <time>2018-04-15T08:52:09Z</time>
      </trkpt>
      <trkpt lat="45.92537" lon="4.73644">
        <ele>173</ele>
        <time>2018-04-15T08:52:10Z</time>
      </trkpt>
      <trkpt lat="45.92541" lon="4.73642">
        <ele>173</ele>
        <time>2018-04-15T08:52:11Z</time>
      </trkpt>
      <trkpt lat="45.92547" lon="4.73641">
        <ele>173</ele>
        <time>2018-04-15T08:52:12Z</time>
      </trkpt>
      <trkpt lat="45.92552" lon="4.7364">
        <ele>173</ele>
        <time>2018-04-15T08:52:13Z</time>
      </trkpt>
      <trkpt lat="45.92556" lon="4.73639">
        <ele>173</ele>
        <time>2018-04-15T08:52:14Z</time>
      </trkpt>
      <trkpt lat="45.92563" lon="4.73636">
        <ele>173</ele>
        <time>2018-04-15T08:52:16Z</time>
      </trkpt>
      <trkpt lat="45.92567" lon="4.73636">
        <ele>173</ele>
        <time>2018-04-15T08:52:17Z</time>
      </trkpt>
      <trkpt lat="45.92572" lon="4.73632">
        <ele>173</ele>
        <time>2018-04-15T08:52:18Z</time>
      </trkpt>
      <trkpt lat="45.92576" lon="4.7363">
        <ele>173</ele>
        <time>2018-04-15T08:52:19Z</time>
      </trkpt>
      <trkpt lat="45.9258" lon="4.73631">
        <ele>173</ele>
        <time>2018-04-15T08:52:20Z</time>
      </trkpt>
      <trkpt lat="45.92586" lon="4.7363">
        <ele>172</ele>
        <time>2018-04-15T08:52:21Z</time>
      </trkpt>
      <trkpt lat="45.92591" lon="4.73629">
        <ele>172</ele>
        <time>2018-04-15T08:52:22Z</time>
      </trkpt>
      <trkpt lat="45.92597" lon="4.7363">
        <ele>172</ele>
        <time>2018-04-15T08:52:23Z</time>
      </trkpt>
      <trkpt lat="45.92603" lon="4.73631">
        <ele>172</ele>
        <time>2018-04-15T08:52:24Z</time>
      </trkpt>
      <trkpt lat="45.92608" lon="4.73631">
        <ele>173</ele>
        <time>2018-04-15T08:52:25Z</time>
      </trkpt>
      <trkpt lat="45.92612" lon="4.73634">
        <ele>173</ele>
        <time>2018-04-15T08:52:26Z</time>
      </trkpt>
      <trkpt lat="45.92618" lon="4.73638">
        <ele>173</ele>
        <time>2018-04-15T08:52:27Z</time>
      </trkpt>
      <trkpt lat="45.9262" lon="4.73646">
        <ele>173</ele>
        <time>2018-04-15T08:52:28Z</time>
      </trkpt>
      <trkpt lat="45.92623" lon="4.73652">
        <ele>173</ele>
        <time>2018-04-15T08:52:29Z</time>
      </trkpt>
      <trkpt lat="45.92627" lon="4.73658">
        <ele>173</ele>
        <time>2018-04-15T08:52:30Z</time>
      </trkpt>
      <trkpt lat="45.9263" lon="4.73664">
        <ele>173</ele>
        <time>2018-04-15T08:52:31Z</time>
      </trkpt>
      <trkpt lat="45.92634" lon="4.73675">
        <ele>173</ele>
        <time>2018-04-15T08:52:33Z</time>
      </trkpt>
      <trkpt lat="45.92638" lon="4.73681">
        <ele>173</ele>
        <time>2018-04-15T08:52:34Z</time>
      </trkpt>
      <trkpt lat="45.92643" lon="4.73688">
        <ele>173</ele>
        <time>2018-04-15T08:52:35Z</time>
      </trkpt>
      <trkpt lat="45.92648" lon="4.73696">
        <ele>173</ele>
        <time>2018-04-15T08:52:36Z</time>
      </trkpt>
      <trkpt lat="45.92653" lon="4.73701">
        <ele>173</ele>
        <time>2018-04-15T08:52:37Z</time>
      </trkpt>
      <trkpt lat="45.92658" lon="4.73706">
        <ele>173</ele>
        <time>2018-04-15T08:52:38Z</time>
      </trkpt>
      <trkpt lat="45.92663" lon="4.7371">
        <ele>173</ele>
        <time>2018-04-15T08:52:39Z</time>
      </trkpt>
      <trkpt lat="45.92668" lon="4.73714">
        <ele>174</ele>
        <time>2018-04-15T08:52:40Z</time>
      </trkpt>
      <trkpt lat="45.92674" lon="4.73716">
        <ele>174</ele>
        <time>2018-04-15T08:52:41Z</time>
      </trkpt>
      <trkpt lat="45.9268" lon="4.73717">
        <ele>173</ele>
        <time>2018-04-15T08:52:42Z</time>
      </trkpt>
      <trkpt lat="45.92684" lon="4.73719">
        <ele>173</ele>
        <time>2018-04-15T08:52:43Z</time>
      </trkpt>
      <trkpt lat="45.92689" lon="4.73721">
        <ele>173</ele>
        <time>2018-04-15T08:52:44Z</time>
      </trkpt>
      <trkpt lat="45.92695" lon="4.73721">
        <ele>173</ele>
        <time>2018-04-15T08:52:45Z</time>
      </trkpt>
      <trkpt lat="45.92703" lon="4.73721">
        <ele>173</ele>
        <time>2018-04-15T08:52:46Z</time>
      </trkpt>
      <trkpt lat="45.92708" lon="4.73721">
        <ele>173</ele>
        <time>2018-04-15T08:52:47Z</time>
      </trkpt>
      <trkpt lat="45.92714" lon="4.73722">
        <ele>173</ele>
        <time>2018-04-15T08:52:48Z</time>
      </trkpt>
      <trkpt lat="45.92719" lon="4.73723">
        <ele>173</ele>
        <time>2018-04-15T08:52:49Z</time>
      </trkpt>
      <trkpt lat="45.92724" lon="4.73724">
        <ele>173</ele>
        <time>2018-04-15T08:52:50Z</time>
      </trkpt>
      <trkpt lat="45.92731" lon="4.73726">
        <ele>173</ele>
        <time>2018-04-15T08:52:51Z</time>
      </trkpt>
      <trkpt lat="45.92736" lon="4.73727">
        <ele>173</ele>
        <time>2018-04-15T08:52:52Z</time>
      </trkpt>
      <trkpt lat="45.92741" lon="4.7373">
        <ele>173</ele>
        <time>2018-04-15T08:52:53Z</time>
      </trkpt>
      <trkpt lat="45.92747" lon="4.73731">
        <ele>173</ele>
        <time>2018-04-15T08:52:54Z</time>
      </trkpt>
      <trkpt lat="45.92753" lon="4.73732">
        <ele>172</ele>
        <time>2018-04-15T08:52:55Z</time>
      </trkpt>
      <trkpt lat="45.92759" lon="4.73734">
        <ele>172</ele>
        <time>2018-04-15T08:52:56Z</time>
      </trkpt>
      <trkpt lat="45.92764" lon="4.73736">
        <ele>172</ele>
        <time>2018-04-15T08:52:57Z</time>
      </trkpt>
      <trkpt lat="45.92768" lon="4.73738">
        <ele>172</ele>
        <time>2018-04-15T08:52:58Z</time>
      </trkpt>
      <trkpt lat="45.92776" lon="4.73742">
        <ele>172</ele>
        <time>2018-04-15T08:53:00Z</time>
      </trkpt>
      <trkpt lat="45.92779" lon="4.73744">
        <ele>172</ele>
        <time>2018-04-15T08:53:01Z</time>
      </trkpt>
      <trkpt lat="45.92784" lon="4.73755">
        <ele>173</ele>
        <time>2018-04-15T08:53:04Z</time>
      </trkpt>
      <trkpt lat="45.92787" lon="4.7376">
        <ele>173</ele>
        <time>2018-04-15T08:53:05Z</time>
      </trkpt>
      <trkpt lat="45.92791" lon="4.73762">
        <ele>173</ele>
        <time>2018-04-15T08:53:06Z</time>
      </trkpt>
      <trkpt lat="45.92797" lon="4.73762">
        <ele>173</ele>
        <time>2018-04-15T08:53:07Z</time>
      </trkpt>
      <trkpt lat="45.92801" lon="4.73765">
        <ele>173</ele>
        <time>2018-04-15T08:53:08Z</time>
      </trkpt>
      <trkpt lat="45.92806" lon="4.73768">
        <ele>173</ele>
        <time>2018-04-15T08:53:09Z</time>
      </trkpt>
      <trkpt lat="45.92811" lon="4.7377">
        <ele>173</ele>
        <time>2018-04-15T08:53:10Z</time>
      </trkpt>
      <trkpt lat="45.92817" lon="4.73773">
        <ele>173</ele>
        <time>2018-04-15T08:53:11Z</time>
      </trkpt>
      <trkpt lat="45.92824" lon="4.73776">
        <ele>173</ele>
        <time>2018-04-15T08:53:12Z</time>
      </trkpt>
      <trkpt lat="45.92829" lon="4.7378">
        <ele>173</ele>
        <time>2018-04-15T08:53:13Z</time>
      </trkpt>
      <trkpt lat="45.92834" lon="4.73782">
        <ele>173</ele>
        <time>2018-04-15T08:53:14Z</time>
      </trkpt>
      <trkpt lat="45.92839" lon="4.73786">
        <ele>173</ele>
        <time>2018-04-15T08:53:15Z</time>
      </trkpt>
      <trkpt lat="45.92845" lon="4.73791">
        <ele>173</ele>
        <time>2018-04-15T08:53:16Z</time>
      </trkpt>
      <trkpt lat="45.9285" lon="4.73796">
        <ele>173</ele>
        <time>2018-04-15T08:53:17Z</time>
      </trkpt>
      <trkpt lat="45.92854" lon="4.73802">
        <ele>173</ele>
        <time>2018-04-15T08:53:18Z</time>
      </trkpt>
      <trkpt lat="45.92858" lon="4.73807">
        <ele>173</ele>
        <time>2018-04-15T08:53:19Z</time>
      </trkpt>
      <trkpt lat="45.9286" lon="4.73815">
        <ele>173</ele>
        <time>2018-04-15T08:53:20Z</time>
      </trkpt>
      <trkpt lat="45.92862" lon="4.73823">
        <ele>173</ele>
        <time>2018-04-15T08:53:21Z</time>
      </trkpt>
      <trkpt lat="45.92864" lon="4.73831">
        <ele>173</ele>
        <time>2018-04-15T08:53:22Z</time>
      </trkpt>
      <trkpt lat="45.92865" lon="4.7384">
        <ele>173</ele>
        <time>2018-04-15T08:53:23Z</time>
      </trkpt>
      <trkpt lat="45.92867" lon="4.73848">
        <ele>173</ele>
        <time>2018-04-15T08:53:24Z</time>
      </trkpt>
      <trkpt lat="45.92869" lon="4.73856">
        <ele>173</ele>
        <time>2018-04-15T08:53:25Z</time>
      </trkpt>
      <trkpt lat="45.92871" lon="4.73864">
        <ele>173</ele>
        <time>2018-04-15T08:53:26Z</time>
      </trkpt>
      <trkpt lat="45.92874" lon="4.73872">
        <ele>173</ele>
        <time>2018-04-15T08:53:27Z</time>
      </trkpt>
      <trkpt lat="45.92874" lon="4.7388">
        <ele>173</ele>
        <time>2018-04-15T08:53:28Z</time>
      </trkpt>
      <trkpt lat="45.92878" lon="4.73887">
        <ele>173</ele>
        <time>2018-04-15T08:53:29Z</time>
      </trkpt>
      <trkpt lat="45.92879" lon="4.73895">
        <ele>173</ele>
        <time>2018-04-15T08:53:30Z</time>
      </trkpt>
      <trkpt lat="45.92879" lon="4.73904">
        <ele>173</ele>
        <time>2018-04-15T08:53:31Z</time>
      </trkpt>
      <trkpt lat="45.9288" lon="4.73912">
        <ele>173</ele>
        <time>2018-04-15T08:53:32Z</time>
      </trkpt>
      <trkpt lat="45.9288" lon="4.73919">
        <ele>172</ele>
        <time>2018-04-15T08:53:33Z</time>
      </trkpt>
      <trkpt lat="45.92881" lon="4.73927">
        <ele>172</ele>
        <time>2018-04-15T08:53:34Z</time>
      </trkpt>
      <trkpt lat="45.92881" lon="4.73935">
        <ele>172</ele>
        <time>2018-04-15T08:53:35Z</time>
      </trkpt>
      <trkpt lat="45.92883" lon="4.73943">
        <ele>172</ele>
        <time>2018-04-15T08:53:36Z</time>
      </trkpt>
      <trkpt lat="45.92882" lon="4.7395">
        <ele>172</ele>
        <time>2018-04-15T08:53:37Z</time>
      </trkpt>
      <trkpt lat="45.92883" lon="4.73957">
        <ele>172</ele>
        <time>2018-04-15T08:53:38Z</time>
      </trkpt>
      <trkpt lat="45.92884" lon="4.73966">
        <ele>172</ele>
        <time>2018-04-15T08:53:39Z</time>
      </trkpt>
      <trkpt lat="45.92885" lon="4.73973">
        <ele>172</ele>
        <time>2018-04-15T08:53:40Z</time>
      </trkpt>
      <trkpt lat="45.92884" lon="4.73981">
        <ele>172</ele>
        <time>2018-04-15T08:53:41Z</time>
      </trkpt>
      <trkpt lat="45.92883" lon="4.73989">
        <ele>172</ele>
        <time>2018-04-15T08:53:42Z</time>
      </trkpt>
      <trkpt lat="45.92881" lon="4.73994">
        <ele>172</ele>
        <time>2018-04-15T08:53:43Z</time>
      </trkpt>
      <trkpt lat="45.92879" lon="4.73999">
        <ele>172</ele>
        <time>2018-04-15T08:53:44Z</time>
      </trkpt>
      <trkpt lat="45.92878" lon="4.74008">
        <ele>172</ele>
        <time>2018-04-15T08:53:45Z</time>
      </trkpt>
      <trkpt lat="45.92876" lon="4.74014">
        <ele>172</ele>
        <time>2018-04-15T08:53:46Z</time>
      </trkpt>
      <trkpt lat="45.92875" lon="4.7402">
        <ele>172</ele>
        <time>2018-04-15T08:53:47Z</time>
      </trkpt>
      <trkpt lat="45.92873" lon="4.74026">
        <ele>172</ele>
        <time>2018-04-15T08:53:48Z</time>
      </trkpt>
      <trkpt lat="45.92872" lon="4.74032">
        <ele>172</ele>
        <time>2018-04-15T08:53:49Z</time>
      </trkpt>
      <trkpt lat="45.92871" lon="4.74039">
        <ele>172</ele>
        <time>2018-04-15T08:53:50Z</time>
      </trkpt>
      <trkpt lat="45.92869" lon="4.74045">
        <ele>172</ele>
        <time>2018-04-15T08:53:51Z</time>
      </trkpt>
      <trkpt lat="45.92865" lon="4.74049">
        <ele>172</ele>
        <time>2018-04-15T08:53:52Z</time>
      </trkpt>
      <trkpt lat="45.92861" lon="4.74056">
        <ele>172</ele>
        <time>2018-04-15T08:53:53Z</time>
      </trkpt>
      <trkpt lat="45.92857" lon="4.74061">
        <ele>172</ele>
        <time>2018-04-15T08:53:54Z</time>
      </trkpt>
      <trkpt lat="45.92853" lon="4.74066">
        <ele>172</ele>
        <time>2018-04-15T08:53:55Z</time>
      </trkpt>
      <trkpt lat="45.92849" lon="4.74071">
        <ele>172</ele>
        <time>2018-04-15T08:53:56Z</time>
      </trkpt>
      <trkpt lat="45.92845" lon="4.74076">
        <ele>172</ele>
        <time>2018-04-15T08:53:57Z</time>
      </trkpt>
      <trkpt lat="45.92841" lon="4.74081">
        <ele>171</ele>
        <time>2018-04-15T08:53:58Z</time>
      </trkpt>
      <trkpt lat="45.92836" lon="4.74086">
        <ele>171</ele>
        <time>2018-04-15T08:53:59Z</time>
      </trkpt>
      <trkpt lat="45.92832" lon="4.74091">
        <ele>171</ele>
        <time>2018-04-15T08:54:00Z</time>
      </trkpt>
      <trkpt lat="45.92827" lon="4.74095">
        <ele>171</ele>
        <time>2018-04-15T08:54:01Z</time>
      </trkpt>
      <trkpt lat="45.92822" lon="4.74099">
        <ele>171</ele>
        <time>2018-04-15T08:54:02Z</time>
      </trkpt>
      <trkpt lat="45.92817" lon="4.74106">
        <ele>172</ele>
        <time>2018-04-15T08:54:03Z</time>
      </trkpt>
      <trkpt lat="45.92813" lon="4.74111">
        <ele>172</ele>
        <time>2018-04-15T08:54:04Z</time>
      </trkpt>
      <trkpt lat="45.92808" lon="4.74116">
        <ele>172</ele>
        <time>2018-04-15T08:54:05Z</time>
      </trkpt>
      <trkpt lat="45.92803" lon="4.74121">
        <ele>172</ele>
        <time>2018-04-15T08:54:06Z</time>
      </trkpt>
      <trkpt lat="45.92798" lon="4.74126">
        <ele>172</ele>
        <time>2018-04-15T08:54:07Z</time>
      </trkpt>
      <trkpt lat="45.92794" lon="4.7413">
        <ele>172</ele>
        <time>2018-04-15T08:54:08Z</time>
      </trkpt>
      <trkpt lat="45.92789" lon="4.74135">
        <ele>172</ele>
        <time>2018-04-15T08:54:09Z</time>
      </trkpt>
      <trkpt lat="45.92784" lon="4.74141">
        <ele>172</ele>
        <time>2018-04-15T08:54:10Z</time>
      </trkpt>
      <trkpt lat="45.92779" lon="4.74146">
        <ele>172</ele>
        <time>2018-04-15T08:54:11Z</time>
      </trkpt>
      <trkpt lat="45.92774" lon="4.74152">
        <ele>172</ele>
        <time>2018-04-15T08:54:12Z</time>
      </trkpt>
      <trkpt lat="45.92769" lon="4.74157">
        <ele>172</ele>
        <time>2018-04-15T08:54:13Z</time>
      </trkpt>
      <trkpt lat="45.92763" lon="4.74161">
        <ele>172</ele>
        <time>2018-04-15T08:54:14Z</time>
      </trkpt>
      <trkpt lat="45.92758" lon="4.74168">
        <ele>172</ele>
        <time>2018-04-15T08:54:15Z</time>
      </trkpt>
      <trkpt lat="45.92753" lon="4.74174">
        <ele>172</ele>
        <time>2018-04-15T08:54:16Z</time>
      </trkpt>
      <trkpt lat="45.92749" lon="4.74179">
        <ele>172</ele>
        <time>2018-04-15T08:54:17Z</time>
      </trkpt>
      <trkpt lat="45.92744" lon="4.74186">
        <ele>172</ele>
        <time>2018-04-15T08:54:18Z</time>
      </trkpt>
      <trkpt lat="45.92738" lon="4.74192">
        <ele>171</ele>
        <time>2018-04-15T08:54:19Z</time>
      </trkpt>
      <trkpt lat="45.92734" lon="4.74198">
        <ele>171</ele>
        <time>2018-04-15T08:54:20Z</time>
      </trkpt>
      <trkpt lat="45.92731" lon="4.74206">
        <ele>171</ele>
        <time>2018-04-15T08:54:21Z</time>
      </trkpt>
      <trkpt lat="45.92726" lon="4.74212">
        <ele>171</ele>
        <time>2018-04-15T08:54:22Z</time>
      </trkpt>
      <trkpt lat="45.92722" lon="4.74218">
        <ele>171</ele>
        <time>2018-04-15T08:54:23Z</time>
      </trkpt>
      <trkpt lat="45.92718" lon="4.74224">
        <ele>171</ele>
        <time>2018-04-15T08:54:24Z</time>
      </trkpt>
      <trkpt lat="45.92713" lon="4.74231">
        <ele>171</ele>
        <time>2018-04-15T08:54:25Z</time>
      </trkpt>
      <trkpt lat="45.9271" lon="4.74237">
        <ele>171</ele>
        <time>2018-04-15T08:54:26Z</time>
      </trkpt>
      <trkpt lat="45.92706" lon="4.74243">
        <ele>171</ele>
        <time>2018-04-15T08:54:27Z</time>
      </trkpt>
      <trkpt lat="45.92702" lon="4.74249">
        <ele>171</ele>
        <time>2018-04-15T08:54:28Z</time>
      </trkpt>
      <trkpt lat="45.92699" lon="4.74256">
        <ele>171</ele>
        <time>2018-04-15T08:54:29Z</time>
      </trkpt>
      <trkpt lat="45.92695" lon="4.74262">
        <ele>171</ele>
        <time>2018-04-15T08:54:30Z</time>
      </trkpt>
      <trkpt lat="45.92691" lon="4.74268">
        <ele>171</ele>
        <time>2018-04-15T08:54:31Z</time>
      </trkpt>
      <trkpt lat="45.92688" lon="4.74275">
        <ele>171</ele>
        <time>2018-04-15T08:54:32Z</time>
      </trkpt>
      <trkpt lat="45.92684" lon="4.74283">
        <ele>171</ele>
        <time>2018-04-15T08:54:33Z</time>
      </trkpt>
      <trkpt lat="45.92679" lon="4.7429">
        <ele>171</ele>
        <time>2018-04-15T08:54:34Z</time>
      </trkpt>
      <trkpt lat="45.92675" lon="4.74297">
        <ele>171</ele>
        <time>2018-04-15T08:54:35Z</time>
      </trkpt>
      <trkpt lat="45.92672" lon="4.74304">
        <ele>171</ele>
        <time>2018-04-15T08:54:36Z</time>
      </trkpt>
      <trkpt lat="45.92669" lon="4.74311">
        <ele>171</ele>
        <time>2018-04-15T08:54:37Z</time>
      </trkpt>
      <trkpt lat="45.92665" lon="4.74318">
        <ele>171</ele>
        <time>2018-04-15T08:54:38Z</time>
      </trkpt>
      <trkpt lat="45.92662" lon="4.74325">
        <ele>171</ele>
        <time>2018-04-15T08:54:39Z</time>
      </trkpt>
      <trkpt lat="45.92658" lon="4.74331">
        <ele>171</ele>
        <time>2018-04-15T08:54:40Z</time>
      </trkpt>
      <trkpt lat="45.92655" lon="4.74338">
        <ele>171</ele>
        <time>2018-04-15T08:54:41Z</time>
      </trkpt>
      <trkpt lat="45.9265" lon="4.74346">
        <ele>171</ele>
        <time>2018-04-15T08:54:42Z</time>
      </trkpt>
      <trkpt lat="45.92646" lon="4.74353">
        <ele>171</ele>
        <time>2018-04-15T08:54:43Z</time>
      </trkpt>
      <trkpt lat="45.92643" lon="4.74359">
        <ele>171</ele>
        <time>2018-04-15T08:54:44Z</time>
      </trkpt>
      <trkpt lat="45.92639" lon="4.74365">
        <ele>171</ele>
        <time>2018-04-15T08:54:45Z</time>
      </trkpt>
      <trkpt lat="45.92636" lon="4.74371">
        <ele>171</ele>
        <time>2018-04-15T08:54:46Z</time>
      </trkpt>
      <trkpt lat="45.9263" lon="4.74376">
        <ele>170</ele>
        <time>2018-04-15T08:54:47Z</time>
      </trkpt>
      <trkpt lat="45.92627" lon="4.74383">
        <ele>170</ele>
        <time>2018-04-15T08:54:48Z</time>
      </trkpt>
      <trkpt lat="45.92623" lon="4.7439">
        <ele>170</ele>
        <time>2018-04-15T08:54:49Z</time>
      </trkpt>
      <trkpt lat="45.92619" lon="4.74397">
        <ele>170</ele>
        <time>2018-04-15T08:54:50Z</time>
      </trkpt>
      <trkpt lat="45.92615" lon="4.74404">
        <ele>170</ele>
        <time>2018-04-15T08:54:51Z</time>
      </trkpt>
      <trkpt lat="45.92612" lon="4.7441">
        <ele>170</ele>
        <time>2018-04-15T08:54:52Z</time>
      </trkpt>
      <trkpt lat="45.92608" lon="4.74419">
        <ele>170</ele>
        <time>2018-04-15T08:54:53Z</time>
      </trkpt>
      <trkpt lat="45.92605" lon="4.74426">
        <ele>170</ele>
        <time>2018-04-15T08:54:54Z</time>
      </trkpt>
      <trkpt lat="45.92602" lon="4.74433">
        <ele>170</ele>
        <time>2018-04-15T08:54:55Z</time>
      </trkpt>
      <trkpt lat="45.92599" lon="4.7444">
        <ele>170</ele>
        <time>2018-04-15T08:54:56Z</time>
      </trkpt>
      <trkpt lat="45.92594" lon="4.74447">
        <ele>170</ele>
        <time>2018-04-15T08:54:57Z</time>
      </trkpt>
      <trkpt lat="45.9259" lon="4.74453">
        <ele>170</ele>
        <time>2018-04-15T08:54:58Z</time>
      </trkpt>
      <trkpt lat="45.92586" lon="4.74461">
        <ele>170</ele>
        <time>2018-04-15T08:54:59Z</time>
      </trkpt>
      <trkpt lat="45.92583" lon="4.74468">
        <ele>170</ele>
        <time>2018-04-15T08:55:00Z</time>
      </trkpt>
      <trkpt lat="45.92579" lon="4.74475">
        <ele>170</ele>
        <time>2018-04-15T08:55:01Z</time>
      </trkpt>
      <trkpt lat="45.92576" lon="4.74482">
        <ele>170</ele>
        <time>2018-04-15T08:55:02Z</time>
      </trkpt>
      <trkpt lat="45.92572" lon="4.74489">
        <ele>170</ele>
        <time>2018-04-15T08:55:03Z</time>
      </trkpt>
      <trkpt lat="45.92567" lon="4.74495">
        <ele>170</ele>
        <time>2018-04-15T08:55:04Z</time>
      </trkpt>
      <trkpt lat="45.92563" lon="4.74501">
        <ele>170</ele>
        <time>2018-04-15T08:55:05Z</time>
      </trkpt>
      <trkpt lat="45.9256" lon="4.74509">
        <ele>170</ele>
        <time>2018-04-15T08:55:06Z</time>
      </trkpt>
      <trkpt lat="45.92556" lon="4.74517">
        <ele>170</ele>
        <time>2018-04-15T08:55:07Z</time>
      </trkpt>
      <trkpt lat="45.92552" lon="4.74524">
        <ele>170</ele>
        <time>2018-04-15T08:55:08Z</time>
      </trkpt>
      <trkpt lat="45.92549" lon="4.74532">
        <ele>170</ele>
        <time>2018-04-15T08:55:09Z</time>
      </trkpt>
      <trkpt lat="45.92544" lon="4.7454">
        <ele>170</ele>
        <time>2018-04-15T08:55:10Z</time>
      </trkpt>
      <trkpt lat="45.92539" lon="4.74546">
        <ele>171</ele>
        <time>2018-04-15T08:55:11Z</time>
      </trkpt>
      <trkpt lat="45.92535" lon="4.74554">
        <ele>171</ele>
        <time>2018-04-15T08:55:12Z</time>
      </trkpt>
      <trkpt lat="45.92531" lon="4.74559">
        <ele>171</ele>
        <time>2018-04-15T08:55:13Z</time>
      </trkpt>
      <trkpt lat="45.92526" lon="4.74565">
        <ele>171</ele>
        <time>2018-04-15T08:55:14Z</time>
      </trkpt>
      <trkpt lat="45.92521" lon="4.74571">
        <ele>171</ele>
        <time>2018-04-15T08:55:15Z</time>
      </trkpt>
      <trkpt lat="45.92516" lon="4.74577">
        <ele>171</ele>
        <time>2018-04-15T08:55:16Z</time>
      </trkpt>
      <trkpt lat="45.92511" lon="4.74582">
        <ele>171</ele>
        <time>2018-04-15T08:55:17Z</time>
      </trkpt>
      <trkpt lat="45.92506" lon="4.74588">
        <ele>171</ele>
        <time>2018-04-15T08:55:18Z</time>
      </trkpt>
      <trkpt lat="45.92501" lon="4.74593">
        <ele>171</ele>
        <time>2018-04-15T08:55:19Z</time>
      </trkpt>
      <trkpt lat="45.92497" lon="4.74599">
        <ele>171</ele>
        <time>2018-04-15T08:55:20Z</time>
      </trkpt>
      <trkpt lat="45.92492" lon="4.74606">
        <ele>171</ele>
        <time>2018-04-15T08:55:21Z</time>
      </trkpt>
      <trkpt lat="45.92488" lon="4.74611">
        <ele>171</ele>
        <time>2018-04-15T08:55:22Z</time>
      </trkpt>
      <trkpt lat="45.92484" lon="4.74617">
        <ele>171</ele>
        <time>2018-04-15T08:55:23Z</time>
      </trkpt>
      <trkpt lat="45.9248" lon="4.74623">
        <ele>171</ele>
        <time>2018-04-15T08:55:24Z</time>
      </trkpt>
      <trkpt lat="45.92476" lon="4.74628">
        <ele>171</ele>
        <time>2018-04-15T08:55:25Z</time>
      </trkpt>
      <trkpt lat="45.92472" lon="4.74633">
        <ele>171</ele>
        <time>2018-04-15T08:55:26Z</time>
      </trkpt>
      <trkpt lat="45.92468" lon="4.74639">
        <ele>171</ele>
        <time>2018-04-15T08:55:27Z</time>
      </trkpt>
      <trkpt lat="45.92464" lon="4.74645">
        <ele>171</ele>
        <time>2018-04-15T08:55:28Z</time>
      </trkpt>
      <trkpt lat="45.9246" lon="4.74651">
        <ele>171</ele>
        <time>2018-04-15T08:55:29Z</time>
      </trkpt>
      <trkpt lat="45.92457" lon="4.74658">
        <ele>171</ele>
        <time>2018-04-15T08:55:30Z</time>
      </trkpt>
      <trkpt lat="45.92453" lon="4.74665">
        <ele>171</ele>
        <time>2018-04-15T08:55:31Z</time>
      </trkpt>
      <trkpt lat="45.9245" lon="4.7467">
        <ele>171</ele>
        <time>2018-04-15T08:55:32Z</time>
      </trkpt>
      <trkpt lat="45.92446" lon="4.74675">
        <ele>171</ele>
        <time>2018-04-15T08:55:33Z</time>
      </trkpt>
      <trkpt lat="45.92445" lon="4.7468">
        <ele>171</ele>
        <time>2018-04-15T08:55:34Z</time>
      </trkpt>
      <trkpt lat="45.9244" lon="4.74687">
        <ele>171</ele>
        <time>2018-04-15T08:55:35Z</time>
      </trkpt>
      <trkpt lat="45.92436" lon="4.74695">
        <ele>171</ele>
        <time>2018-04-15T08:55:36Z</time>
      </trkpt>
      <trkpt lat="45.92434" lon="4.74702">
        <ele>171</ele>
        <time>2018-04-15T08:55:37Z</time>
      </trkpt>
      <trkpt lat="45.92431" lon="4.74709">
        <ele>171</ele>
        <time>2018-04-15T08:55:38Z</time>
      </trkpt>
      <trkpt lat="45.92429" lon="4.74717">
        <ele>171</ele>
        <time>2018-04-15T08:55:39Z</time>
      </trkpt>
      <trkpt lat="45.92426" lon="4.74724">
        <ele>171</ele>
        <time>2018-04-15T08:55:40Z</time>
      </trkpt>
      <trkpt lat="45.92424" lon="4.74733">
        <ele>171</ele>
        <time>2018-04-15T08:55:41Z</time>
      </trkpt>
      <trkpt lat="45.92421" lon="4.74741">
        <ele>172</ele>
        <time>2018-04-15T08:55:42Z</time>
      </trkpt>
      <trkpt lat="45.92419" lon="4.74749">
        <ele>172</ele>
        <time>2018-04-15T08:55:43Z</time>
      </trkpt>
      <trkpt lat="45.92417" lon="4.74757">
        <ele>172</ele>
        <time>2018-04-15T08:55:44Z</time>
      </trkpt>
      <trkpt lat="45.92417" lon="4.74769">
        <ele>171</ele>
        <time>2018-04-15T08:55:45Z</time>
      </trkpt>
      <trkpt lat="45.92415" lon="4.74776">
        <ele>171</ele>
        <time>2018-04-15T08:55:46Z</time>
      </trkpt>
      <trkpt lat="45.92413" lon="4.74784">
        <ele>171</ele>
        <time>2018-04-15T08:55:47Z</time>
      </trkpt>
      <trkpt lat="45.92411" lon="4.74792">
        <ele>171</ele>
        <time>2018-04-15T08:55:48Z</time>
      </trkpt>
      <trkpt lat="45.92409" lon="4.748">
        <ele>171</ele>
        <time>2018-04-15T08:55:49Z</time>
      </trkpt>
      <trkpt lat="45.92407" lon="4.7481">
        <ele>171</ele>
        <time>2018-04-15T08:55:50Z</time>
      </trkpt>
      <trkpt lat="45.92405" lon="4.74818">
        <ele>171</ele>
        <time>2018-04-15T08:55:51Z</time>
      </trkpt>
      <trkpt lat="45.92403" lon="4.74826">
        <ele>171</ele>
        <time>2018-04-15T08:55:52Z</time>
      </trkpt>
      <trkpt lat="45.924" lon="4.74834">
        <ele>171</ele>
        <time>2018-04-15T08:55:53Z</time>
      </trkpt>
      <trkpt lat="45.92398" lon="4.74842">
        <ele>171</ele>
        <time>2018-04-15T08:55:54Z</time>
      </trkpt>
      <trkpt lat="45.92396" lon="4.7485">
        <ele>171</ele>
        <time>2018-04-15T08:55:55Z</time>
      </trkpt>
      <trkpt lat="45.92393" lon="4.74858">
        <ele>171</ele>
        <time>2018-04-15T08:55:56Z</time>
      </trkpt>
      <trkpt lat="45.9239" lon="4.74865">
        <ele>171</ele>
        <time>2018-04-15T08:55:57Z</time>
      </trkpt>
      <trkpt lat="45.92388" lon="4.74873">
        <ele>171</ele>
        <time>2018-04-15T08:55:58Z</time>
      </trkpt>
      <trkpt lat="45.92385" lon="4.74881">
        <ele>171</ele>
        <time>2018-04-15T08:55:59Z</time>
      </trkpt>
      <trkpt lat="45.92382" lon="4.74888">
        <ele>171</ele>
        <time>2018-04-15T08:56:00Z</time>
      </trkpt>
      <trkpt lat="45.92379" lon="4.74896">
        <ele>171</ele>
        <time>2018-04-15T08:56:01Z</time>
      </trkpt>
      <trkpt lat="45.92375" lon="4.74904">
        <ele>171</ele>
        <time>2018-04-15T08:56:02Z</time>
      </trkpt>
      <trkpt lat="45.92372" lon="4.74911">
        <ele>171</ele>
        <time>2018-04-15T08:56:03Z</time>
      </trkpt>
      <trkpt lat="45.9237" lon="4.7492">
        <ele>170</ele>
        <time>2018-04-15T08:56:04Z</time>
      </trkpt>
      <trkpt lat="45.92367" lon="4.74928">
        <ele>170</ele>
        <time>2018-04-15T08:56:05Z</time>
      </trkpt>
      <trkpt lat="45.92363" lon="4.74934">
        <ele>170</ele>
        <time>2018-04-15T08:56:06Z</time>
      </trkpt>
      <trkpt lat="45.9236" lon="4.74943">
        <ele>170</ele>
        <time>2018-04-15T08:56:07Z</time>
      </trkpt>
      <trkpt lat="45.92357" lon="4.74951">
        <ele>170</ele>
        <time>2018-04-15T08:56:08Z</time>
      </trkpt>
      <trkpt lat="45.92353" lon="4.74959">
        <ele>170</ele>
        <time>2018-04-15T08:56:09Z</time>
      </trkpt>
      <trkpt lat="45.9235" lon="4.74966">
        <ele>170</ele>
        <time>2018-04-15T08:56:10Z</time>
      </trkpt>
      <trkpt lat="45.92348" lon="4.74974">
        <ele>170</ele>
        <time>2018-04-15T08:56:11Z</time>
      </trkpt>
      <trkpt lat="45.92344" lon="4.74981">
        <ele>170</ele>
        <time>2018-04-15T08:56:12Z</time>
      </trkpt>
      <trkpt lat="45.92341" lon="4.74988">
        <ele>170</ele>
        <time>2018-04-15T08:56:13Z</time>
      </trkpt>
      <trkpt lat="45.9234" lon="4.74995">
        <ele>170</ele>
        <time>2018-04-15T08:56:14Z</time>
      </trkpt>
      <trkpt lat="45.92338" lon="4.75002">
        <ele>170</ele>
        <time>2018-04-15T08:56:15Z</time>
      </trkpt>
      <trkpt lat="45.92335" lon="4.75009">
        <ele>170</ele>
        <time>2018-04-15T08:56:16Z</time>
      </trkpt>
      <trkpt lat="45.92332" lon="4.75016">
        <ele>171</ele>
        <time>2018-04-15T08:56:17Z</time>
      </trkpt>
      <trkpt lat="45.92328" lon="4.75021">
        <ele>171</ele>
        <time>2018-04-15T08:56:18Z</time>
      </trkpt>
      <trkpt lat="45.92325" lon="4.75028">
        <ele>171</ele>
        <time>2018-04-15T08:56:19Z</time>
      </trkpt>
      <trkpt lat="45.92322" lon="4.75037">
        <ele>171</ele>
        <time>2018-04-15T08:56:20Z</time>
      </trkpt>
      <trkpt lat="45.92318" lon="4.75043">
        <ele>172</ele>
        <time>2018-04-15T08:56:21Z</time>
      </trkpt>
      <trkpt lat="45.92314" lon="4.75049">
        <ele>172</ele>
        <time>2018-04-15T08:56:22Z</time>
      </trkpt>
      <trkpt lat="45.92309" lon="4.75055">
        <ele>172</ele>
        <time>2018-04-15T08:56:23Z</time>
      </trkpt>
      <trkpt lat="45.92305" lon="4.75062">
        <ele>172</ele>
        <time>2018-04-15T08:56:24Z</time>
      </trkpt>
      <trkpt lat="45.923" lon="4.75068">
        <ele>172</ele>
        <time>2018-04-15T08:56:25Z</time>
      </trkpt>
      <trkpt lat="45.92296" lon="4.75074">
        <ele>172</ele>
        <time>2018-04-15T08:56:26Z</time>
      </trkpt>
      <trkpt lat="45.92292" lon="4.7508">
        <ele>172</ele>
        <time>2018-04-15T08:56:27Z</time>
      </trkpt>
      <trkpt lat="45.92287" lon="4.75085">
        <ele>173</ele>
        <time>2018-04-15T08:56:28Z</time>
      </trkpt>
      <trkpt lat="45.92282" lon="4.75091">
        <ele>173</ele>
        <time>2018-04-15T08:56:29Z</time>
      </trkpt>
      <trkpt lat="45.92277" lon="4.75095">
        <ele>173</ele>
        <time>2018-04-15T08:56:30Z</time>
      </trkpt>
      <trkpt lat="45.92271" lon="4.751">
        <ele>173</ele>
        <time>2018-04-15T08:56:31Z</time>
      </trkpt>
      <trkpt lat="45.92266" lon="4.75106">
        <ele>174</ele>
        <time>2018-04-15T08:56:32Z</time>
      </trkpt>
      <trkpt lat="45.92261" lon="4.75112">
        <ele>174</ele>
        <time>2018-04-15T08:56:33Z</time>
      </trkpt>
      <trkpt lat="45.92256" lon="4.75116">
        <ele>174</ele>
        <time>2018-04-15T08:56:34Z</time>
      </trkpt>
      <trkpt lat="45.92251" lon="4.75122">
        <ele>174</ele>
        <time>2018-04-15T08:56:35Z</time>
      </trkpt>
      <trkpt lat="45.92247" lon="4.75128">
        <ele>174</ele>
        <time>2018-04-15T08:56:36Z</time>
      </trkpt>
      <trkpt lat="45.92243" lon="4.75135">
        <ele>174</ele>
        <time>2018-04-15T08:56:37Z</time>
      </trkpt>
      <trkpt lat="45.92239" lon="4.75141">
        <ele>174</ele>
        <time>2018-04-15T08:56:38Z</time>
      </trkpt>
      <trkpt lat="45.92235" lon="4.75147">
        <ele>174</ele>
        <time>2018-04-15T08:56:39Z</time>
      </trkpt>
      <trkpt lat="45.92231" lon="4.75154">
        <ele>174</ele>
        <time>2018-04-15T08:56:40Z</time>
      </trkpt>
      <trkpt lat="45.92229" lon="4.75165">
        <ele>174</ele>
        <time>2018-04-15T08:56:41Z</time>
      </trkpt>
      <trkpt lat="45.92226" lon="4.75172">
        <ele>175</ele>
        <time>2018-04-15T08:56:42Z</time>
      </trkpt>
      <trkpt lat="45.92223" lon="4.75179">
        <ele>175</ele>
        <time>2018-04-15T08:56:43Z</time>
      </trkpt>
      <trkpt lat="45.9222" lon="4.75185">
        <ele>175</ele>
        <time>2018-04-15T08:56:44Z</time>
      </trkpt>
      <trkpt lat="45.92218" lon="4.75194">
        <ele>175</ele>
        <time>2018-04-15T08:56:45Z</time>
      </trkpt>
      <trkpt lat="45.92217" lon="4.75202">
        <ele>175</ele>
        <time>2018-04-15T08:56:46Z</time>
      </trkpt>
      <trkpt lat="45.92216" lon="4.7521">
        <ele>175</ele>
        <time>2018-04-15T08:56:47Z</time>
      </trkpt>
      <trkpt lat="45.92215" lon="4.75218">
        <ele>175</ele>
        <time>2018-04-15T08:56:48Z</time>
      </trkpt>
      <trkpt lat="45.92215" lon="4.75228">
        <ele>175</ele>
        <time>2018-04-15T08:56:49Z</time>
      </trkpt>
      <trkpt lat="45.92214" lon="4.75235">
        <ele>175</ele>
        <time>2018-04-15T08:56:50Z</time>
      </trkpt>
      <trkpt lat="45.92213" lon="4.75245">
        <ele>175</ele>
        <time>2018-04-15T08:56:51Z</time>
      </trkpt>
      <trkpt lat="45.92213" lon="4.75253">
        <ele>175</ele>
        <time>2018-04-15T08:56:52Z</time>
      </trkpt>
      <trkpt lat="45.92212" lon="4.75262">
        <ele>176</ele>
        <time>2018-04-15T08:56:53Z</time>
      </trkpt>
      <trkpt lat="45.92211" lon="4.75268">
        <ele>176</ele>
        <time>2018-04-15T08:56:54Z</time>
      </trkpt>
      <trkpt lat="45.9221" lon="4.75276">
        <ele>176</ele>
        <time>2018-04-15T08:56:55Z</time>
      </trkpt>
      <trkpt lat="45.92209" lon="4.75283">
        <ele>176</ele>
        <time>2018-04-15T08:56:56Z</time>
      </trkpt>
      <trkpt lat="45.9221" lon="4.7529">
        <ele>176</ele>
        <time>2018-04-15T08:56:57Z</time>
      </trkpt>
      <trkpt lat="45.92207" lon="4.75297">
        <ele>176</ele>
        <time>2018-04-15T08:56:58Z</time>
      </trkpt>
      <trkpt lat="45.92207" lon="4.75305">
        <ele>176</ele>
        <time>2018-04-15T08:56:59Z</time>
      </trkpt>
      <trkpt lat="45.92206" lon="4.75313">
        <ele>176</ele>
        <time>2018-04-15T08:57:00Z</time>
      </trkpt>
      <trkpt lat="45.92207" lon="4.7532">
        <ele>176</ele>
        <time>2018-04-15T08:57:01Z</time>
      </trkpt>
      <trkpt lat="45.92207" lon="4.75327">
        <ele>176</ele>
        <time>2018-04-15T08:57:02Z</time>
      </trkpt>
      <trkpt lat="45.92207" lon="4.75334">
        <ele>177</ele>
        <time>2018-04-15T08:57:03Z</time>
      </trkpt>
      <trkpt lat="45.92205" lon="4.75341">
        <ele>177</ele>
        <time>2018-04-15T08:57:04Z</time>
      </trkpt>
      <trkpt lat="45.92205" lon="4.75348">
        <ele>177</ele>
        <time>2018-04-15T08:57:05Z</time>
      </trkpt>
      <trkpt lat="45.92203" lon="4.75355">
        <ele>177</ele>
        <time>2018-04-15T08:57:06Z</time>
      </trkpt>
      <trkpt lat="45.922" lon="4.75361">
        <ele>177</ele>
        <time>2018-04-15T08:57:07Z</time>
      </trkpt>
      <trkpt lat="45.92199" lon="4.75368">
        <ele>177</ele>
        <time>2018-04-15T08:57:08Z</time>
      </trkpt>
      <trkpt lat="45.92196" lon="4.75376">
        <ele>177</ele>
        <time>2018-04-15T08:57:09Z</time>
      </trkpt>
      <trkpt lat="45.92194" lon="4.75383">
        <ele>177</ele>
        <time>2018-04-15T08:57:10Z</time>
      </trkpt>
      <trkpt lat="45.92191" lon="4.7539">
        <ele>177</ele>
        <time>2018-04-15T08:57:11Z</time>
      </trkpt>
      <trkpt lat="45.92189" lon="4.75398">
        <ele>177</ele>
        <time>2018-04-15T08:57:12Z</time>
      </trkpt>
      <trkpt lat="45.92186" lon="4.75405">
        <ele>177</ele>
        <time>2018-04-15T08:57:13Z</time>
      </trkpt>
      <trkpt lat="45.92184" lon="4.75412">
        <ele>177</ele>
        <time>2018-04-15T08:57:14Z</time>
      </trkpt>
      <trkpt lat="45.92183" lon="4.75419">
        <ele>177</ele>
        <time>2018-04-15T08:57:15Z</time>
      </trkpt>
      <trkpt lat="45.9218" lon="4.75427">
        <ele>177</ele>
        <time>2018-04-15T08:57:16Z</time>
      </trkpt>
      <trkpt lat="45.92177" lon="4.75434">
        <ele>177</ele>
        <time>2018-04-15T08:57:17Z</time>
      </trkpt>
      <trkpt lat="45.92175" lon="4.75441">
        <ele>177</ele>
        <time>2018-04-15T08:57:18Z</time>
      </trkpt>
      <trkpt lat="45.92172" lon="4.75449">
        <ele>176</ele>
        <time>2018-04-15T08:57:19Z</time>
      </trkpt>
      <trkpt lat="45.92168" lon="4.75455">
        <ele>176</ele>
        <time>2018-04-15T08:57:20Z</time>
      </trkpt>
      <trkpt lat="45.92164" lon="4.75462">
        <ele>176</ele>
        <time>2018-04-15T08:57:21Z</time>
      </trkpt>
      <trkpt lat="45.92162" lon="4.75469">
        <ele>176</ele>
        <time>2018-04-15T08:57:22Z</time>
      </trkpt>
      <trkpt lat="45.92159" lon="4.75476">
        <ele>176</ele>
        <time>2018-04-15T08:57:23Z</time>
      </trkpt>
      <trkpt lat="45.92156" lon="4.75483">
        <ele>176</ele>
        <time>2018-04-15T08:57:24Z</time>
      </trkpt>
      <trkpt lat="45.92152" lon="4.75491">
        <ele>175</ele>
        <time>2018-04-15T08:57:25Z</time>
      </trkpt>
      <trkpt lat="45.92148" lon="4.75498">
        <ele>175</ele>
        <time>2018-04-15T08:57:26Z</time>
      </trkpt>
      <trkpt lat="45.92145" lon="4.75505">
        <ele>175</ele>
        <time>2018-04-15T08:57:27Z</time>
      </trkpt>
      <trkpt lat="45.92141" lon="4.75512">
        <ele>174</ele>
        <time>2018-04-15T08:57:28Z</time>
      </trkpt>
      <trkpt lat="45.92137" lon="4.7552">
        <ele>174</ele>
        <time>2018-04-15T08:57:29Z</time>
      </trkpt>
      <trkpt lat="45.92133" lon="4.75526">
        <ele>174</ele>
        <time>2018-04-15T08:57:30Z</time>
      </trkpt>
      <trkpt lat="45.9213" lon="4.75532">
        <ele>174</ele>
        <time>2018-04-15T08:57:31Z</time>
      </trkpt>
      <trkpt lat="45.92124" lon="4.75537">
        <ele>174</ele>
        <time>2018-04-15T08:57:32Z</time>
      </trkpt>
      <trkpt lat="45.9212" lon="4.75543">
        <ele>174</ele>
        <time>2018-04-15T08:57:33Z</time>
      </trkpt>
      <trkpt lat="45.92116" lon="4.7555">
        <ele>174</ele>
        <time>2018-04-15T08:57:34Z</time>
      </trkpt>
      <trkpt lat="45.92115" lon="4.75559">
        <ele>174</ele>
        <time>2018-04-15T08:57:35Z</time>
      </trkpt>
      <trkpt lat="45.92111" lon="4.75564">
        <ele>174</ele>
        <time>2018-04-15T08:57:36Z</time>
      </trkpt>
      <trkpt lat="45.92107" lon="4.75571">
        <ele>174</ele>
        <time>2018-04-15T08:57:37Z</time>
      </trkpt>
      <trkpt lat="45.92101" lon="4.75577">
        <ele>174</ele>
        <time>2018-04-15T08:57:38Z</time>
      </trkpt>
      <trkpt lat="45.92097" lon="4.75585">
        <ele>174</ele>
        <time>2018-04-15T08:57:39Z</time>
      </trkpt>
      <trkpt lat="45.92093" lon="4.7559">
        <ele>174</ele>
        <time>2018-04-15T08:57:40Z</time>
      </trkpt>
      <trkpt lat="45.9209" lon="4.75597">
        <ele>174</ele>
        <time>2018-04-15T08:57:41Z</time>
      </trkpt>
      <trkpt lat="45.92088" lon="4.75606">
        <ele>174</ele>
        <time>2018-04-15T08:57:42Z</time>
      </trkpt>
      <trkpt lat="45.92084" lon="4.75613">
        <ele>174</ele>
        <time>2018-04-15T08:57:43Z</time>
      </trkpt>
      <trkpt lat="45.9208" lon="4.75619">
        <ele>175</ele>
        <time>2018-04-15T08:57:44Z</time>
      </trkpt>
      <trkpt lat="45.92077" lon="4.75626">
        <ele>175</ele>
        <time>2018-04-15T08:57:45Z</time>
      </trkpt>
      <trkpt lat="45.92073" lon="4.75633">
        <ele>175</ele>
        <time>2018-04-15T08:57:46Z</time>
      </trkpt>
      <trkpt lat="45.9207" lon="4.75641">
        <ele>175</ele>
        <time>2018-04-15T08:57:47Z</time>
      </trkpt>
      <trkpt lat="45.92066" lon="4.75647">
        <ele>175</ele>
        <time>2018-04-15T08:57:48Z</time>
      </trkpt>
      <trkpt lat="45.92062" lon="4.75653">
        <ele>175</ele>
        <time>2018-04-15T08:57:49Z</time>
      </trkpt>
      <trkpt lat="45.92058" lon="4.7566">
        <ele>175</ele>
        <time>2018-04-15T08:57:50Z</time>
      </trkpt>
      <trkpt lat="45.92054" lon="4.75667">
        <ele>175</ele>
        <time>2018-04-15T08:57:51Z</time>
      </trkpt>
      <trkpt lat="45.92051" lon="4.75675">
        <ele>175</ele>
        <time>2018-04-15T08:57:52Z</time>
      </trkpt>
      <trkpt lat="45.92047" lon="4.75681">
        <ele>175</ele>
        <time>2018-04-15T08:57:53Z</time>
      </trkpt>
      <trkpt lat="45.92043" lon="4.75688">
        <ele>175</ele>
        <time>2018-04-15T08:57:54Z</time>
      </trkpt>
      <trkpt lat="45.9204" lon="4.75695">
        <ele>175</ele>
        <time>2018-04-15T08:57:55Z</time>
      </trkpt>
      <trkpt lat="45.92036" lon="4.75703">
        <ele>175</ele>
        <time>2018-04-15T08:57:56Z</time>
      </trkpt>
      <trkpt lat="45.92032" lon="4.7571">
        <ele>175</ele>
        <time>2018-04-15T08:57:57Z</time>
      </trkpt>
      <trkpt lat="45.92028" lon="4.75717">
        <ele>175</ele>
        <time>2018-04-15T08:57:58Z</time>
      </trkpt>
      <trkpt lat="45.92024" lon="4.75724">
        <ele>175</ele>
        <time>2018-04-15T08:57:59Z</time>
      </trkpt>
      <trkpt lat="45.9202" lon="4.7573">
        <ele>175</ele>
        <time>2018-04-15T08:58:00Z</time>
      </trkpt>
      <trkpt lat="45.92016" lon="4.75738">
        <ele>174</ele>
        <time>2018-04-15T08:58:01Z</time>
      </trkpt>
      <trkpt lat="45.92012" lon="4.75745">
        <ele>174</ele>
        <time>2018-04-15T08:58:02Z</time>
      </trkpt>
      <trkpt lat="45.92008" lon="4.75752">
        <ele>174</ele>
        <time>2018-04-15T08:58:03Z</time>
      </trkpt>
      <trkpt lat="45.92003" lon="4.7576">
        <ele>174</ele>
        <time>2018-04-15T08:58:04Z</time>
      </trkpt>
      <trkpt lat="45.91998" lon="4.75767">
        <ele>174</ele>
        <time>2018-04-15T08:58:05Z</time>
      </trkpt>
      <trkpt lat="45.91994" lon="4.75773">
        <ele>174</ele>
        <time>2018-04-15T08:58:06Z</time>
      </trkpt>
      <trkpt lat="45.91991" lon="4.75779">
        <ele>174</ele>
        <time>2018-04-15T08:58:07Z</time>
      </trkpt>
      <trkpt lat="45.91987" lon="4.75786">
        <ele>173</ele>
        <time>2018-04-15T08:58:08Z</time>
      </trkpt>
      <trkpt lat="45.91983" lon="4.75793">
        <ele>173</ele>
        <time>2018-04-15T08:58:09Z</time>
      </trkpt>
      <trkpt lat="45.9198" lon="4.75798">
        <ele>173</ele>
        <time>2018-04-15T08:58:10Z</time>
      </trkpt>
      <trkpt lat="45.91976" lon="4.75806">
        <ele>173</ele>
        <time>2018-04-15T08:58:11Z</time>
      </trkpt>
      <trkpt lat="45.91972" lon="4.75812">
        <ele>173</ele>
        <time>2018-04-15T08:58:12Z</time>
      </trkpt>
      <trkpt lat="45.91967" lon="4.75817">
        <ele>173</ele>
        <time>2018-04-15T08:58:13Z</time>
      </trkpt>
      <trkpt lat="45.91963" lon="4.75824">
        <ele>173</ele>
        <time>2018-04-15T08:58:14Z</time>
      </trkpt>
      <trkpt lat="45.91961" lon="4.75832">
        <ele>173</ele>
        <time>2018-04-15T08:58:15Z</time>
      </trkpt>
      <trkpt lat="45.91958" lon="4.75838">
        <ele>172</ele>
        <time>2018-04-15T08:58:16Z</time>
      </trkpt>
      <trkpt lat="45.91954" lon="4.75844">
        <ele>172</ele>
        <time>2018-04-15T08:58:17Z</time>
      </trkpt>
      <trkpt lat="45.91951" lon="4.75853">
        <ele>172</ele>
        <time>2018-04-15T08:58:18Z</time>
      </trkpt>
      <trkpt lat="45.91947" lon="4.75859">
        <ele>172</ele>
        <time>2018-04-15T08:58:19Z</time>
      </trkpt>
      <trkpt lat="45.91944" lon="4.75866">
        <ele>172</ele>
        <time>2018-04-15T08:58:20Z</time>
      </trkpt>
      <trkpt lat="45.91941" lon="4.75873">
        <ele>172</ele>
        <time>2018-04-15T08:58:21Z</time>
      </trkpt>
      <trkpt lat="45.91937" lon="4.75881">
        <ele>172</ele>
        <time>2018-04-15T08:58:22Z</time>
      </trkpt>
      <trkpt lat="45.91935" lon="4.75888">
        <ele>172</ele>
        <time>2018-04-15T08:58:23Z</time>
      </trkpt>
      <trkpt lat="45.91931" lon="4.75895">
        <ele>172</ele>
        <time>2018-04-15T08:58:24Z</time>
      </trkpt>
      <trkpt lat="45.91928" lon="4.75902">
        <ele>172</ele>
        <time>2018-04-15T08:58:25Z</time>
      </trkpt>
      <trkpt lat="45.91925" lon="4.75909">
        <ele>172</ele>
        <time>2018-04-15T08:58:26Z</time>
      </trkpt>
      <trkpt lat="45.91923" lon="4.75916">
        <ele>172</ele>
        <time>2018-04-15T08:58:27Z</time>
      </trkpt>
      <trkpt lat="45.9192" lon="4.75922">
        <ele>172</ele>
        <time>2018-04-15T08:58:28Z</time>
      </trkpt>
      <trkpt lat="45.91919" lon="4.7593">
        <ele>172</ele>
        <time>2018-04-15T08:58:29Z</time>
      </trkpt>
      <trkpt lat="45.91918" lon="4.75941">
        <ele>172</ele>
        <time>2018-04-15T08:58:30Z</time>
      </trkpt>
      <trkpt lat="45.91916" lon="4.75949">
        <ele>173</ele>
        <time>2018-04-15T08:58:31Z</time>
      </trkpt>
      <trkpt lat="45.91914" lon="4.75956">
        <ele>173</ele>
        <time>2018-04-15T08:58:32Z</time>
      </trkpt>
      <trkpt lat="45.91912" lon="4.75964">
        <ele>173</ele>
        <time>2018-04-15T08:58:33Z</time>
      </trkpt>
      <trkpt lat="45.9191" lon="4.75972">
        <ele>173</ele>
        <time>2018-04-15T08:58:34Z</time>
      </trkpt>
      <trkpt lat="45.91907" lon="4.7598">
        <ele>173</ele>
        <time>2018-04-15T08:58:35Z</time>
      </trkpt>
      <trkpt lat="45.91906" lon="4.75988">
        <ele>173</ele>
        <time>2018-04-15T08:58:36Z</time>
      </trkpt>
      <trkpt lat="45.91904" lon="4.75996">
        <ele>173</ele>
        <time>2018-04-15T08:58:37Z</time>
      </trkpt>
      <trkpt lat="45.91902" lon="4.76003">
        <ele>173</ele>
        <time>2018-04-15T08:58:38Z</time>
      </trkpt>
      <trkpt lat="45.919" lon="4.7601">
        <ele>173</ele>
        <time>2018-04-15T08:58:39Z</time>
      </trkpt>
      <trkpt lat="45.91898" lon="4.76018">
        <ele>173</ele>
        <time>2018-04-15T08:58:40Z</time>
      </trkpt>
      <trkpt lat="45.91896" lon="4.76025">
        <ele>173</ele>
        <time>2018-04-15T08:58:41Z</time>
      </trkpt>
      <trkpt lat="45.91894" lon="4.76031">
        <ele>173</ele>
        <time>2018-04-15T08:58:42Z</time>
      </trkpt>
      <trkpt lat="45.91892" lon="4.76039">
        <ele>173</ele>
        <time>2018-04-15T08:58:43Z</time>
      </trkpt>
      <trkpt lat="45.9189" lon="4.76046">
        <ele>173</ele>
        <time>2018-04-15T08:58:44Z</time>
      </trkpt>
      <trkpt lat="45.91888" lon="4.76053">
        <ele>173</ele>
        <time>2018-04-15T08:58:45Z</time>
      </trkpt>
      <trkpt lat="45.91887" lon="4.7606">
        <ele>173</ele>
        <time>2018-04-15T08:58:46Z</time>
      </trkpt>
      <trkpt lat="45.91884" lon="4.76067">
        <ele>173</ele>
        <time>2018-04-15T08:58:47Z</time>
      </trkpt>
      <trkpt lat="45.91882" lon="4.76074">
        <ele>173</ele>
        <time>2018-04-15T08:58:48Z</time>
      </trkpt>
      <trkpt lat="45.9188" lon="4.76083">
        <ele>173</ele>
        <time>2018-04-15T08:58:49Z</time>
      </trkpt>
      <trkpt lat="45.91877" lon="4.7609">
        <ele>173</ele>
        <time>2018-04-15T08:58:50Z</time>
      </trkpt>
      <trkpt lat="45.91875" lon="4.76097">
        <ele>173</ele>
        <time>2018-04-15T08:58:51Z</time>
      </trkpt>
      <trkpt lat="45.91873" lon="4.76103">
        <ele>173</ele>
        <time>2018-04-15T08:58:52Z</time>
      </trkpt>
      <trkpt lat="45.91871" lon="4.7611">
        <ele>173</ele>
        <time>2018-04-15T08:58:53Z</time>
      </trkpt>
      <trkpt lat="45.91869" lon="4.76118">
        <ele>173</ele>
        <time>2018-04-15T08:58:54Z</time>
      </trkpt>
      <trkpt lat="45.91866" lon="4.76126">
        <ele>173</ele>
        <time>2018-04-15T08:58:55Z</time>
      </trkpt>
      <trkpt lat="45.91865" lon="4.76133">
        <ele>173</ele>
        <time>2018-04-15T08:58:56Z</time>
      </trkpt>
      <trkpt lat="45.91863" lon="4.7614">
        <ele>173</ele>
        <time>2018-04-15T08:58:57Z</time>
      </trkpt>
      <trkpt lat="45.91861" lon="4.76148">
        <ele>173</ele>
        <time>2018-04-15T08:58:58Z</time>
      </trkpt>
      <trkpt lat="45.91864" lon="4.76159">
        <ele>173</ele>
        <time>2018-04-15T08:58:59Z</time>
      </trkpt>
      <trkpt lat="45.91862" lon="4.76166">
        <ele>173</ele>
        <time>2018-04-15T08:59:00Z</time>
      </trkpt>
      <trkpt lat="45.9186" lon="4.76174">
        <ele>172</ele>
        <time>2018-04-15T08:59:01Z</time>
      </trkpt>
      <trkpt lat="45.91858" lon="4.76181">
        <ele>172</ele>
        <time>2018-04-15T08:59:02Z</time>
      </trkpt>
      <trkpt lat="45.91858" lon="4.7619">
        <ele>172</ele>
        <time>2018-04-15T08:59:03Z</time>
      </trkpt>
      <trkpt lat="45.91856" lon="4.76197">
        <ele>172</ele>
        <time>2018-04-15T08:59:04Z</time>
      </trkpt>
      <trkpt lat="45.91853" lon="4.76204">
        <ele>172</ele>
        <time>2018-04-15T08:59:05Z</time>
      </trkpt>
      <trkpt lat="45.9185" lon="4.76211">
        <ele>172</ele>
        <time>2018-04-15T08:59:06Z</time>
      </trkpt>
      <trkpt lat="45.91848" lon="4.76217">
        <ele>172</ele>
        <time>2018-04-15T08:59:07Z</time>
      </trkpt>
      <trkpt lat="45.91845" lon="4.76224">
        <ele>172</ele>
        <time>2018-04-15T08:59:08Z</time>
      </trkpt>
      <trkpt lat="45.91843" lon="4.76232">
        <ele>172</ele>
        <time>2018-04-15T08:59:09Z</time>
      </trkpt>
      <trkpt lat="45.91843" lon="4.7624">
        <ele>173</ele>
        <time>2018-04-15T08:59:10Z</time>
      </trkpt>
      <trkpt lat="45.91841" lon="4.76247">
        <ele>173</ele>
        <time>2018-04-15T08:59:11Z</time>
      </trkpt>
      <trkpt lat="45.91838" lon="4.76255">
        <ele>173</ele>
        <time>2018-04-15T08:59:12Z</time>
      </trkpt>
      <trkpt lat="45.91837" lon="4.76264">
        <ele>173</ele>
        <time>2018-04-15T08:59:13Z</time>
      </trkpt>
      <trkpt lat="45.91835" lon="4.76272">
        <ele>172</ele>
        <time>2018-04-15T08:59:14Z</time>
      </trkpt>
      <trkpt lat="45.91832" lon="4.76279">
        <ele>174</ele>
        <time>2018-04-15T08:59:15Z</time>
      </trkpt>
      <trkpt lat="45.9183" lon="4.76287">
        <ele>174</ele>
        <time>2018-04-15T08:59:16Z</time>
      </trkpt>
      <trkpt lat="45.91828" lon="4.76295">
        <ele>174</ele>
        <time>2018-04-15T08:59:17Z</time>
      </trkpt>
      <trkpt lat="45.91826" lon="4.76303">
        <ele>174</ele>
        <time>2018-04-15T08:59:18Z</time>
      </trkpt>
      <trkpt lat="45.91824" lon="4.7631">
        <ele>174</ele>
        <time>2018-04-15T08:59:19Z</time>
      </trkpt>
      <trkpt lat="45.91822" lon="4.76317">
        <ele>174</ele>
        <time>2018-04-15T08:59:20Z</time>
      </trkpt>
      <trkpt lat="45.9182" lon="4.76324">
        <ele>174</ele>
        <time>2018-04-15T08:59:21Z</time>
      </trkpt>
      <trkpt lat="45.91821" lon="4.76333">
        <ele>174</ele>
        <time>2018-04-15T08:59:22Z</time>
      </trkpt>
      <trkpt lat="45.91822" lon="4.76341">
        <ele>173</ele>
        <time>2018-04-15T08:59:23Z</time>
      </trkpt>
      <trkpt lat="45.91822" lon="4.76351">
        <ele>174</ele>
        <time>2018-04-15T08:59:24Z</time>
      </trkpt>
      <trkpt lat="45.91822" lon="4.76358">
        <ele>174</ele>
        <time>2018-04-15T08:59:25Z</time>
      </trkpt>
      <trkpt lat="45.9182" lon="4.76364">
        <ele>174</ele>
        <time>2018-04-15T08:59:26Z</time>
      </trkpt>
      <trkpt lat="45.9182" lon="4.76373">
        <ele>174</ele>
        <time>2018-04-15T08:59:27Z</time>
      </trkpt>
      <trkpt lat="45.9182" lon="4.76381">
        <ele>173</ele>
        <time>2018-04-15T08:59:28Z</time>
      </trkpt>
      <trkpt lat="45.91819" lon="4.7639">
        <ele>173</ele>
        <time>2018-04-15T08:59:29Z</time>
      </trkpt>
      <trkpt lat="45.91819" lon="4.76398">
        <ele>173</ele>
        <time>2018-04-15T08:59:30Z</time>
      </trkpt>
      <trkpt lat="45.91819" lon="4.76407">
        <ele>173</ele>
        <time>2018-04-15T08:59:31Z</time>
      </trkpt>
      <trkpt lat="45.91819" lon="4.76415">
        <ele>173</ele>
        <time>2018-04-15T08:59:32Z</time>
      </trkpt>
      <trkpt lat="45.91818" lon="4.76423">
        <ele>173</ele>
        <time>2018-04-15T08:59:33Z</time>
      </trkpt>
      <trkpt lat="45.91817" lon="4.76432">
        <ele>173</ele>
        <time>2018-04-15T08:59:34Z</time>
      </trkpt>
      <trkpt lat="45.91816" lon="4.7644">
        <ele>173</ele>
        <time>2018-04-15T08:59:35Z</time>
      </trkpt>
      <trkpt lat="45.91814" lon="4.7645">
        <ele>173</ele>
        <time>2018-04-15T08:59:36Z</time>
      </trkpt>
      <trkpt lat="45.91814" lon="4.76458">
        <ele>173</ele>
        <time>2018-04-15T08:59:37Z</time>
      </trkpt>
      <trkpt lat="45.91813" lon="4.76467">
        <ele>173</ele>
        <time>2018-04-15T08:59:38Z</time>
      </trkpt>
      <trkpt lat="45.91812" lon="4.76476">
        <ele>173</ele>
        <time>2018-04-15T08:59:39Z</time>
      </trkpt>
      <trkpt lat="45.91811" lon="4.76485">
        <ele>173</ele>
        <time>2018-04-15T08:59:40Z</time>
      </trkpt>
      <trkpt lat="45.91811" lon="4.76494">
        <ele>173</ele>
        <time>2018-04-15T08:59:41Z</time>
      </trkpt>
      <trkpt lat="45.91809" lon="4.76502">
        <ele>173</ele>
        <time>2018-04-15T08:59:42Z</time>
      </trkpt>
      <trkpt lat="45.91808" lon="4.76511">
        <ele>173</ele>
        <time>2018-04-15T08:59:43Z</time>
      </trkpt>
      <trkpt lat="45.91808" lon="4.76519">
        <ele>173</ele>
        <time>2018-04-15T08:59:44Z</time>
      </trkpt>
      <trkpt lat="45.91806" lon="4.76528">
        <ele>173</ele>
        <time>2018-04-15T08:59:45Z</time>
      </trkpt>
      <trkpt lat="45.91805" lon="4.76535">
        <ele>173</ele>
        <time>2018-04-15T08:59:46Z</time>
      </trkpt>
      <trkpt lat="45.91804" lon="4.76544">
        <ele>173</ele>
        <time>2018-04-15T08:59:47Z</time>
      </trkpt>
      <trkpt lat="45.91803" lon="4.76553">
        <ele>173</ele>
        <time>2018-04-15T08:59:48Z</time>
      </trkpt>
      <trkpt lat="45.91802" lon="4.76562">
        <ele>173</ele>
        <time>2018-04-15T08:59:49Z</time>
      </trkpt>
      <trkpt lat="45.91801" lon="4.76569">
        <ele>173</ele>
        <time>2018-04-15T08:59:50Z</time>
      </trkpt>
      <trkpt lat="45.918" lon="4.76577">
        <ele>173</ele>
        <time>2018-04-15T08:59:51Z</time>
      </trkpt>
      <trkpt lat="45.918" lon="4.76584">
        <ele>173</ele>
        <time>2018-04-15T08:59:52Z</time>
      </trkpt>
      <trkpt lat="45.918" lon="4.76591">
        <ele>173</ele>
        <time>2018-04-15T08:59:53Z</time>
      </trkpt>
      <trkpt lat="45.91799" lon="4.76599">
        <ele>173</ele>
        <time>2018-04-15T08:59:54Z</time>
      </trkpt>
      <trkpt lat="45.91797" lon="4.76607">
        <ele>173</ele>
        <time>2018-04-15T08:59:55Z</time>
      </trkpt>
      <trkpt lat="45.91797" lon="4.76614">
        <ele>173</ele>
        <time>2018-04-15T08:59:56Z</time>
      </trkpt>
      <trkpt lat="45.91795" lon="4.76622">
        <ele>173</ele>
        <time>2018-04-15T08:59:57Z</time>
      </trkpt>
      <trkpt lat="45.91795" lon="4.7663">
        <ele>173</ele>
        <time>2018-04-15T08:59:58Z</time>
      </trkpt>
      <trkpt lat="45.91793" lon="4.76638">
        <ele>173</ele>
        <time>2018-04-15T08:59:59Z</time>
      </trkpt>
      <trkpt lat="45.91792" lon="4.76646">
        <ele>173</ele>
        <time>2018-04-15T09:00:00Z</time>
      </trkpt>
      <trkpt lat="45.91791" lon="4.76653">
        <ele>173</ele>
        <time>2018-04-15T09:00:01Z</time>
      </trkpt>
      <trkpt lat="45.9179" lon="4.76662">
        <ele>173</ele>
        <time>2018-04-15T09:00:02Z</time>
      </trkpt>
      <trkpt lat="45.91789" lon="4.76671">
        <ele>172</ele>
        <time>2018-04-15T09:00:03Z</time>
      </trkpt>
      <trkpt lat="45.91788" lon="4.7668">
        <ele>172</ele>
        <time>2018-04-15T09:00:04Z</time>
      </trkpt>
      <trkpt lat="45.91787" lon="4.7669">
        <ele>172</ele>
        <time>2018-04-15T09:00:05Z</time>
      </trkpt>
      <trkpt lat="45.91784" lon="4.76696">
        <ele>172</ele>
        <time>2018-04-15T09:00:06Z</time>
      </trkpt>
      <trkpt lat="45.91783" lon="4.76705">
        <ele>172</ele>
        <time>2018-04-15T09:00:07Z</time>
      </trkpt>
      <trkpt lat="45.91782" lon="4.76712">
        <ele>172</ele>
        <time>2018-04-15T09:00:08Z</time>
      </trkpt>
      <trkpt lat="45.91781" lon="4.76721">
        <ele>172</ele>
        <time>2018-04-15T09:00:09Z</time>
      </trkpt>
      <trkpt lat="45.9178" lon="4.76729">
        <ele>172</ele>
        <time>2018-04-15T09:00:10Z</time>
      </trkpt>
      <trkpt lat="45.9178" lon="4.76736">
        <ele>172</ele>
        <time>2018-04-15T09:00:11Z</time>
      </trkpt>
      <trkpt lat="45.91779" lon="4.76745">
        <ele>172</ele>
        <time>2018-04-15T09:00:12Z</time>
      </trkpt>
      <trkpt lat="45.9178" lon="4.76753">
        <ele>171</ele>
        <time>2018-04-15T09:00:13Z</time>
      </trkpt>
      <trkpt lat="45.9178" lon="4.76762">
        <ele>171</ele>
        <time>2018-04-15T09:00:14Z</time>
      </trkpt>
      <trkpt lat="45.91779" lon="4.7677">
        <ele>171</ele>
        <time>2018-04-15T09:00:15Z</time>
      </trkpt>
      <trkpt lat="45.91778" lon="4.76778">
        <ele>171</ele>
        <time>2018-04-15T09:00:16Z</time>
      </trkpt>
      <trkpt lat="45.91778" lon="4.76787">
        <ele>171</ele>
        <time>2018-04-15T09:00:17Z</time>
      </trkpt>
      <trkpt lat="45.91778" lon="4.76796">
        <ele>171</ele>
        <time>2018-04-15T09:00:18Z</time>
      </trkpt>
      <trkpt lat="45.91777" lon="4.76806">
        <ele>171</ele>
        <time>2018-04-15T09:00:19Z</time>
      </trkpt>
      <trkpt lat="45.91777" lon="4.76816">
        <ele>171</ele>
        <time>2018-04-15T09:00:20Z</time>
      </trkpt>
      <trkpt lat="45.91777" lon="4.76825">
        <ele>171</ele>
        <time>2018-04-15T09:00:21Z</time>
      </trkpt>
      <trkpt lat="45.91777" lon="4.76835">
        <ele>171</ele>
        <time>2018-04-15T09:00:22Z</time>
      </trkpt>
      <trkpt lat="45.91775" lon="4.76842">
        <ele>171</ele>
        <time>2018-04-15T09:00:23Z</time>
      </trkpt>
      <trkpt lat="45.91775" lon="4.76852">
        <ele>170</ele>
        <time>2018-04-15T09:00:24Z</time>
      </trkpt>
      <trkpt lat="45.91774" lon="4.76861">
        <ele>170</ele>
        <time>2018-04-15T09:00:25Z</time>
      </trkpt>
      <trkpt lat="45.91775" lon="4.76869">
        <ele>170</ele>
        <time>2018-04-15T09:00:26Z</time>
      </trkpt>
      <trkpt lat="45.91775" lon="4.76879">
        <ele>170</ele>
        <time>2018-04-15T09:00:27Z</time>
      </trkpt>
      <trkpt lat="45.91775" lon="4.76889">
        <ele>170</ele>
        <time>2018-04-15T09:00:28Z</time>
      </trkpt>
      <trkpt lat="45.91773" lon="4.76896">
        <ele>170</ele>
        <time>2018-04-15T09:00:29Z</time>
      </trkpt>
      <trkpt lat="45.91772" lon="4.76904">
        <ele>170</ele>
        <time>2018-04-15T09:00:30Z</time>
      </trkpt>
      <trkpt lat="45.91771" lon="4.76914">
        <ele>171</ele>
        <time>2018-04-15T09:00:31Z</time>
      </trkpt>
      <trkpt lat="45.9177" lon="4.76923">
        <ele>170</ele>
        <time>2018-04-15T09:00:32Z</time>
      </trkpt>
      <trkpt lat="45.91769" lon="4.76932">
        <ele>170</ele>
        <time>2018-04-15T09:00:33Z</time>
      </trkpt>
      <trkpt lat="45.91768" lon="4.76941">
        <ele>169</ele>
        <time>2018-04-15T09:00:34Z</time>
      </trkpt>
      <trkpt lat="45.91768" lon="4.76949">
        <ele>169</ele>
        <time>2018-04-15T09:00:35Z</time>
      </trkpt>
      <trkpt lat="45.91768" lon="4.76957">
        <ele>169</ele>
        <time>2018-04-15T09:00:36Z</time>
      </trkpt>
      <trkpt lat="45.91767" lon="4.76966">
        <ele>169</ele>
        <time>2018-04-15T09:00:37Z</time>
      </trkpt>
      <trkpt lat="45.91766" lon="4.76975">
        <ele>169</ele>
        <time>2018-04-15T09:00:38Z</time>
      </trkpt>
      <trkpt lat="45.91765" lon="4.76983">
        <ele>169</ele>
        <time>2018-04-15T09:00:39Z</time>
      </trkpt>
      <trkpt lat="45.91765" lon="4.76993">
        <ele>169</ele>
        <time>2018-04-15T09:00:40Z</time>
      </trkpt>
      <trkpt lat="45.91765" lon="4.77004">
        <ele>169</ele>
        <time>2018-04-15T09:00:41Z</time>
      </trkpt>
      <trkpt lat="45.91764" lon="4.77012">
        <ele>169</ele>
        <time>2018-04-15T09:00:42Z</time>
      </trkpt>
      <trkpt lat="45.91763" lon="4.7702">
        <ele>169</ele>
        <time>2018-04-15T09:00:43Z</time>
      </trkpt>
      <trkpt lat="45.91761" lon="4.77028">
        <ele>169</ele>
        <time>2018-04-15T09:00:44Z</time>
      </trkpt>
      <trkpt lat="45.9176" lon="4.77036">
        <ele>168</ele>
        <time>2018-04-15T09:00:45Z</time>
      </trkpt>
      <trkpt lat="45.91761" lon="4.77046">
        <ele>168</ele>
        <time>2018-04-15T09:00:46Z</time>
      </trkpt>
      <trkpt lat="45.9176" lon="4.77054">
        <ele>169</ele>
        <time>2018-04-15T09:00:47Z</time>
      </trkpt>
      <trkpt lat="45.91757" lon="4.77061">
        <ele>169</ele>
        <time>2018-04-15T09:00:48Z</time>
      </trkpt>
      <trkpt lat="45.91756" lon="4.77069">
        <ele>169</ele>
        <time>2018-04-15T09:00:49Z</time>
      </trkpt>
      <trkpt lat="45.91755" lon="4.77077">
        <ele>169</ele>
        <time>2018-04-15T09:00:50Z</time>
      </trkpt>
      <trkpt lat="45.91754" lon="4.77086">
        <ele>169</ele>
        <time>2018-04-15T09:00:51Z</time>
      </trkpt>
      <trkpt lat="45.91757" lon="4.77098">
        <ele>169</ele>
        <time>2018-04-15T09:00:52Z</time>
      </trkpt>
      <trkpt lat="45.91755" lon="4.77105">
        <ele>169</ele>
        <time>2018-04-15T09:00:53Z</time>
      </trkpt>
      <trkpt lat="45.91753" lon="4.77113">
        <ele>169</ele>
        <time>2018-04-15T09:00:54Z</time>
      </trkpt>
      <trkpt lat="45.91752" lon="4.77121">
        <ele>169</ele>
        <time>2018-04-15T09:00:55Z</time>
      </trkpt>
      <trkpt lat="45.91751" lon="4.77129">
        <ele>169</ele>
        <time>2018-04-15T09:00:56Z</time>
      </trkpt>
      <trkpt lat="45.91749" lon="4.77137">
        <ele>170</ele>
        <time>2018-04-15T09:00:57Z</time>
      </trkpt>
      <trkpt lat="45.91748" lon="4.77144">
        <ele>170</ele>
        <time>2018-04-15T09:00:58Z</time>
      </trkpt>
      <trkpt lat="45.91748" lon="4.77152">
        <ele>170</ele>
        <time>2018-04-15T09:00:59Z</time>
      </trkpt>
      <trkpt lat="45.91746" lon="4.77159">
        <ele>170</ele>
        <time>2018-04-15T09:01:00Z</time>
      </trkpt>
      <trkpt lat="45.91744" lon="4.77165">
        <ele>170</ele>
        <time>2018-04-15T09:01:01Z</time>
      </trkpt>
      <trkpt lat="45.91741" lon="4.7717">
        <ele>170</ele>
        <time>2018-04-15T09:01:02Z</time>
      </trkpt>
      <trkpt lat="45.91737" lon="4.77174">
        <ele>170</ele>
        <time>2018-04-15T09:01:03Z</time>
      </trkpt>
      <trkpt lat="45.91734" lon="4.7718">
        <ele>170</ele>
        <time>2018-04-15T09:01:04Z</time>
      </trkpt>
      <trkpt lat="45.91732" lon="4.77187">
        <ele>170</ele>
        <time>2018-04-15T09:01:05Z</time>
      </trkpt>
      <trkpt lat="45.9173" lon="4.77194">
        <ele>170</ele>
        <time>2018-04-15T09:01:06Z</time>
      </trkpt>
      <trkpt lat="45.91728" lon="4.772">
        <ele>170</ele>
        <time>2018-04-15T09:01:07Z</time>
      </trkpt>
      <trkpt lat="45.91724" lon="4.77206">
        <ele>170</ele>
        <time>2018-04-15T09:01:08Z</time>
      </trkpt>
      <trkpt lat="45.91721" lon="4.77213">
        <ele>170</ele>
        <time>2018-04-15T09:01:09Z</time>
      </trkpt>
      <trkpt lat="45.91718" lon="4.77218">
        <ele>170</ele>
        <time>2018-04-15T09:01:10Z</time>
      </trkpt>
      <trkpt lat="45.91714" lon="4.77225">
        <ele>170</ele>
        <time>2018-04-15T09:01:11Z</time>
      </trkpt>
      <trkpt lat="45.91709" lon="4.77235">
        <ele>170</ele>
        <time>2018-04-15T09:01:13Z</time>
      </trkpt>
      <trkpt lat="45.91707" lon="4.7724">
        <ele>170</ele>
        <time>2018-04-15T09:01:14Z</time>
      </trkpt>
      <trkpt lat="45.91704" lon="4.77246">
        <ele>170</ele>
        <time>2018-04-15T09:01:15Z</time>
      </trkpt>
      <trkpt lat="45.91702" lon="4.77253">
        <ele>170</ele>
        <time>2018-04-15T09:01:16Z</time>
      </trkpt>
      <trkpt lat="45.91699" lon="4.7726">
        <ele>170</ele>
        <time>2018-04-15T09:01:17Z</time>
      </trkpt>
      <trkpt lat="45.91695" lon="4.77268">
        <ele>170</ele>
        <time>2018-04-15T09:01:18Z</time>
      </trkpt>
      <trkpt lat="45.91693" lon="4.77275">
        <ele>170</ele>
        <time>2018-04-15T09:01:19Z</time>
      </trkpt>
      <trkpt lat="45.91692" lon="4.77283">
        <ele>170</ele>
        <time>2018-04-15T09:01:20Z</time>
      </trkpt>
      <trkpt lat="45.9169" lon="4.7729">
        <ele>170</ele>
        <time>2018-04-15T09:01:21Z</time>
      </trkpt>
      <trkpt lat="45.91687" lon="4.77298">
        <ele>170</ele>
        <time>2018-04-15T09:01:22Z</time>
      </trkpt>
      <trkpt lat="45.91685" lon="4.77306">
        <ele>170</ele>
        <time>2018-04-15T09:01:23Z</time>
      </trkpt>
      <trkpt lat="45.91683" lon="4.77313">
        <ele>171</ele>
        <time>2018-04-15T09:01:24Z</time>
      </trkpt>
      <trkpt lat="45.9168" lon="4.7732">
        <ele>171</ele>
        <time>2018-04-15T09:01:25Z</time>
      </trkpt>
      <trkpt lat="45.91679" lon="4.77328">
        <ele>171</ele>
        <time>2018-04-15T09:01:26Z</time>
      </trkpt>
      <trkpt lat="45.91677" lon="4.77334">
        <ele>172</ele>
        <time>2018-04-15T09:01:27Z</time>
      </trkpt>
      <trkpt lat="45.91675" lon="4.7734">
        <ele>172</ele>
        <time>2018-04-15T09:01:28Z</time>
      </trkpt>
      <trkpt lat="45.91672" lon="4.77346">
        <ele>171</ele>
        <time>2018-04-15T09:01:29Z</time>
      </trkpt>
      <trkpt lat="45.91671" lon="4.77353">
        <ele>171</ele>
        <time>2018-04-15T09:01:30Z</time>
      </trkpt>
      <trkpt lat="45.91668" lon="4.7736">
        <ele>171</ele>
        <time>2018-04-15T09:01:31Z</time>
      </trkpt>
      <trkpt lat="45.91666" lon="4.77367">
        <ele>172</ele>
        <time>2018-04-15T09:01:32Z</time>
      </trkpt>
      <trkpt lat="45.91664" lon="4.77373">
        <ele>172</ele>
        <time>2018-04-15T09:01:33Z</time>
      </trkpt>
      <trkpt lat="45.91661" lon="4.7738">
        <ele>172</ele>
        <time>2018-04-15T09:01:34Z</time>
      </trkpt>
      <trkpt lat="45.91659" lon="4.77392">
        <ele>172</ele>
        <time>2018-04-15T09:01:36Z</time>
      </trkpt>
      <trkpt lat="45.91657" lon="4.77398">
        <ele>172</ele>
        <time>2018-04-15T09:01:37Z</time>
      </trkpt>
      <trkpt lat="45.91655" lon="4.77405">
        <ele>172</ele>
        <time>2018-04-15T09:01:38Z</time>
      </trkpt>
      <trkpt lat="45.91654" lon="4.77412">
        <ele>172</ele>
        <time>2018-04-15T09:01:39Z</time>
      </trkpt>
      <trkpt lat="45.91652" lon="4.77419">
        <ele>172</ele>
        <time>2018-04-15T09:01:40Z</time>
      </trkpt>
      <trkpt lat="45.91649" lon="4.77426">
        <ele>172</ele>
        <time>2018-04-15T09:01:41Z</time>
      </trkpt>
      <trkpt lat="45.91647" lon="4.77434">
        <ele>172</ele>
        <time>2018-04-15T09:01:42Z</time>
      </trkpt>
      <trkpt lat="45.91644" lon="4.77441">
        <ele>172</ele>
        <time>2018-04-15T09:01:43Z</time>
      </trkpt>
      <trkpt lat="45.91641" lon="4.77448">
        <ele>172</ele>
        <time>2018-04-15T09:01:44Z</time>
      </trkpt>
      <trkpt lat="45.91639" lon="4.77456">
        <ele>171</ele>
        <time>2018-04-15T09:01:45Z</time>
      </trkpt>
      <trkpt lat="45.91637" lon="4.77464">
        <ele>171</ele>
        <time>2018-04-15T09:01:46Z</time>
      </trkpt>
      <trkpt lat="45.91634" lon="4.77472">
        <ele>171</ele>
        <time>2018-04-15T09:01:47Z</time>
      </trkpt>
      <trkpt lat="45.91632" lon="4.77479">
        <ele>171</ele>
        <time>2018-04-15T09:01:48Z</time>
      </trkpt>
      <trkpt lat="45.9163" lon="4.77487">
        <ele>171</ele>
        <time>2018-04-15T09:01:49Z</time>
      </trkpt>
      <trkpt lat="45.91628" lon="4.77492">
        <ele>171</ele>
        <time>2018-04-15T09:01:50Z</time>
      </trkpt>
      <trkpt lat="45.91626" lon="4.77499">
        <ele>171</ele>
        <time>2018-04-15T09:01:51Z</time>
      </trkpt>
      <trkpt lat="45.91623" lon="4.7751">
        <ele>171</ele>
        <time>2018-04-15T09:01:53Z</time>
      </trkpt>
      <trkpt lat="45.9162" lon="4.77516">
        <ele>171</ele>
        <time>2018-04-15T09:01:54Z</time>
      </trkpt>
      <trkpt lat="45.91618" lon="4.77522">
        <ele>171</ele>
        <time>2018-04-15T09:01:55Z</time>
      </trkpt>
      <trkpt lat="45.91616" lon="4.77528">
        <ele>171</ele>
        <time>2018-04-15T09:01:56Z</time>
      </trkpt>
      <trkpt lat="45.91613" lon="4.77534">
        <ele>171</ele>
        <time>2018-04-15T09:01:57Z</time>
      </trkpt>
      <trkpt lat="45.91611" lon="4.7754">
        <ele>171</ele>
        <time>2018-04-15T09:01:58Z</time>
      </trkpt>
      <trkpt lat="45.91607" lon="4.77546">
        <ele>171</ele>
        <time>2018-04-15T09:01:59Z</time>
      </trkpt>
      <trkpt lat="45.91603" lon="4.7755">
        <ele>171</ele>
        <time>2018-04-15T09:02:00Z</time>
      </trkpt>
      <trkpt lat="45.916" lon="4.77556">
        <ele>172</ele>
        <time>2018-04-15T09:02:01Z</time>
      </trkpt>
      <trkpt lat="45.91596" lon="4.77561">
        <ele>172</ele>
        <time>2018-04-15T09:02:02Z</time>
      </trkpt>
      <trkpt lat="45.91593" lon="4.77567">
        <ele>172</ele>
        <time>2018-04-15T09:02:03Z</time>
      </trkpt>
      <trkpt lat="45.9159" lon="4.77573">
        <ele>172</ele>
        <time>2018-04-15T09:02:04Z</time>
      </trkpt>
      <trkpt lat="45.91587" lon="4.77579">
        <ele>173</ele>
        <time>2018-04-15T09:02:05Z</time>
      </trkpt>
      <trkpt lat="45.91584" lon="4.77584">
        <ele>173</ele>
        <time>2018-04-15T09:02:06Z</time>
      </trkpt>
      <trkpt lat="45.91581" lon="4.7759">
        <ele>173</ele>
        <time>2018-04-15T09:02:07Z</time>
      </trkpt>
      <trkpt lat="45.91579" lon="4.77595">
        <ele>173</ele>
        <time>2018-04-15T09:02:08Z</time>
      </trkpt>
      <trkpt lat="45.91576" lon="4.776">
        <ele>173</ele>
        <time>2018-04-15T09:02:09Z</time>
      </trkpt>
      <trkpt lat="45.91573" lon="4.77605">
        <ele>174</ele>
        <time>2018-04-15T09:02:10Z</time>
      </trkpt>
      <trkpt lat="45.9157" lon="4.77611">
        <ele>174</ele>
        <time>2018-04-15T09:02:11Z</time>
      </trkpt>
      <trkpt lat="45.91567" lon="4.77616">
        <ele>174</ele>
        <time>2018-04-15T09:02:12Z</time>
      </trkpt>
      <trkpt lat="45.91561" lon="4.77625">
        <ele>174</ele>
        <time>2018-04-15T09:02:14Z</time>
      </trkpt>
      <trkpt lat="45.91558" lon="4.77629">
        <ele>174</ele>
        <time>2018-04-15T09:02:15Z</time>
      </trkpt>
      <trkpt lat="45.91552" lon="4.77638">
        <ele>174</ele>
        <time>2018-04-15T09:02:17Z</time>
      </trkpt>
      <trkpt lat="45.91549" lon="4.77643">
        <ele>174</ele>
        <time>2018-04-15T09:02:18Z</time>
      </trkpt>
      <trkpt lat="45.91544" lon="4.77652">
        <ele>174</ele>
        <time>2018-04-15T09:02:20Z</time>
      </trkpt>
      <trkpt lat="45.91543" lon="4.77657">
        <ele>174</ele>
        <time>2018-04-15T09:02:21Z</time>
      </trkpt>
      <trkpt lat="45.91539" lon="4.77662">
        <ele>174</ele>
        <time>2018-04-15T09:02:22Z</time>
      </trkpt>
      <trkpt lat="45.91536" lon="4.77666">
        <ele>174</ele>
        <time>2018-04-15T09:02:23Z</time>
      </trkpt>
      <trkpt lat="45.91532" lon="4.7767">
        <ele>175</ele>
        <time>2018-04-15T09:02:24Z</time>
      </trkpt>
      <trkpt lat="45.91529" lon="4.77676">
        <ele>175</ele>
        <time>2018-04-15T09:02:25Z</time>
      </trkpt>
      <trkpt lat="45.91524" lon="4.77685">
        <ele>175</ele>
        <time>2018-04-15T09:02:27Z</time>
      </trkpt>
      <trkpt lat="45.91522" lon="4.7769">
        <ele>176</ele>
        <time>2018-04-15T09:02:28Z</time>
      </trkpt>
      <trkpt lat="45.91515" lon="4.77694">
        <ele>176</ele>
        <time>2018-04-15T09:02:30Z</time>
      </trkpt>
      <trkpt lat="45.91513" lon="4.77695">
        <ele>176</ele>
        <time>2018-04-15T09:02:31Z</time>
      </trkpt>
      <trkpt lat="45.91506" lon="4.77695">
        <ele>176</ele>
        <time>2018-04-15T09:02:32Z</time>
      </trkpt>
      <trkpt lat="45.91502" lon="4.77696">
        <ele>176</ele>
        <time>2018-04-15T09:02:33Z</time>
      </trkpt>
      <trkpt lat="45.91494" lon="4.77699">
        <ele>177</ele>
        <time>2018-04-15T09:02:35Z</time>
      </trkpt>
      <trkpt lat="45.9149" lon="4.77697">
        <ele>177</ele>
        <time>2018-04-15T09:02:36Z</time>
      </trkpt>
      <trkpt lat="45.91485" lon="4.77699">
        <ele>177</ele>
        <time>2018-04-15T09:02:37Z</time>
      </trkpt>
      <trkpt lat="45.91479" lon="4.77699">
        <ele>177</ele>
        <time>2018-04-15T09:02:38Z</time>
      </trkpt>
      <trkpt lat="45.91475" lon="4.777">
        <ele>177</ele>
        <time>2018-04-15T09:02:39Z</time>
      </trkpt>
      <trkpt lat="45.9147" lon="4.77701">
        <ele>177</ele>
        <time>2018-04-15T09:02:40Z</time>
      </trkpt>
      <trkpt lat="45.91461" lon="4.77704">
        <ele>177</ele>
        <time>2018-04-15T09:02:42Z</time>
      </trkpt>
      <trkpt lat="45.91457" lon="4.77705">
        <ele>177</ele>
        <time>2018-04-15T09:02:43Z</time>
      </trkpt>
      <trkpt lat="45.9145" lon="4.77705">
        <ele>177</ele>
        <time>2018-04-15T09:02:45Z</time>
      </trkpt>
      <trkpt lat="45.91446" lon="4.77705">
        <ele>177</ele>
        <time>2018-04-15T09:02:46Z</time>
      </trkpt>
      <trkpt lat="45.9144" lon="4.77708">
        <ele>177</ele>
        <time>2018-04-15T09:02:48Z</time>
      </trkpt>
      <trkpt lat="45.91434" lon="4.77709">
        <ele>177</ele>
        <time>2018-04-15T09:02:49Z</time>
      </trkpt>
      <trkpt lat="45.91425" lon="4.7771">
        <ele>177</ele>
        <time>2018-04-15T09:02:51Z</time>
      </trkpt>
      <trkpt lat="45.91423" lon="4.77711">
        <ele>177</ele>
        <time>2018-04-15T09:02:52Z</time>
      </trkpt>
      <trkpt lat="45.91419" lon="4.77713">
        <ele>177</ele>
        <time>2018-04-15T09:02:53Z</time>
      </trkpt>
      <trkpt lat="45.91414" lon="4.77714">
        <ele>177</ele>
        <time>2018-04-15T09:02:54Z</time>
      </trkpt>
      <trkpt lat="45.91406" lon="4.77716">
        <ele>177</ele>
        <time>2018-04-15T09:02:56Z</time>
      </trkpt>
      <trkpt lat="45.91401" lon="4.77716">
        <ele>177</ele>
        <time>2018-04-15T09:02:57Z</time>
      </trkpt>
      <trkpt lat="45.91392" lon="4.77717">
        <ele>177</ele>
        <time>2018-04-15T09:02:59Z</time>
      </trkpt>
      <trkpt lat="45.91388" lon="4.77717">
        <ele>177</ele>
        <time>2018-04-15T09:03:00Z</time>
      </trkpt>
      <trkpt lat="45.91384" lon="4.77717">
        <ele>176</ele>
        <time>2018-04-15T09:03:01Z</time>
      </trkpt>
      <trkpt lat="45.91379" lon="4.77718">
        <ele>176</ele>
        <time>2018-04-15T09:03:02Z</time>
      </trkpt>
      <trkpt lat="45.9137" lon="4.77719">
        <ele>176</ele>
        <time>2018-04-15T09:03:04Z</time>
      </trkpt>
      <trkpt lat="45.91365" lon="4.77719">
        <ele>176</ele>
        <time>2018-04-15T09:03:05Z</time>
      </trkpt>
      <trkpt lat="45.9136" lon="4.77719">
        <ele>176</ele>
        <time>2018-04-15T09:03:06Z</time>
      </trkpt>
      <trkpt lat="45.91355" lon="4.77719">
        <ele>176</ele>
        <time>2018-04-15T09:03:07Z</time>
      </trkpt>
      <trkpt lat="45.9135" lon="4.77718">
        <ele>176</ele>
        <time>2018-04-15T09:03:08Z</time>
      </trkpt>
      <trkpt lat="45.91345" lon="4.77717">
        <ele>176</ele>
        <time>2018-04-15T09:03:09Z</time>
      </trkpt>
      <trkpt lat="45.9134" lon="4.77716">
        <ele>176</ele>
        <time>2018-04-15T09:03:10Z</time>
      </trkpt>
      <trkpt lat="45.91335" lon="4.77714">
        <ele>176</ele>
        <time>2018-04-15T09:03:11Z</time>
      </trkpt>
      <trkpt lat="45.9133" lon="4.77713">
        <ele>176</ele>
        <time>2018-04-15T09:03:12Z</time>
      </trkpt>
      <trkpt lat="45.91325" lon="4.77712">
        <ele>176</ele>
        <time>2018-04-15T09:03:13Z</time>
      </trkpt>
      <trkpt lat="45.91321" lon="4.77711">
        <ele>176</ele>
        <time>2018-04-15T09:03:14Z</time>
      </trkpt>
      <trkpt lat="45.91315" lon="4.77709">
        <ele>176</ele>
        <time>2018-04-15T09:03:15Z</time>
      </trkpt>
      <trkpt lat="45.9131" lon="4.77706">
        <ele>176</ele>
        <time>2018-04-15T09:03:16Z</time>
      </trkpt>
      <trkpt lat="45.91306" lon="4.77704">
        <ele>176</ele>
        <time>2018-04-15T09:03:17Z</time>
      </trkpt>
      <trkpt lat="45.91301" lon="4.77701">
        <ele>176</ele>
        <time>2018-04-15T09:03:18Z</time>
      </trkpt>
      <trkpt lat="45.91297" lon="4.77697">
        <ele>176</ele>
        <time>2018-04-15T09:03:19Z</time>
      </trkpt>
      <trkpt lat="45.91291" lon="4.77694">
        <ele>176</ele>
        <time>2018-04-15T09:03:20Z</time>
      </trkpt>
      <trkpt lat="45.91287" lon="4.7769">
        <ele>176</ele>
        <time>2018-04-15T09:03:21Z</time>
      </trkpt>
      <trkpt lat="45.91282" lon="4.77687">
        <ele>176</ele>
        <time>2018-04-15T09:03:22Z</time>
      </trkpt>
      <trkpt lat="45.91277" lon="4.77684">
        <ele>176</ele>
        <time>2018-04-15T09:03:23Z</time>
      </trkpt>
      <trkpt lat="45.91271" lon="4.77682">
        <ele>176</ele>
        <time>2018-04-15T09:03:25Z</time>
      </trkpt>
      <trkpt lat="45.91266" lon="4.7768">
        <ele>176</ele>
        <time>2018-04-15T09:03:26Z</time>
      </trkpt>
      <trkpt lat="45.9126" lon="4.77679">
        <ele>175</ele>
        <time>2018-04-15T09:03:27Z</time>
      </trkpt>
      <trkpt lat="45.91255" lon="4.77679">
        <ele>175</ele>
        <time>2018-04-15T09:03:28Z</time>
      </trkpt>
      <trkpt lat="45.91251" lon="4.77681">
        <ele>175</ele>
        <time>2018-04-15T09:03:29Z</time>
      </trkpt>
      <trkpt lat="45.91246" lon="4.77682">
        <ele>176</ele>
        <time>2018-04-15T09:03:30Z</time>
      </trkpt>
      <trkpt lat="45.91241" lon="4.77685">
        <ele>176</ele>
        <time>2018-04-15T09:03:31Z</time>
      </trkpt>
      <trkpt lat="45.91236" lon="4.77687">
        <ele>176</ele>
        <time>2018-04-15T09:03:32Z</time>
      </trkpt>
      <trkpt lat="45.91228" lon="4.77688">
        <ele>176</ele>
        <time>2018-04-15T09:03:34Z</time>
      </trkpt>
      <trkpt lat="45.91223" lon="4.77689">
        <ele>176</ele>
        <time>2018-04-15T09:03:35Z</time>
      </trkpt>
      <trkpt lat="45.91215" lon="4.77692">
        <ele>176</ele>
        <time>2018-04-15T09:03:37Z</time>
      </trkpt>
      <trkpt lat="45.91211" lon="4.77695">
        <ele>176</ele>
        <time>2018-04-15T09:03:38Z</time>
      </trkpt>
      <trkpt lat="45.91206" lon="4.77696">
        <ele>176</ele>
        <time>2018-04-15T09:03:39Z</time>
      </trkpt>
      <trkpt lat="45.912" lon="4.77696">
        <ele>176</ele>
        <time>2018-04-15T09:03:40Z</time>
      </trkpt>
      <trkpt lat="45.91195" lon="4.77698">
        <ele>176</ele>
        <time>2018-04-15T09:03:41Z</time>
      </trkpt>
      <trkpt lat="45.9119" lon="4.77698">
        <ele>176</ele>
        <time>2018-04-15T09:03:42Z</time>
      </trkpt>
      <trkpt lat="45.91185" lon="4.777">
        <ele>176</ele>
        <time>2018-04-15T09:03:43Z</time>
      </trkpt>
      <trkpt lat="45.91179" lon="4.77701">
        <ele>176</ele>
        <time>2018-04-15T09:03:44Z</time>
      </trkpt>
      <trkpt lat="45.91173" lon="4.77704">
        <ele>176</ele>
        <time>2018-04-15T09:03:45Z</time>
      </trkpt>
      <trkpt lat="45.91168" lon="4.77705">
        <ele>176</ele>
        <time>2018-04-15T09:03:46Z</time>
      </trkpt>
      <trkpt lat="45.91162" lon="4.77708">
        <ele>177</ele>
        <time>2018-04-15T09:03:47Z</time>
      </trkpt>
      <trkpt lat="45.91157" lon="4.77709">
        <ele>177</ele>
        <time>2018-04-15T09:03:48Z</time>
      </trkpt>
      <trkpt lat="45.91151" lon="4.77711">
        <ele>177</ele>
        <time>2018-04-15T09:03:49Z</time>
      </trkpt>
      <trkpt lat="45.91144" lon="4.77715">
        <ele>177</ele>
        <time>2018-04-15T09:03:50Z</time>
      </trkpt>
      <trkpt lat="45.9114" lon="4.77716">
        <ele>177</ele>
        <time>2018-04-15T09:03:51Z</time>
      </trkpt>
      <trkpt lat="45.91134" lon="4.77718">
        <ele>177</ele>
        <time>2018-04-15T09:03:52Z</time>
      </trkpt>
      <trkpt lat="45.91128" lon="4.7772">
        <ele>177</ele>
        <time>2018-04-15T09:03:53Z</time>
      </trkpt>
      <trkpt lat="45.91123" lon="4.77723">
        <ele>177</ele>
        <time>2018-04-15T09:03:54Z</time>
      </trkpt>
      <trkpt lat="45.91119" lon="4.77726">
        <ele>178</ele>
        <time>2018-04-15T09:03:55Z</time>
      </trkpt>
      <trkpt lat="45.91115" lon="4.7773">
        <ele>178</ele>
        <time>2018-04-15T09:03:56Z</time>
      </trkpt>
      <trkpt lat="45.91109" lon="4.77731">
        <ele>178</ele>
        <time>2018-04-15T09:03:57Z</time>
      </trkpt>
      <trkpt lat="45.91103" lon="4.77734">
        <ele>178</ele>
        <time>2018-04-15T09:03:58Z</time>
      </trkpt>
      <trkpt lat="45.91098" lon="4.77737">
        <ele>178</ele>
        <time>2018-04-15T09:03:59Z</time>
      </trkpt>
      <trkpt lat="45.91093" lon="4.7774">
        <ele>178</ele>
        <time>2018-04-15T09:04:00Z</time>
      </trkpt>
      <trkpt lat="45.91089" lon="4.77744">
        <ele>179</ele>
        <time>2018-04-15T09:04:01Z</time>
      </trkpt>
      <trkpt lat="45.91084" lon="4.77747">
        <ele>179</ele>
        <time>2018-04-15T09:04:02Z</time>
      </trkpt>
      <trkpt lat="45.9108" lon="4.7775">
        <ele>179</ele>
        <time>2018-04-15T09:04:03Z</time>
      </trkpt>
      <trkpt lat="45.91075" lon="4.77753">
        <ele>179</ele>
        <time>2018-04-15T09:04:04Z</time>
      </trkpt>
      <trkpt lat="45.9107" lon="4.77756">
        <ele>179</ele>
        <time>2018-04-15T09:04:05Z</time>
      </trkpt>
      <trkpt lat="45.91065" lon="4.7776">
        <ele>178</ele>
        <time>2018-04-15T09:04:06Z</time>
      </trkpt>
      <trkpt lat="45.91061" lon="4.77762">
        <ele>178</ele>
        <time>2018-04-15T09:04:07Z</time>
      </trkpt>
      <trkpt lat="45.91057" lon="4.77765">
        <ele>178</ele>
        <time>2018-04-15T09:04:08Z</time>
      </trkpt>
      <trkpt lat="45.91052" lon="4.77768">
        <ele>178</ele>
        <time>2018-04-15T09:04:09Z</time>
      </trkpt>
      <trkpt lat="45.91047" lon="4.7777">
        <ele>178</ele>
        <time>2018-04-15T09:04:10Z</time>
      </trkpt>
      <trkpt lat="45.91042" lon="4.77773">
        <ele>178</ele>
        <time>2018-04-15T09:04:11Z</time>
      </trkpt>
      <trkpt lat="45.91037" lon="4.77773">
        <ele>178</ele>
        <time>2018-04-15T09:04:12Z</time>
      </trkpt>
      <trkpt lat="45.91033" lon="4.77774">
        <ele>178</ele>
        <time>2018-04-15T09:04:13Z</time>
      </trkpt>
      <trkpt lat="45.91028" lon="4.77775">
        <ele>178</ele>
        <time>2018-04-15T09:04:14Z</time>
      </trkpt>
      <trkpt lat="45.91023" lon="4.77777">
        <ele>178</ele>
        <time>2018-04-15T09:04:15Z</time>
      </trkpt>
      <trkpt lat="45.91018" lon="4.77779">
        <ele>178</ele>
        <time>2018-04-15T09:04:16Z</time>
      </trkpt>
      <trkpt lat="45.91014" lon="4.77781">
        <ele>178</ele>
        <time>2018-04-15T09:04:17Z</time>
      </trkpt>
      <trkpt lat="45.91009" lon="4.77782">
        <ele>178</ele>
        <time>2018-04-15T09:04:18Z</time>
      </trkpt>
      <trkpt lat="45.91001" lon="4.77785">
        <ele>178</ele>
        <time>2018-04-15T09:04:20Z</time>
      </trkpt>
      <trkpt lat="45.90996" lon="4.77784">
        <ele>177</ele>
        <time>2018-04-15T09:04:21Z</time>
      </trkpt>
      <trkpt lat="45.9099" lon="4.77785">
        <ele>177</ele>
        <time>2018-04-15T09:04:22Z</time>
      </trkpt>
      <trkpt lat="45.90986" lon="4.77786">
        <ele>177</ele>
        <time>2018-04-15T09:04:23Z</time>
      </trkpt>
      <trkpt lat="45.90981" lon="4.77786">
        <ele>177</ele>
        <time>2018-04-15T09:04:24Z</time>
      </trkpt>
      <trkpt lat="45.90977" lon="4.77787">
        <ele>177</ele>
        <time>2018-04-15T09:04:25Z</time>
      </trkpt>
      <trkpt lat="45.90972" lon="4.77786">
        <ele>177</ele>
        <time>2018-04-15T09:04:26Z</time>
      </trkpt>
      <trkpt lat="45.90967" lon="4.77786">
        <ele>177</ele>
        <time>2018-04-15T09:04:27Z</time>
      </trkpt>
      <trkpt lat="45.9096" lon="4.7778">
        <ele>177</ele>
        <time>2018-04-15T09:04:29Z</time>
      </trkpt>
      <trkpt lat="45.90955" lon="4.77777">
        <ele>177</ele>
        <time>2018-04-15T09:04:30Z</time>
      </trkpt>
      <trkpt lat="45.90951" lon="4.77774">
        <ele>177</ele>
        <time>2018-04-15T09:04:31Z</time>
      </trkpt>
      <trkpt lat="45.90946" lon="4.77773">
        <ele>177</ele>
        <time>2018-04-15T09:04:32Z</time>
      </trkpt>
      <trkpt lat="45.90942" lon="4.77772">
        <ele>177</ele>
        <time>2018-04-15T09:04:33Z</time>
      </trkpt>
      <trkpt lat="45.90937" lon="4.7777">
        <ele>177</ele>
        <time>2018-04-15T09:04:34Z</time>
      </trkpt>
      <trkpt lat="45.90932" lon="4.77768">
        <ele>177</ele>
        <time>2018-04-15T09:04:35Z</time>
      </trkpt>
      <trkpt lat="45.90929" lon="4.77764">
        <ele>177</ele>
        <time>2018-04-15T09:04:36Z</time>
      </trkpt>
      <trkpt lat="45.90925" lon="4.77759">
        <ele>176</ele>
        <time>2018-04-15T09:04:37Z</time>
      </trkpt>
      <trkpt lat="45.90921" lon="4.77755">
        <ele>176</ele>
        <time>2018-04-15T09:04:38Z</time>
      </trkpt>
      <trkpt lat="45.90914" lon="4.77747">
        <ele>176</ele>
        <time>2018-04-15T09:04:40Z</time>
      </trkpt>
      <trkpt lat="45.90911" lon="4.77743">
        <ele>176</ele>
        <time>2018-04-15T09:04:41Z</time>
      </trkpt>
      <trkpt lat="45.90904" lon="4.77734">
        <ele>177</ele>
        <time>2018-04-15T09:04:43Z</time>
      </trkpt>
      <trkpt lat="45.90903" lon="4.7773">
        <ele>177</ele>
        <time>2018-04-15T09:04:44Z</time>
      </trkpt>
      <trkpt lat="45.90897" lon="4.77721">
        <ele>177</ele>
        <time>2018-04-15T09:04:46Z</time>
      </trkpt>
      <trkpt lat="45.90893" lon="4.77718">
        <ele>177</ele>
        <time>2018-04-15T09:04:47Z</time>
      </trkpt>
      <trkpt lat="45.90886" lon="4.77712">
        <ele>177</ele>
        <time>2018-04-15T09:04:49Z</time>
      </trkpt>
      <trkpt lat="45.90883" lon="4.77709">
        <ele>177</ele>
        <time>2018-04-15T09:04:50Z</time>
      </trkpt>
      <trkpt lat="45.90875" lon="4.77704">
        <ele>177</ele>
        <time>2018-04-15T09:04:52Z</time>
      </trkpt>
      <trkpt lat="45.90872" lon="4.77701">
        <ele>178</ele>
        <time>2018-04-15T09:04:53Z</time>
      </trkpt>
      <trkpt lat="45.90869" lon="4.77697">
        <ele>178</ele>
        <time>2018-04-15T09:04:55Z</time>
      </trkpt>
      <trkpt lat="45.90864" lon="4.77692">
        <ele>178</ele>
        <time>2018-04-15T09:04:56Z</time>
      </trkpt>
      <trkpt lat="45.90857" lon="4.77687">
        <ele>178</ele>
        <time>2018-04-15T09:04:58Z</time>
      </trkpt>
      <trkpt lat="45.90853" lon="4.77685">
        <ele>178</ele>
        <time>2018-04-15T09:04:59Z</time>
      </trkpt>
      <trkpt lat="45.90845" lon="4.77681">
        <ele>178</ele>
        <time>2018-04-15T09:05:01Z</time>
      </trkpt>
      <trkpt lat="45.90841" lon="4.7768">
        <ele>178</ele>
        <time>2018-04-15T09:05:02Z</time>
      </trkpt>
      <trkpt lat="45.90833" lon="4.77676">
        <ele>179</ele>
        <time>2018-04-15T09:05:04Z</time>
      </trkpt>
      <trkpt lat="45.90829" lon="4.77674">
        <ele>179</ele>
        <time>2018-04-15T09:05:05Z</time>
      </trkpt>
      <trkpt lat="45.90821" lon="4.77672">
        <ele>179</ele>
        <time>2018-04-15T09:05:07Z</time>
      </trkpt>
      <trkpt lat="45.90817" lon="4.77671">
        <ele>179</ele>
        <time>2018-04-15T09:05:08Z</time>
      </trkpt>
      <trkpt lat="45.90809" lon="4.77669">
        <ele>179</ele>
        <time>2018-04-15T09:05:10Z</time>
      </trkpt>
      <trkpt lat="45.90805" lon="4.77667">
        <ele>179</ele>
        <time>2018-04-15T09:05:11Z</time>
      </trkpt>
      <trkpt lat="45.90796" lon="4.77665">
        <ele>179</ele>
        <time>2018-04-15T09:05:13Z</time>
      </trkpt>
      <trkpt lat="45.90792" lon="4.77665">
        <ele>179</ele>
        <time>2018-04-15T09:05:14Z</time>
      </trkpt>
      <trkpt lat="45.90787" lon="4.77665">
        <ele>179</ele>
        <time>2018-04-15T09:05:15Z</time>
      </trkpt>
      <trkpt lat="45.90783" lon="4.77664">
        <ele>180</ele>
        <time>2018-04-15T09:05:16Z</time>
      </trkpt>
      <trkpt lat="45.90779" lon="4.77663">
        <ele>180</ele>
        <time>2018-04-15T09:05:17Z</time>
      </trkpt>
      <trkpt lat="45.90773" lon="4.77661">
        <ele>180</ele>
        <time>2018-04-15T09:05:18Z</time>
      </trkpt>
      <trkpt lat="45.90768" lon="4.77658">
        <ele>180</ele>
        <time>2018-04-15T09:05:19Z</time>
      </trkpt>
      <trkpt lat="45.90765" lon="4.77654">
        <ele>180</ele>
        <time>2018-04-15T09:05:20Z</time>
      </trkpt>
      <trkpt lat="45.90762" lon="4.7765">
        <ele>180</ele>
        <time>2018-04-15T09:05:21Z</time>
      </trkpt>
      <trkpt lat="45.90758" lon="4.77646">
        <ele>180</ele>
        <time>2018-04-15T09:05:22Z</time>
      </trkpt>
      <trkpt lat="45.90749" lon="4.77644">
        <ele>180</ele>
        <time>2018-04-15T09:05:24Z</time>
      </trkpt>
      <trkpt lat="45.90743" lon="4.77645">
        <ele>180</ele>
        <time>2018-04-15T09:05:25Z</time>
      </trkpt>
      <trkpt lat="45.90738" lon="4.77645">
        <ele>180</ele>
        <time>2018-04-15T09:05:26Z</time>
      </trkpt>
      <trkpt lat="45.90732" lon="4.77645">
        <ele>180</ele>
        <time>2018-04-15T09:05:27Z</time>
      </trkpt>
      <trkpt lat="45.90727" lon="4.77643">
        <ele>180</ele>
        <time>2018-04-15T09:05:28Z</time>
      </trkpt>
      <trkpt lat="45.90721" lon="4.77641">
        <ele>180</ele>
        <time>2018-04-15T09:05:29Z</time>
      </trkpt>
      <trkpt lat="45.90715" lon="4.77638">
        <ele>179</ele>
        <time>2018-04-15T09:05:30Z</time>
      </trkpt>
      <trkpt lat="45.9071" lon="4.77637">
        <ele>179</ele>
        <time>2018-04-15T09:05:31Z</time>
      </trkpt>
      <trkpt lat="45.90704" lon="4.77635">
        <ele>179</ele>
        <time>2018-04-15T09:05:32Z</time>
      </trkpt>
      <trkpt lat="45.90697" lon="4.77632">
        <ele>179</ele>
        <time>2018-04-15T09:05:33Z</time>
      </trkpt>
      <trkpt lat="45.9069" lon="4.77631">
        <ele>179</ele>
        <time>2018-04-15T09:05:34Z</time>
      </trkpt>
      <trkpt lat="45.90683" lon="4.77629">
        <ele>179</ele>
        <time>2018-04-15T09:05:35Z</time>
      </trkpt>
      <trkpt lat="45.90676" lon="4.77628">
        <ele>179</ele>
        <time>2018-04-15T09:05:36Z</time>
      </trkpt>
      <trkpt lat="45.9067" lon="4.77626">
        <ele>179</ele>
        <time>2018-04-15T09:05:37Z</time>
      </trkpt>
      <trkpt lat="45.90663" lon="4.77625">
        <ele>179</ele>
        <time>2018-04-15T09:05:38Z</time>
      </trkpt>
      <trkpt lat="45.90656" lon="4.77624">
        <ele>179</ele>
        <time>2018-04-15T09:05:39Z</time>
      </trkpt>
      <trkpt lat="45.90649" lon="4.77624">
        <ele>179</ele>
        <time>2018-04-15T09:05:40Z</time>
      </trkpt>
      <trkpt lat="45.90642" lon="4.77624">
        <ele>179</ele>
        <time>2018-04-15T09:05:41Z</time>
      </trkpt>
      <trkpt lat="45.90635" lon="4.77623">
        <ele>179</ele>
        <time>2018-04-15T09:05:42Z</time>
      </trkpt>
      <trkpt lat="45.90628" lon="4.77624">
        <ele>179</ele>
        <time>2018-04-15T09:05:43Z</time>
      </trkpt>
      <trkpt lat="45.90621" lon="4.77624">
        <ele>179</ele>
        <time>2018-04-15T09:05:44Z</time>
      </trkpt>
      <trkpt lat="45.90614" lon="4.77625">
        <ele>179</ele>
        <time>2018-04-15T09:05:45Z</time>
      </trkpt>
      <trkpt lat="45.90607" lon="4.77626">
        <ele>179</ele>
        <time>2018-04-15T09:05:46Z</time>
      </trkpt>
      <trkpt lat="45.906" lon="4.77627">
        <ele>179</ele>
        <time>2018-04-15T09:05:47Z</time>
      </trkpt>
      <trkpt lat="45.90593" lon="4.77628">
        <ele>179</ele>
        <time>2018-04-15T09:05:48Z</time>
      </trkpt>
      <trkpt lat="45.90586" lon="4.77631">
        <ele>179</ele>
        <time>2018-04-15T09:05:49Z</time>
      </trkpt>
      <trkpt lat="45.90577" lon="4.77633">
        <ele>178</ele>
        <time>2018-04-15T09:05:50Z</time>
      </trkpt>
      <trkpt lat="45.9057" lon="4.77634">
        <ele>178</ele>
        <time>2018-04-15T09:05:51Z</time>
      </trkpt>
      <trkpt lat="45.90563" lon="4.77635">
        <ele>178</ele>
        <time>2018-04-15T09:05:52Z</time>
      </trkpt>
      <trkpt lat="45.90557" lon="4.77637">
        <ele>178</ele>
        <time>2018-04-15T09:05:53Z</time>
      </trkpt>
      <trkpt lat="45.9055" lon="4.77638">
        <ele>178</ele>
        <time>2018-04-15T09:05:54Z</time>
      </trkpt>
      <trkpt lat="45.90544" lon="4.77639">
        <ele>178</ele>
        <time>2018-04-15T09:05:55Z</time>
      </trkpt>
      <trkpt lat="45.90538" lon="4.7764">
        <ele>178</ele>
        <time>2018-04-15T09:05:56Z</time>
      </trkpt>
      <trkpt lat="45.90531" lon="4.77642">
        <ele>178</ele>
        <time>2018-04-15T09:05:57Z</time>
      </trkpt>
      <trkpt lat="45.90525" lon="4.77643">
        <ele>178</ele>
        <time>2018-04-15T09:05:58Z</time>
      </trkpt>
      <trkpt lat="45.90518" lon="4.77643">
        <ele>178</ele>
        <time>2018-04-15T09:05:59Z</time>
      </trkpt>
      <trkpt lat="45.90511" lon="4.77645">
        <ele>178</ele>
        <time>2018-04-15T09:06:00Z</time>
      </trkpt>
      <trkpt lat="45.90504" lon="4.77646">
        <ele>178</ele>
        <time>2018-04-15T09:06:01Z</time>
      </trkpt>
      <trkpt lat="45.90497" lon="4.77646">
        <ele>179</ele>
        <time>2018-04-15T09:06:02Z</time>
      </trkpt>
      <trkpt lat="45.9049" lon="4.77647">
        <ele>179</ele>
        <time>2018-04-15T09:06:03Z</time>
      </trkpt>
      <trkpt lat="45.90484" lon="4.77648">
        <ele>179</ele>
        <time>2018-04-15T09:06:04Z</time>
      </trkpt>
      <trkpt lat="45.90477" lon="4.77649">
        <ele>179</ele>
        <time>2018-04-15T09:06:05Z</time>
      </trkpt>
      <trkpt lat="45.90471" lon="4.7765">
        <ele>179</ele>
        <time>2018-04-15T09:06:06Z</time>
      </trkpt>
      <trkpt lat="45.90464" lon="4.77651">
        <ele>179</ele>
        <time>2018-04-15T09:06:07Z</time>
      </trkpt>
      <trkpt lat="45.90458" lon="4.77652">
        <ele>179</ele>
        <time>2018-04-15T09:06:08Z</time>
      </trkpt>
      <trkpt lat="45.90451" lon="4.77652">
        <ele>179</ele>
        <time>2018-04-15T09:06:09Z</time>
      </trkpt>
      <trkpt lat="45.90445" lon="4.77653">
        <ele>179</ele>
        <time>2018-04-15T09:06:10Z</time>
      </trkpt>
      <trkpt lat="45.90439" lon="4.77654">
        <ele>180</ele>
        <time>2018-04-15T09:06:11Z</time>
      </trkpt>
      <trkpt lat="45.90433" lon="4.77655">
        <ele>180</ele>
        <time>2018-04-15T09:06:12Z</time>
      </trkpt>
      <trkpt lat="45.90427" lon="4.77655">
        <ele>180</ele>
        <time>2018-04-15T09:06:13Z</time>
      </trkpt>
      <trkpt lat="45.90422" lon="4.77656">
        <ele>180</ele>
        <time>2018-04-15T09:06:14Z</time>
      </trkpt>
      <trkpt lat="45.90416" lon="4.77657">
        <ele>181</ele>
        <time>2018-04-15T09:06:15Z</time>
      </trkpt>
      <trkpt lat="45.90409" lon="4.77657">
        <ele>181</ele>
        <time>2018-04-15T09:06:16Z</time>
      </trkpt>
      <trkpt lat="45.90402" lon="4.77658">
        <ele>181</ele>
        <time>2018-04-15T09:06:17Z</time>
      </trkpt>
      <trkpt lat="45.90396" lon="4.77659">
        <ele>181</ele>
        <time>2018-04-15T09:06:18Z</time>
      </trkpt>
      <trkpt lat="45.9039" lon="4.7766">
        <ele>181</ele>
        <time>2018-04-15T09:06:19Z</time>
      </trkpt>
      <trkpt lat="45.90383" lon="4.77661">
        <ele>181</ele>
        <time>2018-04-15T09:06:20Z</time>
      </trkpt>
      <trkpt lat="45.90379" lon="4.77662">
        <ele>181</ele>
        <time>2018-04-15T09:06:21Z</time>
      </trkpt>
      <trkpt lat="45.90373" lon="4.77662">
        <ele>181</ele>
        <time>2018-04-15T09:06:22Z</time>
      </trkpt>
      <trkpt lat="45.90367" lon="4.77663">
        <ele>181</ele>
        <time>2018-04-15T09:06:23Z</time>
      </trkpt>
      <trkpt lat="45.90361" lon="4.77664">
        <ele>181</ele>
        <time>2018-04-15T09:06:24Z</time>
      </trkpt>
      <trkpt lat="45.90355" lon="4.77665">
        <ele>181</ele>
        <time>2018-04-15T09:06:25Z</time>
      </trkpt>
      <trkpt lat="45.90349" lon="4.77664">
        <ele>181</ele>
        <time>2018-04-15T09:06:26Z</time>
      </trkpt>
      <trkpt lat="45.90344" lon="4.77665">
        <ele>181</ele>
        <time>2018-04-15T09:06:27Z</time>
      </trkpt>
      <trkpt lat="45.9034" lon="4.77665">
        <ele>182</ele>
        <time>2018-04-15T09:06:28Z</time>
      </trkpt>
      <trkpt lat="45.90334" lon="4.77666">
        <ele>182</ele>
        <time>2018-04-15T09:06:29Z</time>
      </trkpt>
      <trkpt lat="45.9033" lon="4.77666">
        <ele>182</ele>
        <time>2018-04-15T09:06:30Z</time>
      </trkpt>
      <trkpt lat="45.90324" lon="4.77666">
        <ele>182</ele>
        <time>2018-04-15T09:06:31Z</time>
      </trkpt>
      <trkpt lat="45.90319" lon="4.77669">
        <ele>182</ele>
        <time>2018-04-15T09:06:32Z</time>
      </trkpt>
      <trkpt lat="45.90314" lon="4.7767">
        <ele>182</ele>
        <time>2018-04-15T09:06:33Z</time>
      </trkpt>
      <trkpt lat="45.90308" lon="4.7767">
        <ele>182</ele>
        <time>2018-04-15T09:06:34Z</time>
      </trkpt>
      <trkpt lat="45.90302" lon="4.77671">
        <ele>182</ele>
        <time>2018-04-15T09:06:35Z</time>
      </trkpt>
      <trkpt lat="45.90298" lon="4.77671">
        <ele>182</ele>
        <time>2018-04-15T09:06:36Z</time>
      </trkpt>
      <trkpt lat="45.90292" lon="4.77672">
        <ele>182</ele>
        <time>2018-04-15T09:06:37Z</time>
      </trkpt>
      <trkpt lat="45.90287" lon="4.77671">
        <ele>182</ele>
        <time>2018-04-15T09:06:38Z</time>
      </trkpt>
      <trkpt lat="45.90281" lon="4.7767">
        <ele>182</ele>
        <time>2018-04-15T09:06:39Z</time>
      </trkpt>
      <trkpt lat="45.90275" lon="4.7767">
        <ele>182</ele>
        <time>2018-04-15T09:06:40Z</time>
      </trkpt>
      <trkpt lat="45.90271" lon="4.7767">
        <ele>182</ele>
        <time>2018-04-15T09:06:41Z</time>
      </trkpt>
      <trkpt lat="45.90266" lon="4.77671">
        <ele>182</ele>
        <time>2018-04-15T09:06:42Z</time>
      </trkpt>
      <trkpt lat="45.90261" lon="4.77671">
        <ele>182</ele>
        <time>2018-04-15T09:06:43Z</time>
      </trkpt>
      <trkpt lat="45.90255" lon="4.77671">
        <ele>182</ele>
        <time>2018-04-15T09:06:44Z</time>
      </trkpt>
      <trkpt lat="45.90249" lon="4.77672">
        <ele>182</ele>
        <time>2018-04-15T09:06:45Z</time>
      </trkpt>
      <trkpt lat="45.90243" lon="4.77672">
        <ele>183</ele>
        <time>2018-04-15T09:06:46Z</time>
      </trkpt>
      <trkpt lat="45.90237" lon="4.77671">
        <ele>183</ele>
        <time>2018-04-15T09:06:47Z</time>
      </trkpt>
      <trkpt lat="45.90231" lon="4.77672">
        <ele>183</ele>
        <time>2018-04-15T09:06:48Z</time>
      </trkpt>
      <trkpt lat="45.90225" lon="4.77672">
        <ele>184</ele>
        <time>2018-04-15T09:06:49Z</time>
      </trkpt>
      <trkpt lat="45.90219" lon="4.77672">
        <ele>184</ele>
        <time>2018-04-15T09:06:50Z</time>
      </trkpt>
      <trkpt lat="45.90212" lon="4.77673">
        <ele>184</ele>
        <time>2018-04-15T09:06:51Z</time>
      </trkpt>
      <trkpt lat="45.90208" lon="4.77673">
        <ele>184</ele>
        <time>2018-04-15T09:06:52Z</time>
      </trkpt>
      <trkpt lat="45.90201" lon="4.77673">
        <ele>184</ele>
        <time>2018-04-15T09:06:53Z</time>
      </trkpt>
      <trkpt lat="45.90196" lon="4.77673">
        <ele>184</ele>
        <time>2018-04-15T09:06:54Z</time>
      </trkpt>
      <trkpt lat="45.9019" lon="4.77673">
        <ele>185</ele>
        <time>2018-04-15T09:06:55Z</time>
      </trkpt>
      <trkpt lat="45.90184" lon="4.77673">
        <ele>185</ele>
        <time>2018-04-15T09:06:56Z</time>
      </trkpt>
      <trkpt lat="45.90178" lon="4.77673">
        <ele>185</ele>
        <time>2018-04-15T09:06:57Z</time>
      </trkpt>
      <trkpt lat="45.90172" lon="4.77673">
        <ele>185</ele>
        <time>2018-04-15T09:06:58Z</time>
      </trkpt>
      <trkpt lat="45.90167" lon="4.77672">
        <ele>185</ele>
        <time>2018-04-15T09:06:59Z</time>
      </trkpt>
      <trkpt lat="45.90161" lon="4.77672">
        <ele>185</ele>
        <time>2018-04-15T09:07:00Z</time>
      </trkpt>
      <trkpt lat="45.90155" lon="4.77672">
        <ele>185</ele>
        <time>2018-04-15T09:07:01Z</time>
      </trkpt>
      <trkpt lat="45.9015" lon="4.77672">
        <ele>185</ele>
        <time>2018-04-15T09:07:02Z</time>
      </trkpt>
      <trkpt lat="45.90144" lon="4.77671">
        <ele>185</ele>
        <time>2018-04-15T09:07:03Z</time>
      </trkpt>
      <trkpt lat="45.90139" lon="4.77671">
        <ele>185</ele>
        <time>2018-04-15T09:07:04Z</time>
      </trkpt>
      <trkpt lat="45.90133" lon="4.7767">
        <ele>185</ele>
        <time>2018-04-15T09:07:05Z</time>
      </trkpt>
      <trkpt lat="45.90127" lon="4.77669">
        <ele>185</ele>
        <time>2018-04-15T09:07:06Z</time>
      </trkpt>
      <trkpt lat="45.90121" lon="4.77669">
        <ele>184</ele>
        <time>2018-04-15T09:07:07Z</time>
      </trkpt>
      <trkpt lat="45.90114" lon="4.77669">
        <ele>184</ele>
        <time>2018-04-15T09:07:08Z</time>
      </trkpt>
      <trkpt lat="45.90108" lon="4.7767">
        <ele>184</ele>
        <time>2018-04-15T09:07:09Z</time>
      </trkpt>
      <trkpt lat="45.90103" lon="4.7767">
        <ele>184</ele>
        <time>2018-04-15T09:07:10Z</time>
      </trkpt>
      <trkpt lat="45.90098" lon="4.77672">
        <ele>184</ele>
        <time>2018-04-15T09:07:11Z</time>
      </trkpt>
      <trkpt lat="45.90092" lon="4.77672">
        <ele>184</ele>
        <time>2018-04-15T09:07:12Z</time>
      </trkpt>
      <trkpt lat="45.90087" lon="4.77672">
        <ele>183</ele>
        <time>2018-04-15T09:07:13Z</time>
      </trkpt>
      <trkpt lat="45.90081" lon="4.77672">
        <ele>183</ele>
        <time>2018-04-15T09:07:14Z</time>
      </trkpt>
      <trkpt lat="45.90076" lon="4.77672">
        <ele>184</ele>
        <time>2018-04-15T09:07:15Z</time>
      </trkpt>
      <trkpt lat="45.90071" lon="4.77671">
        <ele>184</ele>
        <time>2018-04-15T09:07:16Z</time>
      </trkpt>
      <trkpt lat="45.90065" lon="4.77671">
        <ele>184</ele>
        <time>2018-04-15T09:07:17Z</time>
      </trkpt>
      <trkpt lat="45.9006" lon="4.77671">
        <ele>184</ele>
        <time>2018-04-15T09:07:18Z</time>
      </trkpt>
      <trkpt lat="45.90053" lon="4.77671">
        <ele>184</ele>
        <time>2018-04-15T09:07:19Z</time>
      </trkpt>
      <trkpt lat="45.90047" lon="4.77671">
        <ele>185</ele>
        <time>2018-04-15T09:07:20Z</time>
      </trkpt>
      <trkpt lat="45.90042" lon="4.7767">
        <ele>185</ele>
        <time>2018-04-15T09:07:21Z</time>
      </trkpt>
      <trkpt lat="45.90037" lon="4.77668">
        <ele>185</ele>
        <time>2018-04-15T09:07:22Z</time>
      </trkpt>
      <trkpt lat="45.90031" lon="4.77668">
        <ele>185</ele>
        <time>2018-04-15T09:07:23Z</time>
      </trkpt>
      <trkpt lat="45.90025" lon="4.77668">
        <ele>185</ele>
        <time>2018-04-15T09:07:24Z</time>
      </trkpt>
      <trkpt lat="45.90019" lon="4.77667">
        <ele>185</ele>
        <time>2018-04-15T09:07:25Z</time>
      </trkpt>
      <trkpt lat="45.90013" lon="4.77666">
        <ele>185</ele>
        <time>2018-04-15T09:07:26Z</time>
      </trkpt>
      <trkpt lat="45.90009" lon="4.77666">
        <ele>185</ele>
        <time>2018-04-15T09:07:27Z</time>
      </trkpt>
      <trkpt lat="45.90004" lon="4.77665">
        <ele>186</ele>
        <time>2018-04-15T09:07:28Z</time>
      </trkpt>
      <trkpt lat="45.89997" lon="4.77666">
        <ele>186</ele>
        <time>2018-04-15T09:07:29Z</time>
      </trkpt>
      <trkpt lat="45.89991" lon="4.77665">
        <ele>186</ele>
        <time>2018-04-15T09:07:30Z</time>
      </trkpt>
      <trkpt lat="45.89985" lon="4.77666">
        <ele>185</ele>
        <time>2018-04-15T09:07:31Z</time>
      </trkpt>
      <trkpt lat="45.8998" lon="4.77666">
        <ele>185</ele>
        <time>2018-04-15T09:07:32Z</time>
      </trkpt>
      <trkpt lat="45.89975" lon="4.77662">
        <ele>185</ele>
        <time>2018-04-15T09:07:33Z</time>
      </trkpt>
      <trkpt lat="45.89969" lon="4.77662">
        <ele>185</ele>
        <time>2018-04-15T09:07:34Z</time>
      </trkpt>
      <trkpt lat="45.89963" lon="4.77662">
        <ele>185</ele>
        <time>2018-04-15T09:07:35Z</time>
      </trkpt>
      <trkpt lat="45.89957" lon="4.77663">
        <ele>185</ele>
        <time>2018-04-15T09:07:36Z</time>
      </trkpt>
      <trkpt lat="45.89952" lon="4.77662">
        <ele>185</ele>
        <time>2018-04-15T09:07:37Z</time>
      </trkpt>
      <trkpt lat="45.89948" lon="4.77663">
        <ele>185</ele>
        <time>2018-04-15T09:07:38Z</time>
      </trkpt>
      <trkpt lat="45.89943" lon="4.77665">
        <ele>186</ele>
        <time>2018-04-15T09:07:39Z</time>
      </trkpt>
      <trkpt lat="45.89937" lon="4.77661">
        <ele>186</ele>
        <time>2018-04-15T09:07:41Z</time>
      </trkpt>
      <trkpt lat="45.89927" lon="4.77662">
        <ele>186</ele>
        <time>2018-04-15T09:07:42Z</time>
      </trkpt>
      <trkpt lat="45.89919" lon="4.77662">
        <ele>187</ele>
        <time>2018-04-15T09:07:44Z</time>
      </trkpt>
      <trkpt lat="45.89912" lon="4.77662">
        <ele>187</ele>
        <time>2018-04-15T09:07:45Z</time>
      </trkpt>
      <trkpt lat="45.89907" lon="4.77663">
        <ele>186</ele>
        <time>2018-04-15T09:07:46Z</time>
      </trkpt>
      <trkpt lat="45.89902" lon="4.77663">
        <ele>186</ele>
        <time>2018-04-15T09:07:47Z</time>
      </trkpt>
      <trkpt lat="45.89897" lon="4.77663">
        <ele>186</ele>
        <time>2018-04-15T09:07:48Z</time>
      </trkpt>
      <trkpt lat="45.89892" lon="4.77663">
        <ele>186</ele>
        <time>2018-04-15T09:07:49Z</time>
      </trkpt>
      <trkpt lat="45.89887" lon="4.77664">
        <ele>186</ele>
        <time>2018-04-15T09:07:50Z</time>
      </trkpt>
      <trkpt lat="45.89883" lon="4.77663">
        <ele>186</ele>
        <time>2018-04-15T09:07:51Z</time>
      </trkpt>
      <trkpt lat="45.89874" lon="4.77661">
        <ele>186</ele>
        <time>2018-04-15T09:07:53Z</time>
      </trkpt>
      <trkpt lat="45.8987" lon="4.77661">
        <ele>186</ele>
        <time>2018-04-15T09:07:54Z</time>
      </trkpt>
      <trkpt lat="45.89862" lon="4.77662">
        <ele>187</ele>
        <time>2018-04-15T09:07:56Z</time>
      </trkpt>
      <trkpt lat="45.89859" lon="4.77663">
        <ele>187</ele>
        <time>2018-04-15T09:07:57Z</time>
      </trkpt>
      <trkpt lat="45.89851" lon="4.77663">
        <ele>187</ele>
        <time>2018-04-15T09:07:59Z</time>
      </trkpt>
      <trkpt lat="45.89847" lon="4.77663">
        <ele>187</ele>
        <time>2018-04-15T09:08:00Z</time>
      </trkpt>
      <trkpt lat="45.8984" lon="4.77662">
        <ele>188</ele>
        <time>2018-04-15T09:08:02Z</time>
      </trkpt>
      <trkpt lat="45.89836" lon="4.77662">
        <ele>188</ele>
        <time>2018-04-15T09:08:03Z</time>
      </trkpt>
      <trkpt lat="45.89828" lon="4.77661">
        <ele>189</ele>
        <time>2018-04-15T09:08:05Z</time>
      </trkpt>
      <trkpt lat="45.89824" lon="4.77661">
        <ele>189</ele>
        <time>2018-04-15T09:08:06Z</time>
      </trkpt>
      <trkpt lat="45.89818" lon="4.77661">
        <ele>188</ele>
        <time>2018-04-15T09:08:08Z</time>
      </trkpt>
      <trkpt lat="45.89813" lon="4.77662">
        <ele>188</ele>
        <time>2018-04-15T09:08:09Z</time>
      </trkpt>
      <trkpt lat="45.89807" lon="4.77662">
        <ele>188</ele>
        <time>2018-04-15T09:08:11Z</time>
      </trkpt>
      <trkpt lat="45.89801" lon="4.77661">
        <ele>189</ele>
        <time>2018-04-15T09:08:12Z</time>
      </trkpt>
      <trkpt lat="45.89794" lon="4.77661">
        <ele>189</ele>
        <time>2018-04-15T09:08:15Z</time>
      </trkpt>
      <trkpt lat="45.89792" lon="4.77661">
        <ele>189</ele>
        <time>2018-04-15T09:08:16Z</time>
      </trkpt>
      <trkpt lat="45.89785" lon="4.7766">
        <ele>189</ele>
        <time>2018-04-15T09:08:18Z</time>
      </trkpt>
      <trkpt lat="45.89776" lon="4.77659">
        <ele>189</ele>
        <time>2018-04-15T09:08:19Z</time>
      </trkpt>
      <trkpt lat="45.8977" lon="4.77658">
        <ele>190</ele>
        <time>2018-04-15T09:08:21Z</time>
      </trkpt>
      <trkpt lat="45.89765" lon="4.77657">
        <ele>190</ele>
        <time>2018-04-15T09:08:22Z</time>
      </trkpt>
      <trkpt lat="45.89756" lon="4.77655">
        <ele>190</ele>
        <time>2018-04-15T09:08:24Z</time>
      </trkpt>
      <trkpt lat="45.89752" lon="4.77655">
        <ele>190</ele>
        <time>2018-04-15T09:08:25Z</time>
      </trkpt>
      <trkpt lat="45.89747" lon="4.77654">
        <ele>191</ele>
        <time>2018-04-15T09:08:26Z</time>
      </trkpt>
      <trkpt lat="45.89742" lon="4.77654">
        <ele>191</ele>
        <time>2018-04-15T09:08:27Z</time>
      </trkpt>
      <trkpt lat="45.89737" lon="4.77655">
        <ele>191</ele>
        <time>2018-04-15T09:08:28Z</time>
      </trkpt>
      <trkpt lat="45.89733" lon="4.77654">
        <ele>191</ele>
        <time>2018-04-15T09:08:29Z</time>
      </trkpt>
      <trkpt lat="45.89728" lon="4.77652">
        <ele>190</ele>
        <time>2018-04-15T09:08:30Z</time>
      </trkpt>
      <trkpt lat="45.89724" lon="4.77651">
        <ele>190</ele>
        <time>2018-04-15T09:08:31Z</time>
      </trkpt>
      <trkpt lat="45.89716" lon="4.77649">
        <ele>190</ele>
        <time>2018-04-15T09:08:33Z</time>
      </trkpt>
      <trkpt lat="45.89711" lon="4.77649">
        <ele>190</ele>
        <time>2018-04-15T09:08:34Z</time>
      </trkpt>
      <trkpt lat="45.89706" lon="4.77648">
        <ele>190</ele>
        <time>2018-04-15T09:08:35Z</time>
      </trkpt>
      <trkpt lat="45.89702" lon="4.77647">
        <ele>190</ele>
        <time>2018-04-15T09:08:36Z</time>
      </trkpt>
      <trkpt lat="45.89697" lon="4.77646">
        <ele>190</ele>
        <time>2018-04-15T09:08:37Z</time>
      </trkpt>
      <trkpt lat="45.89692" lon="4.77646">
        <ele>190</ele>
        <time>2018-04-15T09:08:38Z</time>
      </trkpt>
      <trkpt lat="45.89688" lon="4.77645">
        <ele>190</ele>
        <time>2018-04-15T09:08:39Z</time>
      </trkpt>
      <trkpt lat="45.89682" lon="4.77644">
        <ele>190</ele>
        <time>2018-04-15T09:08:40Z</time>
      </trkpt>
      <trkpt lat="45.89674" lon="4.77643">
        <ele>190</ele>
        <time>2018-04-15T09:08:42Z</time>
      </trkpt>
      <trkpt lat="45.89669" lon="4.77643">
        <ele>190</ele>
        <time>2018-04-15T09:08:43Z</time>
      </trkpt>
      <trkpt lat="45.89665" lon="4.77641">
        <ele>190</ele>
        <time>2018-04-15T09:08:44Z</time>
      </trkpt>
      <trkpt lat="45.8966" lon="4.77641">
        <ele>190</ele>
        <time>2018-04-15T09:08:45Z</time>
      </trkpt>
      <trkpt lat="45.89652" lon="4.7764">
        <ele>190</ele>
        <time>2018-04-15T09:08:47Z</time>
      </trkpt>
      <trkpt lat="45.89646" lon="4.77639">
        <ele>190</ele>
        <time>2018-04-15T09:08:48Z</time>
      </trkpt>
      <trkpt lat="45.89642" lon="4.77638">
        <ele>190</ele>
        <time>2018-04-15T09:08:49Z</time>
      </trkpt>
      <trkpt lat="45.89637" lon="4.77638">
        <ele>190</ele>
        <time>2018-04-15T09:08:50Z</time>
      </trkpt>
      <trkpt lat="45.89632" lon="4.77637">
        <ele>190</ele>
        <time>2018-04-15T09:08:51Z</time>
      </trkpt>
      <trkpt lat="45.89627" lon="4.77637">
        <ele>191</ele>
        <time>2018-04-15T09:08:52Z</time>
      </trkpt>
      <trkpt lat="45.89619" lon="4.77636">
        <ele>191</ele>
        <time>2018-04-15T09:08:54Z</time>
      </trkpt>
      <trkpt lat="45.89615" lon="4.77635">
        <ele>191</ele>
        <time>2018-04-15T09:08:55Z</time>
      </trkpt>
      <trkpt lat="45.89606" lon="4.77633">
        <ele>191</ele>
        <time>2018-04-15T09:08:57Z</time>
      </trkpt>
      <trkpt lat="45.89601" lon="4.77632">
        <ele>191</ele>
        <time>2018-04-15T09:08:58Z</time>
      </trkpt>
      <trkpt lat="45.89596" lon="4.77632">
        <ele>191</ele>
        <time>2018-04-15T09:08:59Z</time>
      </trkpt>
      <trkpt lat="45.89591" lon="4.77631">
        <ele>191</ele>
        <time>2018-04-15T09:09:00Z</time>
      </trkpt>
      <trkpt lat="45.89587" lon="4.7763">
        <ele>191</ele>
        <time>2018-04-15T09:09:01Z</time>
      </trkpt>
      <trkpt lat="45.89582" lon="4.77629">
        <ele>192</ele>
        <time>2018-04-15T09:09:02Z</time>
      </trkpt>
      <trkpt lat="45.89578" lon="4.77629">
        <ele>192</ele>
        <time>2018-04-15T09:09:03Z</time>
      </trkpt>
      <trkpt lat="45.89573" lon="4.77628">
        <ele>192</ele>
        <time>2018-04-15T09:09:04Z</time>
      </trkpt>
      <trkpt lat="45.89569" lon="4.77627">
        <ele>192</ele>
        <time>2018-04-15T09:09:05Z</time>
      </trkpt>
      <trkpt lat="45.89563" lon="4.77625">
        <ele>192</ele>
        <time>2018-04-15T09:09:06Z</time>
      </trkpt>
      <trkpt lat="45.89558" lon="4.77624">
        <ele>192</ele>
        <time>2018-04-15T09:09:07Z</time>
      </trkpt>
      <trkpt lat="45.89553" lon="4.77623">
        <ele>192</ele>
        <time>2018-04-15T09:09:08Z</time>
      </trkpt>
      <trkpt lat="45.89548" lon="4.77622">
        <ele>192</ele>
        <time>2018-04-15T09:09:09Z</time>
      </trkpt>
      <trkpt lat="45.89542" lon="4.77621">
        <ele>192</ele>
        <time>2018-04-15T09:09:10Z</time>
      </trkpt>
      <trkpt lat="45.89537" lon="4.7762">
        <ele>192</ele>
        <time>2018-04-15T09:09:11Z</time>
      </trkpt>
      <trkpt lat="45.89532" lon="4.77619">
        <ele>192</ele>
        <time>2018-04-15T09:09:12Z</time>
      </trkpt>
      <trkpt lat="45.89524" lon="4.77617">
        <ele>192</ele>
        <time>2018-04-15T09:09:14Z</time>
      </trkpt>
      <trkpt lat="45.89518" lon="4.77616">
        <ele>192</ele>
        <time>2018-04-15T09:09:15Z</time>
      </trkpt>
      <trkpt lat="45.89513" lon="4.77614">
        <ele>192</ele>
        <time>2018-04-15T09:09:16Z</time>
      </trkpt>
      <trkpt lat="45.89508" lon="4.77613">
        <ele>192</ele>
        <time>2018-04-15T09:09:17Z</time>
      </trkpt>
      <trkpt lat="45.89504" lon="4.77612">
        <ele>192</ele>
        <time>2018-04-15T09:09:18Z</time>
      </trkpt>
      <trkpt lat="45.89499" lon="4.7761">
        <ele>193</ele>
        <time>2018-04-15T09:09:19Z</time>
      </trkpt>
      <trkpt lat="45.89494" lon="4.7761">
        <ele>193</ele>
        <time>2018-04-15T09:09:20Z</time>
      </trkpt>
      <trkpt lat="45.89489" lon="4.77608">
        <ele>193</ele>
        <time>2018-04-15T09:09:21Z</time>
      </trkpt>
      <trkpt lat="45.89485" lon="4.77606">
        <ele>193</ele>
        <time>2018-04-15T09:09:22Z</time>
      </trkpt>
      <trkpt lat="45.89479" lon="4.77604">
        <ele>193</ele>
        <time>2018-04-15T09:09:23Z</time>
      </trkpt>
      <trkpt lat="45.89474" lon="4.77602">
        <ele>193</ele>
        <time>2018-04-15T09:09:24Z</time>
      </trkpt>
      <trkpt lat="45.8947" lon="4.776">
        <ele>193</ele>
        <time>2018-04-15T09:09:25Z</time>
      </trkpt>
      <trkpt lat="45.89465" lon="4.77598">
        <ele>193</ele>
        <time>2018-04-15T09:09:26Z</time>
      </trkpt>
      <trkpt lat="45.89461" lon="4.77596">
        <ele>193</ele>
        <time>2018-04-15T09:09:27Z</time>
      </trkpt>
      <trkpt lat="45.89456" lon="4.77595">
        <ele>193</ele>
        <time>2018-04-15T09:09:28Z</time>
      </trkpt>
      <trkpt lat="45.8945" lon="4.77593">
        <ele>193</ele>
        <time>2018-04-15T09:09:29Z</time>
      </trkpt>
      <trkpt lat="45.89446" lon="4.77592">
        <ele>193</ele>
        <time>2018-04-15T09:09:30Z</time>
      </trkpt>
      <trkpt lat="45.89441" lon="4.7759">
        <ele>193</ele>
        <time>2018-04-15T09:09:31Z</time>
      </trkpt>
      <trkpt lat="45.89435" lon="4.77589">
        <ele>193</ele>
        <time>2018-04-15T09:09:32Z</time>
      </trkpt>
      <trkpt lat="45.89431" lon="4.77588">
        <ele>194</ele>
        <time>2018-04-15T09:09:33Z</time>
      </trkpt>
      <trkpt lat="45.89425" lon="4.77585">
        <ele>194</ele>
        <time>2018-04-15T09:09:34Z</time>
      </trkpt>
      <trkpt lat="45.89421" lon="4.77582">
        <ele>194</ele>
        <time>2018-04-15T09:09:35Z</time>
      </trkpt>
      <trkpt lat="45.89415" lon="4.77581">
        <ele>194</ele>
        <time>2018-04-15T09:09:36Z</time>
      </trkpt>
      <trkpt lat="45.8941" lon="4.77579">
        <ele>194</ele>
        <time>2018-04-15T09:09:37Z</time>
      </trkpt>
      <trkpt lat="45.89405" lon="4.77577">
        <ele>194</ele>
        <time>2018-04-15T09:09:38Z</time>
      </trkpt>
      <trkpt lat="45.89401" lon="4.77575">
        <ele>194</ele>
        <time>2018-04-15T09:09:39Z</time>
      </trkpt>
      <trkpt lat="45.89395" lon="4.77574">
        <ele>194</ele>
        <time>2018-04-15T09:09:40Z</time>
      </trkpt>
      <trkpt lat="45.8939" lon="4.77572">
        <ele>194</ele>
        <time>2018-04-15T09:09:41Z</time>
      </trkpt>
      <trkpt lat="45.89385" lon="4.77569">
        <ele>194</ele>
        <time>2018-04-15T09:09:42Z</time>
      </trkpt>
      <trkpt lat="45.8938" lon="4.77567">
        <ele>194</ele>
        <time>2018-04-15T09:09:43Z</time>
      </trkpt>
      <trkpt lat="45.89375" lon="4.77564">
        <ele>194</ele>
        <time>2018-04-15T09:09:44Z</time>
      </trkpt>
      <trkpt lat="45.8937" lon="4.77562">
        <ele>194</ele>
        <time>2018-04-15T09:09:45Z</time>
      </trkpt>
      <trkpt lat="45.89366" lon="4.77559">
        <ele>194</ele>
        <time>2018-04-15T09:09:46Z</time>
      </trkpt>
      <trkpt lat="45.89361" lon="4.77556">
        <ele>194</ele>
        <time>2018-04-15T09:09:47Z</time>
      </trkpt>
      <trkpt lat="45.89356" lon="4.77553">
        <ele>194</ele>
        <time>2018-04-15T09:09:48Z</time>
      </trkpt>
      <trkpt lat="45.89351" lon="4.7755">
        <ele>194</ele>
        <time>2018-04-15T09:09:49Z</time>
      </trkpt>
      <trkpt lat="45.89347" lon="4.77549">
        <ele>194</ele>
        <time>2018-04-15T09:09:50Z</time>
      </trkpt>
      <trkpt lat="45.89342" lon="4.77547">
        <ele>194</ele>
        <time>2018-04-15T09:09:51Z</time>
      </trkpt>
      <trkpt lat="45.89337" lon="4.77544">
        <ele>194</ele>
        <time>2018-04-15T09:09:52Z</time>
      </trkpt>
      <trkpt lat="45.89333" lon="4.77541">
        <ele>194</ele>
        <time>2018-04-15T09:09:53Z</time>
      </trkpt>
      <trkpt lat="45.89328" lon="4.77539">
        <ele>194</ele>
        <time>2018-04-15T09:09:54Z</time>
      </trkpt>
      <trkpt lat="45.89324" lon="4.77537">
        <ele>194</ele>
        <time>2018-04-15T09:09:55Z</time>
      </trkpt>
      <trkpt lat="45.89318" lon="4.77535">
        <ele>194</ele>
        <time>2018-04-15T09:09:56Z</time>
      </trkpt>
      <trkpt lat="45.89313" lon="4.77532">
        <ele>194</ele>
        <time>2018-04-15T09:09:57Z</time>
      </trkpt>
      <trkpt lat="45.89307" lon="4.7753">
        <ele>194</ele>
        <time>2018-04-15T09:09:58Z</time>
      </trkpt>
      <trkpt lat="45.89303" lon="4.77528">
        <ele>194</ele>
        <time>2018-04-15T09:09:59Z</time>
      </trkpt>
      <trkpt lat="45.89295" lon="4.77523">
        <ele>194</ele>
        <time>2018-04-15T09:10:01Z</time>
      </trkpt>
      <trkpt lat="45.89291" lon="4.77522">
        <ele>193</ele>
        <time>2018-04-15T09:10:02Z</time>
      </trkpt>
      <trkpt lat="45.89282" lon="4.77522">
        <ele>193</ele>
        <time>2018-04-15T09:10:04Z</time>
      </trkpt>
      <trkpt lat="45.89277" lon="4.77522">
        <ele>193</ele>
        <time>2018-04-15T09:10:05Z</time>
      </trkpt>
      <trkpt lat="45.89272" lon="4.77522">
        <ele>193</ele>
        <time>2018-04-15T09:10:06Z</time>
      </trkpt>
      <trkpt lat="45.89267" lon="4.77522">
        <ele>193</ele>
        <time>2018-04-15T09:10:07Z</time>
      </trkpt>
      <trkpt lat="45.89262" lon="4.77523">
        <ele>193</ele>
        <time>2018-04-15T09:10:08Z</time>
      </trkpt>
      <trkpt lat="45.89257" lon="4.77523">
        <ele>193</ele>
        <time>2018-04-15T09:10:09Z</time>
      </trkpt>
      <trkpt lat="45.89252" lon="4.77524">
        <ele>193</ele>
        <time>2018-04-15T09:10:10Z</time>
      </trkpt>
      <trkpt lat="45.89246" lon="4.77525">
        <ele>193</ele>
        <time>2018-04-15T09:10:11Z</time>
      </trkpt>
      <trkpt lat="45.89241" lon="4.77525">
        <ele>193</ele>
        <time>2018-04-15T09:10:12Z</time>
      </trkpt>
      <trkpt lat="45.89236" lon="4.77526">
        <ele>193</ele>
        <time>2018-04-15T09:10:13Z</time>
      </trkpt>
      <trkpt lat="45.89231" lon="4.77527">
        <ele>194</ele>
        <time>2018-04-15T09:10:14Z</time>
      </trkpt>
      <trkpt lat="45.89225" lon="4.7753">
        <ele>194</ele>
        <time>2018-04-15T09:10:15Z</time>
      </trkpt>
      <trkpt lat="45.8922" lon="4.7753">
        <ele>194</ele>
        <time>2018-04-15T09:10:16Z</time>
      </trkpt>
      <trkpt lat="45.89214" lon="4.77531">
        <ele>194</ele>
        <time>2018-04-15T09:10:17Z</time>
      </trkpt>
      <trkpt lat="45.89209" lon="4.77532">
        <ele>194</ele>
        <time>2018-04-15T09:10:18Z</time>
      </trkpt>
      <trkpt lat="45.89204" lon="4.77533">
        <ele>194</ele>
        <time>2018-04-15T09:10:19Z</time>
      </trkpt>
      <trkpt lat="45.892" lon="4.77534">
        <ele>194</ele>
        <time>2018-04-15T09:10:20Z</time>
      </trkpt>
      <trkpt lat="45.89195" lon="4.77535">
        <ele>194</ele>
        <time>2018-04-15T09:10:21Z</time>
      </trkpt>
      <trkpt lat="45.89187" lon="4.7754">
        <ele>194</ele>
        <time>2018-04-15T09:10:23Z</time>
      </trkpt>
      <trkpt lat="45.89183" lon="4.77542">
        <ele>194</ele>
        <time>2018-04-15T09:10:24Z</time>
      </trkpt>
      <trkpt lat="45.89177" lon="4.77544">
        <ele>194</ele>
        <time>2018-04-15T09:10:25Z</time>
      </trkpt>
      <trkpt lat="45.89171" lon="4.77543">
        <ele>194</ele>
        <time>2018-04-15T09:10:26Z</time>
      </trkpt>
      <trkpt lat="45.89167" lon="4.77544">
        <ele>194</ele>
        <time>2018-04-15T09:10:27Z</time>
      </trkpt>
      <trkpt lat="45.89162" lon="4.77545">
        <ele>195</ele>
        <time>2018-04-15T09:10:28Z</time>
      </trkpt>
      <trkpt lat="45.89153" lon="4.77548">
        <ele>195</ele>
        <time>2018-04-15T09:10:30Z</time>
      </trkpt>
      <trkpt lat="45.89148" lon="4.77549">
        <ele>195</ele>
        <time>2018-04-15T09:10:31Z</time>
      </trkpt>
      <trkpt lat="45.89143" lon="4.77551">
        <ele>195</ele>
        <time>2018-04-15T09:10:32Z</time>
      </trkpt>
      <trkpt lat="45.89138" lon="4.77553">
        <ele>195</ele>
        <time>2018-04-15T09:10:33Z</time>
      </trkpt>
      <trkpt lat="45.89133" lon="4.77554">
        <ele>195</ele>
        <time>2018-04-15T09:10:34Z</time>
      </trkpt>
      <trkpt lat="45.89128" lon="4.77556">
        <ele>195</ele>
        <time>2018-04-15T09:10:35Z</time>
      </trkpt>
      <trkpt lat="45.89124" lon="4.77557">
        <ele>195</ele>
        <time>2018-04-15T09:10:36Z</time>
      </trkpt>
      <trkpt lat="45.89119" lon="4.77558">
        <ele>195</ele>
        <time>2018-04-15T09:10:37Z</time>
      </trkpt>
      <trkpt lat="45.89113" lon="4.77561">
        <ele>195</ele>
        <time>2018-04-15T09:10:38Z</time>
      </trkpt>
      <trkpt lat="45.89107" lon="4.77564">
        <ele>195</ele>
        <time>2018-04-15T09:10:39Z</time>
      </trkpt>
      <trkpt lat="45.89103" lon="4.77567">
        <ele>196</ele>
        <time>2018-04-15T09:10:40Z</time>
      </trkpt>
      <trkpt lat="45.89098" lon="4.7757">
        <ele>196</ele>
        <time>2018-04-15T09:10:41Z</time>
      </trkpt>
      <trkpt lat="45.89094" lon="4.77573">
        <ele>196</ele>
        <time>2018-04-15T09:10:42Z</time>
      </trkpt>
      <trkpt lat="45.8909" lon="4.77577">
        <ele>196</ele>
        <time>2018-04-15T09:10:43Z</time>
      </trkpt>
      <trkpt lat="45.89085" lon="4.77581">
        <ele>196</ele>
        <time>2018-04-15T09:10:44Z</time>
      </trkpt>
      <trkpt lat="45.89081" lon="4.77585">
        <ele>196</ele>
        <time>2018-04-15T09:10:45Z</time>
      </trkpt>
      <trkpt lat="45.89076" lon="4.77589">
        <ele>196</ele>
        <time>2018-04-15T09:10:46Z</time>
      </trkpt>
      <trkpt lat="45.89071" lon="4.77593">
        <ele>196</ele>
        <time>2018-04-15T09:10:47Z</time>
      </trkpt>
      <trkpt lat="45.89067" lon="4.77597">
        <ele>196</ele>
        <time>2018-04-15T09:10:48Z</time>
      </trkpt>
      <trkpt lat="45.89062" lon="4.776">
        <ele>197</ele>
        <time>2018-04-15T09:10:49Z</time>
      </trkpt>
      <trkpt lat="45.89057" lon="4.77604">
        <ele>197</ele>
        <time>2018-04-15T09:10:50Z</time>
      </trkpt>
      <trkpt lat="45.89053" lon="4.77609">
        <ele>197</ele>
        <time>2018-04-15T09:10:51Z</time>
      </trkpt>
      <trkpt lat="45.89049" lon="4.77614">
        <ele>197</ele>
        <time>2018-04-15T09:10:52Z</time>
      </trkpt>
      <trkpt lat="45.89045" lon="4.77619">
        <ele>197</ele>
        <time>2018-04-15T09:10:53Z</time>
      </trkpt>
      <trkpt lat="45.89041" lon="4.77622">
        <ele>197</ele>
        <time>2018-04-15T09:10:54Z</time>
      </trkpt>
      <trkpt lat="45.89037" lon="4.77625">
        <ele>197</ele>
        <time>2018-04-15T09:10:55Z</time>
      </trkpt>
      <trkpt lat="45.89033" lon="4.77628">
        <ele>197</ele>
        <time>2018-04-15T09:10:56Z</time>
      </trkpt>
      <trkpt lat="45.89029" lon="4.77632">
        <ele>197</ele>
        <time>2018-04-15T09:10:57Z</time>
      </trkpt>
      <trkpt lat="45.89025" lon="4.77635">
        <ele>197</ele>
        <time>2018-04-15T09:10:58Z</time>
      </trkpt>
      <trkpt lat="45.89021" lon="4.77639">
        <ele>197</ele>
        <time>2018-04-15T09:10:59Z</time>
      </trkpt>
      <trkpt lat="45.89016" lon="4.77642">
        <ele>197</ele>
        <time>2018-04-15T09:11:00Z</time>
      </trkpt>
      <trkpt lat="45.89013" lon="4.77646">
        <ele>197</ele>
        <time>2018-04-15T09:11:01Z</time>
      </trkpt>
      <trkpt lat="45.89008" lon="4.7765">
        <ele>197</ele>
        <time>2018-04-15T09:11:02Z</time>
      </trkpt>
      <trkpt lat="45.89004" lon="4.77654">
        <ele>197</ele>
        <time>2018-04-15T09:11:03Z</time>
      </trkpt>
      <trkpt lat="45.89" lon="4.77657">
        <ele>197</ele>
        <time>2018-04-15T09:11:04Z</time>
      </trkpt>
      <trkpt lat="45.88996" lon="4.77661">
        <ele>197</ele>
        <time>2018-04-15T09:11:05Z</time>
      </trkpt>
      <trkpt lat="45.88989" lon="4.77668">
        <ele>198</ele>
        <time>2018-04-15T09:11:07Z</time>
      </trkpt>
      <trkpt lat="45.88985" lon="4.7767">
        <ele>198</ele>
        <time>2018-04-15T09:11:08Z</time>
      </trkpt>
      <trkpt lat="45.88978" lon="4.77675">
        <ele>198</ele>
        <time>2018-04-15T09:11:10Z</time>
      </trkpt>
      <trkpt lat="45.88974" lon="4.77678">
        <ele>198</ele>
        <time>2018-04-15T09:11:11Z</time>
      </trkpt>
      <trkpt lat="45.88966" lon="4.77682">
        <ele>198</ele>
        <time>2018-04-15T09:11:13Z</time>
      </trkpt>
      <trkpt lat="45.88961" lon="4.77683">
        <ele>198</ele>
        <time>2018-04-15T09:11:14Z</time>
      </trkpt>
      <trkpt lat="45.88957" lon="4.77686">
        <ele>199</ele>
        <time>2018-04-15T09:11:15Z</time>
      </trkpt>
      <trkpt lat="45.88952" lon="4.77688">
        <ele>199</ele>
        <time>2018-04-15T09:11:16Z</time>
      </trkpt>
      <trkpt lat="45.88944" lon="4.77691">
        <ele>199</ele>
        <time>2018-04-15T09:11:18Z</time>
      </trkpt>
      <trkpt lat="45.8894" lon="4.77693">
        <ele>199</ele>
        <time>2018-04-15T09:11:19Z</time>
      </trkpt>
      <trkpt lat="45.88935" lon="4.77695">
        <ele>199</ele>
        <time>2018-04-15T09:11:20Z</time>
      </trkpt>
      <trkpt lat="45.8893" lon="4.77696">
        <ele>199</ele>
        <time>2018-04-15T09:11:21Z</time>
      </trkpt>
      <trkpt lat="45.88925" lon="4.77698">
        <ele>199</ele>
        <time>2018-04-15T09:11:22Z</time>
      </trkpt>
      <trkpt lat="45.88921" lon="4.77699">
        <ele>199</ele>
        <time>2018-04-15T09:11:23Z</time>
      </trkpt>
      <trkpt lat="45.88916" lon="4.77701">
        <ele>200</ele>
        <time>2018-04-15T09:11:24Z</time>
      </trkpt>
      <trkpt lat="45.88911" lon="4.77701">
        <ele>200</ele>
        <time>2018-04-15T09:11:25Z</time>
      </trkpt>
      <trkpt lat="45.88902" lon="4.77703">
        <ele>200</ele>
        <time>2018-04-15T09:11:27Z</time>
      </trkpt>
      <trkpt lat="45.88899" lon="4.77704">
        <ele>200</ele>
        <time>2018-04-15T09:11:28Z</time>
      </trkpt>
      <trkpt lat="45.8889" lon="4.77704">
        <ele>200</ele>
        <time>2018-04-15T09:11:30Z</time>
      </trkpt>
      <trkpt lat="45.88886" lon="4.77704">
        <ele>200</ele>
        <time>2018-04-15T09:11:31Z</time>
      </trkpt>
      <trkpt lat="45.88877" lon="4.77704">
        <ele>200</ele>
        <time>2018-04-15T09:11:33Z</time>
      </trkpt>
      <trkpt lat="45.88874" lon="4.77704">
        <ele>201</ele>
        <time>2018-04-15T09:11:34Z</time>
      </trkpt>
      <trkpt lat="45.88865" lon="4.77705">
        <ele>201</ele>
        <time>2018-04-15T09:11:36Z</time>
      </trkpt>
      <trkpt lat="45.88861" lon="4.77705">
        <ele>201</ele>
        <time>2018-04-15T09:11:37Z</time>
      </trkpt>
      <trkpt lat="45.88852" lon="4.77706">
        <ele>201</ele>
        <time>2018-04-15T09:11:39Z</time>
      </trkpt>
      <trkpt lat="45.88848" lon="4.77706">
        <ele>201</ele>
        <time>2018-04-15T09:11:40Z</time>
      </trkpt>
      <trkpt lat="45.88839" lon="4.77706">
        <ele>201</ele>
        <time>2018-04-15T09:11:42Z</time>
      </trkpt>
      <trkpt lat="45.88835" lon="4.77706">
        <ele>201</ele>
        <time>2018-04-15T09:11:43Z</time>
      </trkpt>
      <trkpt lat="45.88827" lon="4.77705">
        <ele>201</ele>
        <time>2018-04-15T09:11:45Z</time>
      </trkpt>
      <trkpt lat="45.88822" lon="4.77705">
        <ele>202</ele>
        <time>2018-04-15T09:11:46Z</time>
      </trkpt>
      <trkpt lat="45.88814" lon="4.77707">
        <ele>202</ele>
        <time>2018-04-15T09:11:48Z</time>
      </trkpt>
      <trkpt lat="45.88808" lon="4.77708">
        <ele>202</ele>
        <time>2018-04-15T09:11:49Z</time>
      </trkpt>
      <trkpt lat="45.888" lon="4.77708">
        <ele>202</ele>
        <time>2018-04-15T09:11:51Z</time>
      </trkpt>
      <trkpt lat="45.88795" lon="4.77708">
        <ele>202</ele>
        <time>2018-04-15T09:11:52Z</time>
      </trkpt>
      <trkpt lat="45.88786" lon="4.77708">
        <ele>202</ele>
        <time>2018-04-15T09:11:54Z</time>
      </trkpt>
      <trkpt lat="45.88782" lon="4.77708">
        <ele>202</ele>
        <time>2018-04-15T09:11:55Z</time>
      </trkpt>
      <trkpt lat="45.88777" lon="4.77709">
        <ele>202</ele>
        <time>2018-04-15T09:11:56Z</time>
      </trkpt>
      <trkpt lat="45.88772" lon="4.77709">
        <ele>202</ele>
        <time>2018-04-15T09:11:57Z</time>
      </trkpt>
      <trkpt lat="45.88767" lon="4.77709">
        <ele>202</ele>
        <time>2018-04-15T09:11:58Z</time>
      </trkpt>
      <trkpt lat="45.88762" lon="4.77709">
        <ele>202</ele>
        <time>2018-04-15T09:11:59Z</time>
      </trkpt>
      <trkpt lat="45.88754" lon="4.77708">
        <ele>202</ele>
        <time>2018-04-15T09:12:01Z</time>
      </trkpt>
      <trkpt lat="45.88749" lon="4.77708">
        <ele>202</ele>
        <time>2018-04-15T09:12:02Z</time>
      </trkpt>
      <trkpt lat="45.88745" lon="4.77708">
        <ele>202</ele>
        <time>2018-04-15T09:12:03Z</time>
      </trkpt>
      <trkpt lat="45.8874" lon="4.77709">
        <ele>203</ele>
        <time>2018-04-15T09:12:04Z</time>
      </trkpt>
      <trkpt lat="45.88735" lon="4.7771">
        <ele>203</ele>
        <time>2018-04-15T09:12:05Z</time>
      </trkpt>
      <trkpt lat="45.88731" lon="4.7771">
        <ele>203</ele>
        <time>2018-04-15T09:12:06Z</time>
      </trkpt>
      <trkpt lat="45.88722" lon="4.77711">
        <ele>203</ele>
        <time>2018-04-15T09:12:08Z</time>
      </trkpt>
      <trkpt lat="45.88717" lon="4.77713">
        <ele>203</ele>
        <time>2018-04-15T09:12:09Z</time>
      </trkpt>
      <trkpt lat="45.88712" lon="4.77714">
        <ele>203</ele>
        <time>2018-04-15T09:12:10Z</time>
      </trkpt>
      <trkpt lat="45.88708" lon="4.77714">
        <ele>203</ele>
        <time>2018-04-15T09:12:11Z</time>
      </trkpt>
      <trkpt lat="45.887" lon="4.77715">
        <ele>203</ele>
        <time>2018-04-15T09:12:13Z</time>
      </trkpt>
      <trkpt lat="45.88696" lon="4.77714">
        <ele>203</ele>
        <time>2018-04-15T09:12:14Z</time>
      </trkpt>
      <trkpt lat="45.88692" lon="4.77714">
        <ele>203</ele>
        <time>2018-04-15T09:12:15Z</time>
      </trkpt>
      <trkpt lat="45.88686" lon="4.77716">
        <ele>203</ele>
        <time>2018-04-15T09:12:16Z</time>
      </trkpt>
      <trkpt lat="45.88682" lon="4.77715">
        <ele>203</ele>
        <time>2018-04-15T09:12:17Z</time>
      </trkpt>
      <trkpt lat="45.88677" lon="4.77715">
        <ele>203</ele>
        <time>2018-04-15T09:12:18Z</time>
      </trkpt>
      <trkpt lat="45.88669" lon="4.77717">
        <ele>203</ele>
        <time>2018-04-15T09:12:20Z</time>
      </trkpt>
      <trkpt lat="45.88665" lon="4.77716">
        <ele>203</ele>
        <time>2018-04-15T09:12:21Z</time>
      </trkpt>
      <trkpt lat="45.8866" lon="4.77716">
        <ele>203</ele>
        <time>2018-04-15T09:12:22Z</time>
      </trkpt>
      <trkpt lat="45.88655" lon="4.77716">
        <ele>203</ele>
        <time>2018-04-15T09:12:23Z</time>
      </trkpt>
      <trkpt lat="45.88647" lon="4.77717">
        <ele>203</ele>
        <time>2018-04-15T09:12:25Z</time>
      </trkpt>
      <trkpt lat="45.88642" lon="4.77715">
        <ele>203</ele>
        <time>2018-04-15T09:12:26Z</time>
      </trkpt>
      <trkpt lat="45.88638" lon="4.77712">
        <ele>203</ele>
        <time>2018-04-15T09:12:27Z</time>
      </trkpt>
      <trkpt lat="45.88633" lon="4.77712">
        <ele>203</ele>
        <time>2018-04-15T09:12:28Z</time>
      </trkpt>
      <trkpt lat="45.88625" lon="4.77709">
        <ele>203</ele>
        <time>2018-04-15T09:12:30Z</time>
      </trkpt>
      <trkpt lat="45.88622" lon="4.77709">
        <ele>203</ele>
        <time>2018-04-15T09:12:31Z</time>
      </trkpt>
      <trkpt lat="45.88614" lon="4.77706">
        <ele>203</ele>
        <time>2018-04-15T09:12:33Z</time>
      </trkpt>
      <trkpt lat="45.88609" lon="4.77705">
        <ele>203</ele>
        <time>2018-04-15T09:12:34Z</time>
      </trkpt>
      <trkpt lat="45.88605" lon="4.77705">
        <ele>203</ele>
        <time>2018-04-15T09:12:35Z</time>
      </trkpt>
      <trkpt lat="45.886" lon="4.77704">
        <ele>203</ele>
        <time>2018-04-15T09:12:36Z</time>
      </trkpt>
      <trkpt lat="45.88592" lon="4.77702">
        <ele>203</ele>
        <time>2018-04-15T09:12:38Z</time>
      </trkpt>
      <trkpt lat="45.88587" lon="4.77701">
        <ele>203</ele>
        <time>2018-04-15T09:12:39Z</time>
      </trkpt>
      <trkpt lat="45.88579" lon="4.77698">
        <ele>204</ele>
        <time>2018-04-15T09:12:41Z</time>
      </trkpt>
      <trkpt lat="45.88574" lon="4.77697">
        <ele>204</ele>
        <time>2018-04-15T09:12:42Z</time>
      </trkpt>
      <trkpt lat="45.88566" lon="4.77696">
        <ele>204</ele>
        <time>2018-04-15T09:12:44Z</time>
      </trkpt>
      <trkpt lat="45.88562" lon="4.77695">
        <ele>204</ele>
        <time>2018-04-15T09:12:45Z</time>
      </trkpt>
      <trkpt lat="45.88558" lon="4.77693">
        <ele>204</ele>
        <time>2018-04-15T09:12:46Z</time>
      </trkpt>
      <trkpt lat="45.88552" lon="4.77692">
        <ele>204</ele>
        <time>2018-04-15T09:12:47Z</time>
      </trkpt>
      <trkpt lat="45.88544" lon="4.7769">
        <ele>204</ele>
        <time>2018-04-15T09:12:49Z</time>
      </trkpt>
      <trkpt lat="45.8854" lon="4.77689">
        <ele>204</ele>
        <time>2018-04-15T09:12:50Z</time>
      </trkpt>
      <trkpt lat="45.88531" lon="4.77688">
        <ele>204</ele>
        <time>2018-04-15T09:12:52Z</time>
      </trkpt>
      <trkpt lat="45.88526" lon="4.77687">
        <ele>204</ele>
        <time>2018-04-15T09:12:53Z</time>
      </trkpt>
      <trkpt lat="45.88518" lon="4.77684">
        <ele>204</ele>
        <time>2018-04-15T09:12:55Z</time>
      </trkpt>
      <trkpt lat="45.88514" lon="4.77683">
        <ele>205</ele>
        <time>2018-04-15T09:12:56Z</time>
      </trkpt>
      <trkpt lat="45.88506" lon="4.77681">
        <ele>205</ele>
        <time>2018-04-15T09:12:58Z</time>
      </trkpt>
      <trkpt lat="45.88502" lon="4.77681">
        <ele>205</ele>
        <time>2018-04-15T09:12:59Z</time>
      </trkpt>
      <trkpt lat="45.88495" lon="4.77679">
        <ele>205</ele>
        <time>2018-04-15T09:13:01Z</time>
      </trkpt>
      <trkpt lat="45.88491" lon="4.77678">
        <ele>205</ele>
        <time>2018-04-15T09:13:02Z</time>
      </trkpt>
      <trkpt lat="45.88482" lon="4.77676">
        <ele>206</ele>
        <time>2018-04-15T09:13:04Z</time>
      </trkpt>
      <trkpt lat="45.88478" lon="4.77675">
        <ele>206</ele>
        <time>2018-04-15T09:13:05Z</time>
      </trkpt>
      <trkpt lat="45.8847" lon="4.77672">
        <ele>206</ele>
        <time>2018-04-15T09:13:07Z</time>
      </trkpt>
      <trkpt lat="45.88465" lon="4.77671">
        <ele>206</ele>
        <time>2018-04-15T09:13:08Z</time>
      </trkpt>
      <trkpt lat="45.88456" lon="4.7767">
        <ele>206</ele>
        <time>2018-04-15T09:13:10Z</time>
      </trkpt>
      <trkpt lat="45.88451" lon="4.77669">
        <ele>206</ele>
        <time>2018-04-15T09:13:11Z</time>
      </trkpt>
      <trkpt lat="45.88447" lon="4.77668">
        <ele>206</ele>
        <time>2018-04-15T09:13:12Z</time>
      </trkpt>
      <trkpt lat="45.88442" lon="4.77667">
        <ele>206</ele>
        <time>2018-04-15T09:13:13Z</time>
      </trkpt>
      <trkpt lat="45.88438" lon="4.77665">
        <ele>206</ele>
        <time>2018-04-15T09:13:14Z</time>
      </trkpt>
      <trkpt lat="45.88433" lon="4.77664">
        <ele>206</ele>
        <time>2018-04-15T09:13:15Z</time>
      </trkpt>
      <trkpt lat="45.88425" lon="4.77663">
        <ele>206</ele>
        <time>2018-04-15T09:13:17Z</time>
      </trkpt>
      <trkpt lat="45.88421" lon="4.77663">
        <ele>206</ele>
        <time>2018-04-15T09:13:18Z</time>
      </trkpt>
      <trkpt lat="45.88416" lon="4.77662">
        <ele>206</ele>
        <time>2018-04-15T09:13:19Z</time>
      </trkpt>
      <trkpt lat="45.88411" lon="4.7766">
        <ele>206</ele>
        <time>2018-04-15T09:13:20Z</time>
      </trkpt>
      <trkpt lat="45.88402" lon="4.7766">
        <ele>207</ele>
        <time>2018-04-15T09:13:22Z</time>
      </trkpt>
      <trkpt lat="45.88399" lon="4.77659">
        <ele>207</ele>
        <time>2018-04-15T09:13:23Z</time>
      </trkpt>
      <trkpt lat="45.88391" lon="4.77657">
        <ele>207</ele>
        <time>2018-04-15T09:13:25Z</time>
      </trkpt>
      <trkpt lat="45.88386" lon="4.77656">
        <ele>207</ele>
        <time>2018-04-15T09:13:26Z</time>
      </trkpt>
      <trkpt lat="45.88379" lon="4.77655">
        <ele>207</ele>
        <time>2018-04-15T09:13:28Z</time>
      </trkpt>
      <trkpt lat="45.88374" lon="4.77654">
        <ele>207</ele>
        <time>2018-04-15T09:13:29Z</time>
      </trkpt>
      <trkpt lat="45.8837" lon="4.77654">
        <ele>207</ele>
        <time>2018-04-15T09:13:30Z</time>
      </trkpt>
      <trkpt lat="45.88365" lon="4.77654">
        <ele>207</ele>
        <time>2018-04-15T09:13:31Z</time>
      </trkpt>
      <trkpt lat="45.88357" lon="4.77654">
        <ele>208</ele>
        <time>2018-04-15T09:13:33Z</time>
      </trkpt>
      <trkpt lat="45.88352" lon="4.77654">
        <ele>208</ele>
        <time>2018-04-15T09:13:34Z</time>
      </trkpt>
      <trkpt lat="45.88343" lon="4.77654">
        <ele>208</ele>
        <time>2018-04-15T09:13:36Z</time>
      </trkpt>
      <trkpt lat="45.88339" lon="4.77654">
        <ele>208</ele>
        <time>2018-04-15T09:13:37Z</time>
      </trkpt>
      <trkpt lat="45.88331" lon="4.77655">
        <ele>208</ele>
        <time>2018-04-15T09:13:39Z</time>
      </trkpt>
      <trkpt lat="45.88326" lon="4.77655">
        <ele>209</ele>
        <time>2018-04-15T09:13:40Z</time>
      </trkpt>
      <trkpt lat="45.88317" lon="4.77654">
        <ele>209</ele>
        <time>2018-04-15T09:13:42Z</time>
      </trkpt>
      <trkpt lat="45.88312" lon="4.77655">
        <ele>209</ele>
        <time>2018-04-15T09:13:43Z</time>
      </trkpt>
      <trkpt lat="45.88308" lon="4.77655">
        <ele>209</ele>
        <time>2018-04-15T09:13:44Z</time>
      </trkpt>
      <trkpt lat="45.88303" lon="4.77654">
        <ele>209</ele>
        <time>2018-04-15T09:13:45Z</time>
      </trkpt>
      <trkpt lat="45.88299" lon="4.77654">
        <ele>209</ele>
        <time>2018-04-15T09:13:46Z</time>
      </trkpt>
      <trkpt lat="45.88294" lon="4.77655">
        <ele>209</ele>
        <time>2018-04-15T09:13:47Z</time>
      </trkpt>
      <trkpt lat="45.88289" lon="4.77655">
        <ele>209</ele>
        <time>2018-04-15T09:13:48Z</time>
      </trkpt>
      <trkpt lat="45.88284" lon="4.77656">
        <ele>210</ele>
        <time>2018-04-15T09:13:49Z</time>
      </trkpt>
      <trkpt lat="45.8828" lon="4.77656">
        <ele>210</ele>
        <time>2018-04-15T09:13:50Z</time>
      </trkpt>
      <trkpt lat="45.88275" lon="4.77656">
        <ele>210</ele>
        <time>2018-04-15T09:13:51Z</time>
      </trkpt>
      <trkpt lat="45.88266" lon="4.77657">
        <ele>210</ele>
        <time>2018-04-15T09:13:53Z</time>
      </trkpt>
      <trkpt lat="45.88262" lon="4.77658">
        <ele>210</ele>
        <time>2018-04-15T09:13:54Z</time>
      </trkpt>
      <trkpt lat="45.88257" lon="4.77657">
        <ele>210</ele>
        <time>2018-04-15T09:13:55Z</time>
      </trkpt>
      <trkpt lat="45.88252" lon="4.77658">
        <ele>210</ele>
        <time>2018-04-15T09:13:56Z</time>
      </trkpt>
      <trkpt lat="45.88247" lon="4.77659">
        <ele>211</ele>
        <time>2018-04-15T09:13:57Z</time>
      </trkpt>
      <trkpt lat="45.88242" lon="4.77659">
        <ele>211</ele>
        <time>2018-04-15T09:13:58Z</time>
      </trkpt>
      <trkpt lat="45.88238" lon="4.77659">
        <ele>211</ele>
        <time>2018-04-15T09:13:59Z</time>
      </trkpt>
      <trkpt lat="45.88232" lon="4.77659">
        <ele>211</ele>
        <time>2018-04-15T09:14:00Z</time>
      </trkpt>
      <trkpt lat="45.88228" lon="4.77659">
        <ele>211</ele>
        <time>2018-04-15T09:14:01Z</time>
      </trkpt>
      <trkpt lat="45.88223" lon="4.7766">
        <ele>211</ele>
        <time>2018-04-15T09:14:02Z</time>
      </trkpt>
      <trkpt lat="45.88214" lon="4.77661">
        <ele>211</ele>
        <time>2018-04-15T09:14:04Z</time>
      </trkpt>
      <trkpt lat="45.8821" lon="4.77663">
        <ele>211</ele>
        <time>2018-04-15T09:14:05Z</time>
      </trkpt>
      <trkpt lat="45.88205" lon="4.77664">
        <ele>211</ele>
        <time>2018-04-15T09:14:06Z</time>
      </trkpt>
      <trkpt lat="45.882" lon="4.77665">
        <ele>211</ele>
        <time>2018-04-15T09:14:07Z</time>
      </trkpt>
      <trkpt lat="45.88193" lon="4.77667">
        <ele>212</ele>
        <time>2018-04-15T09:14:09Z</time>
      </trkpt>
      <trkpt lat="45.88188" lon="4.77667">
        <ele>212</ele>
        <time>2018-04-15T09:14:10Z</time>
      </trkpt>
      <trkpt lat="45.88182" lon="4.77667">
        <ele>212</ele>
        <time>2018-04-15T09:14:11Z</time>
      </trkpt>
      <trkpt lat="45.88178" lon="4.77668">
        <ele>212</ele>
        <time>2018-04-15T09:14:12Z</time>
      </trkpt>
      <trkpt lat="45.88173" lon="4.77669">
        <ele>212</ele>
        <time>2018-04-15T09:14:13Z</time>
      </trkpt>
      <trkpt lat="45.88168" lon="4.7767">
        <ele>212</ele>
        <time>2018-04-15T09:14:14Z</time>
      </trkpt>
      <trkpt lat="45.88164" lon="4.7767">
        <ele>212</ele>
        <time>2018-04-15T09:14:15Z</time>
      </trkpt>
      <trkpt lat="45.88159" lon="4.77671">
        <ele>213</ele>
        <time>2018-04-15T09:14:16Z</time>
      </trkpt>
      <trkpt lat="45.8815" lon="4.77673">
        <ele>213</ele>
        <time>2018-04-15T09:14:18Z</time>
      </trkpt>
      <trkpt lat="45.88145" lon="4.77673">
        <ele>213</ele>
        <time>2018-04-15T09:14:19Z</time>
      </trkpt>
      <trkpt lat="45.88138" lon="4.77675">
        <ele>213</ele>
        <time>2018-04-15T09:14:21Z</time>
      </trkpt>
      <trkpt lat="45.88134" lon="4.77676">
        <ele>213</ele>
        <time>2018-04-15T09:14:22Z</time>
      </trkpt>
      <trkpt lat="45.88129" lon="4.77677">
        <ele>214</ele>
        <time>2018-04-15T09:14:23Z</time>
      </trkpt>
      <trkpt lat="45.88124" lon="4.77678">
        <ele>214</ele>
        <time>2018-04-15T09:14:24Z</time>
      </trkpt>
      <trkpt lat="45.88115" lon="4.77679">
        <ele>214</ele>
        <time>2018-04-15T09:14:26Z</time>
      </trkpt>
      <trkpt lat="45.88111" lon="4.7768">
        <ele>214</ele>
        <time>2018-04-15T09:14:27Z</time>
      </trkpt>
      <trkpt lat="45.88103" lon="4.77681">
        <ele>214</ele>
        <time>2018-04-15T09:14:29Z</time>
      </trkpt>
      <trkpt lat="45.88099" lon="4.77682">
        <ele>214</ele>
        <time>2018-04-15T09:14:30Z</time>
      </trkpt>
      <trkpt lat="45.88091" lon="4.77684">
        <ele>214</ele>
        <time>2018-04-15T09:14:32Z</time>
      </trkpt>
      <trkpt lat="45.88087" lon="4.77685">
        <ele>214</ele>
        <time>2018-04-15T09:14:33Z</time>
      </trkpt>
      <trkpt lat="45.88082" lon="4.77685">
        <ele>215</ele>
        <time>2018-04-15T09:14:34Z</time>
      </trkpt>
      <trkpt lat="45.88078" lon="4.77686">
        <ele>215</ele>
        <time>2018-04-15T09:14:35Z</time>
      </trkpt>
      <trkpt lat="45.8807" lon="4.77688">
        <ele>215</ele>
        <time>2018-04-15T09:14:37Z</time>
      </trkpt>
      <trkpt lat="45.88066" lon="4.77688">
        <ele>216</ele>
        <time>2018-04-15T09:14:38Z</time>
      </trkpt>
      <trkpt lat="45.88057" lon="4.7769">
        <ele>216</ele>
        <time>2018-04-15T09:14:40Z</time>
      </trkpt>
      <trkpt lat="45.88053" lon="4.7769">
        <ele>216</ele>
        <time>2018-04-15T09:14:41Z</time>
      </trkpt>
      <trkpt lat="45.88045" lon="4.77692">
        <ele>216</ele>
        <time>2018-04-15T09:14:43Z</time>
      </trkpt>
      <trkpt lat="45.88041" lon="4.77693">
        <ele>216</ele>
        <time>2018-04-15T09:14:44Z</time>
      </trkpt>
      <trkpt lat="45.88032" lon="4.77695">
        <ele>216</ele>
        <time>2018-04-15T09:14:46Z</time>
      </trkpt>
      <trkpt lat="45.88028" lon="4.77695">
        <ele>216</ele>
        <time>2018-04-15T09:14:47Z</time>
      </trkpt>
      <trkpt lat="45.88019" lon="4.77696">
        <ele>216</ele>
        <time>2018-04-15T09:14:49Z</time>
      </trkpt>
      <trkpt lat="45.88015" lon="4.77696">
        <ele>216</ele>
        <time>2018-04-15T09:14:50Z</time>
      </trkpt>
      <trkpt lat="45.88007" lon="4.77696">
        <ele>216</ele>
        <time>2018-04-15T09:14:52Z</time>
      </trkpt>
      <trkpt lat="45.88003" lon="4.77695">
        <ele>216</ele>
        <time>2018-04-15T09:14:53Z</time>
      </trkpt>
      <trkpt lat="45.87995" lon="4.77694">
        <ele>217</ele>
        <time>2018-04-15T09:14:55Z</time>
      </trkpt>
      <trkpt lat="45.87991" lon="4.77693">
        <ele>217</ele>
        <time>2018-04-15T09:14:56Z</time>
      </trkpt>
      <trkpt lat="45.87983" lon="4.7769">
        <ele>217</ele>
        <time>2018-04-15T09:14:58Z</time>
      </trkpt>
      <trkpt lat="45.8798" lon="4.77688">
        <ele>218</ele>
        <time>2018-04-15T09:14:59Z</time>
      </trkpt>
      <trkpt lat="45.87973" lon="4.77681">
        <ele>218</ele>
        <time>2018-04-15T09:15:01Z</time>
      </trkpt>
      <trkpt lat="45.87972" lon="4.77679">
        <ele>218</ele>
        <time>2018-04-15T09:15:02Z</time>
      </trkpt>
      <trkpt lat="45.87966" lon="4.77671">
        <ele>218</ele>
        <time>2018-04-15T09:15:04Z</time>
      </trkpt>
      <trkpt lat="45.87963" lon="4.77668">
        <ele>218</ele>
        <time>2018-04-15T09:15:05Z</time>
      </trkpt>
      <trkpt lat="45.87955" lon="4.77664">
        <ele>218</ele>
        <time>2018-04-15T09:15:07Z</time>
      </trkpt>
      <trkpt lat="45.87951" lon="4.77661">
        <ele>218</ele>
        <time>2018-04-15T09:15:08Z</time>
      </trkpt>
      <trkpt lat="45.87946" lon="4.77658">
        <ele>218</ele>
        <time>2018-04-15T09:15:09Z</time>
      </trkpt>
      <trkpt lat="45.87942" lon="4.77654">
        <ele>219</ele>
        <time>2018-04-15T09:15:10Z</time>
      </trkpt>
      <trkpt lat="45.87938" lon="4.7765">
        <ele>219</ele>
        <time>2018-04-15T09:15:11Z</time>
      </trkpt>
      <trkpt lat="45.87934" lon="4.77646">
        <ele>219</ele>
        <time>2018-04-15T09:15:12Z</time>
      </trkpt>
      <trkpt lat="45.8793" lon="4.77643">
        <ele>219</ele>
        <time>2018-04-15T09:15:13Z</time>
      </trkpt>
      <trkpt lat="45.87926" lon="4.7764">
        <ele>219</ele>
        <time>2018-04-15T09:15:14Z</time>
      </trkpt>
      <trkpt lat="45.87918" lon="4.77634">
        <ele>219</ele>
        <time>2018-04-15T09:15:16Z</time>
      </trkpt>
      <trkpt lat="45.87917" lon="4.77632">
        <ele>220</ele>
        <time>2018-04-15T09:15:17Z</time>
      </trkpt>
      <trkpt lat="45.8791" lon="4.77625">
        <ele>220</ele>
        <time>2018-04-15T09:15:19Z</time>
      </trkpt>
      <trkpt lat="45.87907" lon="4.77621">
        <ele>220</ele>
        <time>2018-04-15T09:15:20Z</time>
      </trkpt>
      <trkpt lat="45.879" lon="4.77615">
        <ele>220</ele>
        <time>2018-04-15T09:15:22Z</time>
      </trkpt>
      <trkpt lat="45.87896" lon="4.77613">
        <ele>221</ele>
        <time>2018-04-15T09:15:23Z</time>
      </trkpt>
      <trkpt lat="45.87889" lon="4.77607">
        <ele>221</ele>
        <time>2018-04-15T09:15:25Z</time>
      </trkpt>
      <trkpt lat="45.87885" lon="4.77604">
        <ele>221</ele>
        <time>2018-04-15T09:15:26Z</time>
      </trkpt>
      <trkpt lat="45.87878" lon="4.77598">
        <ele>221</ele>
        <time>2018-04-15T09:15:28Z</time>
      </trkpt>
      <trkpt lat="45.87874" lon="4.77595">
        <ele>221</ele>
        <time>2018-04-15T09:15:29Z</time>
      </trkpt>
      <trkpt lat="45.87867" lon="4.77589">
        <ele>221</ele>
        <time>2018-04-15T09:15:31Z</time>
      </trkpt>
      <trkpt lat="45.87863" lon="4.77586">
        <ele>221</ele>
        <time>2018-04-15T09:15:32Z</time>
      </trkpt>
      <trkpt lat="45.8786" lon="4.77583">
        <ele>221</ele>
        <time>2018-04-15T09:15:33Z</time>
      </trkpt>
      <trkpt lat="45.87856" lon="4.77578">
        <ele>221</ele>
        <time>2018-04-15T09:15:34Z</time>
      </trkpt>
      <trkpt lat="45.87849" lon="4.77571">
        <ele>221</ele>
        <time>2018-04-15T09:15:36Z</time>
      </trkpt>
      <trkpt lat="45.87844" lon="4.77568">
        <ele>221</ele>
        <time>2018-04-15T09:15:37Z</time>
      </trkpt>
      <trkpt lat="45.8784" lon="4.77565">
        <ele>221</ele>
        <time>2018-04-15T09:15:38Z</time>
      </trkpt>
      <trkpt lat="45.87836" lon="4.77563">
        <ele>221</ele>
        <time>2018-04-15T09:15:39Z</time>
      </trkpt>
      <trkpt lat="45.87832" lon="4.77555">
        <ele>222</ele>
        <time>2018-04-15T09:15:42Z</time>
      </trkpt>
      <trkpt lat="45.87829" lon="4.77552">
        <ele>223</ele>
        <time>2018-04-15T09:15:43Z</time>
      </trkpt>
      <trkpt lat="45.87824" lon="4.77549">
        <ele>223</ele>
        <time>2018-04-15T09:15:44Z</time>
      </trkpt>
      <trkpt lat="45.8782" lon="4.77547">
        <ele>223</ele>
        <time>2018-04-15T09:15:45Z</time>
      </trkpt>
      <trkpt lat="45.87812" lon="4.77542">
        <ele>223</ele>
        <time>2018-04-15T09:15:47Z</time>
      </trkpt>
      <trkpt lat="45.87808" lon="4.7754">
        <ele>223</ele>
        <time>2018-04-15T09:15:48Z</time>
      </trkpt>
      <trkpt lat="45.87801" lon="4.77535">
        <ele>223</ele>
        <time>2018-04-15T09:15:50Z</time>
      </trkpt>
      <trkpt lat="45.87797" lon="4.77533">
        <ele>223</ele>
        <time>2018-04-15T09:15:51Z</time>
      </trkpt>
      <trkpt lat="45.87789" lon="4.77528">
        <ele>223</ele>
        <time>2018-04-15T09:15:53Z</time>
      </trkpt>
      <trkpt lat="45.87785" lon="4.77526">
        <ele>223</ele>
        <time>2018-04-15T09:15:54Z</time>
      </trkpt>
      <trkpt lat="45.87777" lon="4.77522">
        <ele>223</ele>
        <time>2018-04-15T09:15:56Z</time>
      </trkpt>
      <trkpt lat="45.87773" lon="4.77519">
        <ele>223</ele>
        <time>2018-04-15T09:15:57Z</time>
      </trkpt>
      <trkpt lat="45.87766" lon="4.77513">
        <ele>223</ele>
        <time>2018-04-15T09:15:59Z</time>
      </trkpt>
      <trkpt lat="45.87763" lon="4.7751">
        <ele>224</ele>
        <time>2018-04-15T09:16:00Z</time>
      </trkpt>
      <trkpt lat="45.87756" lon="4.77504">
        <ele>224</ele>
        <time>2018-04-15T09:16:02Z</time>
      </trkpt>
      <trkpt lat="45.87752" lon="4.77502">
        <ele>224</ele>
        <time>2018-04-15T09:16:03Z</time>
      </trkpt>
      <trkpt lat="45.87744" lon="4.77498">
        <ele>225</ele>
        <time>2018-04-15T09:16:05Z</time>
      </trkpt>
      <trkpt lat="45.8774" lon="4.77496">
        <ele>225</ele>
        <time>2018-04-15T09:16:06Z</time>
      </trkpt>
      <trkpt lat="45.87736" lon="4.77494">
        <ele>225</ele>
        <time>2018-04-15T09:16:07Z</time>
      </trkpt>
      <trkpt lat="45.87731" lon="4.77493">
        <ele>225</ele>
        <time>2018-04-15T09:16:08Z</time>
      </trkpt>
      <trkpt lat="45.87723" lon="4.77492">
        <ele>226</ele>
        <time>2018-04-15T09:16:10Z</time>
      </trkpt>
      <trkpt lat="45.87718" lon="4.77491">
        <ele>226</ele>
        <time>2018-04-15T09:16:11Z</time>
      </trkpt>
      <trkpt lat="45.8771" lon="4.7749">
        <ele>226</ele>
        <time>2018-04-15T09:16:13Z</time>
      </trkpt>
      <trkpt lat="45.87706" lon="4.7749">
        <ele>226</ele>
        <time>2018-04-15T09:16:14Z</time>
      </trkpt>
      <trkpt lat="45.87698" lon="4.7749">
        <ele>227</ele>
        <time>2018-04-15T09:16:16Z</time>
      </trkpt>
      <trkpt lat="45.87696" lon="4.77489">
        <ele>227</ele>
        <time>2018-04-15T09:16:17Z</time>
      </trkpt>
      <trkpt lat="45.87689" lon="4.7749">
        <ele>227</ele>
        <time>2018-04-15T09:16:20Z</time>
      </trkpt>
      <trkpt lat="45.87687" lon="4.77491">
        <ele>227</ele>
        <time>2018-04-15T09:16:21Z</time>
      </trkpt>
      <trkpt lat="45.8768" lon="4.77491">
        <ele>228</ele>
        <time>2018-04-15T09:16:23Z</time>
      </trkpt>
      <trkpt lat="45.87671" lon="4.77492">
        <ele>228</ele>
        <time>2018-04-15T09:16:24Z</time>
      </trkpt>
      <trkpt lat="45.87664" lon="4.77494">
        <ele>229</ele>
        <time>2018-04-15T09:16:27Z</time>
      </trkpt>
      <trkpt lat="45.87661" lon="4.77494">
        <ele>230</ele>
        <time>2018-04-15T09:16:28Z</time>
      </trkpt>
      <trkpt lat="45.87655" lon="4.77496">
        <ele>230</ele>
        <time>2018-04-15T09:16:30Z</time>
      </trkpt>
      <trkpt lat="45.87651" lon="4.77496">
        <ele>230</ele>
        <time>2018-04-15T09:16:31Z</time>
      </trkpt>
      <trkpt lat="45.87643" lon="4.77497">
        <ele>230</ele>
        <time>2018-04-15T09:16:33Z</time>
      </trkpt>
      <trkpt lat="45.87634" lon="4.77498">
        <ele>231</ele>
        <time>2018-04-15T09:16:34Z</time>
      </trkpt>
      <trkpt lat="45.87629" lon="4.77499">
        <ele>231</ele>
        <time>2018-04-15T09:16:36Z</time>
      </trkpt>
      <trkpt lat="45.87623" lon="4.77501">
        <ele>230</ele>
        <time>2018-04-15T09:16:37Z</time>
      </trkpt>
      <trkpt lat="45.87614" lon="4.77502">
        <ele>230</ele>
        <time>2018-04-15T09:16:41Z</time>
      </trkpt>
      <trkpt lat="45.87612" lon="4.77503">
        <ele>231</ele>
        <time>2018-04-15T09:16:42Z</time>
      </trkpt>
      <trkpt lat="45.87604" lon="4.77503">
        <ele>231</ele>
        <time>2018-04-15T09:16:45Z</time>
      </trkpt>
      <trkpt lat="45.87597" lon="4.77503">
        <ele>231</ele>
        <time>2018-04-15T09:16:46Z</time>
      </trkpt>
      <trkpt lat="45.87589" lon="4.77504">
        <ele>231</ele>
        <time>2018-04-15T09:16:50Z</time>
      </trkpt>
      <trkpt lat="45.87581" lon="4.77506">
        <ele>232</ele>
        <time>2018-04-15T09:16:51Z</time>
      </trkpt>
      <trkpt lat="45.87575" lon="4.77502">
        <ele>232</ele>
        <time>2018-04-15T09:16:53Z</time>
      </trkpt>
      <trkpt lat="45.87573" lon="4.77501">
        <ele>232</ele>
        <time>2018-04-15T09:16:54Z</time>
      </trkpt>
      <trkpt lat="45.87567" lon="4.77494">
        <ele>233</ele>
        <time>2018-04-15T09:16:57Z</time>
      </trkpt>
      <trkpt lat="45.87565" lon="4.77491">
        <ele>233</ele>
        <time>2018-04-15T09:16:58Z</time>
      </trkpt>
      <trkpt lat="45.87559" lon="4.77482">
        <ele>233</ele>
        <time>2018-04-15T09:16:59Z</time>
      </trkpt>
      <trkpt lat="45.87557" lon="4.77478">
        <ele>233</ele>
        <time>2018-04-15T09:17:00Z</time>
      </trkpt>
      <trkpt lat="45.87552" lon="4.77469">
        <ele>233</ele>
        <time>2018-04-15T09:17:02Z</time>
      </trkpt>
      <trkpt lat="45.87549" lon="4.77465">
        <ele>233</ele>
        <time>2018-04-15T09:17:03Z</time>
      </trkpt>
      <trkpt lat="45.87543" lon="4.77456">
        <ele>234</ele>
        <time>2018-04-15T09:17:05Z</time>
      </trkpt>
      <trkpt lat="45.8754" lon="4.77452">
        <ele>234</ele>
        <time>2018-04-15T09:17:06Z</time>
      </trkpt>
      <trkpt lat="45.87534" lon="4.77445">
        <ele>234</ele>
        <time>2018-04-15T09:17:08Z</time>
      </trkpt>
      <trkpt lat="45.87531" lon="4.77441">
        <ele>234</ele>
        <time>2018-04-15T09:17:09Z</time>
      </trkpt>
      <trkpt lat="45.87525" lon="4.77432">
        <ele>233</ele>
        <time>2018-04-15T09:17:11Z</time>
      </trkpt>
      <trkpt lat="45.87521" lon="4.77428">
        <ele>233</ele>
        <time>2018-04-15T09:17:12Z</time>
      </trkpt>
      <trkpt lat="45.87515" lon="4.77419">
        <ele>233</ele>
        <time>2018-04-15T09:17:14Z</time>
      </trkpt>
      <trkpt lat="45.87512" lon="4.77414">
        <ele>233</ele>
        <time>2018-04-15T09:17:15Z</time>
      </trkpt>
      <trkpt lat="45.87509" lon="4.77409">
        <ele>233</ele>
        <time>2018-04-15T09:17:16Z</time>
      </trkpt>
      <trkpt lat="45.87506" lon="4.77404">
        <ele>233</ele>
        <time>2018-04-15T09:17:17Z</time>
      </trkpt>
      <trkpt lat="45.87502" lon="4.77394">
        <ele>233</ele>
        <time>2018-04-15T09:17:19Z</time>
      </trkpt>
      <trkpt lat="45.875" lon="4.77388">
        <ele>235</ele>
        <time>2018-04-15T09:17:20Z</time>
      </trkpt>
      <trkpt lat="45.87497" lon="4.77378">
        <ele>235</ele>
        <time>2018-04-15T09:17:22Z</time>
      </trkpt>
      <trkpt lat="45.87496" lon="4.77373">
        <ele>235</ele>
        <time>2018-04-15T09:17:23Z</time>
      </trkpt>
      <trkpt lat="45.87494" lon="4.77362">
        <ele>235</ele>
        <time>2018-04-15T09:17:25Z</time>
      </trkpt>
      <trkpt lat="45.87492" lon="4.77357">
        <ele>235</ele>
        <time>2018-04-15T09:17:26Z</time>
      </trkpt>
      <trkpt lat="45.8749" lon="4.77347">
        <ele>234</ele>
        <time>2018-04-15T09:17:28Z</time>
      </trkpt>
      <trkpt lat="45.87489" lon="4.77341">
        <ele>234</ele>
        <time>2018-04-15T09:17:29Z</time>
      </trkpt>
      <trkpt lat="45.87487" lon="4.77331">
        <ele>234</ele>
        <time>2018-04-15T09:17:31Z</time>
      </trkpt>
      <trkpt lat="45.87485" lon="4.77325">
        <ele>234</ele>
        <time>2018-04-15T09:17:32Z</time>
      </trkpt>
      <trkpt lat="45.87482" lon="4.77313">
        <ele>235</ele>
        <time>2018-04-15T09:17:34Z</time>
      </trkpt>
      <trkpt lat="45.87481" lon="4.77307">
        <ele>235</ele>
        <time>2018-04-15T09:17:35Z</time>
      </trkpt>
      <trkpt lat="45.87478" lon="4.77295">
        <ele>235</ele>
        <time>2018-04-15T09:17:37Z</time>
      </trkpt>
      <trkpt lat="45.87475" lon="4.77288">
        <ele>235</ele>
        <time>2018-04-15T09:17:38Z</time>
      </trkpt>
      <trkpt lat="45.87474" lon="4.77282">
        <ele>235</ele>
        <time>2018-04-15T09:17:39Z</time>
      </trkpt>
      <trkpt lat="45.87472" lon="4.77275">
        <ele>235</ele>
        <time>2018-04-15T09:17:40Z</time>
      </trkpt>
      <trkpt lat="45.87469" lon="4.7727">
        <ele>235</ele>
        <time>2018-04-15T09:17:41Z</time>
      </trkpt>
      <trkpt lat="45.87467" lon="4.77264">
        <ele>235</ele>
        <time>2018-04-15T09:17:42Z</time>
      </trkpt>
      <trkpt lat="45.87464" lon="4.77259">
        <ele>235</ele>
        <time>2018-04-15T09:17:43Z</time>
      </trkpt>
      <trkpt lat="45.87461" lon="4.77255">
        <ele>235</ele>
        <time>2018-04-15T09:17:44Z</time>
      </trkpt>
      <trkpt lat="45.87457" lon="4.77251">
        <ele>235</ele>
        <time>2018-04-15T09:17:45Z</time>
      </trkpt>
      <trkpt lat="45.87453" lon="4.77246">
        <ele>235</ele>
        <time>2018-04-15T09:17:46Z</time>
      </trkpt>
      <trkpt lat="45.87447" lon="4.77238">
        <ele>235</ele>
        <time>2018-04-15T09:17:48Z</time>
      </trkpt>
      <trkpt lat="45.87443" lon="4.77235">
        <ele>235</ele>
        <time>2018-04-15T09:17:49Z</time>
      </trkpt>
      <trkpt lat="45.87439" lon="4.77232">
        <ele>235</ele>
        <time>2018-04-15T09:17:50Z</time>
      </trkpt>
      <trkpt lat="45.87434" lon="4.7723">
        <ele>235</ele>
        <time>2018-04-15T09:17:51Z</time>
      </trkpt>
      <trkpt lat="45.8743" lon="4.77228">
        <ele>235</ele>
        <time>2018-04-15T09:17:52Z</time>
      </trkpt>
      <trkpt lat="45.87425" lon="4.77226">
        <ele>235</ele>
        <time>2018-04-15T09:17:53Z</time>
      </trkpt>
      <trkpt lat="45.87421" lon="4.77224">
        <ele>235</ele>
        <time>2018-04-15T09:17:54Z</time>
      </trkpt>
      <trkpt lat="45.87416" lon="4.77223">
        <ele>238</ele>
        <time>2018-04-15T09:17:55Z</time>
      </trkpt>
      <trkpt lat="45.87411" lon="4.77221">
        <ele>238</ele>
        <time>2018-04-15T09:17:57Z</time>
      </trkpt>
      <trkpt lat="45.87406" lon="4.77219">
        <ele>238</ele>
        <time>2018-04-15T09:17:58Z</time>
      </trkpt>
      <trkpt lat="45.87401" lon="4.77218">
        <ele>238</ele>
        <time>2018-04-15T09:17:59Z</time>
      </trkpt>
      <trkpt lat="45.87396" lon="4.77217">
        <ele>239</ele>
        <time>2018-04-15T09:18:00Z</time>
      </trkpt>
      <trkpt lat="45.87392" lon="4.77216">
        <ele>239</ele>
        <time>2018-04-15T09:18:01Z</time>
      </trkpt>
      <trkpt lat="45.87386" lon="4.77216">
        <ele>239</ele>
        <time>2018-04-15T09:18:02Z</time>
      </trkpt>
      <trkpt lat="45.87382" lon="4.77216">
        <ele>239</ele>
        <time>2018-04-15T09:18:03Z</time>
      </trkpt>
      <trkpt lat="45.87376" lon="4.77216">
        <ele>239</ele>
        <time>2018-04-15T09:18:04Z</time>
      </trkpt>
      <trkpt lat="45.87368" lon="4.77218">
        <ele>240</ele>
        <time>2018-04-15T09:18:06Z</time>
      </trkpt>
      <trkpt lat="45.87364" lon="4.7722">
        <ele>240</ele>
        <time>2018-04-15T09:18:07Z</time>
      </trkpt>
      <trkpt lat="45.8736" lon="4.77221">
        <ele>240</ele>
        <time>2018-04-15T09:18:08Z</time>
      </trkpt>
      <trkpt lat="45.87353" lon="4.7722">
        <ele>240</ele>
        <time>2018-04-15T09:18:09Z</time>
      </trkpt>
      <trkpt lat="45.87348" lon="4.7722">
        <ele>240</ele>
        <time>2018-04-15T09:18:10Z</time>
      </trkpt>
      <trkpt lat="45.87344" lon="4.77221">
        <ele>240</ele>
        <time>2018-04-15T09:18:11Z</time>
      </trkpt>
      <trkpt lat="45.87335" lon="4.77223">
        <ele>241</ele>
        <time>2018-04-15T09:18:13Z</time>
      </trkpt>
      <trkpt lat="45.87331" lon="4.77223">
        <ele>243</ele>
        <time>2018-04-15T09:18:14Z</time>
      </trkpt>
      <trkpt lat="45.87326" lon="4.77223">
        <ele>243</ele>
        <time>2018-04-15T09:18:15Z</time>
      </trkpt>
      <trkpt lat="45.87322" lon="4.77223">
        <ele>244</ele>
        <time>2018-04-15T09:18:16Z</time>
      </trkpt>
      <trkpt lat="45.87316" lon="4.77222">
        <ele>244</ele>
        <time>2018-04-15T09:18:17Z</time>
      </trkpt>
      <trkpt lat="45.87311" lon="4.77221">
        <ele>244</ele>
        <time>2018-04-15T09:18:18Z</time>
      </trkpt>
      <trkpt lat="45.87303" lon="4.77219">
        <ele>244</ele>
        <time>2018-04-15T09:18:20Z</time>
      </trkpt>
      <trkpt lat="45.87299" lon="4.77216">
        <ele>244</ele>
        <time>2018-04-15T09:18:21Z</time>
      </trkpt>
      <trkpt lat="45.87291" lon="4.77209">
        <ele>244</ele>
        <time>2018-04-15T09:18:23Z</time>
      </trkpt>
      <trkpt lat="45.87287" lon="4.77205">
        <ele>244</ele>
        <time>2018-04-15T09:18:24Z</time>
      </trkpt>
      <trkpt lat="45.87285" lon="4.772">
        <ele>244</ele>
        <time>2018-04-15T09:18:25Z</time>
      </trkpt>
      <trkpt lat="45.87283" lon="4.77193">
        <ele>244</ele>
        <time>2018-04-15T09:18:26Z</time>
      </trkpt>
      <trkpt lat="45.87281" lon="4.77186">
        <ele>244</ele>
        <time>2018-04-15T09:18:27Z</time>
      </trkpt>
      <trkpt lat="45.87279" lon="4.7718">
        <ele>244</ele>
        <time>2018-04-15T09:18:28Z</time>
      </trkpt>
      <trkpt lat="45.87279" lon="4.77172">
        <ele>244</ele>
        <time>2018-04-15T09:18:29Z</time>
      </trkpt>
      <trkpt lat="45.87279" lon="4.77165">
        <ele>242</ele>
        <time>2018-04-15T09:18:30Z</time>
      </trkpt>
      <trkpt lat="45.87278" lon="4.77159">
        <ele>241</ele>
        <time>2018-04-15T09:18:31Z</time>
      </trkpt>
      <trkpt lat="45.87277" lon="4.77152">
        <ele>241</ele>
        <time>2018-04-15T09:18:32Z</time>
      </trkpt>
      <trkpt lat="45.87276" lon="4.77145">
        <ele>241</ele>
        <time>2018-04-15T09:18:33Z</time>
      </trkpt>
      <trkpt lat="45.87275" lon="4.77138">
        <ele>241</ele>
        <time>2018-04-15T09:18:34Z</time>
      </trkpt>
      <trkpt lat="45.87276" lon="4.77131">
        <ele>241</ele>
        <time>2018-04-15T09:18:35Z</time>
      </trkpt>
      <trkpt lat="45.87276" lon="4.77123">
        <ele>241</ele>
        <time>2018-04-15T09:18:36Z</time>
      </trkpt>
      <trkpt lat="45.87275" lon="4.77116">
        <ele>240</ele>
        <time>2018-04-15T09:18:37Z</time>
      </trkpt>
      <trkpt lat="45.87276" lon="4.77109">
        <ele>240</ele>
        <time>2018-04-15T09:18:38Z</time>
      </trkpt>
      <trkpt lat="45.87275" lon="4.77102">
        <ele>240</ele>
        <time>2018-04-15T09:18:39Z</time>
      </trkpt>
      <trkpt lat="45.87275" lon="4.77094">
        <ele>240</ele>
        <time>2018-04-15T09:18:40Z</time>
      </trkpt>
      <trkpt lat="45.87275" lon="4.77088">
        <ele>240</ele>
        <time>2018-04-15T09:18:41Z</time>
      </trkpt>
      <trkpt lat="45.87276" lon="4.77081">
        <ele>239</ele>
        <time>2018-04-15T09:18:42Z</time>
      </trkpt>
      <trkpt lat="45.87275" lon="4.77075">
        <ele>239</ele>
        <time>2018-04-15T09:18:43Z</time>
      </trkpt>
      <trkpt lat="45.87277" lon="4.77067">
        <ele>239</ele>
        <time>2018-04-15T09:18:44Z</time>
      </trkpt>
      <trkpt lat="45.87277" lon="4.7706">
        <ele>239</ele>
        <time>2018-04-15T09:18:45Z</time>
      </trkpt>
      <trkpt lat="45.87278" lon="4.77053">
        <ele>239</ele>
        <time>2018-04-15T09:18:46Z</time>
      </trkpt>
      <trkpt lat="45.87278" lon="4.77045">
        <ele>239</ele>
        <time>2018-04-15T09:18:47Z</time>
      </trkpt>
      <trkpt lat="45.87278" lon="4.77038">
        <ele>239</ele>
        <time>2018-04-15T09:18:48Z</time>
      </trkpt>
      <trkpt lat="45.87277" lon="4.7703">
        <ele>239</ele>
        <time>2018-04-15T09:18:49Z</time>
      </trkpt>
      <trkpt lat="45.87274" lon="4.77022">
        <ele>239</ele>
        <time>2018-04-15T09:18:50Z</time>
      </trkpt>
      <trkpt lat="45.87274" lon="4.77015">
        <ele>239</ele>
        <time>2018-04-15T09:18:51Z</time>
      </trkpt>
      <trkpt lat="45.87271" lon="4.77007">
        <ele>239</ele>
        <time>2018-04-15T09:18:52Z</time>
      </trkpt>
      <trkpt lat="45.87272" lon="4.77">
        <ele>240</ele>
        <time>2018-04-15T09:18:53Z</time>
      </trkpt>
      <trkpt lat="45.87271" lon="4.76992">
        <ele>240</ele>
        <time>2018-04-15T09:18:54Z</time>
      </trkpt>
      <trkpt lat="45.87271" lon="4.76984">
        <ele>240</ele>
        <time>2018-04-15T09:18:55Z</time>
      </trkpt>
      <trkpt lat="45.87271" lon="4.76976">
        <ele>240</ele>
        <time>2018-04-15T09:18:56Z</time>
      </trkpt>
      <trkpt lat="45.87271" lon="4.76969">
        <ele>240</ele>
        <time>2018-04-15T09:18:57Z</time>
      </trkpt>
      <trkpt lat="45.87271" lon="4.76962">
        <ele>240</ele>
        <time>2018-04-15T09:18:58Z</time>
      </trkpt>
      <trkpt lat="45.87272" lon="4.76954">
        <ele>240</ele>
        <time>2018-04-15T09:18:59Z</time>
      </trkpt>
      <trkpt lat="45.87273" lon="4.76947">
        <ele>240</ele>
        <time>2018-04-15T09:19:00Z</time>
      </trkpt>
      <trkpt lat="45.87273" lon="4.76939">
        <ele>241</ele>
        <time>2018-04-15T09:19:01Z</time>
      </trkpt>
      <trkpt lat="45.87273" lon="4.76931">
        <ele>241</ele>
        <time>2018-04-15T09:19:02Z</time>
      </trkpt>
      <trkpt lat="45.87272" lon="4.76921">
        <ele>241</ele>
        <time>2018-04-15T09:19:03Z</time>
      </trkpt>
      <trkpt lat="45.87272" lon="4.76912">
        <ele>241</ele>
        <time>2018-04-15T09:19:04Z</time>
      </trkpt>
      <trkpt lat="45.87272" lon="4.76903">
        <ele>240</ele>
        <time>2018-04-15T09:19:05Z</time>
      </trkpt>
      <trkpt lat="45.87272" lon="4.76893">
        <ele>240</ele>
        <time>2018-04-15T09:19:06Z</time>
      </trkpt>
      <trkpt lat="45.87273" lon="4.76885">
        <ele>240</ele>
        <time>2018-04-15T09:19:07Z</time>
      </trkpt>
      <trkpt lat="45.87273" lon="4.76875">
        <ele>240</ele>
        <time>2018-04-15T09:19:08Z</time>
      </trkpt>
      <trkpt lat="45.87273" lon="4.76865">
        <ele>239</ele>
        <time>2018-04-15T09:19:09Z</time>
      </trkpt>
      <trkpt lat="45.87272" lon="4.76857">
        <ele>239</ele>
        <time>2018-04-15T09:19:10Z</time>
      </trkpt>
      <trkpt lat="45.87273" lon="4.76849">
        <ele>239</ele>
        <time>2018-04-15T09:19:11Z</time>
      </trkpt>
      <trkpt lat="45.87272" lon="4.7684">
        <ele>239</ele>
        <time>2018-04-15T09:19:12Z</time>
      </trkpt>
      <trkpt lat="45.87274" lon="4.76831">
        <ele>237</ele>
        <time>2018-04-15T09:19:13Z</time>
      </trkpt>
      <trkpt lat="45.87274" lon="4.76821">
        <ele>237</ele>
        <time>2018-04-15T09:19:14Z</time>
      </trkpt>
      <trkpt lat="45.87274" lon="4.76812">
        <ele>237</ele>
        <time>2018-04-15T09:19:15Z</time>
      </trkpt>
      <trkpt lat="45.87273" lon="4.76802">
        <ele>236</ele>
        <time>2018-04-15T09:19:16Z</time>
      </trkpt>
      <trkpt lat="45.87272" lon="4.76792">
        <ele>236</ele>
        <time>2018-04-15T09:19:17Z</time>
      </trkpt>
      <trkpt lat="45.87272" lon="4.76783">
        <ele>236</ele>
        <time>2018-04-15T09:19:18Z</time>
      </trkpt>
      <trkpt lat="45.87273" lon="4.76774">
        <ele>236</ele>
        <time>2018-04-15T09:19:19Z</time>
      </trkpt>
      <trkpt lat="45.87272" lon="4.76764">
        <ele>236</ele>
        <time>2018-04-15T09:19:20Z</time>
      </trkpt>
      <trkpt lat="45.87272" lon="4.76755">
        <ele>236</ele>
        <time>2018-04-15T09:19:21Z</time>
      </trkpt>
      <trkpt lat="45.87272" lon="4.76747">
        <ele>234</ele>
        <time>2018-04-15T09:19:22Z</time>
      </trkpt>
      <trkpt lat="45.8727" lon="4.76739">
        <ele>234</ele>
        <time>2018-04-15T09:19:23Z</time>
      </trkpt>
      <trkpt lat="45.87269" lon="4.76731">
        <ele>234</ele>
        <time>2018-04-15T09:19:24Z</time>
      </trkpt>
      <trkpt lat="45.87268" lon="4.76722">
        <ele>234</ele>
        <time>2018-04-15T09:19:25Z</time>
      </trkpt>
      <trkpt lat="45.87268" lon="4.76713">
        <ele>234</ele>
        <time>2018-04-15T09:19:26Z</time>
      </trkpt>
      <trkpt lat="45.87268" lon="4.76704">
        <ele>234</ele>
        <time>2018-04-15T09:19:27Z</time>
      </trkpt>
      <trkpt lat="45.87268" lon="4.76695">
        <ele>234</ele>
        <time>2018-04-15T09:19:28Z</time>
      </trkpt>
      <trkpt lat="45.87268" lon="4.76686">
        <ele>234</ele>
        <time>2018-04-15T09:19:29Z</time>
      </trkpt>
      <trkpt lat="45.87268" lon="4.76677">
        <ele>234</ele>
        <time>2018-04-15T09:19:30Z</time>
      </trkpt>
      <trkpt lat="45.87268" lon="4.76669">
        <ele>234</ele>
        <time>2018-04-15T09:19:31Z</time>
      </trkpt>
      <trkpt lat="45.87268" lon="4.7666">
        <ele>234</ele>
        <time>2018-04-15T09:19:32Z</time>
      </trkpt>
      <trkpt lat="45.87268" lon="4.76651">
        <ele>234</ele>
        <time>2018-04-15T09:19:33Z</time>
      </trkpt>
      <trkpt lat="45.87268" lon="4.76642">
        <ele>234</ele>
        <time>2018-04-15T09:19:34Z</time>
      </trkpt>
      <trkpt lat="45.87268" lon="4.76633">
        <ele>234</ele>
        <time>2018-04-15T09:19:35Z</time>
      </trkpt>
      <trkpt lat="45.87268" lon="4.76624">
        <ele>234</ele>
        <time>2018-04-15T09:19:36Z</time>
      </trkpt>
      <trkpt lat="45.87268" lon="4.76616">
        <ele>234</ele>
        <time>2018-04-15T09:19:37Z</time>
      </trkpt>
      <trkpt lat="45.87268" lon="4.76607">
        <ele>234</ele>
        <time>2018-04-15T09:19:38Z</time>
      </trkpt>
      <trkpt lat="45.87267" lon="4.76598">
        <ele>235</ele>
        <time>2018-04-15T09:19:39Z</time>
      </trkpt>
      <trkpt lat="45.87265" lon="4.76587">
        <ele>235</ele>
        <time>2018-04-15T09:19:40Z</time>
      </trkpt>
      <trkpt lat="45.87265" lon="4.76579">
        <ele>236</ele>
        <time>2018-04-15T09:19:41Z</time>
      </trkpt>
      <trkpt lat="45.87264" lon="4.76569">
        <ele>235</ele>
        <time>2018-04-15T09:19:42Z</time>
      </trkpt>
      <trkpt lat="45.87263" lon="4.7656">
        <ele>235</ele>
        <time>2018-04-15T09:19:43Z</time>
      </trkpt>
      <trkpt lat="45.87264" lon="4.76552">
        <ele>235</ele>
        <time>2018-04-15T09:19:44Z</time>
      </trkpt>
      <trkpt lat="45.87265" lon="4.76545">
        <ele>235</ele>
        <time>2018-04-15T09:19:45Z</time>
      </trkpt>
      <trkpt lat="45.87266" lon="4.76537">
        <ele>235</ele>
        <time>2018-04-15T09:19:46Z</time>
      </trkpt>
      <trkpt lat="45.87266" lon="4.7653">
        <ele>236</ele>
        <time>2018-04-15T09:19:47Z</time>
      </trkpt>
      <trkpt lat="45.87266" lon="4.76523">
        <ele>236</ele>
        <time>2018-04-15T09:19:48Z</time>
      </trkpt>
      <trkpt lat="45.87265" lon="4.76515">
        <ele>236</ele>
        <time>2018-04-15T09:19:49Z</time>
      </trkpt>
      <trkpt lat="45.87267" lon="4.76507">
        <ele>236</ele>
        <time>2018-04-15T09:19:50Z</time>
      </trkpt>
      <trkpt lat="45.87267" lon="4.765">
        <ele>236</ele>
        <time>2018-04-15T09:19:51Z</time>
      </trkpt>
      <trkpt lat="45.87266" lon="4.76493">
        <ele>236</ele>
        <time>2018-04-15T09:19:52Z</time>
      </trkpt>
      <trkpt lat="45.87265" lon="4.76485">
        <ele>236</ele>
        <time>2018-04-15T09:19:53Z</time>
      </trkpt>
      <trkpt lat="45.87264" lon="4.76477">
        <ele>236</ele>
        <time>2018-04-15T09:19:54Z</time>
      </trkpt>
      <trkpt lat="45.87265" lon="4.76469">
        <ele>235</ele>
        <time>2018-04-15T09:19:55Z</time>
      </trkpt>
      <trkpt lat="45.87264" lon="4.76461">
        <ele>235</ele>
        <time>2018-04-15T09:19:56Z</time>
      </trkpt>
      <trkpt lat="45.87264" lon="4.76452">
        <ele>235</ele>
        <time>2018-04-15T09:19:57Z</time>
      </trkpt>
      <trkpt lat="45.87264" lon="4.76444">
        <ele>235</ele>
        <time>2018-04-15T09:19:58Z</time>
      </trkpt>
      <trkpt lat="45.87262" lon="4.76435">
        <ele>235</ele>
        <time>2018-04-15T09:19:59Z</time>
      </trkpt>
      <trkpt lat="45.87262" lon="4.76427">
        <ele>235</ele>
        <time>2018-04-15T09:20:00Z</time>
      </trkpt>
      <trkpt lat="45.8726" lon="4.76417">
        <ele>236</ele>
        <time>2018-04-15T09:20:01Z</time>
      </trkpt>
      <trkpt lat="45.8726" lon="4.76409">
        <ele>235</ele>
        <time>2018-04-15T09:20:02Z</time>
      </trkpt>
      <trkpt lat="45.8726" lon="4.764">
        <ele>234</ele>
        <time>2018-04-15T09:20:03Z</time>
      </trkpt>
      <trkpt lat="45.8726" lon="4.76391">
        <ele>234</ele>
        <time>2018-04-15T09:20:04Z</time>
      </trkpt>
      <trkpt lat="45.8726" lon="4.76384">
        <ele>234</ele>
        <time>2018-04-15T09:20:05Z</time>
      </trkpt>
      <trkpt lat="45.8726" lon="4.76376">
        <ele>234</ele>
        <time>2018-04-15T09:20:06Z</time>
      </trkpt>
      <trkpt lat="45.87261" lon="4.76366">
        <ele>234</ele>
        <time>2018-04-15T09:20:07Z</time>
      </trkpt>
      <trkpt lat="45.8726" lon="4.76357">
        <ele>233</ele>
        <time>2018-04-15T09:20:08Z</time>
      </trkpt>
      <trkpt lat="45.8726" lon="4.76348">
        <ele>234</ele>
        <time>2018-04-15T09:20:09Z</time>
      </trkpt>
      <trkpt lat="45.87261" lon="4.76339">
        <ele>234</ele>
        <time>2018-04-15T09:20:10Z</time>
      </trkpt>
      <trkpt lat="45.8726" lon="4.7633">
        <ele>233</ele>
        <time>2018-04-15T09:20:11Z</time>
      </trkpt>
      <trkpt lat="45.8726" lon="4.76321">
        <ele>233</ele>
        <time>2018-04-15T09:20:12Z</time>
      </trkpt>
      <trkpt lat="45.87259" lon="4.76315">
        <ele>233</ele>
        <time>2018-04-15T09:20:13Z</time>
      </trkpt>
      <trkpt lat="45.87259" lon="4.76308">
        <ele>233</ele>
        <time>2018-04-15T09:20:14Z</time>
      </trkpt>
      <trkpt lat="45.87258" lon="4.76299">
        <ele>233</ele>
        <time>2018-04-15T09:20:15Z</time>
      </trkpt>
      <trkpt lat="45.87259" lon="4.76291">
        <ele>233</ele>
        <time>2018-04-15T09:20:16Z</time>
      </trkpt>
      <trkpt lat="45.8726" lon="4.76283">
        <ele>233</ele>
        <time>2018-04-15T09:20:17Z</time>
      </trkpt>
      <trkpt lat="45.87258" lon="4.76273">
        <ele>233</ele>
        <time>2018-04-15T09:20:18Z</time>
      </trkpt>
      <trkpt lat="45.87258" lon="4.76263">
        <ele>234</ele>
        <time>2018-04-15T09:20:19Z</time>
      </trkpt>
      <trkpt lat="45.87257" lon="4.76252">
        <ele>234</ele>
        <time>2018-04-15T09:20:20Z</time>
      </trkpt>
      <trkpt lat="45.87258" lon="4.76241">
        <ele>234</ele>
        <time>2018-04-15T09:20:21Z</time>
      </trkpt>
      <trkpt lat="45.87258" lon="4.76231">
        <ele>233</ele>
        <time>2018-04-15T09:20:22Z</time>
      </trkpt>
      <trkpt lat="45.87257" lon="4.76221">
        <ele>233</ele>
        <time>2018-04-15T09:20:23Z</time>
      </trkpt>
      <trkpt lat="45.87258" lon="4.76213">
        <ele>232</ele>
        <time>2018-04-15T09:20:24Z</time>
      </trkpt>
      <trkpt lat="45.87258" lon="4.76204">
        <ele>232</ele>
        <time>2018-04-15T09:20:25Z</time>
      </trkpt>
      <trkpt lat="45.87258" lon="4.76196">
        <ele>232</ele>
        <time>2018-04-15T09:20:26Z</time>
      </trkpt>
      <trkpt lat="45.87257" lon="4.76188">
        <ele>232</ele>
        <time>2018-04-15T09:20:27Z</time>
      </trkpt>
      <trkpt lat="45.87258" lon="4.76179">
        <ele>232</ele>
        <time>2018-04-15T09:20:28Z</time>
      </trkpt>
      <trkpt lat="45.87255" lon="4.76171">
        <ele>232</ele>
        <time>2018-04-15T09:20:29Z</time>
      </trkpt>
      <trkpt lat="45.87255" lon="4.76163">
        <ele>232</ele>
        <time>2018-04-15T09:20:30Z</time>
      </trkpt>
      <trkpt lat="45.87254" lon="4.76154">
        <ele>231</ele>
        <time>2018-04-15T09:20:31Z</time>
      </trkpt>
      <trkpt lat="45.87254" lon="4.76146">
        <ele>231</ele>
        <time>2018-04-15T09:20:32Z</time>
      </trkpt>
      <trkpt lat="45.87253" lon="4.76138">
        <ele>231</ele>
        <time>2018-04-15T09:20:33Z</time>
      </trkpt>
      <trkpt lat="45.87253" lon="4.7613">
        <ele>230</ele>
        <time>2018-04-15T09:20:34Z</time>
      </trkpt>
      <trkpt lat="45.87253" lon="4.76121">
        <ele>230</ele>
        <time>2018-04-15T09:20:35Z</time>
      </trkpt>
      <trkpt lat="45.87252" lon="4.76111">
        <ele>230</ele>
        <time>2018-04-15T09:20:36Z</time>
      </trkpt>
      <trkpt lat="45.87251" lon="4.76103">
        <ele>230</ele>
        <time>2018-04-15T09:20:37Z</time>
      </trkpt>
      <trkpt lat="45.87251" lon="4.76095">
        <ele>230</ele>
        <time>2018-04-15T09:20:38Z</time>
      </trkpt>
      <trkpt lat="45.8725" lon="4.76086">
        <ele>230</ele>
        <time>2018-04-15T09:20:39Z</time>
      </trkpt>
      <trkpt lat="45.87249" lon="4.76075">
        <ele>230</ele>
        <time>2018-04-15T09:20:40Z</time>
      </trkpt>
      <trkpt lat="45.87249" lon="4.76065">
        <ele>230</ele>
        <time>2018-04-15T09:20:41Z</time>
      </trkpt>
      <trkpt lat="45.87249" lon="4.76056">
        <ele>230</ele>
        <time>2018-04-15T09:20:42Z</time>
      </trkpt>
      <trkpt lat="45.87248" lon="4.76047">
        <ele>230</ele>
        <time>2018-04-15T09:20:43Z</time>
      </trkpt>
      <trkpt lat="45.87246" lon="4.76037">
        <ele>230</ele>
        <time>2018-04-15T09:20:44Z</time>
      </trkpt>
      <trkpt lat="45.87246" lon="4.76028">
        <ele>230</ele>
        <time>2018-04-15T09:20:45Z</time>
      </trkpt>
      <trkpt lat="45.87245" lon="4.76018">
        <ele>229</ele>
        <time>2018-04-15T09:20:46Z</time>
      </trkpt>
      <trkpt lat="45.87244" lon="4.76008">
        <ele>229</ele>
        <time>2018-04-15T09:20:47Z</time>
      </trkpt>
      <trkpt lat="45.87243" lon="4.75997">
        <ele>228</ele>
        <time>2018-04-15T09:20:48Z</time>
      </trkpt>
      <trkpt lat="45.87242" lon="4.75986">
        <ele>228</ele>
        <time>2018-04-15T09:20:49Z</time>
      </trkpt>
      <trkpt lat="45.87241" lon="4.75976">
        <ele>228</ele>
        <time>2018-04-15T09:20:50Z</time>
      </trkpt>
      <trkpt lat="45.87239" lon="4.75965">
        <ele>228</ele>
        <time>2018-04-15T09:20:51Z</time>
      </trkpt>
      <trkpt lat="45.87238" lon="4.75955">
        <ele>228</ele>
        <time>2018-04-15T09:20:52Z</time>
      </trkpt>
      <trkpt lat="45.87237" lon="4.75944">
        <ele>228</ele>
        <time>2018-04-15T09:20:53Z</time>
      </trkpt>
      <trkpt lat="45.87237" lon="4.75932">
        <ele>228</ele>
        <time>2018-04-15T09:20:54Z</time>
      </trkpt>
      <trkpt lat="45.87236" lon="4.75921">
        <ele>228</ele>
        <time>2018-04-15T09:20:55Z</time>
      </trkpt>
      <trkpt lat="45.87234" lon="4.7591">
        <ele>227</ele>
        <time>2018-04-15T09:20:56Z</time>
      </trkpt>
      <trkpt lat="45.87233" lon="4.75899">
        <ele>227</ele>
        <time>2018-04-15T09:20:57Z</time>
      </trkpt>
      <trkpt lat="45.87233" lon="4.75887">
        <ele>226</ele>
        <time>2018-04-15T09:20:58Z</time>
      </trkpt>
      <trkpt lat="45.87231" lon="4.75876">
        <ele>226</ele>
        <time>2018-04-15T09:20:59Z</time>
      </trkpt>
      <trkpt lat="45.87229" lon="4.75864">
        <ele>226</ele>
        <time>2018-04-15T09:21:00Z</time>
      </trkpt>
      <trkpt lat="45.87227" lon="4.75853">
        <ele>226</ele>
        <time>2018-04-15T09:21:01Z</time>
      </trkpt>
      <trkpt lat="45.87225" lon="4.75842">
        <ele>226</ele>
        <time>2018-04-15T09:21:02Z</time>
      </trkpt>
      <trkpt lat="45.87223" lon="4.75831">
        <ele>224</ele>
        <time>2018-04-15T09:21:03Z</time>
      </trkpt>
      <trkpt lat="45.87221" lon="4.75819">
        <ele>224</ele>
        <time>2018-04-15T09:21:04Z</time>
      </trkpt>
      <trkpt lat="45.87218" lon="4.75808">
        <ele>224</ele>
        <time>2018-04-15T09:21:05Z</time>
      </trkpt>
      <trkpt lat="45.87215" lon="4.75797">
        <ele>224</ele>
        <time>2018-04-15T09:21:06Z</time>
      </trkpt>
      <trkpt lat="45.87212" lon="4.75786">
        <ele>224</ele>
        <time>2018-04-15T09:21:07Z</time>
      </trkpt>
      <trkpt lat="45.87209" lon="4.75776">
        <ele>224</ele>
        <time>2018-04-15T09:21:08Z</time>
      </trkpt>
      <trkpt lat="45.87206" lon="4.75767">
        <ele>224</ele>
        <time>2018-04-15T09:21:09Z</time>
      </trkpt>
      <trkpt lat="45.87201" lon="4.75757">
        <ele>224</ele>
        <time>2018-04-15T09:21:10Z</time>
      </trkpt>
      <trkpt lat="45.87198" lon="4.75748">
        <ele>223</ele>
        <time>2018-04-15T09:21:11Z</time>
      </trkpt>
      <trkpt lat="45.87195" lon="4.7574">
        <ele>223</ele>
        <time>2018-04-15T09:21:12Z</time>
      </trkpt>
      <trkpt lat="45.87194" lon="4.75731">
        <ele>223</ele>
        <time>2018-04-15T09:21:13Z</time>
      </trkpt>
      <trkpt lat="45.87192" lon="4.75721">
        <ele>223</ele>
        <time>2018-04-15T09:21:14Z</time>
      </trkpt>
      <trkpt lat="45.87191" lon="4.75713">
        <ele>223</ele>
        <time>2018-04-15T09:21:15Z</time>
      </trkpt>
      <trkpt lat="45.87189" lon="4.75705">
        <ele>223</ele>
        <time>2018-04-15T09:21:16Z</time>
      </trkpt>
      <trkpt lat="45.87189" lon="4.75696">
        <ele>223</ele>
        <time>2018-04-15T09:21:17Z</time>
      </trkpt>
      <trkpt lat="45.87187" lon="4.75687">
        <ele>223</ele>
        <time>2018-04-15T09:21:18Z</time>
      </trkpt>
      <trkpt lat="45.87186" lon="4.75678">
        <ele>223</ele>
        <time>2018-04-15T09:21:19Z</time>
      </trkpt>
      <trkpt lat="45.87185" lon="4.75668">
        <ele>223</ele>
        <time>2018-04-15T09:21:20Z</time>
      </trkpt>
      <trkpt lat="45.87184" lon="4.75657">
        <ele>222</ele>
        <time>2018-04-15T09:21:21Z</time>
      </trkpt>
      <trkpt lat="45.87184" lon="4.75649">
        <ele>222</ele>
        <time>2018-04-15T09:21:22Z</time>
      </trkpt>
      <trkpt lat="45.87184" lon="4.75639">
        <ele>222</ele>
        <time>2018-04-15T09:21:23Z</time>
      </trkpt>
      <trkpt lat="45.87184" lon="4.75631">
        <ele>222</ele>
        <time>2018-04-15T09:21:24Z</time>
      </trkpt>
      <trkpt lat="45.87185" lon="4.75621">
        <ele>222</ele>
        <time>2018-04-15T09:21:25Z</time>
      </trkpt>
      <trkpt lat="45.87185" lon="4.75611">
        <ele>222</ele>
        <time>2018-04-15T09:21:26Z</time>
      </trkpt>
      <trkpt lat="45.87185" lon="4.75602">
        <ele>222</ele>
        <time>2018-04-15T09:21:27Z</time>
      </trkpt>
      <trkpt lat="45.87186" lon="4.75593">
        <ele>222</ele>
        <time>2018-04-15T09:21:28Z</time>
      </trkpt>
      <trkpt lat="45.87185" lon="4.75585">
        <ele>222</ele>
        <time>2018-04-15T09:21:29Z</time>
      </trkpt>
      <trkpt lat="45.87185" lon="4.75576">
        <ele>222</ele>
        <time>2018-04-15T09:21:30Z</time>
      </trkpt>
      <trkpt lat="45.87186" lon="4.75566">
        <ele>222</ele>
        <time>2018-04-15T09:21:31Z</time>
      </trkpt>
      <trkpt lat="45.87186" lon="4.75556">
        <ele>222</ele>
        <time>2018-04-15T09:21:32Z</time>
      </trkpt>
      <trkpt lat="45.87186" lon="4.75547">
        <ele>222</ele>
        <time>2018-04-15T09:21:33Z</time>
      </trkpt>
      <trkpt lat="45.87186" lon="4.75537">
        <ele>222</ele>
        <time>2018-04-15T09:21:34Z</time>
      </trkpt>
      <trkpt lat="45.87186" lon="4.75527">
        <ele>222</ele>
        <time>2018-04-15T09:21:35Z</time>
      </trkpt>
      <trkpt lat="45.87186" lon="4.75517">
        <ele>222</ele>
        <time>2018-04-15T09:21:36Z</time>
      </trkpt>
      <trkpt lat="45.87186" lon="4.75508">
        <ele>222</ele>
        <time>2018-04-15T09:21:37Z</time>
      </trkpt>
      <trkpt lat="45.87185" lon="4.75498">
        <ele>222</ele>
        <time>2018-04-15T09:21:38Z</time>
      </trkpt>
      <trkpt lat="45.87186" lon="4.75486">
        <ele>222</ele>
        <time>2018-04-15T09:21:39Z</time>
      </trkpt>
      <trkpt lat="45.87186" lon="4.75478">
        <ele>222</ele>
        <time>2018-04-15T09:21:40Z</time>
      </trkpt>
      <trkpt lat="45.87185" lon="4.7547">
        <ele>222</ele>
        <time>2018-04-15T09:21:41Z</time>
      </trkpt>
      <trkpt lat="45.87184" lon="4.75461">
        <ele>222</ele>
        <time>2018-04-15T09:21:42Z</time>
      </trkpt>
      <trkpt lat="45.87184" lon="4.75452">
        <ele>222</ele>
        <time>2018-04-15T09:21:43Z</time>
      </trkpt>
      <trkpt lat="45.87184" lon="4.75443">
        <ele>222</ele>
        <time>2018-04-15T09:21:44Z</time>
      </trkpt>
      <trkpt lat="45.87183" lon="4.75435">
        <ele>222</ele>
        <time>2018-04-15T09:21:45Z</time>
      </trkpt>
      <trkpt lat="45.87183" lon="4.75427">
        <ele>222</ele>
        <time>2018-04-15T09:21:46Z</time>
      </trkpt>
      <trkpt lat="45.87182" lon="4.75417">
        <ele>223</ele>
        <time>2018-04-15T09:21:47Z</time>
      </trkpt>
      <trkpt lat="45.87181" lon="4.75409">
        <ele>223</ele>
        <time>2018-04-15T09:21:48Z</time>
      </trkpt>
      <trkpt lat="45.8718" lon="4.75401">
        <ele>223</ele>
        <time>2018-04-15T09:21:49Z</time>
      </trkpt>
      <trkpt lat="45.87181" lon="4.75392">
        <ele>223</ele>
        <time>2018-04-15T09:21:50Z</time>
      </trkpt>
      <trkpt lat="45.8718" lon="4.75384">
        <ele>223</ele>
        <time>2018-04-15T09:21:51Z</time>
      </trkpt>
      <trkpt lat="45.8718" lon="4.75375">
        <ele>223</ele>
        <time>2018-04-15T09:21:52Z</time>
      </trkpt>
      <trkpt lat="45.87179" lon="4.75366">
        <ele>223</ele>
        <time>2018-04-15T09:21:53Z</time>
      </trkpt>
      <trkpt lat="45.87179" lon="4.75358">
        <ele>223</ele>
        <time>2018-04-15T09:21:54Z</time>
      </trkpt>
      <trkpt lat="45.87179" lon="4.7535">
        <ele>223</ele>
        <time>2018-04-15T09:21:55Z</time>
      </trkpt>
      <trkpt lat="45.87179" lon="4.75342">
        <ele>223</ele>
        <time>2018-04-15T09:21:56Z</time>
      </trkpt>
      <trkpt lat="45.87179" lon="4.75335">
        <ele>223</ele>
        <time>2018-04-15T09:21:57Z</time>
      </trkpt>
      <trkpt lat="45.87177" lon="4.75327">
        <ele>223</ele>
        <time>2018-04-15T09:21:58Z</time>
      </trkpt>
      <trkpt lat="45.87177" lon="4.7532">
        <ele>223</ele>
        <time>2018-04-15T09:21:59Z</time>
      </trkpt>
      <trkpt lat="45.87176" lon="4.75312">
        <ele>223</ele>
        <time>2018-04-15T09:22:00Z</time>
      </trkpt>
      <trkpt lat="45.87176" lon="4.75304">
        <ele>223</ele>
        <time>2018-04-15T09:22:01Z</time>
      </trkpt>
      <trkpt lat="45.87175" lon="4.75296">
        <ele>223</ele>
        <time>2018-04-15T09:22:02Z</time>
      </trkpt>
      <trkpt lat="45.87175" lon="4.75289">
        <ele>223</ele>
        <time>2018-04-15T09:22:03Z</time>
      </trkpt>
      <trkpt lat="45.87174" lon="4.75282">
        <ele>223</ele>
        <time>2018-04-15T09:22:04Z</time>
      </trkpt>
      <trkpt lat="45.87174" lon="4.75275">
        <ele>223</ele>
        <time>2018-04-15T09:22:05Z</time>
      </trkpt>
      <trkpt lat="45.87173" lon="4.75268">
        <ele>223</ele>
        <time>2018-04-15T09:22:06Z</time>
      </trkpt>
      <trkpt lat="45.87171" lon="4.7526">
        <ele>223</ele>
        <time>2018-04-15T09:22:07Z</time>
      </trkpt>
      <trkpt lat="45.87169" lon="4.75253">
        <ele>223</ele>
        <time>2018-04-15T09:22:08Z</time>
      </trkpt>
      <trkpt lat="45.87167" lon="4.75246">
        <ele>223</ele>
        <time>2018-04-15T09:22:09Z</time>
      </trkpt>
      <trkpt lat="45.87166" lon="4.7524">
        <ele>224</ele>
        <time>2018-04-15T09:22:10Z</time>
      </trkpt>
      <trkpt lat="45.87163" lon="4.75234">
        <ele>224</ele>
        <time>2018-04-15T09:22:11Z</time>
      </trkpt>
      <trkpt lat="45.87162" lon="4.75227">
        <ele>224</ele>
        <time>2018-04-15T09:22:12Z</time>
      </trkpt>
      <trkpt lat="45.8716" lon="4.7522">
        <ele>224</ele>
        <time>2018-04-15T09:22:13Z</time>
      </trkpt>
      <trkpt lat="45.87159" lon="4.75213">
        <ele>225</ele>
        <time>2018-04-15T09:22:14Z</time>
      </trkpt>
      <trkpt lat="45.87157" lon="4.75206">
        <ele>225</ele>
        <time>2018-04-15T09:22:15Z</time>
      </trkpt>
      <trkpt lat="45.87155" lon="4.75198">
        <ele>225</ele>
        <time>2018-04-15T09:22:16Z</time>
      </trkpt>
      <trkpt lat="45.87154" lon="4.75192">
        <ele>225</ele>
        <time>2018-04-15T09:22:17Z</time>
      </trkpt>
      <trkpt lat="45.87152" lon="4.75185">
        <ele>225</ele>
        <time>2018-04-15T09:22:18Z</time>
      </trkpt>
      <trkpt lat="45.87151" lon="4.75178">
        <ele>225</ele>
        <time>2018-04-15T09:22:19Z</time>
      </trkpt>
      <trkpt lat="45.87149" lon="4.7517">
        <ele>225</ele>
        <time>2018-04-15T09:22:20Z</time>
      </trkpt>
      <trkpt lat="45.87148" lon="4.75164">
        <ele>225</ele>
        <time>2018-04-15T09:22:21Z</time>
      </trkpt>
      <trkpt lat="45.87147" lon="4.75157">
        <ele>225</ele>
        <time>2018-04-15T09:22:22Z</time>
      </trkpt>
      <trkpt lat="45.87146" lon="4.75149">
        <ele>225</ele>
        <time>2018-04-15T09:22:23Z</time>
      </trkpt>
      <trkpt lat="45.87145" lon="4.75141">
        <ele>225</ele>
        <time>2018-04-15T09:22:24Z</time>
      </trkpt>
      <trkpt lat="45.87144" lon="4.75134">
        <ele>225</ele>
        <time>2018-04-15T09:22:25Z</time>
      </trkpt>
      <trkpt lat="45.87143" lon="4.75126">
        <ele>225</ele>
        <time>2018-04-15T09:22:26Z</time>
      </trkpt>
      <trkpt lat="45.87141" lon="4.7512">
        <ele>225</ele>
        <time>2018-04-15T09:22:27Z</time>
      </trkpt>
      <trkpt lat="45.87139" lon="4.75113">
        <ele>225</ele>
        <time>2018-04-15T09:22:28Z</time>
      </trkpt>
      <trkpt lat="45.87139" lon="4.75105">
        <ele>225</ele>
        <time>2018-04-15T09:22:29Z</time>
      </trkpt>
      <trkpt lat="45.87138" lon="4.75097">
        <ele>225</ele>
        <time>2018-04-15T09:22:30Z</time>
      </trkpt>
      <trkpt lat="45.87137" lon="4.75088">
        <ele>225</ele>
        <time>2018-04-15T09:22:31Z</time>
      </trkpt>
      <trkpt lat="45.87137" lon="4.75081">
        <ele>225</ele>
        <time>2018-04-15T09:22:32Z</time>
      </trkpt>
      <trkpt lat="45.87136" lon="4.75073">
        <ele>225</ele>
        <time>2018-04-15T09:22:33Z</time>
      </trkpt>
      <trkpt lat="45.87135" lon="4.75066">
        <ele>225</ele>
        <time>2018-04-15T09:22:34Z</time>
      </trkpt>
      <trkpt lat="45.87134" lon="4.75058">
        <ele>225</ele>
        <time>2018-04-15T09:22:35Z</time>
      </trkpt>
      <trkpt lat="45.87132" lon="4.7505">
        <ele>225</ele>
        <time>2018-04-15T09:22:36Z</time>
      </trkpt>
      <trkpt lat="45.87131" lon="4.75042">
        <ele>225</ele>
        <time>2018-04-15T09:22:37Z</time>
      </trkpt>
      <trkpt lat="45.87131" lon="4.75034">
        <ele>225</ele>
        <time>2018-04-15T09:22:38Z</time>
      </trkpt>
      <trkpt lat="45.87131" lon="4.75026">
        <ele>226</ele>
        <time>2018-04-15T09:22:39Z</time>
      </trkpt>
      <trkpt lat="45.87131" lon="4.75018">
        <ele>226</ele>
        <time>2018-04-15T09:22:40Z</time>
      </trkpt>
      <trkpt lat="45.87131" lon="4.75011">
        <ele>226</ele>
        <time>2018-04-15T09:22:41Z</time>
      </trkpt>
      <trkpt lat="45.87132" lon="4.75001">
        <ele>226</ele>
        <time>2018-04-15T09:22:42Z</time>
      </trkpt>
      <trkpt lat="45.87132" lon="4.74993">
        <ele>226</ele>
        <time>2018-04-15T09:22:43Z</time>
      </trkpt>
      <trkpt lat="45.87133" lon="4.74986">
        <ele>226</ele>
        <time>2018-04-15T09:22:44Z</time>
      </trkpt>
      <trkpt lat="45.87134" lon="4.74978">
        <ele>226</ele>
        <time>2018-04-15T09:22:45Z</time>
      </trkpt>
      <trkpt lat="45.87133" lon="4.74969">
        <ele>226</ele>
        <time>2018-04-15T09:22:46Z</time>
      </trkpt>
      <trkpt lat="45.87134" lon="4.74961">
        <ele>226</ele>
        <time>2018-04-15T09:22:47Z</time>
      </trkpt>
      <trkpt lat="45.87135" lon="4.74954">
        <ele>226</ele>
        <time>2018-04-15T09:22:48Z</time>
      </trkpt>
      <trkpt lat="45.87137" lon="4.74947">
        <ele>226</ele>
        <time>2018-04-15T09:22:49Z</time>
      </trkpt>
      <trkpt lat="45.87141" lon="4.74941">
        <ele>226</ele>
        <time>2018-04-15T09:22:50Z</time>
      </trkpt>
      <trkpt lat="45.87145" lon="4.74934">
        <ele>226</ele>
        <time>2018-04-15T09:22:51Z</time>
      </trkpt>
      <trkpt lat="45.87147" lon="4.74925">
        <ele>226</ele>
        <time>2018-04-15T09:22:52Z</time>
      </trkpt>
      <trkpt lat="45.87146" lon="4.74917">
        <ele>225</ele>
        <time>2018-04-15T09:22:53Z</time>
      </trkpt>
      <trkpt lat="45.87143" lon="4.74908">
        <ele>225</ele>
        <time>2018-04-15T09:22:54Z</time>
      </trkpt>
      <trkpt lat="45.8714" lon="4.749">
        <ele>225</ele>
        <time>2018-04-15T09:22:55Z</time>
      </trkpt>
      <trkpt lat="45.87138" lon="4.74892">
        <ele>225</ele>
        <time>2018-04-15T09:22:56Z</time>
      </trkpt>
      <trkpt lat="45.87136" lon="4.74883">
        <ele>225</ele>
        <time>2018-04-15T09:22:57Z</time>
      </trkpt>
      <trkpt lat="45.87136" lon="4.74873">
        <ele>225</ele>
        <time>2018-04-15T09:22:58Z</time>
      </trkpt>
      <trkpt lat="45.87136" lon="4.74864">
        <ele>225</ele>
        <time>2018-04-15T09:22:59Z</time>
      </trkpt>
      <trkpt lat="45.87137" lon="4.74853">
        <ele>224</ele>
        <time>2018-04-15T09:23:00Z</time>
      </trkpt>
      <trkpt lat="45.87137" lon="4.74843">
        <ele>224</ele>
        <time>2018-04-15T09:23:01Z</time>
      </trkpt>
      <trkpt lat="45.87136" lon="4.74833">
        <ele>223</ele>
        <time>2018-04-15T09:23:02Z</time>
      </trkpt>
      <trkpt lat="45.87135" lon="4.74822">
        <ele>223</ele>
        <time>2018-04-15T09:23:03Z</time>
      </trkpt>
      <trkpt lat="45.87135" lon="4.74812">
        <ele>222</ele>
        <time>2018-04-15T09:23:04Z</time>
      </trkpt>
      <trkpt lat="45.87135" lon="4.748">
        <ele>222</ele>
        <time>2018-04-15T09:23:05Z</time>
      </trkpt>
      <trkpt lat="45.87134" lon="4.74789">
        <ele>222</ele>
        <time>2018-04-15T09:23:06Z</time>
      </trkpt>
      <trkpt lat="45.87132" lon="4.74779">
        <ele>222</ele>
        <time>2018-04-15T09:23:07Z</time>
      </trkpt>
      <trkpt lat="45.87132" lon="4.74768">
        <ele>222</ele>
        <time>2018-04-15T09:23:08Z</time>
      </trkpt>
      <trkpt lat="45.87131" lon="4.74758">
        <ele>222</ele>
        <time>2018-04-15T09:23:09Z</time>
      </trkpt>
      <trkpt lat="45.87129" lon="4.74747">
        <ele>221</ele>
        <time>2018-04-15T09:23:10Z</time>
      </trkpt>
      <trkpt lat="45.8713" lon="4.74739">
        <ele>221</ele>
        <time>2018-04-15T09:23:11Z</time>
      </trkpt>
      <trkpt lat="45.87129" lon="4.74729">
        <ele>221</ele>
        <time>2018-04-15T09:23:12Z</time>
      </trkpt>
      <trkpt lat="45.87128" lon="4.74719">
        <ele>221</ele>
        <time>2018-04-15T09:23:13Z</time>
      </trkpt>
      <trkpt lat="45.87126" lon="4.7471">
        <ele>221</ele>
        <time>2018-04-15T09:23:14Z</time>
      </trkpt>
      <trkpt lat="45.87125" lon="4.74699">
        <ele>221</ele>
        <time>2018-04-15T09:23:15Z</time>
      </trkpt>
      <trkpt lat="45.87125" lon="4.7469">
        <ele>221</ele>
        <time>2018-04-15T09:23:16Z</time>
      </trkpt>
      <trkpt lat="45.87124" lon="4.7468">
        <ele>221</ele>
        <time>2018-04-15T09:23:17Z</time>
      </trkpt>
      <trkpt lat="45.87124" lon="4.74669">
        <ele>221</ele>
        <time>2018-04-15T09:23:18Z</time>
      </trkpt>
      <trkpt lat="45.87123" lon="4.74659">
        <ele>222</ele>
        <time>2018-04-15T09:23:19Z</time>
      </trkpt>
      <trkpt lat="45.87123" lon="4.74649">
        <ele>222</ele>
        <time>2018-04-15T09:23:20Z</time>
      </trkpt>
      <trkpt lat="45.87122" lon="4.7464">
        <ele>222</ele>
        <time>2018-04-15T09:23:21Z</time>
      </trkpt>
      <trkpt lat="45.87121" lon="4.74631">
        <ele>222</ele>
        <time>2018-04-15T09:23:22Z</time>
      </trkpt>
      <trkpt lat="45.8712" lon="4.74621">
        <ele>222</ele>
        <time>2018-04-15T09:23:23Z</time>
      </trkpt>
      <trkpt lat="45.8712" lon="4.74612">
        <ele>222</ele>
        <time>2018-04-15T09:23:24Z</time>
      </trkpt>
      <trkpt lat="45.87119" lon="4.74603">
        <ele>222</ele>
        <time>2018-04-15T09:23:25Z</time>
      </trkpt>
      <trkpt lat="45.87118" lon="4.74595">
        <ele>222</ele>
        <time>2018-04-15T09:23:26Z</time>
      </trkpt>
      <trkpt lat="45.87117" lon="4.74586">
        <ele>222</ele>
        <time>2018-04-15T09:23:27Z</time>
      </trkpt>
      <trkpt lat="45.87116" lon="4.74577">
        <ele>220</ele>
        <time>2018-04-15T09:23:28Z</time>
      </trkpt>
      <trkpt lat="45.87113" lon="4.74569">
        <ele>220</ele>
        <time>2018-04-15T09:23:29Z</time>
      </trkpt>
      <trkpt lat="45.87111" lon="4.74561">
        <ele>220</ele>
        <time>2018-04-15T09:23:30Z</time>
      </trkpt>
      <trkpt lat="45.87109" lon="4.74552">
        <ele>220</ele>
        <time>2018-04-15T09:23:31Z</time>
      </trkpt>
      <trkpt lat="45.87108" lon="4.74545">
        <ele>220</ele>
        <time>2018-04-15T09:23:32Z</time>
      </trkpt>
      <trkpt lat="45.87112" lon="4.74537">
        <ele>220</ele>
        <time>2018-04-15T09:23:33Z</time>
      </trkpt>
      <trkpt lat="45.87116" lon="4.74529">
        <ele>220</ele>
        <time>2018-04-15T09:23:34Z</time>
      </trkpt>
      <trkpt lat="45.8712" lon="4.74522">
        <ele>219</ele>
        <time>2018-04-15T09:23:35Z</time>
      </trkpt>
      <trkpt lat="45.87122" lon="4.74513">
        <ele>219</ele>
        <time>2018-04-15T09:23:36Z</time>
      </trkpt>
      <trkpt lat="45.87121" lon="4.74506">
        <ele>219</ele>
        <time>2018-04-15T09:23:37Z</time>
      </trkpt>
      <trkpt lat="45.8712" lon="4.74497">
        <ele>218</ele>
        <time>2018-04-15T09:23:38Z</time>
      </trkpt>
      <trkpt lat="45.87118" lon="4.74489">
        <ele>218</ele>
        <time>2018-04-15T09:23:39Z</time>
      </trkpt>
      <trkpt lat="45.87116" lon="4.74481">
        <ele>218</ele>
        <time>2018-04-15T09:23:40Z</time>
      </trkpt>
      <trkpt lat="45.87115" lon="4.74475">
        <ele>218</ele>
        <time>2018-04-15T09:23:41Z</time>
      </trkpt>
      <trkpt lat="45.87113" lon="4.74466">
        <ele>218</ele>
        <time>2018-04-15T09:23:42Z</time>
      </trkpt>
      <trkpt lat="45.87111" lon="4.74458">
        <ele>218</ele>
        <time>2018-04-15T09:23:43Z</time>
      </trkpt>
      <trkpt lat="45.87109" lon="4.74448">
        <ele>218</ele>
        <time>2018-04-15T09:23:44Z</time>
      </trkpt>
      <trkpt lat="45.87108" lon="4.74439">
        <ele>218</ele>
        <time>2018-04-15T09:23:45Z</time>
      </trkpt>
      <trkpt lat="45.87106" lon="4.74429">
        <ele>218</ele>
        <time>2018-04-15T09:23:46Z</time>
      </trkpt>
      <trkpt lat="45.87104" lon="4.74419">
        <ele>218</ele>
        <time>2018-04-15T09:23:47Z</time>
      </trkpt>
      <trkpt lat="45.87102" lon="4.7441">
        <ele>218</ele>
        <time>2018-04-15T09:23:48Z</time>
      </trkpt>
      <trkpt lat="45.871" lon="4.744">
        <ele>218</ele>
        <time>2018-04-15T09:23:49Z</time>
      </trkpt>
      <trkpt lat="45.87098" lon="4.74392">
        <ele>218</ele>
        <time>2018-04-15T09:23:50Z</time>
      </trkpt>
      <trkpt lat="45.87096" lon="4.74383">
        <ele>218</ele>
        <time>2018-04-15T09:23:51Z</time>
      </trkpt>
      <trkpt lat="45.87094" lon="4.74374">
        <ele>218</ele>
        <time>2018-04-15T09:23:52Z</time>
      </trkpt>
      <trkpt lat="45.87092" lon="4.74365">
        <ele>218</ele>
        <time>2018-04-15T09:23:53Z</time>
      </trkpt>
      <trkpt lat="45.87091" lon="4.74356">
        <ele>218</ele>
        <time>2018-04-15T09:23:54Z</time>
      </trkpt>
      <trkpt lat="45.87089" lon="4.74347">
        <ele>218</ele>
        <time>2018-04-15T09:23:55Z</time>
      </trkpt>
      <trkpt lat="45.87086" lon="4.74335">
        <ele>219</ele>
        <time>2018-04-15T09:23:56Z</time>
      </trkpt>
      <trkpt lat="45.87084" lon="4.74327">
        <ele>218</ele>
        <time>2018-04-15T09:23:57Z</time>
      </trkpt>
      <trkpt lat="45.87082" lon="4.74317">
        <ele>218</ele>
        <time>2018-04-15T09:23:58Z</time>
      </trkpt>
      <trkpt lat="45.8708" lon="4.74308">
        <ele>218</ele>
        <time>2018-04-15T09:23:59Z</time>
      </trkpt>
      <trkpt lat="45.8708" lon="4.74296">
        <ele>217</ele>
        <time>2018-04-15T09:24:00Z</time>
      </trkpt>
      <trkpt lat="45.8708" lon="4.74288">
        <ele>217</ele>
        <time>2018-04-15T09:24:01Z</time>
      </trkpt>
      <trkpt lat="45.87079" lon="4.74278">
        <ele>217</ele>
        <time>2018-04-15T09:24:02Z</time>
      </trkpt>
      <trkpt lat="45.87079" lon="4.74269">
        <ele>216</ele>
        <time>2018-04-15T09:24:03Z</time>
      </trkpt>
      <trkpt lat="45.87079" lon="4.74258">
        <ele>215</ele>
        <time>2018-04-15T09:24:04Z</time>
      </trkpt>
      <trkpt lat="45.87079" lon="4.74248">
        <ele>214</ele>
        <time>2018-04-15T09:24:05Z</time>
      </trkpt>
      <trkpt lat="45.87077" lon="4.74238">
        <ele>214</ele>
        <time>2018-04-15T09:24:06Z</time>
      </trkpt>
      <trkpt lat="45.87077" lon="4.74226">
        <ele>214</ele>
        <time>2018-04-15T09:24:07Z</time>
      </trkpt>
      <trkpt lat="45.87077" lon="4.74214">
        <ele>214</ele>
        <time>2018-04-15T09:24:08Z</time>
      </trkpt>
      <trkpt lat="45.87078" lon="4.74203">
        <ele>213</ele>
        <time>2018-04-15T09:24:09Z</time>
      </trkpt>
      <trkpt lat="45.87076" lon="4.74192">
        <ele>213</ele>
        <time>2018-04-15T09:24:10Z</time>
      </trkpt>
      <trkpt lat="45.87076" lon="4.74181">
        <ele>212</ele>
        <time>2018-04-15T09:24:11Z</time>
      </trkpt>
      <trkpt lat="45.87077" lon="4.7417">
        <ele>212</ele>
        <time>2018-04-15T09:24:12Z</time>
      </trkpt>
      <trkpt lat="45.87078" lon="4.7416">
        <ele>211</ele>
        <time>2018-04-15T09:24:13Z</time>
      </trkpt>
      <trkpt lat="45.87079" lon="4.74149">
        <ele>212</ele>
        <time>2018-04-15T09:24:14Z</time>
      </trkpt>
      <trkpt lat="45.8708" lon="4.74139">
        <ele>212</ele>
        <time>2018-04-15T09:24:15Z</time>
      </trkpt>
      <trkpt lat="45.8708" lon="4.74129">
        <ele>212</ele>
        <time>2018-04-15T09:24:16Z</time>
      </trkpt>
      <trkpt lat="45.8708" lon="4.7412">
        <ele>212</ele>
        <time>2018-04-15T09:24:17Z</time>
      </trkpt>
      <trkpt lat="45.8708" lon="4.74111">
        <ele>212</ele>
        <time>2018-04-15T09:24:18Z</time>
      </trkpt>
      <trkpt lat="45.8708" lon="4.74103">
        <ele>212</ele>
        <time>2018-04-15T09:24:19Z</time>
      </trkpt>
      <trkpt lat="45.87083" lon="4.74095">
        <ele>212</ele>
        <time>2018-04-15T09:24:20Z</time>
      </trkpt>
      <trkpt lat="45.87083" lon="4.74087">
        <ele>212</ele>
        <time>2018-04-15T09:24:21Z</time>
      </trkpt>
      <trkpt lat="45.87083" lon="4.74078">
        <ele>213</ele>
        <time>2018-04-15T09:24:22Z</time>
      </trkpt>
      <trkpt lat="45.87083" lon="4.74069">
        <ele>213</ele>
        <time>2018-04-15T09:24:23Z</time>
      </trkpt>
      <trkpt lat="45.87082" lon="4.74061">
        <ele>214</ele>
        <time>2018-04-15T09:24:24Z</time>
      </trkpt>
      <trkpt lat="45.87082" lon="4.74053">
        <ele>214</ele>
        <time>2018-04-15T09:24:25Z</time>
      </trkpt>
      <trkpt lat="45.87082" lon="4.74046">
        <ele>214</ele>
        <time>2018-04-15T09:24:26Z</time>
      </trkpt>
      <trkpt lat="45.87082" lon="4.74039">
        <ele>215</ele>
        <time>2018-04-15T09:24:27Z</time>
      </trkpt>
      <trkpt lat="45.87082" lon="4.74031">
        <ele>215</ele>
        <time>2018-04-15T09:24:28Z</time>
      </trkpt>
      <trkpt lat="45.87082" lon="4.74023">
        <ele>215</ele>
        <time>2018-04-15T09:24:29Z</time>
      </trkpt>
      <trkpt lat="45.87082" lon="4.74016">
        <ele>215</ele>
        <time>2018-04-15T09:24:30Z</time>
      </trkpt>
      <trkpt lat="45.87081" lon="4.7401">
        <ele>216</ele>
        <time>2018-04-15T09:24:31Z</time>
      </trkpt>
      <trkpt lat="45.87081" lon="4.74003">
        <ele>216</ele>
        <time>2018-04-15T09:24:32Z</time>
      </trkpt>
      <trkpt lat="45.87081" lon="4.73996">
        <ele>216</ele>
        <time>2018-04-15T09:24:33Z</time>
      </trkpt>
      <trkpt lat="45.87081" lon="4.73989">
        <ele>217</ele>
        <time>2018-04-15T09:24:34Z</time>
      </trkpt>
      <trkpt lat="45.87083" lon="4.73982">
        <ele>217</ele>
        <time>2018-04-15T09:24:35Z</time>
      </trkpt>
      <trkpt lat="45.87083" lon="4.73975">
        <ele>217</ele>
        <time>2018-04-15T09:24:36Z</time>
      </trkpt>
      <trkpt lat="45.87083" lon="4.73963">
        <ele>217</ele>
        <time>2018-04-15T09:24:38Z</time>
      </trkpt>
      <trkpt lat="45.87082" lon="4.73958">
        <ele>217</ele>
        <time>2018-04-15T09:24:39Z</time>
      </trkpt>
      <trkpt lat="45.87082" lon="4.7395">
        <ele>218</ele>
        <time>2018-04-15T09:24:40Z</time>
      </trkpt>
      <trkpt lat="45.87082" lon="4.73943">
        <ele>218</ele>
        <time>2018-04-15T09:24:41Z</time>
      </trkpt>
      <trkpt lat="45.87081" lon="4.73936">
        <ele>218</ele>
        <time>2018-04-15T09:24:42Z</time>
      </trkpt>
      <trkpt lat="45.87081" lon="4.73928">
        <ele>218</ele>
        <time>2018-04-15T09:24:43Z</time>
      </trkpt>
      <trkpt lat="45.87082" lon="4.7392">
        <ele>218</ele>
        <time>2018-04-15T09:24:44Z</time>
      </trkpt>
      <trkpt lat="45.87081" lon="4.73912">
        <ele>218</ele>
        <time>2018-04-15T09:24:45Z</time>
      </trkpt>
      <trkpt lat="45.8708" lon="4.73903">
        <ele>218</ele>
        <time>2018-04-15T09:24:46Z</time>
      </trkpt>
      <trkpt lat="45.8708" lon="4.73894">
        <ele>218</ele>
        <time>2018-04-15T09:24:47Z</time>
      </trkpt>
      <trkpt lat="45.8708" lon="4.73885">
        <ele>218</ele>
        <time>2018-04-15T09:24:48Z</time>
      </trkpt>
      <trkpt lat="45.87079" lon="4.73876">
        <ele>218</ele>
        <time>2018-04-15T09:24:49Z</time>
      </trkpt>
      <trkpt lat="45.87079" lon="4.73867">
        <ele>218</ele>
        <time>2018-04-15T09:24:50Z</time>
      </trkpt>
      <trkpt lat="45.87079" lon="4.73858">
        <ele>218</ele>
        <time>2018-04-15T09:24:51Z</time>
      </trkpt>
      <trkpt lat="45.87079" lon="4.73849">
        <ele>218</ele>
        <time>2018-04-15T09:24:52Z</time>
      </trkpt>
      <trkpt lat="45.87079" lon="4.73839">
        <ele>217</ele>
        <time>2018-04-15T09:24:53Z</time>
      </trkpt>
      <trkpt lat="45.8708" lon="4.73828">
        <ele>217</ele>
        <time>2018-04-15T09:24:54Z</time>
      </trkpt>
      <trkpt lat="45.87081" lon="4.73818">
        <ele>217</ele>
        <time>2018-04-15T09:24:55Z</time>
      </trkpt>
      <trkpt lat="45.87081" lon="4.73809">
        <ele>217</ele>
        <time>2018-04-15T09:24:56Z</time>
      </trkpt>
      <trkpt lat="45.87081" lon="4.73799">
        <ele>217</ele>
        <time>2018-04-15T09:24:57Z</time>
      </trkpt>
      <trkpt lat="45.8708" lon="4.73789">
        <ele>217</ele>
        <time>2018-04-15T09:24:58Z</time>
      </trkpt>
      <trkpt lat="45.87081" lon="4.73779">
        <ele>217</ele>
        <time>2018-04-15T09:24:59Z</time>
      </trkpt>
      <trkpt lat="45.87081" lon="4.73771">
        <ele>217</ele>
        <time>2018-04-15T09:25:00Z</time>
      </trkpt>
      <trkpt lat="45.87082" lon="4.73762">
        <ele>216</ele>
        <time>2018-04-15T09:25:01Z</time>
      </trkpt>
      <trkpt lat="45.87082" lon="4.73752">
        <ele>215</ele>
        <time>2018-04-15T09:25:02Z</time>
      </trkpt>
      <trkpt lat="45.87084" lon="4.73742">
        <ele>215</ele>
        <time>2018-04-15T09:25:03Z</time>
      </trkpt>
      <trkpt lat="45.87085" lon="4.73733">
        <ele>214</ele>
        <time>2018-04-15T09:25:04Z</time>
      </trkpt>
      <trkpt lat="45.87086" lon="4.73725">
        <ele>214</ele>
        <time>2018-04-15T09:25:05Z</time>
      </trkpt>
      <trkpt lat="45.87087" lon="4.73715">
        <ele>214</ele>
        <time>2018-04-15T09:25:06Z</time>
      </trkpt>
      <trkpt lat="45.8709" lon="4.73705">
        <ele>214</ele>
        <time>2018-04-15T09:25:07Z</time>
      </trkpt>
      <trkpt lat="45.8709" lon="4.73697">
        <ele>214</ele>
        <time>2018-04-15T09:25:08Z</time>
      </trkpt>
      <trkpt lat="45.87092" lon="4.73688">
        <ele>215</ele>
        <time>2018-04-15T09:25:09Z</time>
      </trkpt>
      <trkpt lat="45.87092" lon="4.7368">
        <ele>215</ele>
        <time>2018-04-15T09:25:10Z</time>
      </trkpt>
      <trkpt lat="45.87093" lon="4.73671">
        <ele>215</ele>
        <time>2018-04-15T09:25:11Z</time>
      </trkpt>
      <trkpt lat="45.87094" lon="4.73663">
        <ele>215</ele>
        <time>2018-04-15T09:25:12Z</time>
      </trkpt>
      <trkpt lat="45.87096" lon="4.73654">
        <ele>214</ele>
        <time>2018-04-15T09:25:13Z</time>
      </trkpt>
      <trkpt lat="45.87096" lon="4.73643">
        <ele>214</ele>
        <time>2018-04-15T09:25:14Z</time>
      </trkpt>
      <trkpt lat="45.87098" lon="4.73634">
        <ele>214</ele>
        <time>2018-04-15T09:25:15Z</time>
      </trkpt>
      <trkpt lat="45.87099" lon="4.73623">
        <ele>214</ele>
        <time>2018-04-15T09:25:16Z</time>
      </trkpt>
      <trkpt lat="45.871" lon="4.73614">
        <ele>214</ele>
        <time>2018-04-15T09:25:17Z</time>
      </trkpt>
      <trkpt lat="45.87101" lon="4.73606">
        <ele>214</ele>
        <time>2018-04-15T09:25:18Z</time>
      </trkpt>
      <trkpt lat="45.87102" lon="4.73596">
        <ele>214</ele>
        <time>2018-04-15T09:25:19Z</time>
      </trkpt>
      <trkpt lat="45.87104" lon="4.73588">
        <ele>214</ele>
        <time>2018-04-15T09:25:20Z</time>
      </trkpt>
      <trkpt lat="45.87103" lon="4.7358">
        <ele>213</ele>
        <time>2018-04-15T09:25:21Z</time>
      </trkpt>
      <trkpt lat="45.87105" lon="4.73571">
        <ele>213</ele>
        <time>2018-04-15T09:25:22Z</time>
      </trkpt>
      <trkpt lat="45.87105" lon="4.73561">
        <ele>213</ele>
        <time>2018-04-15T09:25:23Z</time>
      </trkpt>
      <trkpt lat="45.87106" lon="4.7355">
        <ele>213</ele>
        <time>2018-04-15T09:25:24Z</time>
      </trkpt>
      <trkpt lat="45.87107" lon="4.73539">
        <ele>212</ele>
        <time>2018-04-15T09:25:25Z</time>
      </trkpt>
      <trkpt lat="45.87107" lon="4.73529">
        <ele>212</ele>
        <time>2018-04-15T09:25:26Z</time>
      </trkpt>
      <trkpt lat="45.87107" lon="4.7352">
        <ele>213</ele>
        <time>2018-04-15T09:25:27Z</time>
      </trkpt>
      <trkpt lat="45.87108" lon="4.7351">
        <ele>213</ele>
        <time>2018-04-15T09:25:28Z</time>
      </trkpt>
      <trkpt lat="45.87108" lon="4.735">
        <ele>213</ele>
        <time>2018-04-15T09:25:29Z</time>
      </trkpt>
      <trkpt lat="45.87108" lon="4.7349">
        <ele>212</ele>
        <time>2018-04-15T09:25:30Z</time>
      </trkpt>
      <trkpt lat="45.87108" lon="4.7348">
        <ele>212</ele>
        <time>2018-04-15T09:25:31Z</time>
      </trkpt>
      <trkpt lat="45.87108" lon="4.73471">
        <ele>212</ele>
        <time>2018-04-15T09:25:32Z</time>
      </trkpt>
      <trkpt lat="45.87109" lon="4.73461">
        <ele>212</ele>
        <time>2018-04-15T09:25:33Z</time>
      </trkpt>
      <trkpt lat="45.87109" lon="4.73452">
        <ele>212</ele>
        <time>2018-04-15T09:25:34Z</time>
      </trkpt>
      <trkpt lat="45.87109" lon="4.73442">
        <ele>212</ele>
        <time>2018-04-15T09:25:35Z</time>
      </trkpt>
      <trkpt lat="45.87109" lon="4.73433">
        <ele>212</ele>
        <time>2018-04-15T09:25:36Z</time>
      </trkpt>
      <trkpt lat="45.8711" lon="4.73423">
        <ele>212</ele>
        <time>2018-04-15T09:25:37Z</time>
      </trkpt>
      <trkpt lat="45.87111" lon="4.73412">
        <ele>211</ele>
        <time>2018-04-15T09:25:38Z</time>
      </trkpt>
      <trkpt lat="45.87111" lon="4.73402">
        <ele>211</ele>
        <time>2018-04-15T09:25:39Z</time>
      </trkpt>
      <trkpt lat="45.87112" lon="4.73393">
        <ele>211</ele>
        <time>2018-04-15T09:25:40Z</time>
      </trkpt>
      <trkpt lat="45.87113" lon="4.73383">
        <ele>211</ele>
        <time>2018-04-15T09:25:41Z</time>
      </trkpt>
      <trkpt lat="45.87114" lon="4.73373">
        <ele>211</ele>
        <time>2018-04-15T09:25:42Z</time>
      </trkpt>
      <trkpt lat="45.87115" lon="4.73364">
        <ele>210</ele>
        <time>2018-04-15T09:25:43Z</time>
      </trkpt>
      <trkpt lat="45.87116" lon="4.73355">
        <ele>210</ele>
        <time>2018-04-15T09:25:44Z</time>
      </trkpt>
      <trkpt lat="45.87118" lon="4.73344">
        <ele>210</ele>
        <time>2018-04-15T09:25:45Z</time>
      </trkpt>
      <trkpt lat="45.87119" lon="4.73333">
        <ele>209</ele>
        <time>2018-04-15T09:25:46Z</time>
      </trkpt>
      <trkpt lat="45.87121" lon="4.73322">
        <ele>209</ele>
        <time>2018-04-15T09:25:47Z</time>
      </trkpt>
      <trkpt lat="45.87122" lon="4.73313">
        <ele>208</ele>
        <time>2018-04-15T09:25:48Z</time>
      </trkpt>
      <trkpt lat="45.87123" lon="4.73304">
        <ele>208</ele>
        <time>2018-04-15T09:25:49Z</time>
      </trkpt>
      <trkpt lat="45.87124" lon="4.73294">
        <ele>208</ele>
        <time>2018-04-15T09:25:50Z</time>
      </trkpt>
      <trkpt lat="45.87125" lon="4.73284">
        <ele>208</ele>
        <time>2018-04-15T09:25:51Z</time>
      </trkpt>
      <trkpt lat="45.87127" lon="4.73275">
        <ele>208</ele>
        <time>2018-04-15T09:25:52Z</time>
      </trkpt>
      <trkpt lat="45.87128" lon="4.73266">
        <ele>208</ele>
        <time>2018-04-15T09:25:53Z</time>
      </trkpt>
      <trkpt lat="45.8713" lon="4.73256">
        <ele>207</ele>
        <time>2018-04-15T09:25:54Z</time>
      </trkpt>
      <trkpt lat="45.87134" lon="4.73247">
        <ele>206</ele>
        <time>2018-04-15T09:25:55Z</time>
      </trkpt>
      <trkpt lat="45.87137" lon="4.73238">
        <ele>206</ele>
        <time>2018-04-15T09:25:56Z</time>
      </trkpt>
      <trkpt lat="45.87141" lon="4.73228">
        <ele>206</ele>
        <time>2018-04-15T09:25:57Z</time>
      </trkpt>
      <trkpt lat="45.87144" lon="4.73219">
        <ele>206</ele>
        <time>2018-04-15T09:25:58Z</time>
      </trkpt>
      <trkpt lat="45.87148" lon="4.73211">
        <ele>205</ele>
        <time>2018-04-15T09:25:59Z</time>
      </trkpt>
      <trkpt lat="45.87152" lon="4.73199">
        <ele>205</ele>
        <time>2018-04-15T09:26:00Z</time>
      </trkpt>
      <trkpt lat="45.87156" lon="4.73191">
        <ele>205</ele>
        <time>2018-04-15T09:26:01Z</time>
      </trkpt>
      <trkpt lat="45.87159" lon="4.73182">
        <ele>205</ele>
        <time>2018-04-15T09:26:02Z</time>
      </trkpt>
      <trkpt lat="45.87163" lon="4.73172">
        <ele>204</ele>
        <time>2018-04-15T09:26:03Z</time>
      </trkpt>
      <trkpt lat="45.87165" lon="4.73162">
        <ele>203</ele>
        <time>2018-04-15T09:26:04Z</time>
      </trkpt>
      <trkpt lat="45.87168" lon="4.73152">
        <ele>202</ele>
        <time>2018-04-15T09:26:05Z</time>
      </trkpt>
      <trkpt lat="45.8717" lon="4.73142">
        <ele>202</ele>
        <time>2018-04-15T09:26:06Z</time>
      </trkpt>
      <trkpt lat="45.87171" lon="4.73133">
        <ele>202</ele>
        <time>2018-04-15T09:26:07Z</time>
      </trkpt>
      <trkpt lat="45.87172" lon="4.73122">
        <ele>202</ele>
        <time>2018-04-15T09:26:08Z</time>
      </trkpt>
      <trkpt lat="45.87171" lon="4.73113">
        <ele>202</ele>
        <time>2018-04-15T09:26:09Z</time>
      </trkpt>
      <trkpt lat="45.87171" lon="4.73103">
        <ele>202</ele>
        <time>2018-04-15T09:26:10Z</time>
      </trkpt>
      <trkpt lat="45.87172" lon="4.73091">
        <ele>202</ele>
        <time>2018-04-15T09:26:11Z</time>
      </trkpt>
      <trkpt lat="45.87172" lon="4.73081">
        <ele>202</ele>
        <time>2018-04-15T09:26:12Z</time>
      </trkpt>
      <trkpt lat="45.87172" lon="4.73071">
        <ele>202</ele>
        <time>2018-04-15T09:26:13Z</time>
      </trkpt>
      <trkpt lat="45.87172" lon="4.7306">
        <ele>201</ele>
        <time>2018-04-15T09:26:14Z</time>
      </trkpt>
      <trkpt lat="45.87172" lon="4.73049">
        <ele>201</ele>
        <time>2018-04-15T09:26:15Z</time>
      </trkpt>
      <trkpt lat="45.87172" lon="4.73039">
        <ele>201</ele>
        <time>2018-04-15T09:26:16Z</time>
      </trkpt>
      <trkpt lat="45.87173" lon="4.73027">
        <ele>202</ele>
        <time>2018-04-15T09:26:17Z</time>
      </trkpt>
      <trkpt lat="45.87174" lon="4.73017">
        <ele>202</ele>
        <time>2018-04-15T09:26:18Z</time>
      </trkpt>
      <trkpt lat="45.87175" lon="4.73007">
        <ele>203</ele>
        <time>2018-04-15T09:26:19Z</time>
      </trkpt>
      <trkpt lat="45.87175" lon="4.72998">
        <ele>203</ele>
        <time>2018-04-15T09:26:20Z</time>
      </trkpt>
      <trkpt lat="45.87175" lon="4.72989">
        <ele>202</ele>
        <time>2018-04-15T09:26:21Z</time>
      </trkpt>
      <trkpt lat="45.87177" lon="4.72979">
        <ele>202</ele>
        <time>2018-04-15T09:26:22Z</time>
      </trkpt>
      <trkpt lat="45.87177" lon="4.7297">
        <ele>201</ele>
        <time>2018-04-15T09:26:23Z</time>
      </trkpt>
      <trkpt lat="45.87176" lon="4.72962">
        <ele>201</ele>
        <time>2018-04-15T09:26:24Z</time>
      </trkpt>
      <trkpt lat="45.87177" lon="4.72952">
        <ele>201</ele>
        <time>2018-04-15T09:26:25Z</time>
      </trkpt>
      <trkpt lat="45.87177" lon="4.72941">
        <ele>202</ele>
        <time>2018-04-15T09:26:26Z</time>
      </trkpt>
      <trkpt lat="45.87177" lon="4.72932">
        <ele>202</ele>
        <time>2018-04-15T09:26:27Z</time>
      </trkpt>
      <trkpt lat="45.87177" lon="4.72922">
        <ele>202</ele>
        <time>2018-04-15T09:26:28Z</time>
      </trkpt>
      <trkpt lat="45.87177" lon="4.72913">
        <ele>202</ele>
        <time>2018-04-15T09:26:29Z</time>
      </trkpt>
      <trkpt lat="45.87178" lon="4.72903">
        <ele>201</ele>
        <time>2018-04-15T09:26:30Z</time>
      </trkpt>
      <trkpt lat="45.87178" lon="4.72893">
        <ele>201</ele>
        <time>2018-04-15T09:26:31Z</time>
      </trkpt>
      <trkpt lat="45.87178" lon="4.72882">
        <ele>200</ele>
        <time>2018-04-15T09:26:32Z</time>
      </trkpt>
      <trkpt lat="45.87179" lon="4.72872">
        <ele>200</ele>
        <time>2018-04-15T09:26:33Z</time>
      </trkpt>
      <trkpt lat="45.87179" lon="4.72861">
        <ele>200</ele>
        <time>2018-04-15T09:26:34Z</time>
      </trkpt>
      <trkpt lat="45.87179" lon="4.7285">
        <ele>200</ele>
        <time>2018-04-15T09:26:35Z</time>
      </trkpt>
      <trkpt lat="45.8718" lon="4.72839">
        <ele>200</ele>
        <time>2018-04-15T09:26:36Z</time>
      </trkpt>
      <trkpt lat="45.87181" lon="4.72828">
        <ele>200</ele>
        <time>2018-04-15T09:26:37Z</time>
      </trkpt>
      <trkpt lat="45.87181" lon="4.72816">
        <ele>200</ele>
        <time>2018-04-15T09:26:38Z</time>
      </trkpt>
      <trkpt lat="45.87181" lon="4.72805">
        <ele>199</ele>
        <time>2018-04-15T09:26:39Z</time>
      </trkpt>
      <trkpt lat="45.87179" lon="4.72794">
        <ele>199</ele>
        <time>2018-04-15T09:26:40Z</time>
      </trkpt>
      <trkpt lat="45.87179" lon="4.72782">
        <ele>199</ele>
        <time>2018-04-15T09:26:41Z</time>
      </trkpt>
      <trkpt lat="45.87177" lon="4.72768">
        <ele>199</ele>
        <time>2018-04-15T09:26:42Z</time>
      </trkpt>
      <trkpt lat="45.87177" lon="4.72756">
        <ele>200</ele>
        <time>2018-04-15T09:26:43Z</time>
      </trkpt>
      <trkpt lat="45.87179" lon="4.72746">
        <ele>200</ele>
        <time>2018-04-15T09:26:44Z</time>
      </trkpt>
      <trkpt lat="45.8718" lon="4.72735">
        <ele>199</ele>
        <time>2018-04-15T09:26:45Z</time>
      </trkpt>
      <trkpt lat="45.87184" lon="4.72726">
        <ele>199</ele>
        <time>2018-04-15T09:26:46Z</time>
      </trkpt>
      <trkpt lat="45.87188" lon="4.72715">
        <ele>199</ele>
        <time>2018-04-15T09:26:47Z</time>
      </trkpt>
      <trkpt lat="45.8719" lon="4.72704">
        <ele>199</ele>
        <time>2018-04-15T09:26:48Z</time>
      </trkpt>
      <trkpt lat="45.87193" lon="4.72695">
        <ele>199</ele>
        <time>2018-04-15T09:26:49Z</time>
      </trkpt>
      <trkpt lat="45.87195" lon="4.72685">
        <ele>199</ele>
        <time>2018-04-15T09:26:50Z</time>
      </trkpt>
      <trkpt lat="45.87198" lon="4.72675">
        <ele>199</ele>
        <time>2018-04-15T09:26:51Z</time>
      </trkpt>
      <trkpt lat="45.87199" lon="4.72665">
        <ele>199</ele>
        <time>2018-04-15T09:26:52Z</time>
      </trkpt>
      <trkpt lat="45.87204" lon="4.72655">
        <ele>199</ele>
        <time>2018-04-15T09:26:53Z</time>
      </trkpt>
      <trkpt lat="45.87207" lon="4.72645">
        <ele>199</ele>
        <time>2018-04-15T09:26:54Z</time>
      </trkpt>
      <trkpt lat="45.8721" lon="4.72633">
        <ele>199</ele>
        <time>2018-04-15T09:26:55Z</time>
      </trkpt>
      <trkpt lat="45.87212" lon="4.72623">
        <ele>199</ele>
        <time>2018-04-15T09:26:56Z</time>
      </trkpt>
      <trkpt lat="45.87215" lon="4.72613">
        <ele>199</ele>
        <time>2018-04-15T09:26:57Z</time>
      </trkpt>
      <trkpt lat="45.87216" lon="4.72602">
        <ele>199</ele>
        <time>2018-04-15T09:26:58Z</time>
      </trkpt>
      <trkpt lat="45.87218" lon="4.72592">
        <ele>199</ele>
        <time>2018-04-15T09:26:59Z</time>
      </trkpt>
      <trkpt lat="45.87217" lon="4.7258">
        <ele>198</ele>
        <time>2018-04-15T09:27:00Z</time>
      </trkpt>
      <trkpt lat="45.87218" lon="4.72569">
        <ele>198</ele>
        <time>2018-04-15T09:27:01Z</time>
      </trkpt>
      <trkpt lat="45.87218" lon="4.72557">
        <ele>198</ele>
        <time>2018-04-15T09:27:02Z</time>
      </trkpt>
      <trkpt lat="45.87217" lon="4.72546">
        <ele>198</ele>
        <time>2018-04-15T09:27:03Z</time>
      </trkpt>
      <trkpt lat="45.87216" lon="4.72536">
        <ele>198</ele>
        <time>2018-04-15T09:27:04Z</time>
      </trkpt>
      <trkpt lat="45.87214" lon="4.72525">
        <ele>198</ele>
        <time>2018-04-15T09:27:05Z</time>
      </trkpt>
      <trkpt lat="45.87214" lon="4.72512">
        <ele>198</ele>
        <time>2018-04-15T09:27:06Z</time>
      </trkpt>
      <trkpt lat="45.87213" lon="4.725">
        <ele>195</ele>
        <time>2018-04-15T09:27:07Z</time>
      </trkpt>
      <trkpt lat="45.87209" lon="4.72488">
        <ele>195</ele>
        <time>2018-04-15T09:27:08Z</time>
      </trkpt>
      <trkpt lat="45.87206" lon="4.72479">
        <ele>195</ele>
        <time>2018-04-15T09:27:09Z</time>
      </trkpt>
      <trkpt lat="45.87203" lon="4.7247">
        <ele>195</ele>
        <time>2018-04-15T09:27:10Z</time>
      </trkpt>
      <trkpt lat="45.87199" lon="4.7246">
        <ele>194</ele>
        <time>2018-04-15T09:27:11Z</time>
      </trkpt>
      <trkpt lat="45.87194" lon="4.72451">
        <ele>194</ele>
        <time>2018-04-15T09:27:12Z</time>
      </trkpt>
      <trkpt lat="45.87191" lon="4.72443">
        <ele>194</ele>
        <time>2018-04-15T09:27:13Z</time>
      </trkpt>
      <trkpt lat="45.87187" lon="4.72434">
        <ele>194</ele>
        <time>2018-04-15T09:27:14Z</time>
      </trkpt>
      <trkpt lat="45.87183" lon="4.72427">
        <ele>194</ele>
        <time>2018-04-15T09:27:15Z</time>
      </trkpt>
      <trkpt lat="45.8718" lon="4.7242">
        <ele>194</ele>
        <time>2018-04-15T09:27:16Z</time>
      </trkpt>
      <trkpt lat="45.87176" lon="4.72411">
        <ele>192</ele>
        <time>2018-04-15T09:27:17Z</time>
      </trkpt>
      <trkpt lat="45.87173" lon="4.72401">
        <ele>192</ele>
        <time>2018-04-15T09:27:18Z</time>
      </trkpt>
      <trkpt lat="45.87169" lon="4.72393">
        <ele>191</ele>
        <time>2018-04-15T09:27:19Z</time>
      </trkpt>
      <trkpt lat="45.87166" lon="4.72383">
        <ele>197</ele>
        <time>2018-04-15T09:27:20Z</time>
      </trkpt>
      <trkpt lat="45.87161" lon="4.72374">
        <ele>197</ele>
        <time>2018-04-15T09:27:21Z</time>
      </trkpt>
      <trkpt lat="45.87158" lon="4.72366">
        <ele>196</ele>
        <time>2018-04-15T09:27:22Z</time>
      </trkpt>
      <trkpt lat="45.87154" lon="4.72357">
        <ele>196</ele>
        <time>2018-04-15T09:27:23Z</time>
      </trkpt>
      <trkpt lat="45.8715" lon="4.7235">
        <ele>195</ele>
        <time>2018-04-15T09:27:24Z</time>
      </trkpt>
      <trkpt lat="45.87147" lon="4.72342">
        <ele>195</ele>
        <time>2018-04-15T09:27:25Z</time>
      </trkpt>
      <trkpt lat="45.87143" lon="4.72334">
        <ele>196</ele>
        <time>2018-04-15T09:27:26Z</time>
      </trkpt>
      <trkpt lat="45.8714" lon="4.72326">
        <ele>195</ele>
        <time>2018-04-15T09:27:27Z</time>
      </trkpt>
      <trkpt lat="45.87136" lon="4.72318">
        <ele>195</ele>
        <time>2018-04-15T09:27:28Z</time>
      </trkpt>
      <trkpt lat="45.87133" lon="4.7231">
        <ele>196</ele>
        <time>2018-04-15T09:27:29Z</time>
      </trkpt>
      <trkpt lat="45.87129" lon="4.72303">
        <ele>196</ele>
        <time>2018-04-15T09:27:30Z</time>
      </trkpt>
      <trkpt lat="45.87125" lon="4.72296">
        <ele>196</ele>
        <time>2018-04-15T09:27:31Z</time>
      </trkpt>
      <trkpt lat="45.87121" lon="4.72291">
        <ele>196</ele>
        <time>2018-04-15T09:27:32Z</time>
      </trkpt>
      <trkpt lat="45.87115" lon="4.72283">
        <ele>197</ele>
        <time>2018-04-15T09:27:33Z</time>
      </trkpt>
      <trkpt lat="45.8711" lon="4.72276">
        <ele>197</ele>
        <time>2018-04-15T09:27:34Z</time>
      </trkpt>
      <trkpt lat="45.87104" lon="4.72269">
        <ele>197</ele>
        <time>2018-04-15T09:27:35Z</time>
      </trkpt>
      <trkpt lat="45.87099" lon="4.72262">
        <ele>197</ele>
        <time>2018-04-15T09:27:36Z</time>
      </trkpt>
      <trkpt lat="45.87092" lon="4.72256">
        <ele>198</ele>
        <time>2018-04-15T09:27:37Z</time>
      </trkpt>
      <trkpt lat="45.87086" lon="4.7225">
        <ele>198</ele>
        <time>2018-04-15T09:27:38Z</time>
      </trkpt>
      <trkpt lat="45.87081" lon="4.72244">
        <ele>199</ele>
        <time>2018-04-15T09:27:39Z</time>
      </trkpt>
      <trkpt lat="45.87075" lon="4.72238">
        <ele>200</ele>
        <time>2018-04-15T09:27:40Z</time>
      </trkpt>
      <trkpt lat="45.8707" lon="4.72232">
        <ele>200</ele>
        <time>2018-04-15T09:27:41Z</time>
      </trkpt>
      <trkpt lat="45.87064" lon="4.72226">
        <ele>200</ele>
        <time>2018-04-15T09:27:42Z</time>
      </trkpt>
      <trkpt lat="45.87058" lon="4.72221">
        <ele>200</ele>
        <time>2018-04-15T09:27:43Z</time>
      </trkpt>
      <trkpt lat="45.87053" lon="4.72217">
        <ele>200</ele>
        <time>2018-04-15T09:27:44Z</time>
      </trkpt>
      <trkpt lat="45.87047" lon="4.72213">
        <ele>201</ele>
        <time>2018-04-15T09:27:45Z</time>
      </trkpt>
      <trkpt lat="45.87042" lon="4.72208">
        <ele>201</ele>
        <time>2018-04-15T09:27:46Z</time>
      </trkpt>
      <trkpt lat="45.87036" lon="4.72204">
        <ele>201</ele>
        <time>2018-04-15T09:27:47Z</time>
      </trkpt>
      <trkpt lat="45.8703" lon="4.722">
        <ele>201</ele>
        <time>2018-04-15T09:27:48Z</time>
      </trkpt>
      <trkpt lat="45.87025" lon="4.72195">
        <ele>201</ele>
        <time>2018-04-15T09:27:49Z</time>
      </trkpt>
      <trkpt lat="45.87019" lon="4.72192">
        <ele>201</ele>
        <time>2018-04-15T09:27:50Z</time>
      </trkpt>
      <trkpt lat="45.87013" lon="4.72189">
        <ele>201</ele>
        <time>2018-04-15T09:27:51Z</time>
      </trkpt>
      <trkpt lat="45.87008" lon="4.72184">
        <ele>201</ele>
        <time>2018-04-15T09:27:52Z</time>
      </trkpt>
      <trkpt lat="45.87002" lon="4.7218">
        <ele>201</ele>
        <time>2018-04-15T09:27:53Z</time>
      </trkpt>
      <trkpt lat="45.86996" lon="4.72175">
        <ele>205</ele>
        <time>2018-04-15T09:27:54Z</time>
      </trkpt>
      <trkpt lat="45.86991" lon="4.72172">
        <ele>205</ele>
        <time>2018-04-15T09:27:55Z</time>
      </trkpt>
      <trkpt lat="45.86985" lon="4.72167">
        <ele>206</ele>
        <time>2018-04-15T09:27:56Z</time>
      </trkpt>
      <trkpt lat="45.86979" lon="4.72163">
        <ele>201</ele>
        <time>2018-04-15T09:27:57Z</time>
      </trkpt>
      <trkpt lat="45.86974" lon="4.72158">
        <ele>201</ele>
        <time>2018-04-15T09:27:58Z</time>
      </trkpt>
      <trkpt lat="45.86968" lon="4.72154">
        <ele>201</ele>
        <time>2018-04-15T09:27:59Z</time>
      </trkpt>
      <trkpt lat="45.86962" lon="4.7215">
        <ele>201</ele>
        <time>2018-04-15T09:28:00Z</time>
      </trkpt>
      <trkpt lat="45.86955" lon="4.72147">
        <ele>201</ele>
        <time>2018-04-15T09:28:01Z</time>
      </trkpt>
      <trkpt lat="45.86949" lon="4.72141">
        <ele>201</ele>
        <time>2018-04-15T09:28:02Z</time>
      </trkpt>
      <trkpt lat="45.86942" lon="4.72137">
        <ele>201</ele>
        <time>2018-04-15T09:28:03Z</time>
      </trkpt>
      <trkpt lat="45.86936" lon="4.72135">
        <ele>201</ele>
        <time>2018-04-15T09:28:04Z</time>
      </trkpt>
      <trkpt lat="45.8693" lon="4.72132">
        <ele>201</ele>
        <time>2018-04-15T09:28:05Z</time>
      </trkpt>
      <trkpt lat="45.86923" lon="4.72127">
        <ele>200</ele>
        <time>2018-04-15T09:28:06Z</time>
      </trkpt>
      <trkpt lat="45.86915" lon="4.72124">
        <ele>202</ele>
        <time>2018-04-15T09:28:07Z</time>
      </trkpt>
      <trkpt lat="45.86909" lon="4.7212">
        <ele>201</ele>
        <time>2018-04-15T09:28:08Z</time>
      </trkpt>
      <trkpt lat="45.86903" lon="4.72117">
        <ele>201</ele>
        <time>2018-04-15T09:28:09Z</time>
      </trkpt>
      <trkpt lat="45.86896" lon="4.72114">
        <ele>201</ele>
        <time>2018-04-15T09:28:10Z</time>
      </trkpt>
      <trkpt lat="45.8689" lon="4.72111">
        <ele>201</ele>
        <time>2018-04-15T09:28:11Z</time>
      </trkpt>
      <trkpt lat="45.86883" lon="4.72109">
        <ele>201</ele>
        <time>2018-04-15T09:28:12Z</time>
      </trkpt>
      <trkpt lat="45.86876" lon="4.72108">
        <ele>201</ele>
        <time>2018-04-15T09:28:13Z</time>
      </trkpt>
      <trkpt lat="45.86872" lon="4.72105">
        <ele>200</ele>
        <time>2018-04-15T09:28:14Z</time>
      </trkpt>
      <trkpt lat="45.86865" lon="4.72104">
        <ele>200</ele>
        <time>2018-04-15T09:28:15Z</time>
      </trkpt>
      <trkpt lat="45.86858" lon="4.72101">
        <ele>200</ele>
        <time>2018-04-15T09:28:16Z</time>
      </trkpt>
      <trkpt lat="45.86851" lon="4.72097">
        <ele>199</ele>
        <time>2018-04-15T09:28:17Z</time>
      </trkpt>
      <trkpt lat="45.86845" lon="4.72094">
        <ele>198</ele>
        <time>2018-04-15T09:28:18Z</time>
      </trkpt>
      <trkpt lat="45.86838" lon="4.72091">
        <ele>196</ele>
        <time>2018-04-15T09:28:19Z</time>
      </trkpt>
      <trkpt lat="45.86831" lon="4.72089">
        <ele>196</ele>
        <time>2018-04-15T09:28:20Z</time>
      </trkpt>
      <trkpt lat="45.86825" lon="4.72086">
        <ele>197</ele>
        <time>2018-04-15T09:28:21Z</time>
      </trkpt>
      <trkpt lat="45.86818" lon="4.72082">
        <ele>194</ele>
        <time>2018-04-15T09:28:22Z</time>
      </trkpt>
      <trkpt lat="45.86811" lon="4.7208">
        <ele>194</ele>
        <time>2018-04-15T09:28:23Z</time>
      </trkpt>
      <trkpt lat="45.86804" lon="4.72077">
        <ele>194</ele>
        <time>2018-04-15T09:28:24Z</time>
      </trkpt>
      <trkpt lat="45.86796" lon="4.72074">
        <ele>194</ele>
        <time>2018-04-15T09:28:25Z</time>
      </trkpt>
      <trkpt lat="45.86789" lon="4.72071">
        <ele>194</ele>
        <time>2018-04-15T09:28:26Z</time>
      </trkpt>
      <trkpt lat="45.86782" lon="4.72068">
        <ele>194</ele>
        <time>2018-04-15T09:28:27Z</time>
      </trkpt>
      <trkpt lat="45.86776" lon="4.72066">
        <ele>195</ele>
        <time>2018-04-15T09:28:28Z</time>
      </trkpt>
      <trkpt lat="45.86771" lon="4.72063">
        <ele>195</ele>
        <time>2018-04-15T09:28:29Z</time>
      </trkpt>
      <trkpt lat="45.86765" lon="4.72059">
        <ele>195</ele>
        <time>2018-04-15T09:28:30Z</time>
      </trkpt>
      <trkpt lat="45.86759" lon="4.72056">
        <ele>195</ele>
        <time>2018-04-15T09:28:31Z</time>
      </trkpt>
      <trkpt lat="45.86754" lon="4.72053">
        <ele>195</ele>
        <time>2018-04-15T09:28:32Z</time>
      </trkpt>
      <trkpt lat="45.86749" lon="4.7205">
        <ele>197</ele>
        <time>2018-04-15T09:28:33Z</time>
      </trkpt>
      <trkpt lat="45.8674" lon="4.72048">
        <ele>197</ele>
        <time>2018-04-15T09:28:34Z</time>
      </trkpt>
      <trkpt lat="45.86733" lon="4.72045">
        <ele>197</ele>
        <time>2018-04-15T09:28:36Z</time>
      </trkpt>
      <trkpt lat="45.86727" lon="4.72042">
        <ele>197</ele>
        <time>2018-04-15T09:28:37Z</time>
      </trkpt>
      <trkpt lat="45.86722" lon="4.72038">
        <ele>197</ele>
        <time>2018-04-15T09:28:38Z</time>
      </trkpt>
      <trkpt lat="45.86717" lon="4.72034">
        <ele>197</ele>
        <time>2018-04-15T09:28:39Z</time>
      </trkpt>
      <trkpt lat="45.86711" lon="4.72031">
        <ele>197</ele>
        <time>2018-04-15T09:28:40Z</time>
      </trkpt>
      <trkpt lat="45.86706" lon="4.72027">
        <ele>197</ele>
        <time>2018-04-15T09:28:41Z</time>
      </trkpt>
      <trkpt lat="45.86701" lon="4.72023">
        <ele>197</ele>
        <time>2018-04-15T09:28:42Z</time>
      </trkpt>
      <trkpt lat="45.86695" lon="4.72019">
        <ele>197</ele>
        <time>2018-04-15T09:28:43Z</time>
      </trkpt>
      <trkpt lat="45.8669" lon="4.72015">
        <ele>196</ele>
        <time>2018-04-15T09:28:44Z</time>
      </trkpt>
      <trkpt lat="45.86686" lon="4.72011">
        <ele>196</ele>
        <time>2018-04-15T09:28:45Z</time>
      </trkpt>
      <trkpt lat="45.8668" lon="4.72007">
        <ele>196</ele>
        <time>2018-04-15T09:28:46Z</time>
      </trkpt>
      <trkpt lat="45.86675" lon="4.72003">
        <ele>196</ele>
        <time>2018-04-15T09:28:47Z</time>
      </trkpt>
      <trkpt lat="45.8667" lon="4.71999">
        <ele>195</ele>
        <time>2018-04-15T09:28:48Z</time>
      </trkpt>
      <trkpt lat="45.86665" lon="4.71995">
        <ele>195</ele>
        <time>2018-04-15T09:28:49Z</time>
      </trkpt>
      <trkpt lat="45.8666" lon="4.7199">
        <ele>195</ele>
        <time>2018-04-15T09:28:50Z</time>
      </trkpt>
      <trkpt lat="45.86655" lon="4.71986">
        <ele>195</ele>
        <time>2018-04-15T09:28:51Z</time>
      </trkpt>
      <trkpt lat="45.86651" lon="4.71982">
        <ele>195</ele>
        <time>2018-04-15T09:28:52Z</time>
      </trkpt>
      <trkpt lat="45.86647" lon="4.71978">
        <ele>195</ele>
        <time>2018-04-15T09:28:53Z</time>
      </trkpt>
      <trkpt lat="45.86643" lon="4.71975">
        <ele>195</ele>
        <time>2018-04-15T09:28:54Z</time>
      </trkpt>
      <trkpt lat="45.86636" lon="4.71972">
        <ele>195</ele>
        <time>2018-04-15T09:28:55Z</time>
      </trkpt>
      <trkpt lat="45.86631" lon="4.71968">
        <ele>195</ele>
        <time>2018-04-15T09:28:56Z</time>
      </trkpt>
      <trkpt lat="45.86626" lon="4.71964">
        <ele>195</ele>
        <time>2018-04-15T09:28:57Z</time>
      </trkpt>
      <trkpt lat="45.86621" lon="4.7196">
        <ele>195</ele>
        <time>2018-04-15T09:28:58Z</time>
      </trkpt>
      <trkpt lat="45.86617" lon="4.71957">
        <ele>194</ele>
        <time>2018-04-15T09:28:59Z</time>
      </trkpt>
      <trkpt lat="45.86612" lon="4.71955">
        <ele>194</ele>
        <time>2018-04-15T09:29:00Z</time>
      </trkpt>
      <trkpt lat="45.86607" lon="4.71951">
        <ele>194</ele>
        <time>2018-04-15T09:29:01Z</time>
      </trkpt>
      <trkpt lat="45.86601" lon="4.71947">
        <ele>194</ele>
        <time>2018-04-15T09:29:02Z</time>
      </trkpt>
      <trkpt lat="45.86597" lon="4.71943">
        <ele>194</ele>
        <time>2018-04-15T09:29:03Z</time>
      </trkpt>
      <trkpt lat="45.86592" lon="4.71938">
        <ele>194</ele>
        <time>2018-04-15T09:29:04Z</time>
      </trkpt>
      <trkpt lat="45.86588" lon="4.71934">
        <ele>194</ele>
        <time>2018-04-15T09:29:05Z</time>
      </trkpt>
      <trkpt lat="45.86583" lon="4.71929">
        <ele>195</ele>
        <time>2018-04-15T09:29:06Z</time>
      </trkpt>
      <trkpt lat="45.86578" lon="4.71925">
        <ele>195</ele>
        <time>2018-04-15T09:29:07Z</time>
      </trkpt>
      <trkpt lat="45.86573" lon="4.71921">
        <ele>195</ele>
        <time>2018-04-15T09:29:08Z</time>
      </trkpt>
      <trkpt lat="45.86568" lon="4.71917">
        <ele>195</ele>
        <time>2018-04-15T09:29:09Z</time>
      </trkpt>
      <trkpt lat="45.86563" lon="4.71913">
        <ele>195</ele>
        <time>2018-04-15T09:29:10Z</time>
      </trkpt>
      <trkpt lat="45.86559" lon="4.71909">
        <ele>195</ele>
        <time>2018-04-15T09:29:11Z</time>
      </trkpt>
      <trkpt lat="45.86555" lon="4.71906">
        <ele>195</ele>
        <time>2018-04-15T09:29:12Z</time>
      </trkpt>
      <trkpt lat="45.86551" lon="4.71902">
        <ele>195</ele>
        <time>2018-04-15T09:29:13Z</time>
      </trkpt>
      <trkpt lat="45.86546" lon="4.71899">
        <ele>195</ele>
        <time>2018-04-15T09:29:14Z</time>
      </trkpt>
      <trkpt lat="45.86541" lon="4.71896">
        <ele>195</ele>
        <time>2018-04-15T09:29:15Z</time>
      </trkpt>
      <trkpt lat="45.86535" lon="4.71892">
        <ele>195</ele>
        <time>2018-04-15T09:29:16Z</time>
      </trkpt>
      <trkpt lat="45.8653" lon="4.71888">
        <ele>195</ele>
        <time>2018-04-15T09:29:17Z</time>
      </trkpt>
      <trkpt lat="45.86526" lon="4.71885">
        <ele>195</ele>
        <time>2018-04-15T09:29:18Z</time>
      </trkpt>
      <trkpt lat="45.86521" lon="4.7188">
        <ele>195</ele>
        <time>2018-04-15T09:29:19Z</time>
      </trkpt>
      <trkpt lat="45.86516" lon="4.71876">
        <ele>195</ele>
        <time>2018-04-15T09:29:20Z</time>
      </trkpt>
      <trkpt lat="45.86511" lon="4.71872">
        <ele>195</ele>
        <time>2018-04-15T09:29:21Z</time>
      </trkpt>
      <trkpt lat="45.86504" lon="4.71866">
        <ele>195</ele>
        <time>2018-04-15T09:29:23Z</time>
      </trkpt>
      <trkpt lat="45.865" lon="4.71861">
        <ele>198</ele>
        <time>2018-04-15T09:29:24Z</time>
      </trkpt>
      <trkpt lat="45.86494" lon="4.71857">
        <ele>198</ele>
        <time>2018-04-15T09:29:25Z</time>
      </trkpt>
      <trkpt lat="45.86489" lon="4.71853">
        <ele>198</ele>
        <time>2018-04-15T09:29:26Z</time>
      </trkpt>
      <trkpt lat="45.86481" lon="4.71848">
        <ele>198</ele>
        <time>2018-04-15T09:29:28Z</time>
      </trkpt>
      <trkpt lat="45.86477" lon="4.71844">
        <ele>198</ele>
        <time>2018-04-15T09:29:29Z</time>
      </trkpt>
      <trkpt lat="45.86471" lon="4.7184">
        <ele>199</ele>
        <time>2018-04-15T09:29:30Z</time>
      </trkpt>
      <trkpt lat="45.86467" lon="4.71838">
        <ele>199</ele>
        <time>2018-04-15T09:29:31Z</time>
      </trkpt>
      <trkpt lat="45.86462" lon="4.71833">
        <ele>196</ele>
        <time>2018-04-15T09:29:32Z</time>
      </trkpt>
      <trkpt lat="45.86458" lon="4.71829">
        <ele>196</ele>
        <time>2018-04-15T09:29:33Z</time>
      </trkpt>
      <trkpt lat="45.86455" lon="4.71827">
        <ele>197</ele>
        <time>2018-04-15T09:29:34Z</time>
      </trkpt>
      <trkpt lat="45.86449" lon="4.71823">
        <ele>197</ele>
        <time>2018-04-15T09:29:35Z</time>
      </trkpt>
      <trkpt lat="45.86446" lon="4.7182">
        <ele>197</ele>
        <time>2018-04-15T09:29:36Z</time>
      </trkpt>
      <trkpt lat="45.86439" lon="4.71815">
        <ele>197</ele>
        <time>2018-04-15T09:29:37Z</time>
      </trkpt>
      <trkpt lat="45.86433" lon="4.71811">
        <ele>197</ele>
        <time>2018-04-15T09:29:38Z</time>
      </trkpt>
      <trkpt lat="45.86428" lon="4.71806">
        <ele>197</ele>
        <time>2018-04-15T09:29:39Z</time>
      </trkpt>
      <trkpt lat="45.86422" lon="4.71801">
        <ele>197</ele>
        <time>2018-04-15T09:29:40Z</time>
      </trkpt>
      <trkpt lat="45.86418" lon="4.71797">
        <ele>197</ele>
        <time>2018-04-15T09:29:41Z</time>
      </trkpt>
      <trkpt lat="45.86413" lon="4.71793">
        <ele>199</ele>
        <time>2018-04-15T09:29:42Z</time>
      </trkpt>
      <trkpt lat="45.86408" lon="4.7179">
        <ele>198</ele>
        <time>2018-04-15T09:29:43Z</time>
      </trkpt>
      <trkpt lat="45.86404" lon="4.71786">
        <ele>198</ele>
        <time>2018-04-15T09:29:44Z</time>
      </trkpt>
      <trkpt lat="45.86398" lon="4.71784">
        <ele>198</ele>
        <time>2018-04-15T09:29:45Z</time>
      </trkpt>
      <trkpt lat="45.86392" lon="4.71781">
        <ele>198</ele>
        <time>2018-04-15T09:29:46Z</time>
      </trkpt>
      <trkpt lat="45.86387" lon="4.71777">
        <ele>198</ele>
        <time>2018-04-15T09:29:47Z</time>
      </trkpt>
      <trkpt lat="45.86381" lon="4.71773">
        <ele>198</ele>
        <time>2018-04-15T09:29:48Z</time>
      </trkpt>
      <trkpt lat="45.86377" lon="4.71769">
        <ele>198</ele>
        <time>2018-04-15T09:29:49Z</time>
      </trkpt>
      <trkpt lat="45.86372" lon="4.71763">
        <ele>198</ele>
        <time>2018-04-15T09:29:50Z</time>
      </trkpt>
      <trkpt lat="45.86367" lon="4.71759">
        <ele>198</ele>
        <time>2018-04-15T09:29:51Z</time>
      </trkpt>
      <trkpt lat="45.86362" lon="4.71755">
        <ele>198</ele>
        <time>2018-04-15T09:29:52Z</time>
      </trkpt>
      <trkpt lat="45.86357" lon="4.7175">
        <ele>197</ele>
        <time>2018-04-15T09:29:53Z</time>
      </trkpt>
      <trkpt lat="45.86351" lon="4.71748">
        <ele>195</ele>
        <time>2018-04-15T09:29:54Z</time>
      </trkpt>
      <trkpt lat="45.86346" lon="4.71744">
        <ele>195</ele>
        <time>2018-04-15T09:29:55Z</time>
      </trkpt>
      <trkpt lat="45.86341" lon="4.7174">
        <ele>195</ele>
        <time>2018-04-15T09:29:56Z</time>
      </trkpt>
      <trkpt lat="45.86336" lon="4.71737">
        <ele>195</ele>
        <time>2018-04-15T09:29:57Z</time>
      </trkpt>
      <trkpt lat="45.8633" lon="4.71732">
        <ele>196</ele>
        <time>2018-04-15T09:29:58Z</time>
      </trkpt>
      <trkpt lat="45.86325" lon="4.71729">
        <ele>196</ele>
        <time>2018-04-15T09:29:59Z</time>
      </trkpt>
      <trkpt lat="45.8632" lon="4.71725">
        <ele>196</ele>
        <time>2018-04-15T09:30:00Z</time>
      </trkpt>
      <trkpt lat="45.86316" lon="4.71721">
        <ele>196</ele>
        <time>2018-04-15T09:30:01Z</time>
      </trkpt>
      <trkpt lat="45.86311" lon="4.71718">
        <ele>196</ele>
        <time>2018-04-15T09:30:02Z</time>
      </trkpt>
      <trkpt lat="45.86305" lon="4.71714">
        <ele>195</ele>
        <time>2018-04-15T09:30:03Z</time>
      </trkpt>
      <trkpt lat="45.863" lon="4.7171">
        <ele>195</ele>
        <time>2018-04-15T09:30:04Z</time>
      </trkpt>
      <trkpt lat="45.86296" lon="4.71707">
        <ele>195</ele>
        <time>2018-04-15T09:30:05Z</time>
      </trkpt>
      <trkpt lat="45.86291" lon="4.71703">
        <ele>195</ele>
        <time>2018-04-15T09:30:06Z</time>
      </trkpt>
      <trkpt lat="45.86286" lon="4.71699">
        <ele>195</ele>
        <time>2018-04-15T09:30:07Z</time>
      </trkpt>
      <trkpt lat="45.86283" lon="4.71696">
        <ele>195</ele>
        <time>2018-04-15T09:30:08Z</time>
      </trkpt>
      <trkpt lat="45.86278" lon="4.71693">
        <ele>195</ele>
        <time>2018-04-15T09:30:09Z</time>
      </trkpt>
      <trkpt lat="45.86274" lon="4.71687">
        <ele>195</ele>
        <time>2018-04-15T09:30:10Z</time>
      </trkpt>
      <trkpt lat="45.86268" lon="4.71682">
        <ele>195</ele>
        <time>2018-04-15T09:30:11Z</time>
      </trkpt>
      <trkpt lat="45.86262" lon="4.71678">
        <ele>195</ele>
        <time>2018-04-15T09:30:12Z</time>
      </trkpt>
      <trkpt lat="45.86258" lon="4.71675">
        <ele>195</ele>
        <time>2018-04-15T09:30:13Z</time>
      </trkpt>
      <trkpt lat="45.86252" lon="4.71671">
        <ele>195</ele>
        <time>2018-04-15T09:30:14Z</time>
      </trkpt>
      <trkpt lat="45.86246" lon="4.71667">
        <ele>195</ele>
        <time>2018-04-15T09:30:15Z</time>
      </trkpt>
      <trkpt lat="45.86241" lon="4.71663">
        <ele>195</ele>
        <time>2018-04-15T09:30:16Z</time>
      </trkpt>
      <trkpt lat="45.86237" lon="4.71659">
        <ele>195</ele>
        <time>2018-04-15T09:30:17Z</time>
      </trkpt>
      <trkpt lat="45.86232" lon="4.71656">
        <ele>195</ele>
        <time>2018-04-15T09:30:18Z</time>
      </trkpt>
      <trkpt lat="45.86229" lon="4.71653">
        <ele>195</ele>
        <time>2018-04-15T09:30:19Z</time>
      </trkpt>
      <trkpt lat="45.86224" lon="4.71649">
        <ele>195</ele>
        <time>2018-04-15T09:30:20Z</time>
      </trkpt>
      <trkpt lat="45.8622" lon="4.71644">
        <ele>195</ele>
        <time>2018-04-15T09:30:21Z</time>
      </trkpt>
      <trkpt lat="45.86218" lon="4.71639">
        <ele>195</ele>
        <time>2018-04-15T09:30:22Z</time>
      </trkpt>
      <trkpt lat="45.86216" lon="4.71631">
        <ele>195</ele>
        <time>2018-04-15T09:30:23Z</time>
      </trkpt>
      <trkpt lat="45.86215" lon="4.71623">
        <ele>195</ele>
        <time>2018-04-15T09:30:24Z</time>
      </trkpt>
      <trkpt lat="45.8621" lon="4.71617">
        <ele>195</ele>
        <time>2018-04-15T09:30:25Z</time>
      </trkpt>
      <trkpt lat="45.86206" lon="4.71606">
        <ele>195</ele>
        <time>2018-04-15T09:30:27Z</time>
      </trkpt>
      <trkpt lat="45.86204" lon="4.71602">
        <ele>195</ele>
        <time>2018-04-15T09:30:28Z</time>
      </trkpt>
      <trkpt lat="45.86199" lon="4.71597">
        <ele>195</ele>
        <time>2018-04-15T09:30:29Z</time>
      </trkpt>
      <trkpt lat="45.86195" lon="4.71591">
        <ele>195</ele>
        <time>2018-04-15T09:30:30Z</time>
      </trkpt>
      <trkpt lat="45.86191" lon="4.71586">
        <ele>195</ele>
        <time>2018-04-15T09:30:31Z</time>
      </trkpt>
      <trkpt lat="45.86188" lon="4.71582">
        <ele>195</ele>
        <time>2018-04-15T09:30:32Z</time>
      </trkpt>
      <trkpt lat="45.86185" lon="4.71577">
        <ele>195</ele>
        <time>2018-04-15T09:30:33Z</time>
      </trkpt>
      <trkpt lat="45.86183" lon="4.71571">
        <ele>195</ele>
        <time>2018-04-15T09:30:34Z</time>
      </trkpt>
      <trkpt lat="45.8618" lon="4.71565">
        <ele>195</ele>
        <time>2018-04-15T09:30:35Z</time>
      </trkpt>
      <trkpt lat="45.86178" lon="4.7156">
        <ele>195</ele>
        <time>2018-04-15T09:30:36Z</time>
      </trkpt>
      <trkpt lat="45.86175" lon="4.71554">
        <ele>195</ele>
        <time>2018-04-15T09:30:37Z</time>
      </trkpt>
      <trkpt lat="45.86172" lon="4.71548">
        <ele>195</ele>
        <time>2018-04-15T09:30:38Z</time>
      </trkpt>
      <trkpt lat="45.86169" lon="4.71543">
        <ele>195</ele>
        <time>2018-04-15T09:30:39Z</time>
      </trkpt>
      <trkpt lat="45.86167" lon="4.71537">
        <ele>195</ele>
        <time>2018-04-15T09:30:40Z</time>
      </trkpt>
      <trkpt lat="45.86164" lon="4.71531">
        <ele>195</ele>
        <time>2018-04-15T09:30:41Z</time>
      </trkpt>
      <trkpt lat="45.86161" lon="4.71525">
        <ele>195</ele>
        <time>2018-04-15T09:30:42Z</time>
      </trkpt>
      <trkpt lat="45.86158" lon="4.7152">
        <ele>195</ele>
        <time>2018-04-15T09:30:43Z</time>
      </trkpt>
      <trkpt lat="45.86156" lon="4.71513">
        <ele>195</ele>
        <time>2018-04-15T09:30:44Z</time>
      </trkpt>
      <trkpt lat="45.86152" lon="4.71502">
        <ele>195</ele>
        <time>2018-04-15T09:30:46Z</time>
      </trkpt>
      <trkpt lat="45.86149" lon="4.71496">
        <ele>195</ele>
        <time>2018-04-15T09:30:47Z</time>
      </trkpt>
      <trkpt lat="45.86148" lon="4.71491">
        <ele>195</ele>
        <time>2018-04-15T09:30:48Z</time>
      </trkpt>
      <trkpt lat="45.86145" lon="4.71484">
        <ele>195</ele>
        <time>2018-04-15T09:30:49Z</time>
      </trkpt>
      <trkpt lat="45.86141" lon="4.71472">
        <ele>195</ele>
        <time>2018-04-15T09:30:51Z</time>
      </trkpt>
      <trkpt lat="45.8614" lon="4.71467">
        <ele>195</ele>
        <time>2018-04-15T09:30:52Z</time>
      </trkpt>
      <trkpt lat="45.86138" lon="4.71461">
        <ele>195</ele>
        <time>2018-04-15T09:30:53Z</time>
      </trkpt>
      <trkpt lat="45.86136" lon="4.71454">
        <ele>195</ele>
        <time>2018-04-15T09:30:54Z</time>
      </trkpt>
      <trkpt lat="45.86134" lon="4.71442">
        <ele>195</ele>
        <time>2018-04-15T09:30:56Z</time>
      </trkpt>
      <trkpt lat="45.86131" lon="4.71437">
        <ele>195</ele>
        <time>2018-04-15T09:30:57Z</time>
      </trkpt>
      <trkpt lat="45.8613" lon="4.7143">
        <ele>195</ele>
        <time>2018-04-15T09:30:58Z</time>
      </trkpt>
      <trkpt lat="45.86128" lon="4.71424">
        <ele>195</ele>
        <time>2018-04-15T09:30:59Z</time>
      </trkpt>
      <trkpt lat="45.86125" lon="4.71411">
        <ele>196</ele>
        <time>2018-04-15T09:31:01Z</time>
      </trkpt>
      <trkpt lat="45.86124" lon="4.71405">
        <ele>196</ele>
        <time>2018-04-15T09:31:02Z</time>
      </trkpt>
      <trkpt lat="45.86124" lon="4.71398">
        <ele>196</ele>
        <time>2018-04-15T09:31:03Z</time>
      </trkpt>
      <trkpt lat="45.86124" lon="4.7139">
        <ele>196</ele>
        <time>2018-04-15T09:31:04Z</time>
      </trkpt>
      <trkpt lat="45.86124" lon="4.71383">
        <ele>196</ele>
        <time>2018-04-15T09:31:05Z</time>
      </trkpt>
      <trkpt lat="45.86123" lon="4.71377">
        <ele>196</ele>
        <time>2018-04-15T09:31:06Z</time>
      </trkpt>
      <trkpt lat="45.86123" lon="4.71371">
        <ele>196</ele>
        <time>2018-04-15T09:31:07Z</time>
      </trkpt>
      <trkpt lat="45.86121" lon="4.71364">
        <ele>196</ele>
        <time>2018-04-15T09:31:08Z</time>
      </trkpt>
      <trkpt lat="45.8612" lon="4.71357">
        <ele>196</ele>
        <time>2018-04-15T09:31:09Z</time>
      </trkpt>
      <trkpt lat="45.8612" lon="4.7135">
        <ele>196</ele>
        <time>2018-04-15T09:31:10Z</time>
      </trkpt>
      <trkpt lat="45.86118" lon="4.71343">
        <ele>196</ele>
        <time>2018-04-15T09:31:11Z</time>
      </trkpt>
      <trkpt lat="45.86117" lon="4.71336">
        <ele>196</ele>
        <time>2018-04-15T09:31:12Z</time>
      </trkpt>
      <trkpt lat="45.86116" lon="4.71328">
        <ele>196</ele>
        <time>2018-04-15T09:31:13Z</time>
      </trkpt>
      <trkpt lat="45.86114" lon="4.7132">
        <ele>196</ele>
        <time>2018-04-15T09:31:14Z</time>
      </trkpt>
      <trkpt lat="45.86112" lon="4.71314">
        <ele>196</ele>
        <time>2018-04-15T09:31:15Z</time>
      </trkpt>
      <trkpt lat="45.86111" lon="4.71306">
        <ele>196</ele>
        <time>2018-04-15T09:31:16Z</time>
      </trkpt>
      <trkpt lat="45.8611" lon="4.71299">
        <ele>196</ele>
        <time>2018-04-15T09:31:17Z</time>
      </trkpt>
      <trkpt lat="45.86109" lon="4.71293">
        <ele>196</ele>
        <time>2018-04-15T09:31:18Z</time>
      </trkpt>
      <trkpt lat="45.86106" lon="4.7128">
        <ele>197</ele>
        <time>2018-04-15T09:31:20Z</time>
      </trkpt>
      <trkpt lat="45.86103" lon="4.71275">
        <ele>197</ele>
        <time>2018-04-15T09:31:21Z</time>
      </trkpt>
      <trkpt lat="45.86101" lon="4.71269">
        <ele>197</ele>
        <time>2018-04-15T09:31:22Z</time>
      </trkpt>
      <trkpt lat="45.86098" lon="4.71264">
        <ele>197</ele>
        <time>2018-04-15T09:31:23Z</time>
      </trkpt>
      <trkpt lat="45.86093" lon="4.71255">
        <ele>197</ele>
        <time>2018-04-15T09:31:25Z</time>
      </trkpt>
      <trkpt lat="45.8609" lon="4.7125">
        <ele>198</ele>
        <time>2018-04-15T09:31:26Z</time>
      </trkpt>
      <trkpt lat="45.86088" lon="4.71244">
        <ele>198</ele>
        <time>2018-04-15T09:31:27Z</time>
      </trkpt>
      <trkpt lat="45.86087" lon="4.71237">
        <ele>197</ele>
        <time>2018-04-15T09:31:28Z</time>
      </trkpt>
      <trkpt lat="45.86088" lon="4.7123">
        <ele>197</ele>
        <time>2018-04-15T09:31:29Z</time>
      </trkpt>
      <trkpt lat="45.8609" lon="4.71224">
        <ele>197</ele>
        <time>2018-04-15T09:31:30Z</time>
      </trkpt>
      <trkpt lat="45.86092" lon="4.71217">
        <ele>197</ele>
        <time>2018-04-15T09:31:31Z</time>
      </trkpt>
      <trkpt lat="45.86093" lon="4.71209">
        <ele>197</ele>
        <time>2018-04-15T09:31:32Z</time>
      </trkpt>
      <trkpt lat="45.86095" lon="4.71197">
        <ele>197</ele>
        <time>2018-04-15T09:31:34Z</time>
      </trkpt>
      <trkpt lat="45.86096" lon="4.71191">
        <ele>197</ele>
        <time>2018-04-15T09:31:35Z</time>
      </trkpt>
      <trkpt lat="45.86097" lon="4.71184">
        <ele>197</ele>
        <time>2018-04-15T09:31:36Z</time>
      </trkpt>
      <trkpt lat="45.86098" lon="4.71178">
        <ele>197</ele>
        <time>2018-04-15T09:31:37Z</time>
      </trkpt>
      <trkpt lat="45.861" lon="4.71167">
        <ele>197</ele>
        <time>2018-04-15T09:31:39Z</time>
      </trkpt>
      <trkpt lat="45.86101" lon="4.71162">
        <ele>197</ele>
        <time>2018-04-15T09:31:40Z</time>
      </trkpt>
      <trkpt lat="45.861" lon="4.71152">
        <ele>197</ele>
        <time>2018-04-15T09:31:42Z</time>
      </trkpt>
      <trkpt lat="45.86098" lon="4.71147">
        <ele>197</ele>
        <time>2018-04-15T09:31:43Z</time>
      </trkpt>
      <trkpt lat="45.86092" lon="4.71139">
        <ele>197</ele>
        <time>2018-04-15T09:31:45Z</time>
      </trkpt>
      <trkpt lat="45.86088" lon="4.71136">
        <ele>197</ele>
        <time>2018-04-15T09:31:46Z</time>
      </trkpt>
      <trkpt lat="45.86084" lon="4.71129">
        <ele>196</ele>
        <time>2018-04-15T09:31:48Z</time>
      </trkpt>
      <trkpt lat="45.86079" lon="4.71126">
        <ele>197</ele>
        <time>2018-04-15T09:31:49Z</time>
      </trkpt>
      <trkpt lat="45.86076" lon="4.71122">
        <ele>197</ele>
        <time>2018-04-15T09:31:50Z</time>
      </trkpt>
      <trkpt lat="45.86071" lon="4.71117">
        <ele>197</ele>
        <time>2018-04-15T09:31:51Z</time>
      </trkpt>
      <trkpt lat="45.86066" lon="4.71108">
        <ele>197</ele>
        <time>2018-04-15T09:31:53Z</time>
      </trkpt>
      <trkpt lat="45.86061" lon="4.71103">
        <ele>197</ele>
        <time>2018-04-15T09:31:54Z</time>
      </trkpt>
      <trkpt lat="45.86058" lon="4.71098">
        <ele>197</ele>
        <time>2018-04-15T09:31:55Z</time>
      </trkpt>
      <trkpt lat="45.86054" lon="4.71092">
        <ele>197</ele>
        <time>2018-04-15T09:31:56Z</time>
      </trkpt>
      <trkpt lat="45.86052" lon="4.71086">
        <ele>197</ele>
        <time>2018-04-15T09:31:57Z</time>
      </trkpt>
      <trkpt lat="45.86049" lon="4.71079">
        <ele>196</ele>
        <time>2018-04-15T09:31:58Z</time>
      </trkpt>
      <trkpt lat="45.86049" lon="4.71073">
        <ele>196</ele>
        <time>2018-04-15T09:31:59Z</time>
      </trkpt>
      <trkpt lat="45.86047" lon="4.71066">
        <ele>196</ele>
        <time>2018-04-15T09:32:00Z</time>
      </trkpt>
      <trkpt lat="45.86045" lon="4.71053">
        <ele>196</ele>
        <time>2018-04-15T09:32:02Z</time>
      </trkpt>
      <trkpt lat="45.86044" lon="4.71047">
        <ele>196</ele>
        <time>2018-04-15T09:32:03Z</time>
      </trkpt>
      <trkpt lat="45.86043" lon="4.71041">
        <ele>196</ele>
        <time>2018-04-15T09:32:04Z</time>
      </trkpt>
      <trkpt lat="45.86041" lon="4.71035">
        <ele>197</ele>
        <time>2018-04-15T09:32:05Z</time>
      </trkpt>
      <trkpt lat="45.86037" lon="4.71024">
        <ele>197</ele>
        <time>2018-04-15T09:32:07Z</time>
      </trkpt>
      <trkpt lat="45.86034" lon="4.71018">
        <ele>197</ele>
        <time>2018-04-15T09:32:08Z</time>
      </trkpt>
      <trkpt lat="45.86031" lon="4.71013">
        <ele>197</ele>
        <time>2018-04-15T09:32:09Z</time>
      </trkpt>
      <trkpt lat="45.86028" lon="4.71008">
        <ele>197</ele>
        <time>2018-04-15T09:32:10Z</time>
      </trkpt>
      <trkpt lat="45.86025" lon="4.71003">
        <ele>197</ele>
        <time>2018-04-15T09:32:11Z</time>
      </trkpt>
      <trkpt lat="45.8602" lon="4.70999">
        <ele>196</ele>
        <time>2018-04-15T09:32:12Z</time>
      </trkpt>
      <trkpt lat="45.86015" lon="4.70995">
        <ele>197</ele>
        <time>2018-04-15T09:32:13Z</time>
      </trkpt>
      <trkpt lat="45.86011" lon="4.7099">
        <ele>197</ele>
        <time>2018-04-15T09:32:14Z</time>
      </trkpt>
      <trkpt lat="45.86004" lon="4.70983">
        <ele>197</ele>
        <time>2018-04-15T09:32:16Z</time>
      </trkpt>
      <trkpt lat="45.85999" lon="4.7098">
        <ele>197</ele>
        <time>2018-04-15T09:32:17Z</time>
      </trkpt>
      <trkpt lat="45.85995" lon="4.70979">
        <ele>197</ele>
        <time>2018-04-15T09:32:18Z</time>
      </trkpt>
      <trkpt lat="45.8599" lon="4.70976">
        <ele>197</ele>
        <time>2018-04-15T09:32:19Z</time>
      </trkpt>
      <trkpt lat="45.85986" lon="4.70975">
        <ele>197</ele>
        <time>2018-04-15T09:32:20Z</time>
      </trkpt>
      <trkpt lat="45.85981" lon="4.70974">
        <ele>197</ele>
        <time>2018-04-15T09:32:21Z</time>
      </trkpt>
      <trkpt lat="45.85976" lon="4.70973">
        <ele>197</ele>
        <time>2018-04-15T09:32:22Z</time>
      </trkpt>
      <trkpt lat="45.85972" lon="4.70972">
        <ele>197</ele>
        <time>2018-04-15T09:32:23Z</time>
      </trkpt>
      <trkpt lat="45.85967" lon="4.70971">
        <ele>197</ele>
        <time>2018-04-15T09:32:24Z</time>
      </trkpt>
      <trkpt lat="45.85962" lon="4.70971">
        <ele>197</ele>
        <time>2018-04-15T09:32:25Z</time>
      </trkpt>
      <trkpt lat="45.85954" lon="4.7097">
        <ele>197</ele>
        <time>2018-04-15T09:32:27Z</time>
      </trkpt>
      <trkpt lat="45.8595" lon="4.70967">
        <ele>197</ele>
        <time>2018-04-15T09:32:28Z</time>
      </trkpt>
      <trkpt lat="45.85951" lon="4.70955">
        <ele>197</ele>
        <time>2018-04-15T09:32:30Z</time>
      </trkpt>
      <trkpt lat="45.85953" lon="4.7095">
        <ele>197</ele>
        <time>2018-04-15T09:32:31Z</time>
      </trkpt>
      <trkpt lat="45.85955" lon="4.70944">
        <ele>197</ele>
        <time>2018-04-15T09:32:32Z</time>
      </trkpt>
      <trkpt lat="45.85956" lon="4.70938">
        <ele>197</ele>
        <time>2018-04-15T09:32:33Z</time>
      </trkpt>
      <trkpt lat="45.85958" lon="4.70931">
        <ele>197</ele>
        <time>2018-04-15T09:32:34Z</time>
      </trkpt>
      <trkpt lat="45.85959" lon="4.70925">
        <ele>197</ele>
        <time>2018-04-15T09:32:35Z</time>
      </trkpt>
      <trkpt lat="45.8596" lon="4.70918">
        <ele>197</ele>
        <time>2018-04-15T09:32:36Z</time>
      </trkpt>
      <trkpt lat="45.85962" lon="4.70911">
        <ele>197</ele>
        <time>2018-04-15T09:32:37Z</time>
      </trkpt>
      <trkpt lat="45.85964" lon="4.70904">
        <ele>197</ele>
        <time>2018-04-15T09:32:38Z</time>
      </trkpt>
      <trkpt lat="45.85964" lon="4.70897">
        <ele>197</ele>
        <time>2018-04-15T09:32:39Z</time>
      </trkpt>
      <trkpt lat="45.85965" lon="4.70889">
        <ele>197</ele>
        <time>2018-04-15T09:32:40Z</time>
      </trkpt>
      <trkpt lat="45.85965" lon="4.70883">
        <ele>197</ele>
        <time>2018-04-15T09:32:41Z</time>
      </trkpt>
      <trkpt lat="45.85966" lon="4.70876">
        <ele>197</ele>
        <time>2018-04-15T09:32:42Z</time>
      </trkpt>
      <trkpt lat="45.85968" lon="4.70869">
        <ele>196</ele>
        <time>2018-04-15T09:32:43Z</time>
      </trkpt>
      <trkpt lat="45.85969" lon="4.70861">
        <ele>196</ele>
        <time>2018-04-15T09:32:44Z</time>
      </trkpt>
      <trkpt lat="45.8597" lon="4.70856">
        <ele>196</ele>
        <time>2018-04-15T09:32:45Z</time>
      </trkpt>
      <trkpt lat="45.85969" lon="4.70848">
        <ele>196</ele>
        <time>2018-04-15T09:32:46Z</time>
      </trkpt>
      <trkpt lat="45.85969" lon="4.70841">
        <ele>196</ele>
        <time>2018-04-15T09:32:47Z</time>
      </trkpt>
      <trkpt lat="45.85968" lon="4.70833">
        <ele>196</ele>
        <time>2018-04-15T09:32:48Z</time>
      </trkpt>
      <trkpt lat="45.85968" lon="4.70826">
        <ele>196</ele>
        <time>2018-04-15T09:32:49Z</time>
      </trkpt>
      <trkpt lat="45.85966" lon="4.70818">
        <ele>195</ele>
        <time>2018-04-15T09:32:50Z</time>
      </trkpt>
      <trkpt lat="45.85965" lon="4.7081">
        <ele>195</ele>
        <time>2018-04-15T09:32:51Z</time>
      </trkpt>
      <trkpt lat="45.85964" lon="4.70802">
        <ele>195</ele>
        <time>2018-04-15T09:32:52Z</time>
      </trkpt>
      <trkpt lat="45.85962" lon="4.70795">
        <ele>195</ele>
        <time>2018-04-15T09:32:53Z</time>
      </trkpt>
      <trkpt lat="45.85964" lon="4.70787">
        <ele>195</ele>
        <time>2018-04-15T09:32:54Z</time>
      </trkpt>
      <trkpt lat="45.85963" lon="4.7078">
        <ele>195</ele>
        <time>2018-04-15T09:32:55Z</time>
      </trkpt>
      <trkpt lat="45.85964" lon="4.70772">
        <ele>195</ele>
        <time>2018-04-15T09:32:56Z</time>
      </trkpt>
      <trkpt lat="45.85966" lon="4.70765">
        <ele>195</ele>
        <time>2018-04-15T09:32:57Z</time>
      </trkpt>
      <trkpt lat="45.85967" lon="4.70757">
        <ele>195</ele>
        <time>2018-04-15T09:32:58Z</time>
      </trkpt>
      <trkpt lat="45.85968" lon="4.7075">
        <ele>195</ele>
        <time>2018-04-15T09:32:59Z</time>
      </trkpt>
      <trkpt lat="45.85969" lon="4.70743">
        <ele>194</ele>
        <time>2018-04-15T09:33:00Z</time>
      </trkpt>
      <trkpt lat="45.8597" lon="4.70734">
        <ele>194</ele>
        <time>2018-04-15T09:33:01Z</time>
      </trkpt>
      <trkpt lat="45.85971" lon="4.70721">
        <ele>194</ele>
        <time>2018-04-15T09:33:03Z</time>
      </trkpt>
      <trkpt lat="45.85971" lon="4.70714">
        <ele>194</ele>
        <time>2018-04-15T09:33:04Z</time>
      </trkpt>
      <trkpt lat="45.85973" lon="4.70709">
        <ele>194</ele>
        <time>2018-04-15T09:33:05Z</time>
      </trkpt>
      <trkpt lat="45.85973" lon="4.707">
        <ele>194</ele>
        <time>2018-04-15T09:33:06Z</time>
      </trkpt>
      <trkpt lat="45.85972" lon="4.70693">
        <ele>194</ele>
        <time>2018-04-15T09:33:07Z</time>
      </trkpt>
      <trkpt lat="45.8597" lon="4.70687">
        <ele>194</ele>
        <time>2018-04-15T09:33:08Z</time>
      </trkpt>
      <trkpt lat="45.85968" lon="4.70681">
        <ele>194</ele>
        <time>2018-04-15T09:33:09Z</time>
      </trkpt>
      <trkpt lat="45.85965" lon="4.70675">
        <ele>194</ele>
        <time>2018-04-15T09:33:10Z</time>
      </trkpt>
      <trkpt lat="45.85961" lon="4.70668">
        <ele>194</ele>
        <time>2018-04-15T09:33:11Z</time>
      </trkpt>
      <trkpt lat="45.85957" lon="4.70661">
        <ele>194</ele>
        <time>2018-04-15T09:33:12Z</time>
      </trkpt>
      <trkpt lat="45.85954" lon="4.70655">
        <ele>194</ele>
        <time>2018-04-15T09:33:13Z</time>
      </trkpt>
      <trkpt lat="45.8595" lon="4.70649">
        <ele>194</ele>
        <time>2018-04-15T09:33:14Z</time>
      </trkpt>
      <trkpt lat="45.85946" lon="4.70643">
        <ele>194</ele>
        <time>2018-04-15T09:33:15Z</time>
      </trkpt>
      <trkpt lat="45.85943" lon="4.70636">
        <ele>194</ele>
        <time>2018-04-15T09:33:16Z</time>
      </trkpt>
      <trkpt lat="45.8594" lon="4.70631">
        <ele>194</ele>
        <time>2018-04-15T09:33:17Z</time>
      </trkpt>
      <trkpt lat="45.85936" lon="4.70625">
        <ele>194</ele>
        <time>2018-04-15T09:33:18Z</time>
      </trkpt>
      <trkpt lat="45.85932" lon="4.70619">
        <ele>194</ele>
        <time>2018-04-15T09:33:19Z</time>
      </trkpt>
      <trkpt lat="45.85928" lon="4.70614">
        <ele>194</ele>
        <time>2018-04-15T09:33:20Z</time>
      </trkpt>
      <trkpt lat="45.85925" lon="4.70609">
        <ele>194</ele>
        <time>2018-04-15T09:33:21Z</time>
      </trkpt>
      <trkpt lat="45.85921" lon="4.70602">
        <ele>194</ele>
        <time>2018-04-15T09:33:22Z</time>
      </trkpt>
      <trkpt lat="45.85919" lon="4.70597">
        <ele>194</ele>
        <time>2018-04-15T09:33:23Z</time>
      </trkpt>
      <trkpt lat="45.85915" lon="4.70592">
        <ele>195</ele>
        <time>2018-04-15T09:33:24Z</time>
      </trkpt>
      <trkpt lat="45.8591" lon="4.70588">
        <ele>195</ele>
        <time>2018-04-15T09:33:25Z</time>
      </trkpt>
      <trkpt lat="45.85905" lon="4.70585">
        <ele>195</ele>
        <time>2018-04-15T09:33:26Z</time>
      </trkpt>
      <trkpt lat="45.859" lon="4.70584">
        <ele>195</ele>
        <time>2018-04-15T09:33:27Z</time>
      </trkpt>
      <trkpt lat="45.85894" lon="4.70582">
        <ele>195</ele>
        <time>2018-04-15T09:33:28Z</time>
      </trkpt>
      <trkpt lat="45.85888" lon="4.7058">
        <ele>195</ele>
        <time>2018-04-15T09:33:29Z</time>
      </trkpt>
      <trkpt lat="45.85883" lon="4.70578">
        <ele>195</ele>
        <time>2018-04-15T09:33:30Z</time>
      </trkpt>
      <trkpt lat="45.85878" lon="4.70576">
        <ele>195</ele>
        <time>2018-04-15T09:33:31Z</time>
      </trkpt>
      <trkpt lat="45.85873" lon="4.70575">
        <ele>195</ele>
        <time>2018-04-15T09:33:32Z</time>
      </trkpt>
      <trkpt lat="45.85867" lon="4.70572">
        <ele>195</ele>
        <time>2018-04-15T09:33:33Z</time>
      </trkpt>
      <trkpt lat="45.85862" lon="4.70569">
        <ele>195</ele>
        <time>2018-04-15T09:33:34Z</time>
      </trkpt>
      <trkpt lat="45.85857" lon="4.70567">
        <ele>195</ele>
        <time>2018-04-15T09:33:35Z</time>
      </trkpt>
      <trkpt lat="45.85851" lon="4.70565">
        <ele>195</ele>
        <time>2018-04-15T09:33:36Z</time>
      </trkpt>
      <trkpt lat="45.85846" lon="4.70563">
        <ele>195</ele>
        <time>2018-04-15T09:33:37Z</time>
      </trkpt>
      <trkpt lat="45.85841" lon="4.70561">
        <ele>195</ele>
        <time>2018-04-15T09:33:38Z</time>
      </trkpt>
      <trkpt lat="45.85838" lon="4.70559">
        <ele>195</ele>
        <time>2018-04-15T09:33:39Z</time>
      </trkpt>
      <trkpt lat="45.85832" lon="4.70557">
        <ele>195</ele>
        <time>2018-04-15T09:33:40Z</time>
      </trkpt>
      <trkpt lat="45.85827" lon="4.70554">
        <ele>195</ele>
        <time>2018-04-15T09:33:41Z</time>
      </trkpt>
      <trkpt lat="45.85823" lon="4.70552">
        <ele>195</ele>
        <time>2018-04-15T09:33:42Z</time>
      </trkpt>
      <trkpt lat="45.85818" lon="4.7055">
        <ele>195</ele>
        <time>2018-04-15T09:33:43Z</time>
      </trkpt>
      <trkpt lat="45.85814" lon="4.70547">
        <ele>195</ele>
        <time>2018-04-15T09:33:44Z</time>
      </trkpt>
      <trkpt lat="45.85806" lon="4.70543">
        <ele>195</ele>
        <time>2018-04-15T09:33:46Z</time>
      </trkpt>
      <trkpt lat="45.85802" lon="4.7054">
        <ele>195</ele>
        <time>2018-04-15T09:33:47Z</time>
      </trkpt>
      <trkpt lat="45.85796" lon="4.70536">
        <ele>195</ele>
        <time>2018-04-15T09:33:48Z</time>
      </trkpt>
      <trkpt lat="45.85791" lon="4.70534">
        <ele>196</ele>
        <time>2018-04-15T09:33:49Z</time>
      </trkpt>
      <trkpt lat="45.85785" lon="4.70532">
        <ele>196</ele>
        <time>2018-04-15T09:33:50Z</time>
      </trkpt>
      <trkpt lat="45.85781" lon="4.70529">
        <ele>196</ele>
        <time>2018-04-15T09:33:51Z</time>
      </trkpt>
      <trkpt lat="45.85777" lon="4.70526">
        <ele>196</ele>
        <time>2018-04-15T09:33:52Z</time>
      </trkpt>
      <trkpt lat="45.85773" lon="4.70523">
        <ele>196</ele>
        <time>2018-04-15T09:33:53Z</time>
      </trkpt>
      <trkpt lat="45.85768" lon="4.70519">
        <ele>196</ele>
        <time>2018-04-15T09:33:54Z</time>
      </trkpt>
      <trkpt lat="45.85762" lon="4.70513">
        <ele>196</ele>
        <time>2018-04-15T09:33:55Z</time>
      </trkpt>
      <trkpt lat="45.85757" lon="4.70509">
        <ele>196</ele>
        <time>2018-04-15T09:33:56Z</time>
      </trkpt>
      <trkpt lat="45.85751" lon="4.70504">
        <ele>196</ele>
        <time>2018-04-15T09:33:57Z</time>
      </trkpt>
      <trkpt lat="45.85747" lon="4.705">
        <ele>196</ele>
        <time>2018-04-15T09:33:58Z</time>
      </trkpt>
      <trkpt lat="45.85741" lon="4.70498">
        <ele>196</ele>
        <time>2018-04-15T09:33:59Z</time>
      </trkpt>
      <trkpt lat="45.85736" lon="4.70488">
        <ele>196</ele>
        <time>2018-04-15T09:34:01Z</time>
      </trkpt>
      <trkpt lat="45.85735" lon="4.70483">
        <ele>196</ele>
        <time>2018-04-15T09:34:02Z</time>
      </trkpt>
      <trkpt lat="45.85731" lon="4.70473">
        <ele>196</ele>
        <time>2018-04-15T09:34:04Z</time>
      </trkpt>
      <trkpt lat="45.85728" lon="4.70465">
        <ele>196</ele>
        <time>2018-04-15T09:34:05Z</time>
      </trkpt>
      <trkpt lat="45.85729" lon="4.70458">
        <ele>196</ele>
        <time>2018-04-15T09:34:06Z</time>
      </trkpt>
      <trkpt lat="45.85728" lon="4.7045">
        <ele>196</ele>
        <time>2018-04-15T09:34:07Z</time>
      </trkpt>
      <trkpt lat="45.85728" lon="4.70442">
        <ele>196</ele>
        <time>2018-04-15T09:34:08Z</time>
      </trkpt>
      <trkpt lat="45.85727" lon="4.70435">
        <ele>196</ele>
        <time>2018-04-15T09:34:09Z</time>
      </trkpt>
      <trkpt lat="45.85726" lon="4.70428">
        <ele>196</ele>
        <time>2018-04-15T09:34:10Z</time>
      </trkpt>
      <trkpt lat="45.85725" lon="4.7042">
        <ele>196</ele>
        <time>2018-04-15T09:34:11Z</time>
      </trkpt>
      <trkpt lat="45.85723" lon="4.70412">
        <ele>196</ele>
        <time>2018-04-15T09:34:12Z</time>
      </trkpt>
      <trkpt lat="45.85722" lon="4.70405">
        <ele>196</ele>
        <time>2018-04-15T09:34:13Z</time>
      </trkpt>
      <trkpt lat="45.85722" lon="4.70397">
        <ele>196</ele>
        <time>2018-04-15T09:34:14Z</time>
      </trkpt>
      <trkpt lat="45.85721" lon="4.7039">
        <ele>196</ele>
        <time>2018-04-15T09:34:15Z</time>
      </trkpt>
      <trkpt lat="45.8572" lon="4.70382">
        <ele>196</ele>
        <time>2018-04-15T09:34:16Z</time>
      </trkpt>
      <trkpt lat="45.85719" lon="4.70375">
        <ele>196</ele>
        <time>2018-04-15T09:34:17Z</time>
      </trkpt>
      <trkpt lat="45.85716" lon="4.70367">
        <ele>196</ele>
        <time>2018-04-15T09:34:18Z</time>
      </trkpt>
      <trkpt lat="45.85717" lon="4.7036">
        <ele>196</ele>
        <time>2018-04-15T09:34:19Z</time>
      </trkpt>
      <trkpt lat="45.85716" lon="4.70353">
        <ele>196</ele>
        <time>2018-04-15T09:34:20Z</time>
      </trkpt>
      <trkpt lat="45.85715" lon="4.70344">
        <ele>196</ele>
        <time>2018-04-15T09:34:21Z</time>
      </trkpt>
      <trkpt lat="45.85714" lon="4.70337">
        <ele>196</ele>
        <time>2018-04-15T09:34:22Z</time>
      </trkpt>
      <trkpt lat="45.85715" lon="4.7033">
        <ele>197</ele>
        <time>2018-04-15T09:34:23Z</time>
      </trkpt>
      <trkpt lat="45.85714" lon="4.70323">
        <ele>197</ele>
        <time>2018-04-15T09:34:24Z</time>
      </trkpt>
      <trkpt lat="45.85714" lon="4.70315">
        <ele>197</ele>
        <time>2018-04-15T09:34:25Z</time>
      </trkpt>
      <trkpt lat="45.85713" lon="4.70306">
        <ele>197</ele>
        <time>2018-04-15T09:34:26Z</time>
      </trkpt>
      <trkpt lat="45.85712" lon="4.70298">
        <ele>197</ele>
        <time>2018-04-15T09:34:27Z</time>
      </trkpt>
      <trkpt lat="45.85712" lon="4.70291">
        <ele>197</ele>
        <time>2018-04-15T09:34:28Z</time>
      </trkpt>
      <trkpt lat="45.85711" lon="4.70283">
        <ele>197</ele>
        <time>2018-04-15T09:34:29Z</time>
      </trkpt>
      <trkpt lat="45.8571" lon="4.70276">
        <ele>197</ele>
        <time>2018-04-15T09:34:30Z</time>
      </trkpt>
      <trkpt lat="45.85709" lon="4.70268">
        <ele>197</ele>
        <time>2018-04-15T09:34:31Z</time>
      </trkpt>
      <trkpt lat="45.85709" lon="4.70261">
        <ele>197</ele>
        <time>2018-04-15T09:34:32Z</time>
      </trkpt>
      <trkpt lat="45.85708" lon="4.70253">
        <ele>197</ele>
        <time>2018-04-15T09:34:33Z</time>
      </trkpt>
      <trkpt lat="45.85707" lon="4.70247">
        <ele>197</ele>
        <time>2018-04-15T09:34:34Z</time>
      </trkpt>
      <trkpt lat="45.85707" lon="4.7024">
        <ele>197</ele>
        <time>2018-04-15T09:34:35Z</time>
      </trkpt>
      <trkpt lat="45.85707" lon="4.70232">
        <ele>197</ele>
        <time>2018-04-15T09:34:36Z</time>
      </trkpt>
      <trkpt lat="45.85706" lon="4.70227">
        <ele>197</ele>
        <time>2018-04-15T09:34:37Z</time>
      </trkpt>
      <trkpt lat="45.85706" lon="4.7022">
        <ele>197</ele>
        <time>2018-04-15T09:34:38Z</time>
      </trkpt>
      <trkpt lat="45.85704" lon="4.70212">
        <ele>197</ele>
        <time>2018-04-15T09:34:39Z</time>
      </trkpt>
      <trkpt lat="45.85703" lon="4.70204">
        <ele>197</ele>
        <time>2018-04-15T09:34:40Z</time>
      </trkpt>
      <trkpt lat="45.85703" lon="4.70197">
        <ele>197</ele>
        <time>2018-04-15T09:34:41Z</time>
      </trkpt>
      <trkpt lat="45.85703" lon="4.7019">
        <ele>197</ele>
        <time>2018-04-15T09:34:42Z</time>
      </trkpt>
      <trkpt lat="45.85701" lon="4.70183">
        <ele>197</ele>
        <time>2018-04-15T09:34:43Z</time>
      </trkpt>
      <trkpt lat="45.85699" lon="4.70176">
        <ele>197</ele>
        <time>2018-04-15T09:34:44Z</time>
      </trkpt>
      <trkpt lat="45.85696" lon="4.70169">
        <ele>197</ele>
        <time>2018-04-15T09:34:45Z</time>
      </trkpt>
      <trkpt lat="45.85693" lon="4.7016">
        <ele>197</ele>
        <time>2018-04-15T09:34:46Z</time>
      </trkpt>
      <trkpt lat="45.85691" lon="4.70152">
        <ele>197</ele>
        <time>2018-04-15T09:34:47Z</time>
      </trkpt>
      <trkpt lat="45.85689" lon="4.70143">
        <ele>197</ele>
        <time>2018-04-15T09:34:48Z</time>
      </trkpt>
      <trkpt lat="45.85688" lon="4.70135">
        <ele>197</ele>
        <time>2018-04-15T09:34:49Z</time>
      </trkpt>
      <trkpt lat="45.85687" lon="4.70128">
        <ele>197</ele>
        <time>2018-04-15T09:34:50Z</time>
      </trkpt>
      <trkpt lat="45.85687" lon="4.70121">
        <ele>197</ele>
        <time>2018-04-15T09:34:51Z</time>
      </trkpt>
      <trkpt lat="45.85687" lon="4.70112">
        <ele>197</ele>
        <time>2018-04-15T09:34:52Z</time>
      </trkpt>
      <trkpt lat="45.85688" lon="4.70104">
        <ele>197</ele>
        <time>2018-04-15T09:34:53Z</time>
      </trkpt>
      <trkpt lat="45.85689" lon="4.70096">
        <ele>196</ele>
        <time>2018-04-15T09:34:54Z</time>
      </trkpt>
      <trkpt lat="45.85689" lon="4.70089">
        <ele>196</ele>
        <time>2018-04-15T09:34:55Z</time>
      </trkpt>
      <trkpt lat="45.85689" lon="4.70083">
        <ele>196</ele>
        <time>2018-04-15T09:34:56Z</time>
      </trkpt>
      <trkpt lat="45.8569" lon="4.70076">
        <ele>196</ele>
        <time>2018-04-15T09:34:57Z</time>
      </trkpt>
      <trkpt lat="45.85692" lon="4.7007">
        <ele>196</ele>
        <time>2018-04-15T09:34:58Z</time>
      </trkpt>
      <trkpt lat="45.85693" lon="4.70064">
        <ele>195</ele>
        <time>2018-04-15T09:34:59Z</time>
      </trkpt>
      <trkpt lat="45.85694" lon="4.70058">
        <ele>195</ele>
        <time>2018-04-15T09:35:00Z</time>
      </trkpt>
      <trkpt lat="45.85696" lon="4.70049">
        <ele>195</ele>
        <time>2018-04-15T09:35:01Z</time>
      </trkpt>
      <trkpt lat="45.85698" lon="4.70038">
        <ele>195</ele>
        <time>2018-04-15T09:35:03Z</time>
      </trkpt>
      <trkpt lat="45.857" lon="4.7003">
        <ele>195</ele>
        <time>2018-04-15T09:35:04Z</time>
      </trkpt>
      <trkpt lat="45.85699" lon="4.70021">
        <ele>195</ele>
        <time>2018-04-15T09:35:05Z</time>
      </trkpt>
      <trkpt lat="45.85699" lon="4.70016">
        <ele>195</ele>
        <time>2018-04-15T09:35:06Z</time>
      </trkpt>
      <trkpt lat="45.857" lon="4.70008">
        <ele>195</ele>
        <time>2018-04-15T09:35:07Z</time>
      </trkpt>
      <trkpt lat="45.857" lon="4.70001">
        <ele>195</ele>
        <time>2018-04-15T09:35:08Z</time>
      </trkpt>
      <trkpt lat="45.85699" lon="4.69992">
        <ele>195</ele>
        <time>2018-04-15T09:35:09Z</time>
      </trkpt>
      <trkpt lat="45.85698" lon="4.69985">
        <ele>195</ele>
        <time>2018-04-15T09:35:10Z</time>
      </trkpt>
      <trkpt lat="45.85696" lon="4.69973">
        <ele>195</ele>
        <time>2018-04-15T09:35:12Z</time>
      </trkpt>
      <trkpt lat="45.85693" lon="4.69965">
        <ele>195</ele>
        <time>2018-04-15T09:35:13Z</time>
      </trkpt>
      <trkpt lat="45.85692" lon="4.69959">
        <ele>195</ele>
        <time>2018-04-15T09:35:14Z</time>
      </trkpt>
      <trkpt lat="45.85689" lon="4.69951">
        <ele>195</ele>
        <time>2018-04-15T09:35:15Z</time>
      </trkpt>
      <trkpt lat="45.85688" lon="4.69944">
        <ele>195</ele>
        <time>2018-04-15T09:35:16Z</time>
      </trkpt>
      <trkpt lat="45.85686" lon="4.69937">
        <ele>195</ele>
        <time>2018-04-15T09:35:17Z</time>
      </trkpt>
      <trkpt lat="45.85684" lon="4.69929">
        <ele>195</ele>
        <time>2018-04-15T09:35:18Z</time>
      </trkpt>
      <trkpt lat="45.85681" lon="4.69921">
        <ele>195</ele>
        <time>2018-04-15T09:35:19Z</time>
      </trkpt>
      <trkpt lat="45.85679" lon="4.69916">
        <ele>195</ele>
        <time>2018-04-15T09:35:20Z</time>
      </trkpt>
      <trkpt lat="45.85677" lon="4.6991">
        <ele>195</ele>
        <time>2018-04-15T09:35:21Z</time>
      </trkpt>
      <trkpt lat="45.85675" lon="4.69903">
        <ele>195</ele>
        <time>2018-04-15T09:35:22Z</time>
      </trkpt>
      <trkpt lat="45.85674" lon="4.69895">
        <ele>195</ele>
        <time>2018-04-15T09:35:23Z</time>
      </trkpt>
      <trkpt lat="45.85672" lon="4.69888">
        <ele>195</ele>
        <time>2018-04-15T09:35:24Z</time>
      </trkpt>
      <trkpt lat="45.85671" lon="4.69881">
        <ele>195</ele>
        <time>2018-04-15T09:35:25Z</time>
      </trkpt>
      <trkpt lat="45.8567" lon="4.69872">
        <ele>195</ele>
        <time>2018-04-15T09:35:26Z</time>
      </trkpt>
      <trkpt lat="45.85669" lon="4.69865">
        <ele>195</ele>
        <time>2018-04-15T09:35:27Z</time>
      </trkpt>
      <trkpt lat="45.85668" lon="4.69858">
        <ele>195</ele>
        <time>2018-04-15T09:35:28Z</time>
      </trkpt>
      <trkpt lat="45.85667" lon="4.6985">
        <ele>195</ele>
        <time>2018-04-15T09:35:29Z</time>
      </trkpt>
      <trkpt lat="45.85666" lon="4.69842">
        <ele>195</ele>
        <time>2018-04-15T09:35:30Z</time>
      </trkpt>
      <trkpt lat="45.85666" lon="4.69834">
        <ele>195</ele>
        <time>2018-04-15T09:35:31Z</time>
      </trkpt>
      <trkpt lat="45.85665" lon="4.69826">
        <ele>195</ele>
        <time>2018-04-15T09:35:32Z</time>
      </trkpt>
      <trkpt lat="45.85664" lon="4.69819">
        <ele>195</ele>
        <time>2018-04-15T09:35:33Z</time>
      </trkpt>
      <trkpt lat="45.85663" lon="4.69812">
        <ele>195</ele>
        <time>2018-04-15T09:35:34Z</time>
      </trkpt>
      <trkpt lat="45.85663" lon="4.69804">
        <ele>195</ele>
        <time>2018-04-15T09:35:35Z</time>
      </trkpt>
      <trkpt lat="45.85662" lon="4.69796">
        <ele>195</ele>
        <time>2018-04-15T09:35:36Z</time>
      </trkpt>
      <trkpt lat="45.85661" lon="4.69788">
        <ele>195</ele>
        <time>2018-04-15T09:35:37Z</time>
      </trkpt>
      <trkpt lat="45.85661" lon="4.6978">
        <ele>195</ele>
        <time>2018-04-15T09:35:38Z</time>
      </trkpt>
      <trkpt lat="45.8566" lon="4.69773">
        <ele>195</ele>
        <time>2018-04-15T09:35:39Z</time>
      </trkpt>
      <trkpt lat="45.8566" lon="4.69765">
        <ele>195</ele>
        <time>2018-04-15T09:35:40Z</time>
      </trkpt>
      <trkpt lat="45.85659" lon="4.69757">
        <ele>194</ele>
        <time>2018-04-15T09:35:41Z</time>
      </trkpt>
      <trkpt lat="45.85658" lon="4.69749">
        <ele>195</ele>
        <time>2018-04-15T09:35:42Z</time>
      </trkpt>
      <trkpt lat="45.85658" lon="4.69741">
        <ele>195</ele>
        <time>2018-04-15T09:35:43Z</time>
      </trkpt>
      <trkpt lat="45.85657" lon="4.69733">
        <ele>195</ele>
        <time>2018-04-15T09:35:44Z</time>
      </trkpt>
      <trkpt lat="45.85657" lon="4.69726">
        <ele>195</ele>
        <time>2018-04-15T09:35:45Z</time>
      </trkpt>
      <trkpt lat="45.85656" lon="4.69718">
        <ele>196</ele>
        <time>2018-04-15T09:35:46Z</time>
      </trkpt>
      <trkpt lat="45.85655" lon="4.6971">
        <ele>196</ele>
        <time>2018-04-15T09:35:47Z</time>
      </trkpt>
      <trkpt lat="45.85654" lon="4.69703">
        <ele>196</ele>
        <time>2018-04-15T09:35:48Z</time>
      </trkpt>
      <trkpt lat="45.85653" lon="4.69694">
        <ele>196</ele>
        <time>2018-04-15T09:35:49Z</time>
      </trkpt>
      <trkpt lat="45.85652" lon="4.69687">
        <ele>196</ele>
        <time>2018-04-15T09:35:50Z</time>
      </trkpt>
      <trkpt lat="45.85652" lon="4.6968">
        <ele>196</ele>
        <time>2018-04-15T09:35:51Z</time>
      </trkpt>
      <trkpt lat="45.85651" lon="4.69673">
        <ele>196</ele>
        <time>2018-04-15T09:35:52Z</time>
      </trkpt>
      <trkpt lat="45.85651" lon="4.69664">
        <ele>196</ele>
        <time>2018-04-15T09:35:53Z</time>
      </trkpt>
      <trkpt lat="45.8565" lon="4.69657">
        <ele>197</ele>
        <time>2018-04-15T09:35:54Z</time>
      </trkpt>
      <trkpt lat="45.85649" lon="4.6965">
        <ele>197</ele>
        <time>2018-04-15T09:35:55Z</time>
      </trkpt>
      <trkpt lat="45.85649" lon="4.69643">
        <ele>197</ele>
        <time>2018-04-15T09:35:56Z</time>
      </trkpt>
      <trkpt lat="45.85648" lon="4.69635">
        <ele>197</ele>
        <time>2018-04-15T09:35:57Z</time>
      </trkpt>
      <trkpt lat="45.85648" lon="4.69627">
        <ele>197</ele>
        <time>2018-04-15T09:35:58Z</time>
      </trkpt>
      <trkpt lat="45.85647" lon="4.69619">
        <ele>197</ele>
        <time>2018-04-15T09:35:59Z</time>
      </trkpt>
      <trkpt lat="45.85646" lon="4.69612">
        <ele>197</ele>
        <time>2018-04-15T09:36:00Z</time>
      </trkpt>
      <trkpt lat="45.85645" lon="4.69604">
        <ele>197</ele>
        <time>2018-04-15T09:36:01Z</time>
      </trkpt>
      <trkpt lat="45.85645" lon="4.69597">
        <ele>197</ele>
        <time>2018-04-15T09:36:02Z</time>
      </trkpt>
      <trkpt lat="45.85644" lon="4.69589">
        <ele>197</ele>
        <time>2018-04-15T09:36:03Z</time>
      </trkpt>
      <trkpt lat="45.85644" lon="4.69582">
        <ele>198</ele>
        <time>2018-04-15T09:36:04Z</time>
      </trkpt>
      <trkpt lat="45.85643" lon="4.69574">
        <ele>198</ele>
        <time>2018-04-15T09:36:05Z</time>
      </trkpt>
      <trkpt lat="45.85643" lon="4.69568">
        <ele>198</ele>
        <time>2018-04-15T09:36:06Z</time>
      </trkpt>
      <trkpt lat="45.85643" lon="4.6956">
        <ele>198</ele>
        <time>2018-04-15T09:36:07Z</time>
      </trkpt>
      <trkpt lat="45.85642" lon="4.69553">
        <ele>198</ele>
        <time>2018-04-15T09:36:08Z</time>
      </trkpt>
      <trkpt lat="45.85641" lon="4.69546">
        <ele>198</ele>
        <time>2018-04-15T09:36:09Z</time>
      </trkpt>
      <trkpt lat="45.85641" lon="4.69537">
        <ele>198</ele>
        <time>2018-04-15T09:36:10Z</time>
      </trkpt>
      <trkpt lat="45.8564" lon="4.69529">
        <ele>198</ele>
        <time>2018-04-15T09:36:11Z</time>
      </trkpt>
      <trkpt lat="45.85639" lon="4.69521">
        <ele>198</ele>
        <time>2018-04-15T09:36:12Z</time>
      </trkpt>
      <trkpt lat="45.85638" lon="4.69514">
        <ele>198</ele>
        <time>2018-04-15T09:36:13Z</time>
      </trkpt>
      <trkpt lat="45.85637" lon="4.69507">
        <ele>198</ele>
        <time>2018-04-15T09:36:14Z</time>
      </trkpt>
      <trkpt lat="45.85636" lon="4.695">
        <ele>198</ele>
        <time>2018-04-15T09:36:15Z</time>
      </trkpt>
      <trkpt lat="45.85635" lon="4.69493">
        <ele>198</ele>
        <time>2018-04-15T09:36:16Z</time>
      </trkpt>
      <trkpt lat="45.85634" lon="4.69485">
        <ele>198</ele>
        <time>2018-04-15T09:36:17Z</time>
      </trkpt>
      <trkpt lat="45.85634" lon="4.69477">
        <ele>198</ele>
        <time>2018-04-15T09:36:18Z</time>
      </trkpt>
      <trkpt lat="45.85633" lon="4.6947">
        <ele>198</ele>
        <time>2018-04-15T09:36:19Z</time>
      </trkpt>
      <trkpt lat="45.85633" lon="4.69461">
        <ele>198</ele>
        <time>2018-04-15T09:36:20Z</time>
      </trkpt>
      <trkpt lat="45.85631" lon="4.69455">
        <ele>198</ele>
        <time>2018-04-15T09:36:21Z</time>
      </trkpt>
      <trkpt lat="45.85631" lon="4.69447">
        <ele>198</ele>
        <time>2018-04-15T09:36:22Z</time>
      </trkpt>
      <trkpt lat="45.8563" lon="4.6944">
        <ele>198</ele>
        <time>2018-04-15T09:36:23Z</time>
      </trkpt>
      <trkpt lat="45.85629" lon="4.69433">
        <ele>198</ele>
        <time>2018-04-15T09:36:24Z</time>
      </trkpt>
      <trkpt lat="45.85628" lon="4.69426">
        <ele>198</ele>
        <time>2018-04-15T09:36:25Z</time>
      </trkpt>
      <trkpt lat="45.85628" lon="4.69418">
        <ele>198</ele>
        <time>2018-04-15T09:36:26Z</time>
      </trkpt>
      <trkpt lat="45.85627" lon="4.69411">
        <ele>198</ele>
        <time>2018-04-15T09:36:27Z</time>
      </trkpt>
      <trkpt lat="45.85627" lon="4.69404">
        <ele>198</ele>
        <time>2018-04-15T09:36:28Z</time>
      </trkpt>
      <trkpt lat="45.85626" lon="4.69397">
        <ele>198</ele>
        <time>2018-04-15T09:36:29Z</time>
      </trkpt>
      <trkpt lat="45.85625" lon="4.6939">
        <ele>198</ele>
        <time>2018-04-15T09:36:30Z</time>
      </trkpt>
      <trkpt lat="45.85624" lon="4.69382">
        <ele>198</ele>
        <time>2018-04-15T09:36:31Z</time>
      </trkpt>
      <trkpt lat="45.85624" lon="4.69375">
        <ele>198</ele>
        <time>2018-04-15T09:36:32Z</time>
      </trkpt>
      <trkpt lat="45.85623" lon="4.69368">
        <ele>198</ele>
        <time>2018-04-15T09:36:33Z</time>
      </trkpt>
      <trkpt lat="45.85622" lon="4.69355">
        <ele>198</ele>
        <time>2018-04-15T09:36:35Z</time>
      </trkpt>
      <trkpt lat="45.85622" lon="4.69347">
        <ele>198</ele>
        <time>2018-04-15T09:36:36Z</time>
      </trkpt>
      <trkpt lat="45.85621" lon="4.6934">
        <ele>198</ele>
        <time>2018-04-15T09:36:37Z</time>
      </trkpt>
      <trkpt lat="45.8562" lon="4.69332">
        <ele>198</ele>
        <time>2018-04-15T09:36:38Z</time>
      </trkpt>
      <trkpt lat="45.85619" lon="4.69325">
        <ele>198</ele>
        <time>2018-04-15T09:36:39Z</time>
      </trkpt>
      <trkpt lat="45.85618" lon="4.69318">
        <ele>198</ele>
        <time>2018-04-15T09:36:40Z</time>
      </trkpt>
      <trkpt lat="45.85619" lon="4.69311">
        <ele>198</ele>
        <time>2018-04-15T09:36:41Z</time>
      </trkpt>
      <trkpt lat="45.85618" lon="4.69303">
        <ele>198</ele>
        <time>2018-04-15T09:36:42Z</time>
      </trkpt>
      <trkpt lat="45.85618" lon="4.69296">
        <ele>198</ele>
        <time>2018-04-15T09:36:43Z</time>
      </trkpt>
      <trkpt lat="45.85617" lon="4.69289">
        <ele>198</ele>
        <time>2018-04-15T09:36:44Z</time>
      </trkpt>
      <trkpt lat="45.85617" lon="4.69282">
        <ele>198</ele>
        <time>2018-04-15T09:36:45Z</time>
      </trkpt>
      <trkpt lat="45.85618" lon="4.69275">
        <ele>198</ele>
        <time>2018-04-15T09:36:46Z</time>
      </trkpt>
      <trkpt lat="45.85619" lon="4.69269">
        <ele>198</ele>
        <time>2018-04-15T09:36:47Z</time>
      </trkpt>
      <trkpt lat="45.85618" lon="4.69262">
        <ele>198</ele>
        <time>2018-04-15T09:36:48Z</time>
      </trkpt>
      <trkpt lat="45.85618" lon="4.69254">
        <ele>198</ele>
        <time>2018-04-15T09:36:49Z</time>
      </trkpt>
      <trkpt lat="45.85616" lon="4.69246">
        <ele>199</ele>
        <time>2018-04-15T09:36:50Z</time>
      </trkpt>
      <trkpt lat="45.85613" lon="4.6924">
        <ele>199</ele>
        <time>2018-04-15T09:36:51Z</time>
      </trkpt>
      <trkpt lat="45.85611" lon="4.6923">
        <ele>199</ele>
        <time>2018-04-15T09:36:52Z</time>
      </trkpt>
      <trkpt lat="45.8561" lon="4.69222">
        <ele>199</ele>
        <time>2018-04-15T09:36:53Z</time>
      </trkpt>
      <trkpt lat="45.8561" lon="4.69214">
        <ele>199</ele>
        <time>2018-04-15T09:36:54Z</time>
      </trkpt>
      <trkpt lat="45.85609" lon="4.69205">
        <ele>199</ele>
        <time>2018-04-15T09:36:55Z</time>
      </trkpt>
      <trkpt lat="45.85608" lon="4.69198">
        <ele>199</ele>
        <time>2018-04-15T09:36:56Z</time>
      </trkpt>
      <trkpt lat="45.85607" lon="4.69189">
        <ele>199</ele>
        <time>2018-04-15T09:36:57Z</time>
      </trkpt>
      <trkpt lat="45.85606" lon="4.6918">
        <ele>199</ele>
        <time>2018-04-15T09:36:58Z</time>
      </trkpt>
      <trkpt lat="45.85606" lon="4.69173">
        <ele>199</ele>
        <time>2018-04-15T09:36:59Z</time>
      </trkpt>
      <trkpt lat="45.85605" lon="4.69165">
        <ele>199</ele>
        <time>2018-04-15T09:37:00Z</time>
      </trkpt>
      <trkpt lat="45.85605" lon="4.69156">
        <ele>199</ele>
        <time>2018-04-15T09:37:01Z</time>
      </trkpt>
      <trkpt lat="45.85603" lon="4.69148">
        <ele>199</ele>
        <time>2018-04-15T09:37:02Z</time>
      </trkpt>
      <trkpt lat="45.85602" lon="4.6914">
        <ele>198</ele>
        <time>2018-04-15T09:37:03Z</time>
      </trkpt>
      <trkpt lat="45.85602" lon="4.69132">
        <ele>198</ele>
        <time>2018-04-15T09:37:04Z</time>
      </trkpt>
      <trkpt lat="45.85601" lon="4.69124">
        <ele>198</ele>
        <time>2018-04-15T09:37:05Z</time>
      </trkpt>
      <trkpt lat="45.856" lon="4.69117">
        <ele>198</ele>
        <time>2018-04-15T09:37:06Z</time>
      </trkpt>
      <trkpt lat="45.85599" lon="4.6911">
        <ele>198</ele>
        <time>2018-04-15T09:37:07Z</time>
      </trkpt>
      <trkpt lat="45.85598" lon="4.69101">
        <ele>199</ele>
        <time>2018-04-15T09:37:08Z</time>
      </trkpt>
      <trkpt lat="45.85598" lon="4.69093">
        <ele>199</ele>
        <time>2018-04-15T09:37:09Z</time>
      </trkpt>
      <trkpt lat="45.85597" lon="4.69085">
        <ele>199</ele>
        <time>2018-04-15T09:37:10Z</time>
      </trkpt>
      <trkpt lat="45.85596" lon="4.69077">
        <ele>199</ele>
        <time>2018-04-15T09:37:11Z</time>
      </trkpt>
      <trkpt lat="45.85595" lon="4.6907">
        <ele>199</ele>
        <time>2018-04-15T09:37:12Z</time>
      </trkpt>
      <trkpt lat="45.85593" lon="4.69062">
        <ele>199</ele>
        <time>2018-04-15T09:37:13Z</time>
      </trkpt>
      <trkpt lat="45.85593" lon="4.69053">
        <ele>199</ele>
        <time>2018-04-15T09:37:14Z</time>
      </trkpt>
      <trkpt lat="45.85592" lon="4.69045">
        <ele>199</ele>
        <time>2018-04-15T09:37:15Z</time>
      </trkpt>
      <trkpt lat="45.85591" lon="4.69037">
        <ele>199</ele>
        <time>2018-04-15T09:37:16Z</time>
      </trkpt>
      <trkpt lat="45.85591" lon="4.69029">
        <ele>199</ele>
        <time>2018-04-15T09:37:17Z</time>
      </trkpt>
      <trkpt lat="45.85591" lon="4.69021">
        <ele>199</ele>
        <time>2018-04-15T09:37:18Z</time>
      </trkpt>
      <trkpt lat="45.8559" lon="4.69013">
        <ele>199</ele>
        <time>2018-04-15T09:37:19Z</time>
      </trkpt>
      <trkpt lat="45.85589" lon="4.69005">
        <ele>200</ele>
        <time>2018-04-15T09:37:20Z</time>
      </trkpt>
      <trkpt lat="45.85588" lon="4.68997">
        <ele>200</ele>
        <time>2018-04-15T09:37:21Z</time>
      </trkpt>
      <trkpt lat="45.85588" lon="4.6899">
        <ele>200</ele>
        <time>2018-04-15T09:37:22Z</time>
      </trkpt>
      <trkpt lat="45.85587" lon="4.68982">
        <ele>200</ele>
        <time>2018-04-15T09:37:23Z</time>
      </trkpt>
      <trkpt lat="45.85587" lon="4.68974">
        <ele>200</ele>
        <time>2018-04-15T09:37:24Z</time>
      </trkpt>
      <trkpt lat="45.85585" lon="4.68966">
        <ele>200</ele>
        <time>2018-04-15T09:37:25Z</time>
      </trkpt>
      <trkpt lat="45.85584" lon="4.68958">
        <ele>200</ele>
        <time>2018-04-15T09:37:26Z</time>
      </trkpt>
      <trkpt lat="45.85583" lon="4.6895">
        <ele>200</ele>
        <time>2018-04-15T09:37:27Z</time>
      </trkpt>
      <trkpt lat="45.85583" lon="4.68944">
        <ele>200</ele>
        <time>2018-04-15T09:37:28Z</time>
      </trkpt>
      <trkpt lat="45.85582" lon="4.68936">
        <ele>200</ele>
        <time>2018-04-15T09:37:29Z</time>
      </trkpt>
      <trkpt lat="45.85582" lon="4.68927">
        <ele>200</ele>
        <time>2018-04-15T09:37:30Z</time>
      </trkpt>
      <trkpt lat="45.85581" lon="4.68919">
        <ele>200</ele>
        <time>2018-04-15T09:37:31Z</time>
      </trkpt>
      <trkpt lat="45.8558" lon="4.68911">
        <ele>200</ele>
        <time>2018-04-15T09:37:32Z</time>
      </trkpt>
      <trkpt lat="45.85579" lon="4.68902">
        <ele>200</ele>
        <time>2018-04-15T09:37:33Z</time>
      </trkpt>
      <trkpt lat="45.85578" lon="4.68892">
        <ele>200</ele>
        <time>2018-04-15T09:37:34Z</time>
      </trkpt>
      <trkpt lat="45.85577" lon="4.68883">
        <ele>200</ele>
        <time>2018-04-15T09:37:35Z</time>
      </trkpt>
      <trkpt lat="45.85577" lon="4.68874">
        <ele>200</ele>
        <time>2018-04-15T09:37:36Z</time>
      </trkpt>
      <trkpt lat="45.85576" lon="4.68865">
        <ele>200</ele>
        <time>2018-04-15T09:37:37Z</time>
      </trkpt>
      <trkpt lat="45.85576" lon="4.68855">
        <ele>200</ele>
        <time>2018-04-15T09:37:38Z</time>
      </trkpt>
      <trkpt lat="45.85576" lon="4.68846">
        <ele>200</ele>
        <time>2018-04-15T09:37:39Z</time>
      </trkpt>
      <trkpt lat="45.85576" lon="4.68837">
        <ele>200</ele>
        <time>2018-04-15T09:37:40Z</time>
      </trkpt>
      <trkpt lat="45.85575" lon="4.68829">
        <ele>200</ele>
        <time>2018-04-15T09:37:41Z</time>
      </trkpt>
      <trkpt lat="45.85574" lon="4.6882">
        <ele>200</ele>
        <time>2018-04-15T09:37:42Z</time>
      </trkpt>
      <trkpt lat="45.85573" lon="4.68812">
        <ele>200</ele>
        <time>2018-04-15T09:37:43Z</time>
      </trkpt>
      <trkpt lat="45.85572" lon="4.68804">
        <ele>200</ele>
        <time>2018-04-15T09:37:44Z</time>
      </trkpt>
      <trkpt lat="45.85572" lon="4.68796">
        <ele>200</ele>
        <time>2018-04-15T09:37:45Z</time>
      </trkpt>
      <trkpt lat="45.85571" lon="4.68787">
        <ele>200</ele>
        <time>2018-04-15T09:37:46Z</time>
      </trkpt>
      <trkpt lat="45.8557" lon="4.68778">
        <ele>200</ele>
        <time>2018-04-15T09:37:47Z</time>
      </trkpt>
      <trkpt lat="45.8557" lon="4.68769">
        <ele>200</ele>
        <time>2018-04-15T09:37:48Z</time>
      </trkpt>
      <trkpt lat="45.8557" lon="4.68761">
        <ele>200</ele>
        <time>2018-04-15T09:37:49Z</time>
      </trkpt>
      <trkpt lat="45.85569" lon="4.68752">
        <ele>200</ele>
        <time>2018-04-15T09:37:50Z</time>
      </trkpt>
      <trkpt lat="45.85568" lon="4.68744">
        <ele>200</ele>
        <time>2018-04-15T09:37:51Z</time>
      </trkpt>
      <trkpt lat="45.85566" lon="4.68735">
        <ele>200</ele>
        <time>2018-04-15T09:37:52Z</time>
      </trkpt>
      <trkpt lat="45.85564" lon="4.68728">
        <ele>200</ele>
        <time>2018-04-15T09:37:53Z</time>
      </trkpt>
      <trkpt lat="45.85563" lon="4.68721">
        <ele>200</ele>
        <time>2018-04-15T09:37:54Z</time>
      </trkpt>
      <trkpt lat="45.85563" lon="4.68713">
        <ele>200</ele>
        <time>2018-04-15T09:37:55Z</time>
      </trkpt>
      <trkpt lat="45.85562" lon="4.68705">
        <ele>200</ele>
        <time>2018-04-15T09:37:56Z</time>
      </trkpt>
      <trkpt lat="45.85561" lon="4.68697">
        <ele>200</ele>
        <time>2018-04-15T09:37:57Z</time>
      </trkpt>
      <trkpt lat="45.8556" lon="4.6869">
        <ele>200</ele>
        <time>2018-04-15T09:37:58Z</time>
      </trkpt>
      <trkpt lat="45.85559" lon="4.68681">
        <ele>200</ele>
        <time>2018-04-15T09:37:59Z</time>
      </trkpt>
      <trkpt lat="45.85558" lon="4.68671">
        <ele>200</ele>
        <time>2018-04-15T09:38:00Z</time>
      </trkpt>
      <trkpt lat="45.85557" lon="4.68663">
        <ele>200</ele>
        <time>2018-04-15T09:38:01Z</time>
      </trkpt>
      <trkpt lat="45.85557" lon="4.68655">
        <ele>200</ele>
        <time>2018-04-15T09:38:02Z</time>
      </trkpt>
      <trkpt lat="45.85557" lon="4.68645">
        <ele>201</ele>
        <time>2018-04-15T09:38:03Z</time>
      </trkpt>
      <trkpt lat="45.85557" lon="4.68636">
        <ele>201</ele>
        <time>2018-04-15T09:38:04Z</time>
      </trkpt>
      <trkpt lat="45.85557" lon="4.68628">
        <ele>201</ele>
        <time>2018-04-15T09:38:05Z</time>
      </trkpt>
      <trkpt lat="45.85556" lon="4.68619">
        <ele>201</ele>
        <time>2018-04-15T09:38:06Z</time>
      </trkpt>
      <trkpt lat="45.85555" lon="4.6861">
        <ele>201</ele>
        <time>2018-04-15T09:38:07Z</time>
      </trkpt>
      <trkpt lat="45.85556" lon="4.68603">
        <ele>201</ele>
        <time>2018-04-15T09:38:08Z</time>
      </trkpt>
      <trkpt lat="45.85555" lon="4.68595">
        <ele>201</ele>
        <time>2018-04-15T09:38:09Z</time>
      </trkpt>
      <trkpt lat="45.85554" lon="4.68586">
        <ele>201</ele>
        <time>2018-04-15T09:38:10Z</time>
      </trkpt>
      <trkpt lat="45.85553" lon="4.68578">
        <ele>201</ele>
        <time>2018-04-15T09:38:11Z</time>
      </trkpt>
      <trkpt lat="45.85553" lon="4.68571">
        <ele>201</ele>
        <time>2018-04-15T09:38:12Z</time>
      </trkpt>
      <trkpt lat="45.85552" lon="4.68562">
        <ele>201</ele>
        <time>2018-04-15T09:38:13Z</time>
      </trkpt>
      <trkpt lat="45.85551" lon="4.68555">
        <ele>201</ele>
        <time>2018-04-15T09:38:14Z</time>
      </trkpt>
      <trkpt lat="45.85551" lon="4.68548">
        <ele>201</ele>
        <time>2018-04-15T09:38:15Z</time>
      </trkpt>
      <trkpt lat="45.8555" lon="4.68541">
        <ele>201</ele>
        <time>2018-04-15T09:38:16Z</time>
      </trkpt>
      <trkpt lat="45.8555" lon="4.68534">
        <ele>201</ele>
        <time>2018-04-15T09:38:17Z</time>
      </trkpt>
      <trkpt lat="45.85549" lon="4.68526">
        <ele>201</ele>
        <time>2018-04-15T09:38:18Z</time>
      </trkpt>
      <trkpt lat="45.85548" lon="4.68518">
        <ele>201</ele>
        <time>2018-04-15T09:38:19Z</time>
      </trkpt>
      <trkpt lat="45.85548" lon="4.6851">
        <ele>201</ele>
        <time>2018-04-15T09:38:20Z</time>
      </trkpt>
      <trkpt lat="45.85547" lon="4.68502">
        <ele>201</ele>
        <time>2018-04-15T09:38:21Z</time>
      </trkpt>
      <trkpt lat="45.85547" lon="4.68495">
        <ele>200</ele>
        <time>2018-04-15T09:38:22Z</time>
      </trkpt>
      <trkpt lat="45.85546" lon="4.68487">
        <ele>200</ele>
        <time>2018-04-15T09:38:23Z</time>
      </trkpt>
      <trkpt lat="45.85545" lon="4.6848">
        <ele>200</ele>
        <time>2018-04-15T09:38:24Z</time>
      </trkpt>
      <trkpt lat="45.85544" lon="4.68472">
        <ele>200</ele>
        <time>2018-04-15T09:38:25Z</time>
      </trkpt>
      <trkpt lat="45.85543" lon="4.68464">
        <ele>200</ele>
        <time>2018-04-15T09:38:26Z</time>
      </trkpt>
      <trkpt lat="45.85542" lon="4.68457">
        <ele>200</ele>
        <time>2018-04-15T09:38:27Z</time>
      </trkpt>
      <trkpt lat="45.85541" lon="4.68449">
        <ele>200</ele>
        <time>2018-04-15T09:38:28Z</time>
      </trkpt>
      <trkpt lat="45.8554" lon="4.68441">
        <ele>200</ele>
        <time>2018-04-15T09:38:29Z</time>
      </trkpt>
      <trkpt lat="45.85539" lon="4.68433">
        <ele>200</ele>
        <time>2018-04-15T09:38:30Z</time>
      </trkpt>
      <trkpt lat="45.85539" lon="4.68424">
        <ele>200</ele>
        <time>2018-04-15T09:38:31Z</time>
      </trkpt>
      <trkpt lat="45.85538" lon="4.68416">
        <ele>200</ele>
        <time>2018-04-15T09:38:32Z</time>
      </trkpt>
      <trkpt lat="45.85537" lon="4.68409">
        <ele>200</ele>
        <time>2018-04-15T09:38:33Z</time>
      </trkpt>
      <trkpt lat="45.85536" lon="4.68401">
        <ele>200</ele>
        <time>2018-04-15T09:38:34Z</time>
      </trkpt>
      <trkpt lat="45.85535" lon="4.68394">
        <ele>200</ele>
        <time>2018-04-15T09:38:35Z</time>
      </trkpt>
      <trkpt lat="45.85534" lon="4.68385">
        <ele>200</ele>
        <time>2018-04-15T09:38:36Z</time>
      </trkpt>
      <trkpt lat="45.85533" lon="4.68378">
        <ele>201</ele>
        <time>2018-04-15T09:38:37Z</time>
      </trkpt>
      <trkpt lat="45.85532" lon="4.68371">
        <ele>201</ele>
        <time>2018-04-15T09:38:38Z</time>
      </trkpt>
      <trkpt lat="45.85531" lon="4.68363">
        <ele>201</ele>
        <time>2018-04-15T09:38:39Z</time>
      </trkpt>
      <trkpt lat="45.8553" lon="4.68356">
        <ele>201</ele>
        <time>2018-04-15T09:38:40Z</time>
      </trkpt>
      <trkpt lat="45.8553" lon="4.68348">
        <ele>201</ele>
        <time>2018-04-15T09:38:41Z</time>
      </trkpt>
      <trkpt lat="45.85528" lon="4.68341">
        <ele>201</ele>
        <time>2018-04-15T09:38:42Z</time>
      </trkpt>
      <trkpt lat="45.85527" lon="4.68333">
        <ele>202</ele>
        <time>2018-04-15T09:38:43Z</time>
      </trkpt>
      <trkpt lat="45.85527" lon="4.68325">
        <ele>202</ele>
        <time>2018-04-15T09:38:44Z</time>
      </trkpt>
      <trkpt lat="45.85526" lon="4.68317">
        <ele>202</ele>
        <time>2018-04-15T09:38:45Z</time>
      </trkpt>
      <trkpt lat="45.85525" lon="4.68311">
        <ele>202</ele>
        <time>2018-04-15T09:38:46Z</time>
      </trkpt>
      <trkpt lat="45.85524" lon="4.68304">
        <ele>202</ele>
        <time>2018-04-15T09:38:47Z</time>
      </trkpt>
      <trkpt lat="45.85524" lon="4.68297">
        <ele>202</ele>
        <time>2018-04-15T09:38:48Z</time>
      </trkpt>
      <trkpt lat="45.85524" lon="4.6829">
        <ele>202</ele>
        <time>2018-04-15T09:38:49Z</time>
      </trkpt>
      <trkpt lat="45.85523" lon="4.68283">
        <ele>202</ele>
        <time>2018-04-15T09:38:50Z</time>
      </trkpt>
      <trkpt lat="45.85522" lon="4.68272">
        <ele>202</ele>
        <time>2018-04-15T09:38:53Z</time>
      </trkpt>
      <trkpt lat="45.85521" lon="4.68263">
        <ele>202</ele>
        <time>2018-04-15T09:38:54Z</time>
      </trkpt>
      <trkpt lat="45.85521" lon="4.68254">
        <ele>202</ele>
        <time>2018-04-15T09:38:56Z</time>
      </trkpt>
      <trkpt lat="45.8552" lon="4.68247">
        <ele>203</ele>
        <time>2018-04-15T09:38:57Z</time>
      </trkpt>
      <trkpt lat="45.85518" lon="4.68235">
        <ele>203</ele>
        <time>2018-04-15T09:38:59Z</time>
      </trkpt>
      <trkpt lat="45.85518" lon="4.68229">
        <ele>203</ele>
        <time>2018-04-15T09:39:00Z</time>
      </trkpt>
      <trkpt lat="45.85518" lon="4.68217">
        <ele>203</ele>
        <time>2018-04-15T09:39:04Z</time>
      </trkpt>
      <trkpt lat="45.85518" lon="4.68214">
        <ele>203</ele>
        <time>2018-04-15T09:39:05Z</time>
      </trkpt>
      <trkpt lat="45.85518" lon="4.68203">
        <ele>203</ele>
        <time>2018-04-15T09:39:08Z</time>
      </trkpt>
      <trkpt lat="45.85517" lon="4.68199">
        <ele>203</ele>
        <time>2018-04-15T09:39:09Z</time>
      </trkpt>
      <trkpt lat="45.85516" lon="4.68188">
        <ele>203</ele>
        <time>2018-04-15T09:39:13Z</time>
      </trkpt>
      <trkpt lat="45.85515" lon="4.68185">
        <ele>203</ele>
        <time>2018-04-15T09:39:14Z</time>
      </trkpt>
      <trkpt lat="45.85514" lon="4.68175">
        <ele>204</ele>
        <time>2018-04-15T09:39:17Z</time>
      </trkpt>
      <trkpt lat="45.85514" lon="4.68171">
        <ele>204</ele>
        <time>2018-04-15T09:39:18Z</time>
      </trkpt>
      <trkpt lat="45.85514" lon="4.68161">
        <ele>203</ele>
        <time>2018-04-15T09:39:20Z</time>
      </trkpt>
      <trkpt lat="45.85514" lon="4.68157">
        <ele>203</ele>
        <time>2018-04-15T09:39:21Z</time>
      </trkpt>
      <trkpt lat="45.85513" lon="4.68147">
        <ele>203</ele>
        <time>2018-04-15T09:39:23Z</time>
      </trkpt>
      <trkpt lat="45.85513" lon="4.68143">
        <ele>203</ele>
        <time>2018-04-15T09:39:24Z</time>
      </trkpt>
      <trkpt lat="45.85512" lon="4.68133">
        <ele>203</ele>
        <time>2018-04-15T09:39:26Z</time>
      </trkpt>
      <trkpt lat="45.85512" lon="4.68128">
        <ele>203</ele>
        <time>2018-04-15T09:39:27Z</time>
      </trkpt>
      <trkpt lat="45.8551" lon="4.68113">
        <ele>203</ele>
        <time>2018-04-15T09:39:28Z</time>
      </trkpt>
      <trkpt lat="45.85508" lon="4.681">
        <ele>203</ele>
        <time>2018-04-15T09:39:30Z</time>
      </trkpt>
      <trkpt lat="45.85507" lon="4.68094">
        <ele>203</ele>
        <time>2018-04-15T09:39:31Z</time>
      </trkpt>
      <trkpt lat="45.85505" lon="4.68083">
        <ele>204</ele>
        <time>2018-04-15T09:39:33Z</time>
      </trkpt>
      <trkpt lat="45.85504" lon="4.68077">
        <ele>204</ele>
        <time>2018-04-15T09:39:34Z</time>
      </trkpt>
      <trkpt lat="45.85503" lon="4.68065">
        <ele>203</ele>
        <time>2018-04-15T09:39:36Z</time>
      </trkpt>
      <trkpt lat="45.85502" lon="4.6806">
        <ele>203</ele>
        <time>2018-04-15T09:39:37Z</time>
      </trkpt>
      <trkpt lat="45.85501" lon="4.68048">
        <ele>203</ele>
        <time>2018-04-15T09:39:39Z</time>
      </trkpt>
      <trkpt lat="45.855" lon="4.68042">
        <ele>203</ele>
        <time>2018-04-15T09:39:40Z</time>
      </trkpt>
      <trkpt lat="45.85499" lon="4.68029">
        <ele>207</ele>
        <time>2018-04-15T09:39:42Z</time>
      </trkpt>
      <trkpt lat="45.85498" lon="4.68022">
        <ele>207</ele>
        <time>2018-04-15T09:39:43Z</time>
      </trkpt>
      <trkpt lat="45.85498" lon="4.68015">
        <ele>207</ele>
        <time>2018-04-15T09:39:44Z</time>
      </trkpt>
      <trkpt lat="45.85498" lon="4.68009">
        <ele>206</ele>
        <time>2018-04-15T09:39:45Z</time>
      </trkpt>
      <trkpt lat="45.855" lon="4.67997">
        <ele>207</ele>
        <time>2018-04-15T09:39:47Z</time>
      </trkpt>
      <trkpt lat="45.85505" lon="4.67992">
        <ele>206</ele>
        <time>2018-04-15T09:39:48Z</time>
      </trkpt>
      <trkpt lat="45.85508" lon="4.67987">
        <ele>206</ele>
        <time>2018-04-15T09:39:49Z</time>
      </trkpt>
      <trkpt lat="45.85513" lon="4.67984">
        <ele>206</ele>
        <time>2018-04-15T09:39:50Z</time>
      </trkpt>
      <trkpt lat="45.85521" lon="4.67979">
        <ele>205</ele>
        <time>2018-04-15T09:39:52Z</time>
      </trkpt>
      <trkpt lat="45.85525" lon="4.67975">
        <ele>205</ele>
        <time>2018-04-15T09:39:53Z</time>
      </trkpt>
      <trkpt lat="45.85529" lon="4.6797">
        <ele>205</ele>
        <time>2018-04-15T09:39:54Z</time>
      </trkpt>
      <trkpt lat="45.85533" lon="4.67964">
        <ele>205</ele>
        <time>2018-04-15T09:39:55Z</time>
      </trkpt>
      <trkpt lat="45.85536" lon="4.67959">
        <ele>205</ele>
        <time>2018-04-15T09:39:56Z</time>
      </trkpt>
      <trkpt lat="45.85542" lon="4.67956">
        <ele>205</ele>
        <time>2018-04-15T09:39:57Z</time>
      </trkpt>
      <trkpt lat="45.85545" lon="4.67953">
        <ele>205</ele>
        <time>2018-04-15T09:39:58Z</time>
      </trkpt>
      <trkpt lat="45.8555" lon="4.67949">
        <ele>205</ele>
        <time>2018-04-15T09:39:59Z</time>
      </trkpt>
      <trkpt lat="45.85557" lon="4.67941">
        <ele>205</ele>
        <time>2018-04-15T09:40:01Z</time>
      </trkpt>
      <trkpt lat="45.85561" lon="4.67938">
        <ele>205</ele>
        <time>2018-04-15T09:40:02Z</time>
      </trkpt>
      <trkpt lat="45.85568" lon="4.67932">
        <ele>205</ele>
        <time>2018-04-15T09:40:04Z</time>
      </trkpt>
      <trkpt lat="45.85571" lon="4.67931">
        <ele>205</ele>
        <time>2018-04-15T09:40:05Z</time>
      </trkpt>
      <trkpt lat="45.85578" lon="4.67938">
        <ele>205</ele>
        <time>2018-04-15T09:40:07Z</time>
      </trkpt>
      <trkpt lat="45.85581" lon="4.67945">
        <ele>204</ele>
        <time>2018-04-15T09:40:08Z</time>
      </trkpt>
      <trkpt lat="45.85583" lon="4.67952">
        <ele>204</ele>
        <time>2018-04-15T09:40:09Z</time>
      </trkpt>
      <trkpt lat="45.85585" lon="4.67959">
        <ele>203</ele>
        <time>2018-04-15T09:40:10Z</time>
      </trkpt>
      <trkpt lat="45.85588" lon="4.67967">
        <ele>203</ele>
        <time>2018-04-15T09:40:11Z</time>
      </trkpt>
      <trkpt lat="45.85591" lon="4.67974">
        <ele>203</ele>
        <time>2018-04-15T09:40:12Z</time>
      </trkpt>
      <trkpt lat="45.85594" lon="4.67981">
        <ele>203</ele>
        <time>2018-04-15T09:40:13Z</time>
      </trkpt>
      <trkpt lat="45.85597" lon="4.67988">
        <ele>202</ele>
        <time>2018-04-15T09:40:14Z</time>
      </trkpt>
      <trkpt lat="45.856" lon="4.67994">
        <ele>202</ele>
        <time>2018-04-15T09:40:15Z</time>
      </trkpt>
      <trkpt lat="45.85603" lon="4.68001">
        <ele>201</ele>
        <time>2018-04-15T09:40:16Z</time>
      </trkpt>
      <trkpt lat="45.85606" lon="4.68008">
        <ele>201</ele>
        <time>2018-04-15T09:40:17Z</time>
      </trkpt>
      <trkpt lat="45.85609" lon="4.68015">
        <ele>201</ele>
        <time>2018-04-15T09:40:18Z</time>
      </trkpt>
      <trkpt lat="45.85613" lon="4.68019">
        <ele>201</ele>
        <time>2018-04-15T09:40:19Z</time>
      </trkpt>
      <trkpt lat="45.85615" lon="4.68025">
        <ele>201</ele>
        <time>2018-04-15T09:40:20Z</time>
      </trkpt>
      <trkpt lat="45.85617" lon="4.68037">
        <ele>201</ele>
        <time>2018-04-15T09:40:27Z</time>
      </trkpt>
      <trkpt lat="45.85617" lon="4.68038">
        <ele>201</ele>
        <time>2018-04-15T09:40:28Z</time>
      </trkpt>
      <trkpt lat="45.85619" lon="4.68042">
        <ele>200</ele>
        <time>2018-04-15T09:42:36Z</time>
      </trkpt>
      <trkpt lat="45.85611" lon="4.68053">
        <ele>200</ele>
        <time>2018-04-15T09:42:38Z</time>
      </trkpt>
      <trkpt lat="45.85617" lon="4.68043">
        <ele>200</ele>
        <time>2018-04-15T09:42:47Z</time>
      </trkpt>
      <trkpt lat="45.85617" lon="4.68042">
        <ele>200</ele>
        <time>2018-04-15T09:42:48Z</time>
      </trkpt>
      <trkpt lat="45.85611" lon="4.68034">
        <ele>201</ele>
        <time>2018-04-15T09:54:02.02Z</time>
      </trkpt>
      <trkpt lat="45.85608" lon="4.68032">
        <ele>201</ele>
        <time>2018-04-15T09:54:03.02Z</time>
      </trkpt>
      <trkpt lat="45.85608" lon="4.68034">
        <ele>201</ele>
        <time>2018-04-15T09:54:05.02Z</time>
      </trkpt>
      <trkpt lat="45.85607" lon="4.68037">
        <ele>200</ele>
        <time>2018-04-15T09:54:06.02Z</time>
      </trkpt>
      <trkpt lat="45.85611" lon="4.68036">
        <ele>200</ele>
        <time>2018-04-15T09:54:15Z</time>
      </trkpt>
      <trkpt lat="45.85611" lon="4.68037">
        <ele>200</ele>
        <time>2018-04-15T09:54:16Z</time>
      </trkpt>
      <trkpt lat="45.85618" lon="4.68042">
        <ele>200</ele>
        <time>2018-04-15T09:54:48Z</time>
      </trkpt>
      <trkpt lat="45.8562" lon="4.68043">
        <ele>200</ele>
        <time>2018-04-15T09:54:49Z</time>
      </trkpt>
      <trkpt lat="45.85627" lon="4.68051">
        <ele>200</ele>
        <time>2018-04-15T09:54:53Z</time>
      </trkpt>
      <trkpt lat="45.85629" lon="4.68054">
        <ele>200</ele>
        <time>2018-04-15T09:54:54Z</time>
      </trkpt>
      <trkpt lat="45.85635" lon="4.68063">
        <ele>200</ele>
        <time>2018-04-15T09:54:55Z</time>
      </trkpt>
      <trkpt lat="45.8564" lon="4.68072">
        <ele>200</ele>
        <time>2018-04-15T09:54:57Z</time>
      </trkpt>
      <trkpt lat="45.85643" lon="4.68077">
        <ele>200</ele>
        <time>2018-04-15T09:54:58Z</time>
      </trkpt>
      <trkpt lat="45.85648" lon="4.68086">
        <ele>200</ele>
        <time>2018-04-15T09:55:00Z</time>
      </trkpt>
      <trkpt lat="45.85651" lon="4.68091">
        <ele>200</ele>
        <time>2018-04-15T09:55:01Z</time>
      </trkpt>
      <trkpt lat="45.85657" lon="4.681">
        <ele>200</ele>
        <time>2018-04-15T09:55:03Z</time>
      </trkpt>
      <trkpt lat="45.85661" lon="4.68104">
        <ele>200</ele>
        <time>2018-04-15T09:55:04Z</time>
      </trkpt>
      <trkpt lat="45.85666" lon="4.6811">
        <ele>200</ele>
        <time>2018-04-15T09:55:05Z</time>
      </trkpt>
      <trkpt lat="45.85669" lon="4.68113">
        <ele>200</ele>
        <time>2018-04-15T09:55:06Z</time>
      </trkpt>
      <trkpt lat="45.85674" lon="4.68118">
        <ele>200</ele>
        <time>2018-04-15T09:55:07Z</time>
      </trkpt>
      <trkpt lat="45.85677" lon="4.68122">
        <ele>200</ele>
        <time>2018-04-15T09:55:08Z</time>
      </trkpt>
      <trkpt lat="45.85683" lon="4.6813">
        <ele>200</ele>
        <time>2018-04-15T09:55:10Z</time>
      </trkpt>
      <trkpt lat="45.85687" lon="4.68134">
        <ele>200</ele>
        <time>2018-04-15T09:55:11Z</time>
      </trkpt>
      <trkpt lat="45.8569" lon="4.68138">
        <ele>200</ele>
        <time>2018-04-15T09:55:12Z</time>
      </trkpt>
      <trkpt lat="45.85694" lon="4.68142">
        <ele>200</ele>
        <time>2018-04-15T09:55:13Z</time>
      </trkpt>
      <trkpt lat="45.85701" lon="4.6815">
        <ele>200</ele>
        <time>2018-04-15T09:55:15Z</time>
      </trkpt>
      <trkpt lat="45.85705" lon="4.68155">
        <ele>200</ele>
        <time>2018-04-15T09:55:16Z</time>
      </trkpt>
      <trkpt lat="45.85708" lon="4.6816">
        <ele>200</ele>
        <time>2018-04-15T09:55:17Z</time>
      </trkpt>
      <trkpt lat="45.85712" lon="4.68164">
        <ele>200</ele>
        <time>2018-04-15T09:55:18Z</time>
      </trkpt>
      <trkpt lat="45.85716" lon="4.68169">
        <ele>199</ele>
        <time>2018-04-15T09:55:19Z</time>
      </trkpt>
      <trkpt lat="45.85721" lon="4.68173">
        <ele>199</ele>
        <time>2018-04-15T09:55:20Z</time>
      </trkpt>
      <trkpt lat="45.85724" lon="4.68177">
        <ele>199</ele>
        <time>2018-04-15T09:55:21Z</time>
      </trkpt>
      <trkpt lat="45.85728" lon="4.68181">
        <ele>199</ele>
        <time>2018-04-15T09:55:22Z</time>
      </trkpt>
      <trkpt lat="45.85732" lon="4.68185">
        <ele>199</ele>
        <time>2018-04-15T09:55:23Z</time>
      </trkpt>
      <trkpt lat="45.85735" lon="4.6819">
        <ele>199</ele>
        <time>2018-04-15T09:55:24Z</time>
      </trkpt>
      <trkpt lat="45.85739" lon="4.68194">
        <ele>199</ele>
        <time>2018-04-15T09:55:25Z</time>
      </trkpt>
      <trkpt lat="45.85743" lon="4.68199">
        <ele>199</ele>
        <time>2018-04-15T09:55:26Z</time>
      </trkpt>
      <trkpt lat="45.85747" lon="4.68203">
        <ele>199</ele>
        <time>2018-04-15T09:55:27Z</time>
      </trkpt>
      <trkpt lat="45.85751" lon="4.68208">
        <ele>202</ele>
        <time>2018-04-15T09:55:28Z</time>
      </trkpt>
      <trkpt lat="45.85755" lon="4.68212">
        <ele>202</ele>
        <time>2018-04-15T09:55:29Z</time>
      </trkpt>
      <trkpt lat="45.85758" lon="4.68217">
        <ele>201</ele>
        <time>2018-04-15T09:55:30Z</time>
      </trkpt>
      <trkpt lat="45.85762" lon="4.68222">
        <ele>201</ele>
        <time>2018-04-15T09:55:31Z</time>
      </trkpt>
      <trkpt lat="45.85767" lon="4.68227">
        <ele>201</ele>
        <time>2018-04-15T09:55:32Z</time>
      </trkpt>
      <trkpt lat="45.85771" lon="4.6823">
        <ele>201</ele>
        <time>2018-04-15T09:55:33Z</time>
      </trkpt>
      <trkpt lat="45.85775" lon="4.68235">
        <ele>201</ele>
        <time>2018-04-15T09:55:34Z</time>
      </trkpt>
      <trkpt lat="45.85778" lon="4.68239">
        <ele>202</ele>
        <time>2018-04-15T09:55:35Z</time>
      </trkpt>
      <trkpt lat="45.85782" lon="4.68244">
        <ele>202</ele>
        <time>2018-04-15T09:55:36Z</time>
      </trkpt>
      <trkpt lat="45.85786" lon="4.6825">
        <ele>202</ele>
        <time>2018-04-15T09:55:37Z</time>
      </trkpt>
      <trkpt lat="45.8579" lon="4.68256">
        <ele>200</ele>
        <time>2018-04-15T09:55:38Z</time>
      </trkpt>
      <trkpt lat="45.85795" lon="4.68262">
        <ele>201</ele>
        <time>2018-04-15T09:55:39Z</time>
      </trkpt>
      <trkpt lat="45.85799" lon="4.68267">
        <ele>201</ele>
        <time>2018-04-15T09:55:40Z</time>
      </trkpt>
      <trkpt lat="45.85802" lon="4.68272">
        <ele>201</ele>
        <time>2018-04-15T09:55:41Z</time>
      </trkpt>
      <trkpt lat="45.85806" lon="4.68277">
        <ele>201</ele>
        <time>2018-04-15T09:55:42Z</time>
      </trkpt>
      <trkpt lat="45.85809" lon="4.68283">
        <ele>201</ele>
        <time>2018-04-15T09:55:43Z</time>
      </trkpt>
      <trkpt lat="45.85812" lon="4.68289">
        <ele>201</ele>
        <time>2018-04-15T09:55:44Z</time>
      </trkpt>
      <trkpt lat="45.85817" lon="4.68294">
        <ele>201</ele>
        <time>2018-04-15T09:55:45Z</time>
      </trkpt>
      <trkpt lat="45.8582" lon="4.68299">
        <ele>201</ele>
        <time>2018-04-15T09:55:46Z</time>
      </trkpt>
      <trkpt lat="45.85825" lon="4.68304">
        <ele>201</ele>
        <time>2018-04-15T09:55:47Z</time>
      </trkpt>
      <trkpt lat="45.85828" lon="4.6831">
        <ele>200</ele>
        <time>2018-04-15T09:55:48Z</time>
      </trkpt>
      <trkpt lat="45.85829" lon="4.68315">
        <ele>200</ele>
        <time>2018-04-15T09:55:49Z</time>
      </trkpt>
      <trkpt lat="45.85832" lon="4.68322">
        <ele>200</ele>
        <time>2018-04-15T09:55:50Z</time>
      </trkpt>
      <trkpt lat="45.85836" lon="4.68328">
        <ele>201</ele>
        <time>2018-04-15T09:55:51Z</time>
      </trkpt>
      <trkpt lat="45.85839" lon="4.68335">
        <ele>200</ele>
        <time>2018-04-15T09:55:52Z</time>
      </trkpt>
      <trkpt lat="45.85842" lon="4.68341">
        <ele>200</ele>
        <time>2018-04-15T09:55:53Z</time>
      </trkpt>
      <trkpt lat="45.85847" lon="4.68347">
        <ele>201</ele>
        <time>2018-04-15T09:55:54Z</time>
      </trkpt>
      <trkpt lat="45.8585" lon="4.68355">
        <ele>201</ele>
        <time>2018-04-15T09:55:55Z</time>
      </trkpt>
      <trkpt lat="45.85854" lon="4.68363">
        <ele>201</ele>
        <time>2018-04-15T09:55:56Z</time>
      </trkpt>
      <trkpt lat="45.85858" lon="4.68371">
        <ele>201</ele>
        <time>2018-04-15T09:55:57Z</time>
      </trkpt>
      <trkpt lat="45.8586" lon="4.68379">
        <ele>201</ele>
        <time>2018-04-15T09:55:58Z</time>
      </trkpt>
      <trkpt lat="45.85861" lon="4.68388">
        <ele>201</ele>
        <time>2018-04-15T09:55:59Z</time>
      </trkpt>
      <trkpt lat="45.85863" lon="4.68395">
        <ele>201</ele>
        <time>2018-04-15T09:56:00Z</time>
      </trkpt>
      <trkpt lat="45.85865" lon="4.68404">
        <ele>201</ele>
        <time>2018-04-15T09:56:01Z</time>
      </trkpt>
      <trkpt lat="45.85866" lon="4.68412">
        <ele>201</ele>
        <time>2018-04-15T09:56:02Z</time>
      </trkpt>
      <trkpt lat="45.85868" lon="4.6842">
        <ele>200</ele>
        <time>2018-04-15T09:56:03Z</time>
      </trkpt>
      <trkpt lat="45.85869" lon="4.68427">
        <ele>200</ele>
        <time>2018-04-15T09:56:04Z</time>
      </trkpt>
      <trkpt lat="45.85869" lon="4.68434">
        <ele>200</ele>
        <time>2018-04-15T09:56:05Z</time>
      </trkpt>
      <trkpt lat="45.8587" lon="4.6844">
        <ele>200</ele>
        <time>2018-04-15T09:56:06Z</time>
      </trkpt>
      <trkpt lat="45.8587" lon="4.68447">
        <ele>200</ele>
        <time>2018-04-15T09:56:07Z</time>
      </trkpt>
      <trkpt lat="45.85871" lon="4.68454">
        <ele>200</ele>
        <time>2018-04-15T09:56:08Z</time>
      </trkpt>
      <trkpt lat="45.85872" lon="4.68461">
        <ele>200</ele>
        <time>2018-04-15T09:56:09Z</time>
      </trkpt>
      <trkpt lat="45.85874" lon="4.68468">
        <ele>200</ele>
        <time>2018-04-15T09:56:10Z</time>
      </trkpt>
      <trkpt lat="45.85875" lon="4.68475">
        <ele>200</ele>
        <time>2018-04-15T09:56:11Z</time>
      </trkpt>
      <trkpt lat="45.85876" lon="4.68481">
        <ele>201</ele>
        <time>2018-04-15T09:56:12Z</time>
      </trkpt>
      <trkpt lat="45.85877" lon="4.68489">
        <ele>201</ele>
        <time>2018-04-15T09:56:13Z</time>
      </trkpt>
      <trkpt lat="45.85879" lon="4.68496">
        <ele>201</ele>
        <time>2018-04-15T09:56:14Z</time>
      </trkpt>
      <trkpt lat="45.85879" lon="4.68505">
        <ele>200</ele>
        <time>2018-04-15T09:56:15Z</time>
      </trkpt>
      <trkpt lat="45.8588" lon="4.68513">
        <ele>200</ele>
        <time>2018-04-15T09:56:16Z</time>
      </trkpt>
      <trkpt lat="45.85881" lon="4.68521">
        <ele>200</ele>
        <time>2018-04-15T09:56:17Z</time>
      </trkpt>
      <trkpt lat="45.85881" lon="4.68528">
        <ele>200</ele>
        <time>2018-04-15T09:56:18Z</time>
      </trkpt>
      <trkpt lat="45.85882" lon="4.68535">
        <ele>200</ele>
        <time>2018-04-15T09:56:19Z</time>
      </trkpt>
      <trkpt lat="45.85883" lon="4.68542">
        <ele>200</ele>
        <time>2018-04-15T09:56:20Z</time>
      </trkpt>
      <trkpt lat="45.85885" lon="4.6855">
        <ele>200</ele>
        <time>2018-04-15T09:56:21Z</time>
      </trkpt>
      <trkpt lat="45.85885" lon="4.68557">
        <ele>200</ele>
        <time>2018-04-15T09:56:22Z</time>
      </trkpt>
      <trkpt lat="45.85886" lon="4.68565">
        <ele>200</ele>
        <time>2018-04-15T09:56:23Z</time>
      </trkpt>
      <trkpt lat="45.85888" lon="4.68573">
        <ele>199</ele>
        <time>2018-04-15T09:56:24Z</time>
      </trkpt>
      <trkpt lat="45.8589" lon="4.68581">
        <ele>199</ele>
        <time>2018-04-15T09:56:25Z</time>
      </trkpt>
      <trkpt lat="45.85891" lon="4.68588">
        <ele>199</ele>
        <time>2018-04-15T09:56:26Z</time>
      </trkpt>
      <trkpt lat="45.85893" lon="4.68599">
        <ele>199</ele>
        <time>2018-04-15T09:56:28Z</time>
      </trkpt>
      <trkpt lat="45.85893" lon="4.68606">
        <ele>199</ele>
        <time>2018-04-15T09:56:29Z</time>
      </trkpt>
      <trkpt lat="45.85894" lon="4.68614">
        <ele>199</ele>
        <time>2018-04-15T09:56:30Z</time>
      </trkpt>
      <trkpt lat="45.85893" lon="4.6862">
        <ele>199</ele>
        <time>2018-04-15T09:56:31Z</time>
      </trkpt>
      <trkpt lat="45.85894" lon="4.68628">
        <ele>198</ele>
        <time>2018-04-15T09:56:32Z</time>
      </trkpt>
      <trkpt lat="45.85894" lon="4.68636">
        <ele>198</ele>
        <time>2018-04-15T09:56:33Z</time>
      </trkpt>
      <trkpt lat="45.85894" lon="4.68644">
        <ele>198</ele>
        <time>2018-04-15T09:56:34Z</time>
      </trkpt>
      <trkpt lat="45.85893" lon="4.68652">
        <ele>198</ele>
        <time>2018-04-15T09:56:35Z</time>
      </trkpt>
      <trkpt lat="45.85893" lon="4.6866">
        <ele>198</ele>
        <time>2018-04-15T09:56:36Z</time>
      </trkpt>
      <trkpt lat="45.85892" lon="4.68666">
        <ele>198</ele>
        <time>2018-04-15T09:56:37Z</time>
      </trkpt>
      <trkpt lat="45.85894" lon="4.68674">
        <ele>198</ele>
        <time>2018-04-15T09:56:38Z</time>
      </trkpt>
      <trkpt lat="45.85893" lon="4.68682">
        <ele>198</ele>
        <time>2018-04-15T09:56:39Z</time>
      </trkpt>
      <trkpt lat="45.85893" lon="4.6869">
        <ele>198</ele>
        <time>2018-04-15T09:56:40Z</time>
      </trkpt>
      <trkpt lat="45.85892" lon="4.68697">
        <ele>198</ele>
        <time>2018-04-15T09:56:41Z</time>
      </trkpt>
      <trkpt lat="45.8589" lon="4.68705">
        <ele>198</ele>
        <time>2018-04-15T09:56:42Z</time>
      </trkpt>
      <trkpt lat="45.85889" lon="4.68712">
        <ele>198</ele>
        <time>2018-04-15T09:56:43Z</time>
      </trkpt>
      <trkpt lat="45.85889" lon="4.68721">
        <ele>198</ele>
        <time>2018-04-15T09:56:44Z</time>
      </trkpt>
      <trkpt lat="45.85888" lon="4.68727">
        <ele>198</ele>
        <time>2018-04-15T09:56:45Z</time>
      </trkpt>
      <trkpt lat="45.85887" lon="4.68735">
        <ele>198</ele>
        <time>2018-04-15T09:56:46Z</time>
      </trkpt>
      <trkpt lat="45.85886" lon="4.68742">
        <ele>198</ele>
        <time>2018-04-15T09:56:47Z</time>
      </trkpt>
      <trkpt lat="45.85885" lon="4.68748">
        <ele>198</ele>
        <time>2018-04-15T09:56:48Z</time>
      </trkpt>
      <trkpt lat="45.85884" lon="4.68755">
        <ele>198</ele>
        <time>2018-04-15T09:56:49Z</time>
      </trkpt>
      <trkpt lat="45.85884" lon="4.68761">
        <ele>198</ele>
        <time>2018-04-15T09:56:50Z</time>
      </trkpt>
      <trkpt lat="45.85883" lon="4.68769">
        <ele>198</ele>
        <time>2018-04-15T09:56:51Z</time>
      </trkpt>
      <trkpt lat="45.85881" lon="4.68776">
        <ele>198</ele>
        <time>2018-04-15T09:56:52Z</time>
      </trkpt>
      <trkpt lat="45.85881" lon="4.68784">
        <ele>198</ele>
        <time>2018-04-15T09:56:53Z</time>
      </trkpt>
      <trkpt lat="45.85879" lon="4.68792">
        <ele>198</ele>
        <time>2018-04-15T09:56:54Z</time>
      </trkpt>
      <trkpt lat="45.85878" lon="4.68799">
        <ele>198</ele>
        <time>2018-04-15T09:56:55Z</time>
      </trkpt>
      <trkpt lat="45.85877" lon="4.68807">
        <ele>198</ele>
        <time>2018-04-15T09:56:56Z</time>
      </trkpt>
      <trkpt lat="45.85876" lon="4.68815">
        <ele>198</ele>
        <time>2018-04-15T09:56:57Z</time>
      </trkpt>
      <trkpt lat="45.85875" lon="4.68824">
        <ele>198</ele>
        <time>2018-04-15T09:56:58Z</time>
      </trkpt>
      <trkpt lat="45.85873" lon="4.68831">
        <ele>198</ele>
        <time>2018-04-15T09:56:59Z</time>
      </trkpt>
      <trkpt lat="45.85873" lon="4.68839">
        <ele>198</ele>
        <time>2018-04-15T09:57:00Z</time>
      </trkpt>
      <trkpt lat="45.85873" lon="4.68846">
        <ele>198</ele>
        <time>2018-04-15T09:57:01Z</time>
      </trkpt>
      <trkpt lat="45.85871" lon="4.68854">
        <ele>198</ele>
        <time>2018-04-15T09:57:02Z</time>
      </trkpt>
      <trkpt lat="45.8587" lon="4.68862">
        <ele>198</ele>
        <time>2018-04-15T09:57:03Z</time>
      </trkpt>
      <trkpt lat="45.85869" lon="4.68869">
        <ele>198</ele>
        <time>2018-04-15T09:57:04Z</time>
      </trkpt>
      <trkpt lat="45.85867" lon="4.68877">
        <ele>197</ele>
        <time>2018-04-15T09:57:05Z</time>
      </trkpt>
      <trkpt lat="45.85865" lon="4.68885">
        <ele>197</ele>
        <time>2018-04-15T09:57:06Z</time>
      </trkpt>
      <trkpt lat="45.85864" lon="4.68892">
        <ele>197</ele>
        <time>2018-04-15T09:57:07Z</time>
      </trkpt>
      <trkpt lat="45.85863" lon="4.68899">
        <ele>197</ele>
        <time>2018-04-15T09:57:08Z</time>
      </trkpt>
      <trkpt lat="45.85862" lon="4.68908">
        <ele>197</ele>
        <time>2018-04-15T09:57:09Z</time>
      </trkpt>
      <trkpt lat="45.85862" lon="4.68916">
        <ele>197</ele>
        <time>2018-04-15T09:57:10Z</time>
      </trkpt>
      <trkpt lat="45.85861" lon="4.68923">
        <ele>197</ele>
        <time>2018-04-15T09:57:11Z</time>
      </trkpt>
      <trkpt lat="45.8586" lon="4.68932">
        <ele>197</ele>
        <time>2018-04-15T09:57:12Z</time>
      </trkpt>
      <trkpt lat="45.8586" lon="4.6894">
        <ele>197</ele>
        <time>2018-04-15T09:57:13Z</time>
      </trkpt>
      <trkpt lat="45.8586" lon="4.68949">
        <ele>197</ele>
        <time>2018-04-15T09:57:14Z</time>
      </trkpt>
      <trkpt lat="45.8586" lon="4.68957">
        <ele>197</ele>
        <time>2018-04-15T09:57:15Z</time>
      </trkpt>
      <trkpt lat="45.8586" lon="4.68966">
        <ele>197</ele>
        <time>2018-04-15T09:57:16Z</time>
      </trkpt>
      <trkpt lat="45.8586" lon="4.68974">
        <ele>197</ele>
        <time>2018-04-15T09:57:17Z</time>
      </trkpt>
      <trkpt lat="45.85862" lon="4.6898">
        <ele>197</ele>
        <time>2018-04-15T09:57:18Z</time>
      </trkpt>
      <trkpt lat="45.85865" lon="4.68987">
        <ele>197</ele>
        <time>2018-04-15T09:57:19Z</time>
      </trkpt>
      <trkpt lat="45.85866" lon="4.68995">
        <ele>197</ele>
        <time>2018-04-15T09:57:20Z</time>
      </trkpt>
      <trkpt lat="45.85868" lon="4.69004">
        <ele>197</ele>
        <time>2018-04-15T09:57:21Z</time>
      </trkpt>
      <trkpt lat="45.8587" lon="4.69013">
        <ele>197</ele>
        <time>2018-04-15T09:57:22Z</time>
      </trkpt>
      <trkpt lat="45.85872" lon="4.69019">
        <ele>197</ele>
        <time>2018-04-15T09:57:23Z</time>
      </trkpt>
      <trkpt lat="45.85875" lon="4.69028">
        <ele>198</ele>
        <time>2018-04-15T09:57:24Z</time>
      </trkpt>
      <trkpt lat="45.85878" lon="4.69035">
        <ele>198</ele>
        <time>2018-04-15T09:57:25Z</time>
      </trkpt>
      <trkpt lat="45.85881" lon="4.69041">
        <ele>198</ele>
        <time>2018-04-15T09:57:26Z</time>
      </trkpt>
      <trkpt lat="45.85885" lon="4.69048">
        <ele>198</ele>
        <time>2018-04-15T09:57:27Z</time>
      </trkpt>
      <trkpt lat="45.85888" lon="4.69052">
        <ele>198</ele>
        <time>2018-04-15T09:57:28Z</time>
      </trkpt>
      <trkpt lat="45.85892" lon="4.69059">
        <ele>198</ele>
        <time>2018-04-15T09:57:29Z</time>
      </trkpt>
      <trkpt lat="45.85897" lon="4.69064">
        <ele>198</ele>
        <time>2018-04-15T09:57:30Z</time>
      </trkpt>
      <trkpt lat="45.85901" lon="4.69069">
        <ele>198</ele>
        <time>2018-04-15T09:57:31Z</time>
      </trkpt>
      <trkpt lat="45.85906" lon="4.69072">
        <ele>198</ele>
        <time>2018-04-15T09:57:32Z</time>
      </trkpt>
      <trkpt lat="45.85911" lon="4.69076">
        <ele>198</ele>
        <time>2018-04-15T09:57:33Z</time>
      </trkpt>
      <trkpt lat="45.85916" lon="4.6908">
        <ele>198</ele>
        <time>2018-04-15T09:57:34Z</time>
      </trkpt>
      <trkpt lat="45.85921" lon="4.69083">
        <ele>198</ele>
        <time>2018-04-15T09:57:35Z</time>
      </trkpt>
      <trkpt lat="45.85927" lon="4.69086">
        <ele>198</ele>
        <time>2018-04-15T09:57:36Z</time>
      </trkpt>
      <trkpt lat="45.85933" lon="4.69088">
        <ele>197</ele>
        <time>2018-04-15T09:57:37Z</time>
      </trkpt>
      <trkpt lat="45.85938" lon="4.69091">
        <ele>197</ele>
        <time>2018-04-15T09:57:38Z</time>
      </trkpt>
      <trkpt lat="45.85944" lon="4.69093">
        <ele>197</ele>
        <time>2018-04-15T09:57:39Z</time>
      </trkpt>
      <trkpt lat="45.8595" lon="4.69094">
        <ele>197</ele>
        <time>2018-04-15T09:57:40Z</time>
      </trkpt>
      <trkpt lat="45.85956" lon="4.69095">
        <ele>197</ele>
        <time>2018-04-15T09:57:41Z</time>
      </trkpt>
      <trkpt lat="45.85962" lon="4.69094">
        <ele>197</ele>
        <time>2018-04-15T09:57:42Z</time>
      </trkpt>
      <trkpt lat="45.85968" lon="4.69096">
        <ele>197</ele>
        <time>2018-04-15T09:57:43Z</time>
      </trkpt>
      <trkpt lat="45.85974" lon="4.69095">
        <ele>197</ele>
        <time>2018-04-15T09:57:44Z</time>
      </trkpt>
      <trkpt lat="45.8598" lon="4.69095">
        <ele>197</ele>
        <time>2018-04-15T09:57:45Z</time>
      </trkpt>
      <trkpt lat="45.85987" lon="4.69095">
        <ele>196</ele>
        <time>2018-04-15T09:57:46Z</time>
      </trkpt>
      <trkpt lat="45.85993" lon="4.69094">
        <ele>196</ele>
        <time>2018-04-15T09:57:47Z</time>
      </trkpt>
      <trkpt lat="45.85999" lon="4.69094">
        <ele>196</ele>
        <time>2018-04-15T09:57:48Z</time>
      </trkpt>
      <trkpt lat="45.86005" lon="4.69094">
        <ele>196</ele>
        <time>2018-04-15T09:57:49Z</time>
      </trkpt>
      <trkpt lat="45.86011" lon="4.69094">
        <ele>197</ele>
        <time>2018-04-15T09:57:50Z</time>
      </trkpt>
      <trkpt lat="45.86017" lon="4.69094">
        <ele>197</ele>
        <time>2018-04-15T09:57:51Z</time>
      </trkpt>
      <trkpt lat="45.86023" lon="4.69093">
        <ele>197</ele>
        <time>2018-04-15T09:57:52Z</time>
      </trkpt>
      <trkpt lat="45.8603" lon="4.69094">
        <ele>197</ele>
        <time>2018-04-15T09:57:53Z</time>
      </trkpt>
      <trkpt lat="45.86038" lon="4.69094">
        <ele>197</ele>
        <time>2018-04-15T09:57:54Z</time>
      </trkpt>
      <trkpt lat="45.86045" lon="4.69093">
        <ele>197</ele>
        <time>2018-04-15T09:57:55Z</time>
      </trkpt>
      <trkpt lat="45.8605" lon="4.69093">
        <ele>197</ele>
        <time>2018-04-15T09:57:56Z</time>
      </trkpt>
      <trkpt lat="45.86056" lon="4.69092">
        <ele>197</ele>
        <time>2018-04-15T09:57:57Z</time>
      </trkpt>
      <trkpt lat="45.86062" lon="4.69092">
        <ele>198</ele>
        <time>2018-04-15T09:57:58Z</time>
      </trkpt>
      <trkpt lat="45.86067" lon="4.69091">
        <ele>198</ele>
        <time>2018-04-15T09:57:59Z</time>
      </trkpt>
      <trkpt lat="45.86072" lon="4.6909">
        <ele>198</ele>
        <time>2018-04-15T09:58:00Z</time>
      </trkpt>
      <trkpt lat="45.86078" lon="4.6909">
        <ele>198</ele>
        <time>2018-04-15T09:58:01Z</time>
      </trkpt>
      <trkpt lat="45.86083" lon="4.69089">
        <ele>198</ele>
        <time>2018-04-15T09:58:02Z</time>
      </trkpt>
      <trkpt lat="45.86088" lon="4.69089">
        <ele>199</ele>
        <time>2018-04-15T09:58:03Z</time>
      </trkpt>
      <trkpt lat="45.86093" lon="4.69088">
        <ele>199</ele>
        <time>2018-04-15T09:58:04Z</time>
      </trkpt>
      <trkpt lat="45.86098" lon="4.69087">
        <ele>200</ele>
        <time>2018-04-15T09:58:05Z</time>
      </trkpt>
      <trkpt lat="45.86103" lon="4.69086">
        <ele>200</ele>
        <time>2018-04-15T09:58:06Z</time>
      </trkpt>
      <trkpt lat="45.86108" lon="4.69086">
        <ele>200</ele>
        <time>2018-04-15T09:58:07Z</time>
      </trkpt>
      <trkpt lat="45.86117" lon="4.69085">
        <ele>201</ele>
        <time>2018-04-15T09:58:09Z</time>
      </trkpt>
      <trkpt lat="45.86121" lon="4.69084">
        <ele>201</ele>
        <time>2018-04-15T09:58:10Z</time>
      </trkpt>
      <trkpt lat="45.86126" lon="4.69084">
        <ele>201</ele>
        <time>2018-04-15T09:58:11Z</time>
      </trkpt>
      <trkpt lat="45.86131" lon="4.69082">
        <ele>203</ele>
        <time>2018-04-15T09:58:12Z</time>
      </trkpt>
      <trkpt lat="45.86138" lon="4.69082">
        <ele>203</ele>
        <time>2018-04-15T09:58:14Z</time>
      </trkpt>
      <trkpt lat="45.86142" lon="4.69082">
        <ele>204</ele>
        <time>2018-04-15T09:58:15Z</time>
      </trkpt>
      <trkpt lat="45.8615" lon="4.69081">
        <ele>204</ele>
        <time>2018-04-15T09:58:18Z</time>
      </trkpt>
      <trkpt lat="45.86152" lon="4.69082">
        <ele>204</ele>
        <time>2018-04-15T09:58:19Z</time>
      </trkpt>
      <trkpt lat="45.8616" lon="4.69081">
        <ele>205</ele>
        <time>2018-04-15T09:58:22Z</time>
      </trkpt>
      <trkpt lat="45.86163" lon="4.69081">
        <ele>205</ele>
        <time>2018-04-15T09:58:23Z</time>
      </trkpt>
      <trkpt lat="45.86172" lon="4.69079">
        <ele>206</ele>
        <time>2018-04-15T09:58:26Z</time>
      </trkpt>
      <trkpt lat="45.86175" lon="4.69079">
        <ele>207</ele>
        <time>2018-04-15T09:58:27Z</time>
      </trkpt>
      <trkpt lat="45.86184" lon="4.69078">
        <ele>208</ele>
        <time>2018-04-15T09:58:30Z</time>
      </trkpt>
      <trkpt lat="45.86186" lon="4.69078">
        <ele>208</ele>
        <time>2018-04-15T09:58:31Z</time>
      </trkpt>
      <trkpt lat="45.86189" lon="4.69077">
        <ele>208</ele>
        <time>2018-04-15T09:58:32Z</time>
      </trkpt>
      <trkpt lat="45.86199" lon="4.69077">
        <ele>209</ele>
        <time>2018-04-15T09:58:33Z</time>
      </trkpt>
      <trkpt lat="45.86207" lon="4.69077">
        <ele>210</ele>
        <time>2018-04-15T09:58:37Z</time>
      </trkpt>
      <trkpt lat="45.8621" lon="4.69077">
        <ele>210</ele>
        <time>2018-04-15T09:58:38Z</time>
      </trkpt>
      <trkpt lat="45.86217" lon="4.69077">
        <ele>210</ele>
        <time>2018-04-15T09:58:41Z</time>
      </trkpt>
      <trkpt lat="45.8622" lon="4.69077">
        <ele>210</ele>
        <time>2018-04-15T09:58:42Z</time>
      </trkpt>
      <trkpt lat="45.86228" lon="4.69078">
        <ele>210</ele>
        <time>2018-04-15T09:58:45Z</time>
      </trkpt>
      <trkpt lat="45.86231" lon="4.69078">
        <ele>211</ele>
        <time>2018-04-15T09:58:46Z</time>
      </trkpt>
      <trkpt lat="45.8624" lon="4.69079">
        <ele>211</ele>
        <time>2018-04-15T09:58:49Z</time>
      </trkpt>
      <trkpt lat="45.86242" lon="4.6908">
        <ele>211</ele>
        <time>2018-04-15T09:58:50Z</time>
      </trkpt>
      <trkpt lat="45.8625" lon="4.69081">
        <ele>211</ele>
        <time>2018-04-15T09:58:53Z</time>
      </trkpt>
      <trkpt lat="45.86252" lon="4.69082">
        <ele>211</ele>
        <time>2018-04-15T09:58:54Z</time>
      </trkpt>
      <trkpt lat="45.86261" lon="4.69085">
        <ele>212</ele>
        <time>2018-04-15T09:58:57Z</time>
      </trkpt>
      <trkpt lat="45.86264" lon="4.69086">
        <ele>212</ele>
        <time>2018-04-15T09:58:58Z</time>
      </trkpt>
      <trkpt lat="45.86271" lon="4.69089">
        <ele>213</ele>
        <time>2018-04-15T09:59:01Z</time>
      </trkpt>
      <trkpt lat="45.86274" lon="4.69091">
        <ele>213</ele>
        <time>2018-04-15T09:59:02Z</time>
      </trkpt>
      <trkpt lat="45.86282" lon="4.69095">
        <ele>213</ele>
        <time>2018-04-15T09:59:05Z</time>
      </trkpt>
      <trkpt lat="45.86284" lon="4.69097">
        <ele>213</ele>
        <time>2018-04-15T09:59:06Z</time>
      </trkpt>
      <trkpt lat="45.86292" lon="4.69102">
        <ele>214</ele>
        <time>2018-04-15T09:59:09Z</time>
      </trkpt>
      <trkpt lat="45.86294" lon="4.69104">
        <ele>214</ele>
        <time>2018-04-15T09:59:10Z</time>
      </trkpt>
      <trkpt lat="45.86302" lon="4.6911">
        <ele>214</ele>
        <time>2018-04-15T09:59:13Z</time>
      </trkpt>
      <trkpt lat="45.86304" lon="4.69113">
        <ele>214</ele>
        <time>2018-04-15T09:59:14Z</time>
      </trkpt>
      <trkpt lat="45.86311" lon="4.6912">
        <ele>214</ele>
        <time>2018-04-15T09:59:17Z</time>
      </trkpt>
      <trkpt lat="45.86313" lon="4.69122">
        <ele>214</ele>
        <time>2018-04-15T09:59:18Z</time>
      </trkpt>
      <trkpt lat="45.86319" lon="4.6913">
        <ele>215</ele>
        <time>2018-04-15T09:59:21Z</time>
      </trkpt>
      <trkpt lat="45.86321" lon="4.69133">
        <ele>215</ele>
        <time>2018-04-15T09:59:22Z</time>
      </trkpt>
      <trkpt lat="45.86327" lon="4.69141">
        <ele>215</ele>
        <time>2018-04-15T09:59:25Z</time>
      </trkpt>
      <trkpt lat="45.86329" lon="4.69144">
        <ele>215</ele>
        <time>2018-04-15T09:59:26Z</time>
      </trkpt>
      <trkpt lat="45.86335" lon="4.69152">
        <ele>217</ele>
        <time>2018-04-15T09:59:29Z</time>
      </trkpt>
      <trkpt lat="45.86337" lon="4.69155">
        <ele>217</ele>
        <time>2018-04-15T09:59:30Z</time>
      </trkpt>
      <trkpt lat="45.86343" lon="4.69163">
        <ele>217</ele>
        <time>2018-04-15T09:59:33Z</time>
      </trkpt>
      <trkpt lat="45.86345" lon="4.69166">
        <ele>217</ele>
        <time>2018-04-15T09:59:34Z</time>
      </trkpt>
      <trkpt lat="45.86351" lon="4.69175">
        <ele>218</ele>
        <time>2018-04-15T09:59:37Z</time>
      </trkpt>
      <trkpt lat="45.86353" lon="4.69178">
        <ele>218</ele>
        <time>2018-04-15T09:59:38Z</time>
      </trkpt>
      <trkpt lat="45.86357" lon="4.69188">
        <ele>218</ele>
        <time>2018-04-15T09:59:41Z</time>
      </trkpt>
      <trkpt lat="45.86359" lon="4.69191">
        <ele>218</ele>
        <time>2018-04-15T09:59:42Z</time>
      </trkpt>
      <trkpt lat="45.86363" lon="4.69202">
        <ele>219</ele>
        <time>2018-04-15T09:59:45Z</time>
      </trkpt>
      <trkpt lat="45.86364" lon="4.69205">
        <ele>219</ele>
        <time>2018-04-15T09:59:46Z</time>
      </trkpt>
      <trkpt lat="45.86367" lon="4.69214">
        <ele>219</ele>
        <time>2018-04-15T09:59:48Z</time>
      </trkpt>
      <trkpt lat="45.86369" lon="4.69218">
        <ele>219</ele>
        <time>2018-04-15T09:59:49Z</time>
      </trkpt>
      <trkpt lat="45.86372" lon="4.69226">
        <ele>219</ele>
        <time>2018-04-15T09:59:51Z</time>
      </trkpt>
      <trkpt lat="45.86374" lon="4.6923">
        <ele>219</ele>
        <time>2018-04-15T09:59:52Z</time>
      </trkpt>
      <trkpt lat="45.86377" lon="4.69238">
        <ele>219</ele>
        <time>2018-04-15T09:59:54Z</time>
      </trkpt>
      <trkpt lat="45.86382" lon="4.69251">
        <ele>219</ele>
        <time>2018-04-15T09:59:55Z</time>
      </trkpt>
      <trkpt lat="45.86387" lon="4.69261">
        <ele>219</ele>
        <time>2018-04-15T09:59:57Z</time>
      </trkpt>
      <trkpt lat="45.86389" lon="4.69265">
        <ele>219</ele>
        <time>2018-04-15T09:59:58Z</time>
      </trkpt>
      <trkpt lat="45.86394" lon="4.69275">
        <ele>219</ele>
        <time>2018-04-15T10:00:00Z</time>
      </trkpt>
      <trkpt lat="45.86396" lon="4.6928">
        <ele>219</ele>
        <time>2018-04-15T10:00:01Z</time>
      </trkpt>
      <trkpt lat="45.86398" lon="4.69285">
        <ele>219</ele>
        <time>2018-04-15T10:00:02Z</time>
      </trkpt>
      <trkpt lat="45.86401" lon="4.69291">
        <ele>219</ele>
        <time>2018-04-15T10:00:03Z</time>
      </trkpt>
      <trkpt lat="45.86404" lon="4.69302">
        <ele>219</ele>
        <time>2018-04-15T10:00:05Z</time>
      </trkpt>
      <trkpt lat="45.86407" lon="4.69308">
        <ele>219</ele>
        <time>2018-04-15T10:00:06Z</time>
      </trkpt>
      <trkpt lat="45.86412" lon="4.69319">
        <ele>219</ele>
        <time>2018-04-15T10:00:08Z</time>
      </trkpt>
      <trkpt lat="45.86414" lon="4.69324">
        <ele>219</ele>
        <time>2018-04-15T10:00:09Z</time>
      </trkpt>
      <trkpt lat="45.86417" lon="4.69329">
        <ele>219</ele>
        <time>2018-04-15T10:00:10Z</time>
      </trkpt>
      <trkpt lat="45.86419" lon="4.69335">
        <ele>219</ele>
        <time>2018-04-15T10:00:11Z</time>
      </trkpt>
      <trkpt lat="45.86422" lon="4.69341">
        <ele>219</ele>
        <time>2018-04-15T10:00:12Z</time>
      </trkpt>
      <trkpt lat="45.86424" lon="4.69346">
        <ele>219</ele>
        <time>2018-04-15T10:00:13Z</time>
      </trkpt>
      <trkpt lat="45.86427" lon="4.69352">
        <ele>219</ele>
        <time>2018-04-15T10:00:14Z</time>
      </trkpt>
      <trkpt lat="45.86431" lon="4.69358">
        <ele>219</ele>
        <time>2018-04-15T10:00:15Z</time>
      </trkpt>
      <trkpt lat="45.86433" lon="4.69364">
        <ele>219</ele>
        <time>2018-04-15T10:00:16Z</time>
      </trkpt>
      <trkpt lat="45.86436" lon="4.69371">
        <ele>219</ele>
        <time>2018-04-15T10:00:17Z</time>
      </trkpt>
      <trkpt lat="45.8644" lon="4.69376">
        <ele>219</ele>
        <time>2018-04-15T10:00:18Z</time>
      </trkpt>
      <trkpt lat="45.86444" lon="4.69383">
        <ele>219</ele>
        <time>2018-04-15T10:00:19Z</time>
      </trkpt>
      <trkpt lat="45.86448" lon="4.6939">
        <ele>219</ele>
        <time>2018-04-15T10:00:20Z</time>
      </trkpt>
      <trkpt lat="45.86452" lon="4.69396">
        <ele>219</ele>
        <time>2018-04-15T10:00:21Z</time>
      </trkpt>
      <trkpt lat="45.86456" lon="4.69402">
        <ele>219</ele>
        <time>2018-04-15T10:00:22Z</time>
      </trkpt>
      <trkpt lat="45.86459" lon="4.69408">
        <ele>219</ele>
        <time>2018-04-15T10:00:23Z</time>
      </trkpt>
      <trkpt lat="45.86462" lon="4.69413">
        <ele>219</ele>
        <time>2018-04-15T10:00:24Z</time>
      </trkpt>
      <trkpt lat="45.86466" lon="4.69418">
        <ele>218</ele>
        <time>2018-04-15T10:00:25Z</time>
      </trkpt>
      <trkpt lat="45.8647" lon="4.69422">
        <ele>218</ele>
        <time>2018-04-15T10:00:26Z</time>
      </trkpt>
      <trkpt lat="45.86473" lon="4.69428">
        <ele>218</ele>
        <time>2018-04-15T10:00:27Z</time>
      </trkpt>
      <trkpt lat="45.86477" lon="4.69433">
        <ele>218</ele>
        <time>2018-04-15T10:00:28Z</time>
      </trkpt>
      <trkpt lat="45.8648" lon="4.69438">
        <ele>218</ele>
        <time>2018-04-15T10:00:29Z</time>
      </trkpt>
      <trkpt lat="45.86485" lon="4.69442">
        <ele>218</ele>
        <time>2018-04-15T10:00:30Z</time>
      </trkpt>
      <trkpt lat="45.86488" lon="4.69447">
        <ele>218</ele>
        <time>2018-04-15T10:00:31Z</time>
      </trkpt>
      <trkpt lat="45.86491" lon="4.69452">
        <ele>218</ele>
        <time>2018-04-15T10:00:32Z</time>
      </trkpt>
      <trkpt lat="45.86495" lon="4.69457">
        <ele>218</ele>
        <time>2018-04-15T10:00:33Z</time>
      </trkpt>
      <trkpt lat="45.86497" lon="4.69463">
        <ele>218</ele>
        <time>2018-04-15T10:00:34Z</time>
      </trkpt>
      <trkpt lat="45.86499" lon="4.69469">
        <ele>218</ele>
        <time>2018-04-15T10:00:35Z</time>
      </trkpt>
      <trkpt lat="45.86502" lon="4.69474">
        <ele>219</ele>
        <time>2018-04-15T10:00:36Z</time>
      </trkpt>
      <trkpt lat="45.86506" lon="4.69479">
        <ele>219</ele>
        <time>2018-04-15T10:00:37Z</time>
      </trkpt>
      <trkpt lat="45.86509" lon="4.69484">
        <ele>219</ele>
        <time>2018-04-15T10:00:38Z</time>
      </trkpt>
      <trkpt lat="45.86512" lon="4.69489">
        <ele>219</ele>
        <time>2018-04-15T10:00:39Z</time>
      </trkpt>
      <trkpt lat="45.86516" lon="4.69494">
        <ele>219</ele>
        <time>2018-04-15T10:00:40Z</time>
      </trkpt>
      <trkpt lat="45.86519" lon="4.69498">
        <ele>219</ele>
        <time>2018-04-15T10:00:41Z</time>
      </trkpt>
      <trkpt lat="45.86522" lon="4.69504">
        <ele>219</ele>
        <time>2018-04-15T10:00:42Z</time>
      </trkpt>
      <trkpt lat="45.86526" lon="4.69508">
        <ele>219</ele>
        <time>2018-04-15T10:00:43Z</time>
      </trkpt>
      <trkpt lat="45.86529" lon="4.69513">
        <ele>219</ele>
        <time>2018-04-15T10:00:44Z</time>
      </trkpt>
      <trkpt lat="45.86532" lon="4.69519">
        <ele>219</ele>
        <time>2018-04-15T10:00:45Z</time>
      </trkpt>
      <trkpt lat="45.86535" lon="4.69523">
        <ele>219</ele>
        <time>2018-04-15T10:00:46Z</time>
      </trkpt>
      <trkpt lat="45.86539" lon="4.69529">
        <ele>219</ele>
        <time>2018-04-15T10:00:47Z</time>
      </trkpt>
      <trkpt lat="45.86543" lon="4.69535">
        <ele>219</ele>
        <time>2018-04-15T10:00:48Z</time>
      </trkpt>
      <trkpt lat="45.86545" lon="4.6954">
        <ele>219</ele>
        <time>2018-04-15T10:00:49Z</time>
      </trkpt>
      <trkpt lat="45.8655" lon="4.69546">
        <ele>219</ele>
        <time>2018-04-15T10:00:50Z</time>
      </trkpt>
      <trkpt lat="45.86554" lon="4.69552">
        <ele>219</ele>
        <time>2018-04-15T10:00:51Z</time>
      </trkpt>
      <trkpt lat="45.86558" lon="4.69558">
        <ele>219</ele>
        <time>2018-04-15T10:00:52Z</time>
      </trkpt>
      <trkpt lat="45.86562" lon="4.69565">
        <ele>219</ele>
        <time>2018-04-15T10:00:53Z</time>
      </trkpt>
      <trkpt lat="45.86565" lon="4.69571">
        <ele>219</ele>
        <time>2018-04-15T10:00:54Z</time>
      </trkpt>
      <trkpt lat="45.86571" lon="4.69576">
        <ele>219</ele>
        <time>2018-04-15T10:00:55Z</time>
      </trkpt>
      <trkpt lat="45.86575" lon="4.69583">
        <ele>219</ele>
        <time>2018-04-15T10:00:56Z</time>
      </trkpt>
      <trkpt lat="45.86578" lon="4.69589">
        <ele>219</ele>
        <time>2018-04-15T10:00:57Z</time>
      </trkpt>
      <trkpt lat="45.86582" lon="4.69595">
        <ele>219</ele>
        <time>2018-04-15T10:00:58Z</time>
      </trkpt>
      <trkpt lat="45.86585" lon="4.69601">
        <ele>219</ele>
        <time>2018-04-15T10:00:59Z</time>
      </trkpt>
      <trkpt lat="45.86588" lon="4.69606">
        <ele>219</ele>
        <time>2018-04-15T10:01:00Z</time>
      </trkpt>
      <trkpt lat="45.86592" lon="4.69612">
        <ele>219</ele>
        <time>2018-04-15T10:01:01Z</time>
      </trkpt>
      <trkpt lat="45.86595" lon="4.69618">
        <ele>219</ele>
        <time>2018-04-15T10:01:02Z</time>
      </trkpt>
      <trkpt lat="45.866" lon="4.69623">
        <ele>219</ele>
        <time>2018-04-15T10:01:03Z</time>
      </trkpt>
      <trkpt lat="45.86604" lon="4.69628">
        <ele>219</ele>
        <time>2018-04-15T10:01:04Z</time>
      </trkpt>
      <trkpt lat="45.86607" lon="4.69633">
        <ele>219</ele>
        <time>2018-04-15T10:01:05Z</time>
      </trkpt>
      <trkpt lat="45.86611" lon="4.69638">
        <ele>219</ele>
        <time>2018-04-15T10:01:06Z</time>
      </trkpt>
      <trkpt lat="45.86614" lon="4.69644">
        <ele>219</ele>
        <time>2018-04-15T10:01:07Z</time>
      </trkpt>
      <trkpt lat="45.86619" lon="4.69647">
        <ele>219</ele>
        <time>2018-04-15T10:01:08Z</time>
      </trkpt>
      <trkpt lat="45.86622" lon="4.69653">
        <ele>219</ele>
        <time>2018-04-15T10:01:09Z</time>
      </trkpt>
      <trkpt lat="45.86626" lon="4.69657">
        <ele>218</ele>
        <time>2018-04-15T10:01:10Z</time>
      </trkpt>
      <trkpt lat="45.8663" lon="4.69661">
        <ele>218</ele>
        <time>2018-04-15T10:01:11Z</time>
      </trkpt>
      <trkpt lat="45.86633" lon="4.69666">
        <ele>218</ele>
        <time>2018-04-15T10:01:12Z</time>
      </trkpt>
      <trkpt lat="45.86636" lon="4.69672">
        <ele>218</ele>
        <time>2018-04-15T10:01:13Z</time>
      </trkpt>
      <trkpt lat="45.8664" lon="4.69678">
        <ele>218</ele>
        <time>2018-04-15T10:01:14Z</time>
      </trkpt>
      <trkpt lat="45.86645" lon="4.69682">
        <ele>218</ele>
        <time>2018-04-15T10:01:15Z</time>
      </trkpt>
      <trkpt lat="45.86649" lon="4.69686">
        <ele>218</ele>
        <time>2018-04-15T10:01:16Z</time>
      </trkpt>
      <trkpt lat="45.86653" lon="4.69691">
        <ele>218</ele>
        <time>2018-04-15T10:01:17Z</time>
      </trkpt>
      <trkpt lat="45.86658" lon="4.69696">
        <ele>218</ele>
        <time>2018-04-15T10:01:18Z</time>
      </trkpt>
      <trkpt lat="45.86662" lon="4.697">
        <ele>218</ele>
        <time>2018-04-15T10:01:19Z</time>
      </trkpt>
      <trkpt lat="45.86667" lon="4.69705">
        <ele>218</ele>
        <time>2018-04-15T10:01:20Z</time>
      </trkpt>
      <trkpt lat="45.86671" lon="4.6971">
        <ele>217</ele>
        <time>2018-04-15T10:01:21Z</time>
      </trkpt>
      <trkpt lat="45.86676" lon="4.69715">
        <ele>217</ele>
        <time>2018-04-15T10:01:22Z</time>
      </trkpt>
      <trkpt lat="45.8668" lon="4.69719">
        <ele>217</ele>
        <time>2018-04-15T10:01:23Z</time>
      </trkpt>
      <trkpt lat="45.86685" lon="4.69724">
        <ele>217</ele>
        <time>2018-04-15T10:01:24Z</time>
      </trkpt>
      <trkpt lat="45.8669" lon="4.69728">
        <ele>217</ele>
        <time>2018-04-15T10:01:25Z</time>
      </trkpt>
      <trkpt lat="45.86694" lon="4.69732">
        <ele>217</ele>
        <time>2018-04-15T10:01:26Z</time>
      </trkpt>
      <trkpt lat="45.86699" lon="4.69737">
        <ele>217</ele>
        <time>2018-04-15T10:01:27Z</time>
      </trkpt>
      <trkpt lat="45.86703" lon="4.69741">
        <ele>217</ele>
        <time>2018-04-15T10:01:28Z</time>
      </trkpt>
      <trkpt lat="45.86707" lon="4.69746">
        <ele>217</ele>
        <time>2018-04-15T10:01:29Z</time>
      </trkpt>
      <trkpt lat="45.86712" lon="4.6975">
        <ele>217</ele>
        <time>2018-04-15T10:01:30Z</time>
      </trkpt>
      <trkpt lat="45.86716" lon="4.69754">
        <ele>217</ele>
        <time>2018-04-15T10:01:31Z</time>
      </trkpt>
      <trkpt lat="45.8672" lon="4.69758">
        <ele>217</ele>
        <time>2018-04-15T10:01:32Z</time>
      </trkpt>
      <trkpt lat="45.86724" lon="4.69763">
        <ele>217</ele>
        <time>2018-04-15T10:01:33Z</time>
      </trkpt>
      <trkpt lat="45.86729" lon="4.69767">
        <ele>217</ele>
        <time>2018-04-15T10:01:34Z</time>
      </trkpt>
      <trkpt lat="45.86733" lon="4.69771">
        <ele>217</ele>
        <time>2018-04-15T10:01:35Z</time>
      </trkpt>
      <trkpt lat="45.86737" lon="4.69775">
        <ele>217</ele>
        <time>2018-04-15T10:01:36Z</time>
      </trkpt>
      <trkpt lat="45.86741" lon="4.69778">
        <ele>217</ele>
        <time>2018-04-15T10:01:37Z</time>
      </trkpt>
      <trkpt lat="45.86746" lon="4.69783">
        <ele>217</ele>
        <time>2018-04-15T10:01:38Z</time>
      </trkpt>
      <trkpt lat="45.86751" lon="4.69788">
        <ele>217</ele>
        <time>2018-04-15T10:01:39Z</time>
      </trkpt>
      <trkpt lat="45.86754" lon="4.69792">
        <ele>217</ele>
        <time>2018-04-15T10:01:40Z</time>
      </trkpt>
      <trkpt lat="45.8676" lon="4.69797">
        <ele>217</ele>
        <time>2018-04-15T10:01:41Z</time>
      </trkpt>
      <trkpt lat="45.86764" lon="4.69802">
        <ele>217</ele>
        <time>2018-04-15T10:01:42Z</time>
      </trkpt>
      <trkpt lat="45.86769" lon="4.69807">
        <ele>217</ele>
        <time>2018-04-15T10:01:43Z</time>
      </trkpt>
      <trkpt lat="45.86774" lon="4.6981">
        <ele>217</ele>
        <time>2018-04-15T10:01:44Z</time>
      </trkpt>
      <trkpt lat="45.86779" lon="4.69816">
        <ele>217</ele>
        <time>2018-04-15T10:01:45Z</time>
      </trkpt>
      <trkpt lat="45.86784" lon="4.6982">
        <ele>217</ele>
        <time>2018-04-15T10:01:46Z</time>
      </trkpt>
      <trkpt lat="45.86789" lon="4.69824">
        <ele>217</ele>
        <time>2018-04-15T10:01:47Z</time>
      </trkpt>
      <trkpt lat="45.86794" lon="4.69828">
        <ele>217</ele>
        <time>2018-04-15T10:01:48Z</time>
      </trkpt>
      <trkpt lat="45.86799" lon="4.69832">
        <ele>217</ele>
        <time>2018-04-15T10:01:49Z</time>
      </trkpt>
      <trkpt lat="45.86804" lon="4.69836">
        <ele>217</ele>
        <time>2018-04-15T10:01:50Z</time>
      </trkpt>
      <trkpt lat="45.86808" lon="4.69839">
        <ele>217</ele>
        <time>2018-04-15T10:01:51Z</time>
      </trkpt>
      <trkpt lat="45.86812" lon="4.69843">
        <ele>217</ele>
        <time>2018-04-15T10:01:52Z</time>
      </trkpt>
      <trkpt lat="45.86818" lon="4.69846">
        <ele>217</ele>
        <time>2018-04-15T10:01:53Z</time>
      </trkpt>
      <trkpt lat="45.86823" lon="4.69849">
        <ele>217</ele>
        <time>2018-04-15T10:01:54Z</time>
      </trkpt>
      <trkpt lat="45.86828" lon="4.69854">
        <ele>217</ele>
        <time>2018-04-15T10:01:55Z</time>
      </trkpt>
      <trkpt lat="45.86832" lon="4.69858">
        <ele>217</ele>
        <time>2018-04-15T10:01:56Z</time>
      </trkpt>
      <trkpt lat="45.86837" lon="4.69863">
        <ele>217</ele>
        <time>2018-04-15T10:01:57Z</time>
      </trkpt>
      <trkpt lat="45.86842" lon="4.69868">
        <ele>217</ele>
        <time>2018-04-15T10:01:58Z</time>
      </trkpt>
      <trkpt lat="45.86847" lon="4.69872">
        <ele>217</ele>
        <time>2018-04-15T10:01:59Z</time>
      </trkpt>
      <trkpt lat="45.86852" lon="4.69876">
        <ele>217</ele>
        <time>2018-04-15T10:02:00Z</time>
      </trkpt>
      <trkpt lat="45.86857" lon="4.69881">
        <ele>217</ele>
        <time>2018-04-15T10:02:01Z</time>
      </trkpt>
      <trkpt lat="45.86862" lon="4.69885">
        <ele>217</ele>
        <time>2018-04-15T10:02:02Z</time>
      </trkpt>
      <trkpt lat="45.86867" lon="4.69888">
        <ele>217</ele>
        <time>2018-04-15T10:02:03Z</time>
      </trkpt>
      <trkpt lat="45.86872" lon="4.69893">
        <ele>217</ele>
        <time>2018-04-15T10:02:04Z</time>
      </trkpt>
      <trkpt lat="45.86876" lon="4.69897">
        <ele>217</ele>
        <time>2018-04-15T10:02:05Z</time>
      </trkpt>
      <trkpt lat="45.86882" lon="4.69907">
        <ele>217</ele>
        <time>2018-04-15T10:02:07Z</time>
      </trkpt>
      <trkpt lat="45.86887" lon="4.69912">
        <ele>217</ele>
        <time>2018-04-15T10:02:08Z</time>
      </trkpt>
      <trkpt lat="45.86892" lon="4.69915">
        <ele>217</ele>
        <time>2018-04-15T10:02:09Z</time>
      </trkpt>
      <trkpt lat="45.86897" lon="4.69918">
        <ele>217</ele>
        <time>2018-04-15T10:02:10Z</time>
      </trkpt>
      <trkpt lat="45.86901" lon="4.69923">
        <ele>217</ele>
        <time>2018-04-15T10:02:11Z</time>
      </trkpt>
      <trkpt lat="45.86907" lon="4.69927">
        <ele>217</ele>
        <time>2018-04-15T10:02:12Z</time>
      </trkpt>
      <trkpt lat="45.86912" lon="4.69931">
        <ele>217</ele>
        <time>2018-04-15T10:02:13Z</time>
      </trkpt>
      <trkpt lat="45.86918" lon="4.69935">
        <ele>217</ele>
        <time>2018-04-15T10:02:14Z</time>
      </trkpt>
      <trkpt lat="45.86924" lon="4.6994">
        <ele>217</ele>
        <time>2018-04-15T10:02:15Z</time>
      </trkpt>
      <trkpt lat="45.86929" lon="4.69944">
        <ele>217</ele>
        <time>2018-04-15T10:02:16Z</time>
      </trkpt>
      <trkpt lat="45.86934" lon="4.69949">
        <ele>217</ele>
        <time>2018-04-15T10:02:17Z</time>
      </trkpt>
      <trkpt lat="45.8694" lon="4.69953">
        <ele>217</ele>
        <time>2018-04-15T10:02:18Z</time>
      </trkpt>
      <trkpt lat="45.86945" lon="4.69957">
        <ele>217</ele>
        <time>2018-04-15T10:02:19Z</time>
      </trkpt>
      <trkpt lat="45.8695" lon="4.69961">
        <ele>217</ele>
        <time>2018-04-15T10:02:20Z</time>
      </trkpt>
      <trkpt lat="45.86956" lon="4.69965">
        <ele>217</ele>
        <time>2018-04-15T10:02:21Z</time>
      </trkpt>
      <trkpt lat="45.86962" lon="4.6997">
        <ele>217</ele>
        <time>2018-04-15T10:02:22Z</time>
      </trkpt>
      <trkpt lat="45.86967" lon="4.69975">
        <ele>217</ele>
        <time>2018-04-15T10:02:23Z</time>
      </trkpt>
      <trkpt lat="45.86971" lon="4.69981">
        <ele>217</ele>
        <time>2018-04-15T10:02:24Z</time>
      </trkpt>
      <trkpt lat="45.86974" lon="4.69988">
        <ele>217</ele>
        <time>2018-04-15T10:02:25Z</time>
      </trkpt>
      <trkpt lat="45.86977" lon="4.69995">
        <ele>217</ele>
        <time>2018-04-15T10:02:26Z</time>
      </trkpt>
      <trkpt lat="45.86981" lon="4.70001">
        <ele>217</ele>
        <time>2018-04-15T10:02:27Z</time>
      </trkpt>
      <trkpt lat="45.86986" lon="4.70005">
        <ele>217</ele>
        <time>2018-04-15T10:02:28Z</time>
      </trkpt>
      <trkpt lat="45.86992" lon="4.70006">
        <ele>217</ele>
        <time>2018-04-15T10:02:29Z</time>
      </trkpt>
      <trkpt lat="45.86997" lon="4.70006">
        <ele>217</ele>
        <time>2018-04-15T10:02:30Z</time>
      </trkpt>
      <trkpt lat="45.87003" lon="4.70006">
        <ele>217</ele>
        <time>2018-04-15T10:02:31Z</time>
      </trkpt>
      <trkpt lat="45.87008" lon="4.70005">
        <ele>217</ele>
        <time>2018-04-15T10:02:32Z</time>
      </trkpt>
      <trkpt lat="45.87013" lon="4.70007">
        <ele>217</ele>
        <time>2018-04-15T10:02:33Z</time>
      </trkpt>
      <trkpt lat="45.87018" lon="4.7001">
        <ele>217</ele>
        <time>2018-04-15T10:02:34Z</time>
      </trkpt>
      <trkpt lat="45.87023" lon="4.70015">
        <ele>217</ele>
        <time>2018-04-15T10:02:35Z</time>
      </trkpt>
      <trkpt lat="45.87027" lon="4.7002">
        <ele>217</ele>
        <time>2018-04-15T10:02:36Z</time>
      </trkpt>
      <trkpt lat="45.87031" lon="4.70025">
        <ele>217</ele>
        <time>2018-04-15T10:02:37Z</time>
      </trkpt>
      <trkpt lat="45.87034" lon="4.70031">
        <ele>217</ele>
        <time>2018-04-15T10:02:38Z</time>
      </trkpt>
      <trkpt lat="45.87038" lon="4.70037">
        <ele>217</ele>
        <time>2018-04-15T10:02:39Z</time>
      </trkpt>
      <trkpt lat="45.87042" lon="4.70044">
        <ele>217</ele>
        <time>2018-04-15T10:02:40Z</time>
      </trkpt>
      <trkpt lat="45.87045" lon="4.70049">
        <ele>217</ele>
        <time>2018-04-15T10:02:41Z</time>
      </trkpt>
      <trkpt lat="45.87049" lon="4.70056">
        <ele>217</ele>
        <time>2018-04-15T10:02:42Z</time>
      </trkpt>
      <trkpt lat="45.87052" lon="4.70062">
        <ele>217</ele>
        <time>2018-04-15T10:02:43Z</time>
      </trkpt>
      <trkpt lat="45.87054" lon="4.70069">
        <ele>217</ele>
        <time>2018-04-15T10:02:44Z</time>
      </trkpt>
      <trkpt lat="45.87057" lon="4.70075">
        <ele>217</ele>
        <time>2018-04-15T10:02:45Z</time>
      </trkpt>
      <trkpt lat="45.8706" lon="4.70082">
        <ele>217</ele>
        <time>2018-04-15T10:02:46Z</time>
      </trkpt>
      <trkpt lat="45.87064" lon="4.70088">
        <ele>217</ele>
        <time>2018-04-15T10:02:47Z</time>
      </trkpt>
      <trkpt lat="45.87069" lon="4.70094">
        <ele>217</ele>
        <time>2018-04-15T10:02:48Z</time>
      </trkpt>
      <trkpt lat="45.87072" lon="4.70101">
        <ele>217</ele>
        <time>2018-04-15T10:02:49Z</time>
      </trkpt>
      <trkpt lat="45.87075" lon="4.70107">
        <ele>217</ele>
        <time>2018-04-15T10:02:50Z</time>
      </trkpt>
      <trkpt lat="45.87079" lon="4.70114">
        <ele>217</ele>
        <time>2018-04-15T10:02:51Z</time>
      </trkpt>
      <trkpt lat="45.87082" lon="4.70121">
        <ele>217</ele>
        <time>2018-04-15T10:02:52Z</time>
      </trkpt>
      <trkpt lat="45.87086" lon="4.70127">
        <ele>217</ele>
        <time>2018-04-15T10:02:53Z</time>
      </trkpt>
      <trkpt lat="45.87089" lon="4.70133">
        <ele>217</ele>
        <time>2018-04-15T10:02:54Z</time>
      </trkpt>
      <trkpt lat="45.87093" lon="4.70139">
        <ele>217</ele>
        <time>2018-04-15T10:02:55Z</time>
      </trkpt>
      <trkpt lat="45.87096" lon="4.70146">
        <ele>217</ele>
        <time>2018-04-15T10:02:56Z</time>
      </trkpt>
      <trkpt lat="45.871" lon="4.70153">
        <ele>217</ele>
        <time>2018-04-15T10:02:57Z</time>
      </trkpt>
      <trkpt lat="45.87104" lon="4.7016">
        <ele>217</ele>
        <time>2018-04-15T10:02:58Z</time>
      </trkpt>
      <trkpt lat="45.87108" lon="4.70166">
        <ele>217</ele>
        <time>2018-04-15T10:02:59Z</time>
      </trkpt>
      <trkpt lat="45.87113" lon="4.70173">
        <ele>216</ele>
        <time>2018-04-15T10:03:00Z</time>
      </trkpt>
      <trkpt lat="45.87116" lon="4.70178">
        <ele>216</ele>
        <time>2018-04-15T10:03:01Z</time>
      </trkpt>
      <trkpt lat="45.8712" lon="4.70185">
        <ele>216</ele>
        <time>2018-04-15T10:03:02Z</time>
      </trkpt>
      <trkpt lat="45.87124" lon="4.70191">
        <ele>216</ele>
        <time>2018-04-15T10:03:03Z</time>
      </trkpt>
      <trkpt lat="45.87129" lon="4.70198">
        <ele>216</ele>
        <time>2018-04-15T10:03:04Z</time>
      </trkpt>
      <trkpt lat="45.87133" lon="4.70204">
        <ele>216</ele>
        <time>2018-04-15T10:03:05Z</time>
      </trkpt>
      <trkpt lat="45.87137" lon="4.7021">
        <ele>216</ele>
        <time>2018-04-15T10:03:06Z</time>
      </trkpt>
      <trkpt lat="45.87142" lon="4.70215">
        <ele>216</ele>
        <time>2018-04-15T10:03:07Z</time>
      </trkpt>
      <trkpt lat="45.87146" lon="4.70222">
        <ele>216</ele>
        <time>2018-04-15T10:03:08Z</time>
      </trkpt>
      <trkpt lat="45.8715" lon="4.70227">
        <ele>216</ele>
        <time>2018-04-15T10:03:09Z</time>
      </trkpt>
      <trkpt lat="45.87155" lon="4.70233">
        <ele>216</ele>
        <time>2018-04-15T10:03:10Z</time>
      </trkpt>
      <trkpt lat="45.87159" lon="4.70239">
        <ele>216</ele>
        <time>2018-04-15T10:03:11Z</time>
      </trkpt>
      <trkpt lat="45.87164" lon="4.70245">
        <ele>216</ele>
        <time>2018-04-15T10:03:12Z</time>
      </trkpt>
      <trkpt lat="45.87169" lon="4.70251">
        <ele>216</ele>
        <time>2018-04-15T10:03:13Z</time>
      </trkpt>
      <trkpt lat="45.87174" lon="4.70257">
        <ele>216</ele>
        <time>2018-04-15T10:03:14Z</time>
      </trkpt>
      <trkpt lat="45.87179" lon="4.70264">
        <ele>216</ele>
        <time>2018-04-15T10:03:15Z</time>
      </trkpt>
      <trkpt lat="45.87183" lon="4.7027">
        <ele>216</ele>
        <time>2018-04-15T10:03:16Z</time>
      </trkpt>
      <trkpt lat="45.87188" lon="4.70277">
        <ele>217</ele>
        <time>2018-04-15T10:03:17Z</time>
      </trkpt>
      <trkpt lat="45.87192" lon="4.70281">
        <ele>217</ele>
        <time>2018-04-15T10:03:18Z</time>
      </trkpt>
      <trkpt lat="45.87197" lon="4.70288">
        <ele>217</ele>
        <time>2018-04-15T10:03:19Z</time>
      </trkpt>
      <trkpt lat="45.87202" lon="4.70293">
        <ele>217</ele>
        <time>2018-04-15T10:03:20Z</time>
      </trkpt>
      <trkpt lat="45.87206" lon="4.70299">
        <ele>217</ele>
        <time>2018-04-15T10:03:21Z</time>
      </trkpt>
      <trkpt lat="45.87213" lon="4.70303">
        <ele>217</ele>
        <time>2018-04-15T10:03:22Z</time>
      </trkpt>
      <trkpt lat="45.87217" lon="4.70309">
        <ele>217</ele>
        <time>2018-04-15T10:03:23Z</time>
      </trkpt>
      <trkpt lat="45.87221" lon="4.70315">
        <ele>217</ele>
        <time>2018-04-15T10:03:24Z</time>
      </trkpt>
      <trkpt lat="45.87226" lon="4.70323">
        <ele>217</ele>
        <time>2018-04-15T10:03:25Z</time>
      </trkpt>
      <trkpt lat="45.8723" lon="4.70329">
        <ele>217</ele>
        <time>2018-04-15T10:03:26Z</time>
      </trkpt>
      <trkpt lat="45.87234" lon="4.70335">
        <ele>217</ele>
        <time>2018-04-15T10:03:27Z</time>
      </trkpt>
      <trkpt lat="45.87239" lon="4.70341">
        <ele>217</ele>
        <time>2018-04-15T10:03:28Z</time>
      </trkpt>
      <trkpt lat="45.87245" lon="4.70349">
        <ele>217</ele>
        <time>2018-04-15T10:03:29Z</time>
      </trkpt>
      <trkpt lat="45.8725" lon="4.70355">
        <ele>217</ele>
        <time>2018-04-15T10:03:30Z</time>
      </trkpt>
      <trkpt lat="45.87254" lon="4.70361">
        <ele>216</ele>
        <time>2018-04-15T10:03:31Z</time>
      </trkpt>
      <trkpt lat="45.87259" lon="4.70367">
        <ele>216</ele>
        <time>2018-04-15T10:03:32Z</time>
      </trkpt>
      <trkpt lat="45.87263" lon="4.70372">
        <ele>216</ele>
        <time>2018-04-15T10:03:33Z</time>
      </trkpt>
      <trkpt lat="45.87267" lon="4.70378">
        <ele>216</ele>
        <time>2018-04-15T10:03:34Z</time>
      </trkpt>
      <trkpt lat="45.87271" lon="4.70384">
        <ele>216</ele>
        <time>2018-04-15T10:03:35Z</time>
      </trkpt>
      <trkpt lat="45.87274" lon="4.70392">
        <ele>216</ele>
        <time>2018-04-15T10:03:36Z</time>
      </trkpt>
      <trkpt lat="45.87276" lon="4.70398">
        <ele>216</ele>
        <time>2018-04-15T10:03:37Z</time>
      </trkpt>
      <trkpt lat="45.87279" lon="4.70405">
        <ele>216</ele>
        <time>2018-04-15T10:03:38Z</time>
      </trkpt>
      <trkpt lat="45.87285" lon="4.70409">
        <ele>216</ele>
        <time>2018-04-15T10:03:39Z</time>
      </trkpt>
      <trkpt lat="45.8729" lon="4.70413">
        <ele>215</ele>
        <time>2018-04-15T10:03:40Z</time>
      </trkpt>
      <trkpt lat="45.87294" lon="4.70418">
        <ele>214</ele>
        <time>2018-04-15T10:03:41Z</time>
      </trkpt>
      <trkpt lat="45.87299" lon="4.70423">
        <ele>214</ele>
        <time>2018-04-15T10:03:42Z</time>
      </trkpt>
      <trkpt lat="45.87303" lon="4.70429">
        <ele>214</ele>
        <time>2018-04-15T10:03:43Z</time>
      </trkpt>
      <trkpt lat="45.87307" lon="4.70437">
        <ele>214</ele>
        <time>2018-04-15T10:03:44Z</time>
      </trkpt>
      <trkpt lat="45.87312" lon="4.70442">
        <ele>214</ele>
        <time>2018-04-15T10:03:45Z</time>
      </trkpt>
      <trkpt lat="45.87315" lon="4.7045">
        <ele>214</ele>
        <time>2018-04-15T10:03:46Z</time>
      </trkpt>
      <trkpt lat="45.87319" lon="4.70457">
        <ele>214</ele>
        <time>2018-04-15T10:03:47Z</time>
      </trkpt>
      <trkpt lat="45.87322" lon="4.70464">
        <ele>214</ele>
        <time>2018-04-15T10:03:48Z</time>
      </trkpt>
      <trkpt lat="45.8733" lon="4.70473">
        <ele>214</ele>
        <time>2018-04-15T10:03:49Z</time>
      </trkpt>
      <trkpt lat="45.87334" lon="4.70481">
        <ele>213</ele>
        <time>2018-04-15T10:03:50Z</time>
      </trkpt>
      <trkpt lat="45.87338" lon="4.70487">
        <ele>213</ele>
        <time>2018-04-15T10:03:51Z</time>
      </trkpt>
      <trkpt lat="45.87342" lon="4.70495">
        <ele>213</ele>
        <time>2018-04-15T10:03:52Z</time>
      </trkpt>
      <trkpt lat="45.87347" lon="4.70503">
        <ele>212</ele>
        <time>2018-04-15T10:03:53Z</time>
      </trkpt>
      <trkpt lat="45.87351" lon="4.70511">
        <ele>212</ele>
        <time>2018-04-15T10:03:54Z</time>
      </trkpt>
      <trkpt lat="45.87357" lon="4.70519">
        <ele>212</ele>
        <time>2018-04-15T10:03:55Z</time>
      </trkpt>
      <trkpt lat="45.87361" lon="4.70527">
        <ele>212</ele>
        <time>2018-04-15T10:03:56Z</time>
      </trkpt>
      <trkpt lat="45.87367" lon="4.70536">
        <ele>212</ele>
        <time>2018-04-15T10:03:57Z</time>
      </trkpt>
      <trkpt lat="45.87373" lon="4.70544">
        <ele>212</ele>
        <time>2018-04-15T10:03:58Z</time>
      </trkpt>
      <trkpt lat="45.87378" lon="4.70553">
        <ele>212</ele>
        <time>2018-04-15T10:03:59Z</time>
      </trkpt>
      <trkpt lat="45.87384" lon="4.70562">
        <ele>211</ele>
        <time>2018-04-15T10:04:00Z</time>
      </trkpt>
      <trkpt lat="45.87389" lon="4.7057">
        <ele>211</ele>
        <time>2018-04-15T10:04:01Z</time>
      </trkpt>
      <trkpt lat="45.87395" lon="4.70578">
        <ele>211</ele>
        <time>2018-04-15T10:04:02Z</time>
      </trkpt>
      <trkpt lat="45.87401" lon="4.70587">
        <ele>210</ele>
        <time>2018-04-15T10:04:03Z</time>
      </trkpt>
      <trkpt lat="45.87405" lon="4.70597">
        <ele>210</ele>
        <time>2018-04-15T10:04:04Z</time>
      </trkpt>
      <trkpt lat="45.87409" lon="4.70606">
        <ele>210</ele>
        <time>2018-04-15T10:04:05Z</time>
      </trkpt>
      <trkpt lat="45.87412" lon="4.70613">
        <ele>210</ele>
        <time>2018-04-15T10:04:06Z</time>
      </trkpt>
      <trkpt lat="45.87416" lon="4.70622">
        <ele>209</ele>
        <time>2018-04-15T10:04:07Z</time>
      </trkpt>
      <trkpt lat="45.87418" lon="4.7063">
        <ele>209</ele>
        <time>2018-04-15T10:04:08Z</time>
      </trkpt>
      <trkpt lat="45.87419" lon="4.70639">
        <ele>209</ele>
        <time>2018-04-15T10:04:09Z</time>
      </trkpt>
      <trkpt lat="45.8742" lon="4.70648">
        <ele>209</ele>
        <time>2018-04-15T10:04:10Z</time>
      </trkpt>
      <trkpt lat="45.87421" lon="4.70657">
        <ele>208</ele>
        <time>2018-04-15T10:04:11Z</time>
      </trkpt>
      <trkpt lat="45.87422" lon="4.70665">
        <ele>208</ele>
        <time>2018-04-15T10:04:12Z</time>
      </trkpt>
      <trkpt lat="45.87423" lon="4.70674">
        <ele>208</ele>
        <time>2018-04-15T10:04:13Z</time>
      </trkpt>
      <trkpt lat="45.87424" lon="4.70682">
        <ele>209</ele>
        <time>2018-04-15T10:04:14Z</time>
      </trkpt>
      <trkpt lat="45.87426" lon="4.70691">
        <ele>209</ele>
        <time>2018-04-15T10:04:15Z</time>
      </trkpt>
      <trkpt lat="45.87427" lon="4.70698">
        <ele>209</ele>
        <time>2018-04-15T10:04:16Z</time>
      </trkpt>
      <trkpt lat="45.87428" lon="4.70706">
        <ele>209</ele>
        <time>2018-04-15T10:04:17Z</time>
      </trkpt>
      <trkpt lat="45.87429" lon="4.70714">
        <ele>209</ele>
        <time>2018-04-15T10:04:18Z</time>
      </trkpt>
      <trkpt lat="45.87431" lon="4.70722">
        <ele>209</ele>
        <time>2018-04-15T10:04:19Z</time>
      </trkpt>
      <trkpt lat="45.87431" lon="4.7073">
        <ele>209</ele>
        <time>2018-04-15T10:04:20Z</time>
      </trkpt>
      <trkpt lat="45.87432" lon="4.70736">
        <ele>209</ele>
        <time>2018-04-15T10:04:21Z</time>
      </trkpt>
      <trkpt lat="45.87433" lon="4.70743">
        <ele>209</ele>
        <time>2018-04-15T10:04:22Z</time>
      </trkpt>
      <trkpt lat="45.87433" lon="4.70751">
        <ele>209</ele>
        <time>2018-04-15T10:04:23Z</time>
      </trkpt>
      <trkpt lat="45.87435" lon="4.70758">
        <ele>209</ele>
        <time>2018-04-15T10:04:24Z</time>
      </trkpt>
      <trkpt lat="45.87435" lon="4.70764">
        <ele>210</ele>
        <time>2018-04-15T10:04:25Z</time>
      </trkpt>
      <trkpt lat="45.87436" lon="4.7077">
        <ele>210</ele>
        <time>2018-04-15T10:04:26Z</time>
      </trkpt>
      <trkpt lat="45.87438" lon="4.70777">
        <ele>210</ele>
        <time>2018-04-15T10:04:27Z</time>
      </trkpt>
      <trkpt lat="45.87439" lon="4.70784">
        <ele>210</ele>
        <time>2018-04-15T10:04:28Z</time>
      </trkpt>
      <trkpt lat="45.87441" lon="4.70791">
        <ele>211</ele>
        <time>2018-04-15T10:04:29Z</time>
      </trkpt>
      <trkpt lat="45.87443" lon="4.70798">
        <ele>211</ele>
        <time>2018-04-15T10:04:30Z</time>
      </trkpt>
      <trkpt lat="45.87445" lon="4.70804">
        <ele>211</ele>
        <time>2018-04-15T10:04:31Z</time>
      </trkpt>
      <trkpt lat="45.87447" lon="4.70811">
        <ele>211</ele>
        <time>2018-04-15T10:04:32Z</time>
      </trkpt>
      <trkpt lat="45.87449" lon="4.70817">
        <ele>211</ele>
        <time>2018-04-15T10:04:33Z</time>
      </trkpt>
      <trkpt lat="45.87451" lon="4.70824">
        <ele>211</ele>
        <time>2018-04-15T10:04:34Z</time>
      </trkpt>
      <trkpt lat="45.87452" lon="4.70831">
        <ele>211</ele>
        <time>2018-04-15T10:04:35Z</time>
      </trkpt>
      <trkpt lat="45.87453" lon="4.70837">
        <ele>213</ele>
        <time>2018-04-15T10:04:36Z</time>
      </trkpt>
      <trkpt lat="45.87455" lon="4.70843">
        <ele>213</ele>
        <time>2018-04-15T10:04:37Z</time>
      </trkpt>
      <trkpt lat="45.87458" lon="4.70855">
        <ele>213</ele>
        <time>2018-04-15T10:04:39Z</time>
      </trkpt>
      <trkpt lat="45.8746" lon="4.70862">
        <ele>213</ele>
        <time>2018-04-15T10:04:40Z</time>
      </trkpt>
      <trkpt lat="45.87462" lon="4.7087">
        <ele>213</ele>
        <time>2018-04-15T10:04:41Z</time>
      </trkpt>
      <trkpt lat="45.87464" lon="4.70877">
        <ele>213</ele>
        <time>2018-04-15T10:04:42Z</time>
      </trkpt>
      <trkpt lat="45.87465" lon="4.70884">
        <ele>214</ele>
        <time>2018-04-15T10:04:43Z</time>
      </trkpt>
      <trkpt lat="45.87466" lon="4.70891">
        <ele>214</ele>
        <time>2018-04-15T10:04:44Z</time>
      </trkpt>
      <trkpt lat="45.87467" lon="4.70898">
        <ele>214</ele>
        <time>2018-04-15T10:04:45Z</time>
      </trkpt>
      <trkpt lat="45.87469" lon="4.70904">
        <ele>214</ele>
        <time>2018-04-15T10:04:46Z</time>
      </trkpt>
      <trkpt lat="45.8747" lon="4.70912">
        <ele>214</ele>
        <time>2018-04-15T10:04:47Z</time>
      </trkpt>
      <trkpt lat="45.87472" lon="4.70919">
        <ele>215</ele>
        <time>2018-04-15T10:04:48Z</time>
      </trkpt>
      <trkpt lat="45.87473" lon="4.70926">
        <ele>215</ele>
        <time>2018-04-15T10:04:49Z</time>
      </trkpt>
      <trkpt lat="45.87476" lon="4.70934">
        <ele>215</ele>
        <time>2018-04-15T10:04:50Z</time>
      </trkpt>
      <trkpt lat="45.87478" lon="4.70941">
        <ele>215</ele>
        <time>2018-04-15T10:04:51Z</time>
      </trkpt>
      <trkpt lat="45.87479" lon="4.70947">
        <ele>215</ele>
        <time>2018-04-15T10:04:52Z</time>
      </trkpt>
      <trkpt lat="45.87481" lon="4.70957">
        <ele>215</ele>
        <time>2018-04-15T10:04:54Z</time>
      </trkpt>
      <trkpt lat="45.87483" lon="4.70963">
        <ele>215</ele>
        <time>2018-04-15T10:04:55Z</time>
      </trkpt>
      <trkpt lat="45.87484" lon="4.70969">
        <ele>215</ele>
        <time>2018-04-15T10:04:56Z</time>
      </trkpt>
      <trkpt lat="45.87487" lon="4.70975">
        <ele>215</ele>
        <time>2018-04-15T10:04:57Z</time>
      </trkpt>
      <trkpt lat="45.87491" lon="4.70982">
        <ele>215</ele>
        <time>2018-04-15T10:04:58Z</time>
      </trkpt>
      <trkpt lat="45.87493" lon="4.70987">
        <ele>214</ele>
        <time>2018-04-15T10:04:59Z</time>
      </trkpt>
      <trkpt lat="45.87496" lon="4.70993">
        <ele>214</ele>
        <time>2018-04-15T10:05:00Z</time>
      </trkpt>
      <trkpt lat="45.87499" lon="4.70997">
        <ele>214</ele>
        <time>2018-04-15T10:05:01Z</time>
      </trkpt>
      <trkpt lat="45.87503" lon="4.71002">
        <ele>214</ele>
        <time>2018-04-15T10:05:02Z</time>
      </trkpt>
      <trkpt lat="45.87507" lon="4.71008">
        <ele>214</ele>
        <time>2018-04-15T10:05:03Z</time>
      </trkpt>
      <trkpt lat="45.87512" lon="4.71017">
        <ele>215</ele>
        <time>2018-04-15T10:05:05Z</time>
      </trkpt>
      <trkpt lat="45.87515" lon="4.71021">
        <ele>215</ele>
        <time>2018-04-15T10:05:06Z</time>
      </trkpt>
      <trkpt lat="45.87519" lon="4.71028">
        <ele>215</ele>
        <time>2018-04-15T10:05:08Z</time>
      </trkpt>
      <trkpt lat="45.87522" lon="4.71033">
        <ele>215</ele>
        <time>2018-04-15T10:05:09Z</time>
      </trkpt>
      <trkpt lat="45.87528" lon="4.71038">
        <ele>215</ele>
        <time>2018-04-15T10:05:10Z</time>
      </trkpt>
      <trkpt lat="45.8753" lon="4.71041">
        <ele>215</ele>
        <time>2018-04-15T10:05:11Z</time>
      </trkpt>
      <trkpt lat="45.87535" lon="4.7105">
        <ele>215</ele>
        <time>2018-04-15T10:05:14Z</time>
      </trkpt>
      <trkpt lat="45.87537" lon="4.71053">
        <ele>215</ele>
        <time>2018-04-15T10:05:15Z</time>
      </trkpt>
      <trkpt lat="45.87542" lon="4.71061">
        <ele>216</ele>
        <time>2018-04-15T10:05:18Z</time>
      </trkpt>
      <trkpt lat="45.87544" lon="4.71064">
        <ele>216</ele>
        <time>2018-04-15T10:05:19Z</time>
      </trkpt>
      <trkpt lat="45.8755" lon="4.71072">
        <ele>216</ele>
        <time>2018-04-15T10:05:22Z</time>
      </trkpt>
      <trkpt lat="45.87552" lon="4.71074">
        <ele>216</ele>
        <time>2018-04-15T10:05:23Z</time>
      </trkpt>
      <trkpt lat="45.87559" lon="4.7108">
        <ele>216</ele>
        <time>2018-04-15T10:05:27Z</time>
      </trkpt>
      <trkpt lat="45.87561" lon="4.71081">
        <ele>216</ele>
        <time>2018-04-15T10:05:28Z</time>
      </trkpt>
      <trkpt lat="45.87567" lon="4.71087">
        <ele>218</ele>
        <time>2018-04-15T10:06:12Z</time>
      </trkpt>
      <trkpt lat="45.87569" lon="4.71088">
        <ele>218</ele>
        <time>2018-04-15T10:06:13Z</time>
      </trkpt>
      <trkpt lat="45.87577" lon="4.71092">
        <ele>217</ele>
        <time>2018-04-15T10:06:17Z</time>
      </trkpt>
      <trkpt lat="45.87579" lon="4.71093">
        <ele>217</ele>
        <time>2018-04-15T10:06:18Z</time>
      </trkpt>
      <trkpt lat="45.87585" lon="4.71095">
        <ele>218</ele>
        <time>2018-04-15T10:06:20Z</time>
      </trkpt>
      <trkpt lat="45.87588" lon="4.71095">
        <ele>218</ele>
        <time>2018-04-15T10:06:21Z</time>
      </trkpt>
      <trkpt lat="45.87595" lon="4.71093">
        <ele>219</ele>
        <time>2018-04-15T10:06:23Z</time>
      </trkpt>
      <trkpt lat="45.87605" lon="4.71089">
        <ele>219</ele>
        <time>2018-04-15T10:06:24Z</time>
      </trkpt>
      <trkpt lat="45.87613" lon="4.71086">
        <ele>219</ele>
        <time>2018-04-15T10:06:27Z</time>
      </trkpt>
      <trkpt lat="45.87615" lon="4.71085">
        <ele>219</ele>
        <time>2018-04-15T10:06:28Z</time>
      </trkpt>
      <trkpt lat="45.87623" lon="4.71082">
        <ele>218</ele>
        <time>2018-04-15T10:06:29Z</time>
      </trkpt>
      <trkpt lat="45.87627" lon="4.7108">
        <ele>218</ele>
        <time>2018-04-15T10:06:30Z</time>
      </trkpt>
      <trkpt lat="45.87631" lon="4.71078">
        <ele>218</ele>
        <time>2018-04-15T10:06:31Z</time>
      </trkpt>
      <trkpt lat="45.87635" lon="4.71076">
        <ele>218</ele>
        <time>2018-04-15T10:06:32Z</time>
      </trkpt>
      <trkpt lat="45.8764" lon="4.71073">
        <ele>218</ele>
        <time>2018-04-15T10:06:33Z</time>
      </trkpt>
      <trkpt lat="45.87644" lon="4.71071">
        <ele>218</ele>
        <time>2018-04-15T10:06:34Z</time>
      </trkpt>
      <trkpt lat="45.8765" lon="4.71069">
        <ele>218</ele>
        <time>2018-04-15T10:06:35Z</time>
      </trkpt>
      <trkpt lat="45.87654" lon="4.71068">
        <ele>218</ele>
        <time>2018-04-15T10:06:36Z</time>
      </trkpt>
      <trkpt lat="45.87658" lon="4.71066">
        <ele>218</ele>
        <time>2018-04-15T10:06:37Z</time>
      </trkpt>
      <trkpt lat="45.87664" lon="4.71063">
        <ele>218</ele>
        <time>2018-04-15T10:06:38Z</time>
      </trkpt>
      <trkpt lat="45.87669" lon="4.71061">
        <ele>220</ele>
        <time>2018-04-15T10:06:39Z</time>
      </trkpt>
      <trkpt lat="45.87674" lon="4.71059">
        <ele>220</ele>
        <time>2018-04-15T10:06:40Z</time>
      </trkpt>
      <trkpt lat="45.87682" lon="4.71056">
        <ele>220</ele>
        <time>2018-04-15T10:06:42Z</time>
      </trkpt>
      <trkpt lat="45.87686" lon="4.71054">
        <ele>220</ele>
        <time>2018-04-15T10:06:43Z</time>
      </trkpt>
      <trkpt lat="45.87694" lon="4.7105">
        <ele>220</ele>
        <time>2018-04-15T10:06:45Z</time>
      </trkpt>
      <trkpt lat="45.87698" lon="4.7105">
        <ele>220</ele>
        <time>2018-04-15T10:06:46Z</time>
      </trkpt>
      <trkpt lat="45.87703" lon="4.71048">
        <ele>220</ele>
        <time>2018-04-15T10:06:47Z</time>
      </trkpt>
      <trkpt lat="45.87707" lon="4.71047">
        <ele>220</ele>
        <time>2018-04-15T10:06:48Z</time>
      </trkpt>
      <trkpt lat="45.87714" lon="4.71044">
        <ele>220</ele>
        <time>2018-04-15T10:06:50Z</time>
      </trkpt>
      <trkpt lat="45.87718" lon="4.71043">
        <ele>220</ele>
        <time>2018-04-15T10:06:51Z</time>
      </trkpt>
      <trkpt lat="45.87725" lon="4.7104">
        <ele>220</ele>
        <time>2018-04-15T10:06:53Z</time>
      </trkpt>
      <trkpt lat="45.87727" lon="4.7104">
        <ele>220</ele>
        <time>2018-04-15T10:06:54Z</time>
      </trkpt>
      <trkpt lat="45.87732" lon="4.71038">
        <ele>220</ele>
        <time>2018-04-15T10:06:55Z</time>
      </trkpt>
      <trkpt lat="45.87736" lon="4.71037">
        <ele>220</ele>
        <time>2018-04-15T10:06:56Z</time>
      </trkpt>
      <trkpt lat="45.87745" lon="4.71033">
        <ele>220</ele>
        <time>2018-04-15T10:06:58Z</time>
      </trkpt>
      <trkpt lat="45.87749" lon="4.71032">
        <ele>220</ele>
        <time>2018-04-15T10:06:59Z</time>
      </trkpt>
      <trkpt lat="45.87754" lon="4.7103">
        <ele>222</ele>
        <time>2018-04-15T10:07:00Z</time>
      </trkpt>
      <trkpt lat="45.8776" lon="4.71027">
        <ele>222</ele>
        <time>2018-04-15T10:07:01Z</time>
      </trkpt>
      <trkpt lat="45.87768" lon="4.71025">
        <ele>222</ele>
        <time>2018-04-15T10:07:03Z</time>
      </trkpt>
      <trkpt lat="45.87771" lon="4.71023">
        <ele>222</ele>
        <time>2018-04-15T10:07:04Z</time>
      </trkpt>
      <trkpt lat="45.8778" lon="4.7102">
        <ele>222</ele>
        <time>2018-04-15T10:07:06Z</time>
      </trkpt>
      <trkpt lat="45.87783" lon="4.71019">
        <ele>223</ele>
        <time>2018-04-15T10:07:07Z</time>
      </trkpt>
      <trkpt lat="45.87787" lon="4.71017">
        <ele>223</ele>
        <time>2018-04-15T10:07:08Z</time>
      </trkpt>
      <trkpt lat="45.87792" lon="4.71016">
        <ele>223</ele>
        <time>2018-04-15T10:07:09Z</time>
      </trkpt>
      <trkpt lat="45.878" lon="4.71012">
        <ele>223</ele>
        <time>2018-04-15T10:07:11Z</time>
      </trkpt>
      <trkpt lat="45.87804" lon="4.71011">
        <ele>223</ele>
        <time>2018-04-15T10:07:12Z</time>
      </trkpt>
      <trkpt lat="45.87812" lon="4.71008">
        <ele>223</ele>
        <time>2018-04-15T10:07:14Z</time>
      </trkpt>
      <trkpt lat="45.87815" lon="4.71006">
        <ele>223</ele>
        <time>2018-04-15T10:07:15Z</time>
      </trkpt>
      <trkpt lat="45.87823" lon="4.71004">
        <ele>224</ele>
        <time>2018-04-15T10:07:17Z</time>
      </trkpt>
      <trkpt lat="45.87827" lon="4.71003">
        <ele>224</ele>
        <time>2018-04-15T10:07:18Z</time>
      </trkpt>
      <trkpt lat="45.87835" lon="4.70999">
        <ele>224</ele>
        <time>2018-04-15T10:07:20Z</time>
      </trkpt>
      <trkpt lat="45.87839" lon="4.70998">
        <ele>224</ele>
        <time>2018-04-15T10:07:21Z</time>
      </trkpt>
      <trkpt lat="45.87846" lon="4.70994">
        <ele>224</ele>
        <time>2018-04-15T10:07:23Z</time>
      </trkpt>
      <trkpt lat="45.8785" lon="4.70992">
        <ele>224</ele>
        <time>2018-04-15T10:07:24Z</time>
      </trkpt>
      <trkpt lat="45.87857" lon="4.70988">
        <ele>224</ele>
        <time>2018-04-15T10:07:26Z</time>
      </trkpt>
      <trkpt lat="45.87861" lon="4.70985">
        <ele>224</ele>
        <time>2018-04-15T10:07:27Z</time>
      </trkpt>
      <trkpt lat="45.87868" lon="4.70979">
        <ele>225</ele>
        <time>2018-04-15T10:07:29Z</time>
      </trkpt>
      <trkpt lat="45.87872" lon="4.70977">
        <ele>225</ele>
        <time>2018-04-15T10:07:30Z</time>
      </trkpt>
      <trkpt lat="45.87879" lon="4.70972">
        <ele>225</ele>
        <time>2018-04-15T10:07:32Z</time>
      </trkpt>
      <trkpt lat="45.87883" lon="4.70969">
        <ele>225</ele>
        <time>2018-04-15T10:07:33Z</time>
      </trkpt>
      <trkpt lat="45.8789" lon="4.70965">
        <ele>225</ele>
        <time>2018-04-15T10:07:35Z</time>
      </trkpt>
      <trkpt lat="45.87893" lon="4.70962">
        <ele>225</ele>
        <time>2018-04-15T10:07:36Z</time>
      </trkpt>
      <trkpt lat="45.87901" lon="4.70958">
        <ele>225</ele>
        <time>2018-04-15T10:07:38Z</time>
      </trkpt>
      <trkpt lat="45.87904" lon="4.70955">
        <ele>225</ele>
        <time>2018-04-15T10:07:39Z</time>
      </trkpt>
      <trkpt lat="45.87912" lon="4.7095">
        <ele>225</ele>
        <time>2018-04-15T10:07:41Z</time>
      </trkpt>
      <trkpt lat="45.87916" lon="4.70948">
        <ele>225</ele>
        <time>2018-04-15T10:07:42Z</time>
      </trkpt>
      <trkpt lat="45.87924" lon="4.70944">
        <ele>225</ele>
        <time>2018-04-15T10:07:44Z</time>
      </trkpt>
      <trkpt lat="45.87928" lon="4.70941">
        <ele>225</ele>
        <time>2018-04-15T10:07:45Z</time>
      </trkpt>
      <trkpt lat="45.87934" lon="4.70939">
        <ele>225</ele>
        <time>2018-04-15T10:07:46Z</time>
      </trkpt>
      <trkpt lat="45.87937" lon="4.70935">
        <ele>225</ele>
        <time>2018-04-15T10:07:47Z</time>
      </trkpt>
      <trkpt lat="45.87946" lon="4.7093">
        <ele>225</ele>
        <time>2018-04-15T10:07:49Z</time>
      </trkpt>
      <trkpt lat="45.87949" lon="4.70927">
        <ele>225</ele>
        <time>2018-04-15T10:07:50Z</time>
      </trkpt>
      <trkpt lat="45.87956" lon="4.70922">
        <ele>225</ele>
        <time>2018-04-15T10:07:52Z</time>
      </trkpt>
      <trkpt lat="45.8796" lon="4.7092">
        <ele>225</ele>
        <time>2018-04-15T10:07:53Z</time>
      </trkpt>
      <trkpt lat="45.87966" lon="4.70912">
        <ele>225</ele>
        <time>2018-04-15T10:07:55Z</time>
      </trkpt>
      <trkpt lat="45.87967" lon="4.70911">
        <ele>225</ele>
        <time>2018-04-15T10:07:56Z</time>
      </trkpt>
      <trkpt lat="45.87972" lon="4.70908">
        <ele>225</ele>
        <time>2018-04-15T10:07:58Z</time>
      </trkpt>
      <trkpt lat="45.8798" lon="4.70904">
        <ele>225</ele>
        <time>2018-04-15T10:07:59Z</time>
      </trkpt>
      <trkpt lat="45.87988" lon="4.709">
        <ele>225</ele>
        <time>2018-04-15T10:08:01Z</time>
      </trkpt>
      <trkpt lat="45.87992" lon="4.70898">
        <ele>225</ele>
        <time>2018-04-15T10:08:02Z</time>
      </trkpt>
      <trkpt lat="45.87997" lon="4.70894">
        <ele>225</ele>
        <time>2018-04-15T10:08:04Z</time>
      </trkpt>
      <trkpt lat="45.88002" lon="4.70891">
        <ele>226</ele>
        <time>2018-04-15T10:08:05Z</time>
      </trkpt>
      <trkpt lat="45.88009" lon="4.70886">
        <ele>226</ele>
        <time>2018-04-15T10:08:07Z</time>
      </trkpt>
      <trkpt lat="45.88012" lon="4.70884">
        <ele>226</ele>
        <time>2018-04-15T10:08:08Z</time>
      </trkpt>
      <trkpt lat="45.8802" lon="4.7088">
        <ele>226</ele>
        <time>2018-04-15T10:08:10Z</time>
      </trkpt>
      <trkpt lat="45.88023" lon="4.70878">
        <ele>226</ele>
        <time>2018-04-15T10:08:11Z</time>
      </trkpt>
      <trkpt lat="45.8803" lon="4.70873">
        <ele>226</ele>
        <time>2018-04-15T10:08:13Z</time>
      </trkpt>
      <trkpt lat="45.88033" lon="4.70871">
        <ele>226</ele>
        <time>2018-04-15T10:08:14Z</time>
      </trkpt>
      <trkpt lat="45.88039" lon="4.70867">
        <ele>227</ele>
        <time>2018-04-15T10:08:16Z</time>
      </trkpt>
      <trkpt lat="45.88043" lon="4.70865">
        <ele>227</ele>
        <time>2018-04-15T10:08:17Z</time>
      </trkpt>
      <trkpt lat="45.8805" lon="4.70861">
        <ele>227</ele>
        <time>2018-04-15T10:08:19Z</time>
      </trkpt>
      <trkpt lat="45.88053" lon="4.70858">
        <ele>227</ele>
        <time>2018-04-15T10:08:20Z</time>
      </trkpt>
      <trkpt lat="45.8806" lon="4.70854">
        <ele>227</ele>
        <time>2018-04-15T10:08:22Z</time>
      </trkpt>
      <trkpt lat="45.88063" lon="4.70851">
        <ele>227</ele>
        <time>2018-04-15T10:08:23Z</time>
      </trkpt>
      <trkpt lat="45.88069" lon="4.70846">
        <ele>228</ele>
        <time>2018-04-15T10:08:25Z</time>
      </trkpt>
      <trkpt lat="45.88072" lon="4.70844">
        <ele>228</ele>
        <time>2018-04-15T10:08:26Z</time>
      </trkpt>
      <trkpt lat="45.8808" lon="4.7084">
        <ele>228</ele>
        <time>2018-04-15T10:08:28Z</time>
      </trkpt>
      <trkpt lat="45.88083" lon="4.70839">
        <ele>228</ele>
        <time>2018-04-15T10:08:29Z</time>
      </trkpt>
      <trkpt lat="45.88091" lon="4.7084">
        <ele>229</ele>
        <time>2018-04-15T10:08:31Z</time>
      </trkpt>
      <trkpt lat="45.88096" lon="4.70842">
        <ele>229</ele>
        <time>2018-04-15T10:08:32Z</time>
      </trkpt>
      <trkpt lat="45.88099" lon="4.70847">
        <ele>229</ele>
        <time>2018-04-15T10:08:33Z</time>
      </trkpt>
      <trkpt lat="45.88104" lon="4.70849">
        <ele>229</ele>
        <time>2018-04-15T10:08:34Z</time>
      </trkpt>
      <trkpt lat="45.88113" lon="4.70846">
        <ele>229</ele>
        <time>2018-04-15T10:08:36Z</time>
      </trkpt>
      <trkpt lat="45.88116" lon="4.70841">
        <ele>229</ele>
        <time>2018-04-15T10:08:37Z</time>
      </trkpt>
      <trkpt lat="45.8812" lon="4.70832">
        <ele>230</ele>
        <time>2018-04-15T10:08:39Z</time>
      </trkpt>
      <trkpt lat="45.88122" lon="4.70828">
        <ele>230</ele>
        <time>2018-04-15T10:08:40Z</time>
      </trkpt>
      <trkpt lat="45.88126" lon="4.70817">
        <ele>230</ele>
        <time>2018-04-15T10:08:43Z</time>
      </trkpt>
      <trkpt lat="45.88127" lon="4.70815">
        <ele>230</ele>
        <time>2018-04-15T10:08:44Z</time>
      </trkpt>
      <trkpt lat="45.88133" lon="4.70809">
        <ele>231</ele>
        <time>2018-04-15T10:08:45Z</time>
      </trkpt>
      <trkpt lat="45.88136" lon="4.70807">
        <ele>231</ele>
        <time>2018-04-15T10:08:46Z</time>
      </trkpt>
      <trkpt lat="45.88142" lon="4.708">
        <ele>231</ele>
        <time>2018-04-15T10:08:48Z</time>
      </trkpt>
      <trkpt lat="45.88143" lon="4.70799">
        <ele>231</ele>
        <time>2018-04-15T10:08:49Z</time>
      </trkpt>
      <trkpt lat="45.88148" lon="4.70795">
        <ele>231</ele>
        <time>2018-04-15T10:08:50Z</time>
      </trkpt>
      <trkpt lat="45.88151" lon="4.70792">
        <ele>231</ele>
        <time>2018-04-15T10:08:51Z</time>
      </trkpt>
      <trkpt lat="45.88158" lon="4.70786">
        <ele>231</ele>
        <time>2018-04-15T10:08:53Z</time>
      </trkpt>
      <trkpt lat="45.88161" lon="4.70783">
        <ele>231</ele>
        <time>2018-04-15T10:08:54Z</time>
      </trkpt>
      <trkpt lat="45.88169" lon="4.70779">
        <ele>232</ele>
        <time>2018-04-15T10:08:56Z</time>
      </trkpt>
      <trkpt lat="45.88172" lon="4.70776">
        <ele>232</ele>
        <time>2018-04-15T10:08:57Z</time>
      </trkpt>
      <trkpt lat="45.88178" lon="4.70772">
        <ele>232</ele>
        <time>2018-04-15T10:08:59Z</time>
      </trkpt>
      <trkpt lat="45.88183" lon="4.70769">
        <ele>232</ele>
        <time>2018-04-15T10:09:00Z</time>
      </trkpt>
      <trkpt lat="45.8819" lon="4.70765">
        <ele>232</ele>
        <time>2018-04-15T10:09:02Z</time>
      </trkpt>
      <trkpt lat="45.88194" lon="4.70762">
        <ele>232</ele>
        <time>2018-04-15T10:09:03Z</time>
      </trkpt>
      <trkpt lat="45.882" lon="4.70758">
        <ele>232</ele>
        <time>2018-04-15T10:09:05Z</time>
      </trkpt>
      <trkpt lat="45.88204" lon="4.70755">
        <ele>232</ele>
        <time>2018-04-15T10:09:06Z</time>
      </trkpt>
      <trkpt lat="45.8821" lon="4.70751">
        <ele>232</ele>
        <time>2018-04-15T10:09:08Z</time>
      </trkpt>
      <trkpt lat="45.88213" lon="4.70748">
        <ele>235</ele>
        <time>2018-04-15T10:09:09Z</time>
      </trkpt>
      <trkpt lat="45.88221" lon="4.70742">
        <ele>235</ele>
        <time>2018-04-15T10:09:12Z</time>
      </trkpt>
      <trkpt lat="45.88226" lon="4.70739">
        <ele>235</ele>
        <time>2018-04-15T10:09:13Z</time>
      </trkpt>
      <trkpt lat="45.88233" lon="4.70733">
        <ele>235</ele>
        <time>2018-04-15T10:09:15Z</time>
      </trkpt>
      <trkpt lat="45.88236" lon="4.7073">
        <ele>235</ele>
        <time>2018-04-15T10:09:16Z</time>
      </trkpt>
      <trkpt lat="45.88243" lon="4.70724">
        <ele>235</ele>
        <time>2018-04-15T10:09:18Z</time>
      </trkpt>
      <trkpt lat="45.88247" lon="4.70721">
        <ele>235</ele>
        <time>2018-04-15T10:09:19Z</time>
      </trkpt>
      <trkpt lat="45.88251" lon="4.70718">
        <ele>234</ele>
        <time>2018-04-15T10:09:20Z</time>
      </trkpt>
      <trkpt lat="45.88256" lon="4.70716">
        <ele>234</ele>
        <time>2018-04-15T10:09:21Z</time>
      </trkpt>
      <trkpt lat="45.88264" lon="4.70712">
        <ele>234</ele>
        <time>2018-04-15T10:09:23Z</time>
      </trkpt>
      <trkpt lat="45.88268" lon="4.70709">
        <ele>234</ele>
        <time>2018-04-15T10:09:24Z</time>
      </trkpt>
      <trkpt lat="45.88272" lon="4.70705">
        <ele>235</ele>
        <time>2018-04-15T10:09:25Z</time>
      </trkpt>
      <trkpt lat="45.88276" lon="4.70702">
        <ele>235</ele>
        <time>2018-04-15T10:09:26Z</time>
      </trkpt>
      <trkpt lat="45.88281" lon="4.70699">
        <ele>235</ele>
        <time>2018-04-15T10:09:27Z</time>
      </trkpt>
      <trkpt lat="45.88285" lon="4.70696">
        <ele>235</ele>
        <time>2018-04-15T10:09:28Z</time>
      </trkpt>
      <trkpt lat="45.88289" lon="4.70693">
        <ele>235</ele>
        <time>2018-04-15T10:09:29Z</time>
      </trkpt>
      <trkpt lat="45.88294" lon="4.7069">
        <ele>235</ele>
        <time>2018-04-15T10:09:30Z</time>
      </trkpt>
      <trkpt lat="45.88298" lon="4.70687">
        <ele>235</ele>
        <time>2018-04-15T10:09:31Z</time>
      </trkpt>
      <trkpt lat="45.88302" lon="4.70683">
        <ele>235</ele>
        <time>2018-04-15T10:09:32Z</time>
      </trkpt>
      <trkpt lat="45.88306" lon="4.7068">
        <ele>235</ele>
        <time>2018-04-15T10:09:33Z</time>
      </trkpt>
      <trkpt lat="45.8831" lon="4.70675">
        <ele>235</ele>
        <time>2018-04-15T10:09:34Z</time>
      </trkpt>
      <trkpt lat="45.88313" lon="4.70672">
        <ele>235</ele>
        <time>2018-04-15T10:09:35Z</time>
      </trkpt>
      <trkpt lat="45.88317" lon="4.70668">
        <ele>235</ele>
        <time>2018-04-15T10:09:36Z</time>
      </trkpt>
      <trkpt lat="45.88324" lon="4.7066">
        <ele>237</ele>
        <time>2018-04-15T10:09:38Z</time>
      </trkpt>
      <trkpt lat="45.88328" lon="4.70658">
        <ele>237</ele>
        <time>2018-04-15T10:09:39Z</time>
      </trkpt>
      <trkpt lat="45.88335" lon="4.70651">
        <ele>235</ele>
        <time>2018-04-15T10:09:41Z</time>
      </trkpt>
      <trkpt lat="45.88339" lon="4.70649">
        <ele>235</ele>
        <time>2018-04-15T10:09:42Z</time>
      </trkpt>
      <trkpt lat="45.88343" lon="4.70646">
        <ele>235</ele>
        <time>2018-04-15T10:09:43Z</time>
      </trkpt>
      <trkpt lat="45.88347" lon="4.70641">
        <ele>235</ele>
        <time>2018-04-15T10:09:44Z</time>
      </trkpt>
      <trkpt lat="45.88351" lon="4.70637">
        <ele>235</ele>
        <time>2018-04-15T10:09:45Z</time>
      </trkpt>
      <trkpt lat="45.88355" lon="4.70633">
        <ele>235</ele>
        <time>2018-04-15T10:09:46Z</time>
      </trkpt>
      <trkpt lat="45.8836" lon="4.7063">
        <ele>235</ele>
        <time>2018-04-15T10:09:47Z</time>
      </trkpt>
      <trkpt lat="45.88365" lon="4.70627">
        <ele>235</ele>
        <time>2018-04-15T10:09:48Z</time>
      </trkpt>
      <trkpt lat="45.88369" lon="4.70624">
        <ele>235</ele>
        <time>2018-04-15T10:09:49Z</time>
      </trkpt>
      <trkpt lat="45.88374" lon="4.70621">
        <ele>235</ele>
        <time>2018-04-15T10:09:50Z</time>
      </trkpt>
      <trkpt lat="45.8838" lon="4.70617">
        <ele>235</ele>
        <time>2018-04-15T10:09:51Z</time>
      </trkpt>
      <trkpt lat="45.88385" lon="4.70613">
        <ele>235</ele>
        <time>2018-04-15T10:09:52Z</time>
      </trkpt>
      <trkpt lat="45.8839" lon="4.70609">
        <ele>235</ele>
        <time>2018-04-15T10:09:53Z</time>
      </trkpt>
      <trkpt lat="45.88395" lon="4.70605">
        <ele>235</ele>
        <time>2018-04-15T10:09:54Z</time>
      </trkpt>
      <trkpt lat="45.88399" lon="4.70601">
        <ele>235</ele>
        <time>2018-04-15T10:09:55Z</time>
      </trkpt>
      <trkpt lat="45.88404" lon="4.70597">
        <ele>235</ele>
        <time>2018-04-15T10:09:56Z</time>
      </trkpt>
      <trkpt lat="45.88409" lon="4.70594">
        <ele>235</ele>
        <time>2018-04-15T10:09:57Z</time>
      </trkpt>
      <trkpt lat="45.88415" lon="4.70589">
        <ele>235</ele>
        <time>2018-04-15T10:09:58Z</time>
      </trkpt>
      <trkpt lat="45.8842" lon="4.70585">
        <ele>234</ele>
        <time>2018-04-15T10:09:59Z</time>
      </trkpt>
      <trkpt lat="45.88425" lon="4.70581">
        <ele>235</ele>
        <time>2018-04-15T10:10:00Z</time>
      </trkpt>
      <trkpt lat="45.88429" lon="4.70577">
        <ele>235</ele>
        <time>2018-04-15T10:10:01Z</time>
      </trkpt>
      <trkpt lat="45.88434" lon="4.70572">
        <ele>235</ele>
        <time>2018-04-15T10:10:02Z</time>
      </trkpt>
      <trkpt lat="45.88439" lon="4.70567">
        <ele>234</ele>
        <time>2018-04-15T10:10:03Z</time>
      </trkpt>
      <trkpt lat="45.88443" lon="4.70564">
        <ele>234</ele>
        <time>2018-04-15T10:10:04Z</time>
      </trkpt>
      <trkpt lat="45.88448" lon="4.70561">
        <ele>234</ele>
        <time>2018-04-15T10:10:05Z</time>
      </trkpt>
      <trkpt lat="45.88452" lon="4.70557">
        <ele>234</ele>
        <time>2018-04-15T10:10:06Z</time>
      </trkpt>
      <trkpt lat="45.88457" lon="4.70553">
        <ele>234</ele>
        <time>2018-04-15T10:10:07Z</time>
      </trkpt>
      <trkpt lat="45.88461" lon="4.7055">
        <ele>234</ele>
        <time>2018-04-15T10:10:08Z</time>
      </trkpt>
      <trkpt lat="45.88467" lon="4.70548">
        <ele>234</ele>
        <time>2018-04-15T10:10:09Z</time>
      </trkpt>
      <trkpt lat="45.88471" lon="4.70543">
        <ele>234</ele>
        <time>2018-04-15T10:10:10Z</time>
      </trkpt>
      <trkpt lat="45.88476" lon="4.7054">
        <ele>234</ele>
        <time>2018-04-15T10:10:11Z</time>
      </trkpt>
      <trkpt lat="45.88481" lon="4.70536">
        <ele>234</ele>
        <time>2018-04-15T10:10:12Z</time>
      </trkpt>
      <trkpt lat="45.88486" lon="4.70532">
        <ele>234</ele>
        <time>2018-04-15T10:10:13Z</time>
      </trkpt>
      <trkpt lat="45.88492" lon="4.70528">
        <ele>234</ele>
        <time>2018-04-15T10:10:14Z</time>
      </trkpt>
      <trkpt lat="45.88498" lon="4.70523">
        <ele>233</ele>
        <time>2018-04-15T10:10:15Z</time>
      </trkpt>
      <trkpt lat="45.88503" lon="4.70519">
        <ele>230</ele>
        <time>2018-04-15T10:10:16Z</time>
      </trkpt>
      <trkpt lat="45.88508" lon="4.70516">
        <ele>231</ele>
        <time>2018-04-15T10:10:17Z</time>
      </trkpt>
      <trkpt lat="45.88513" lon="4.70512">
        <ele>230</ele>
        <time>2018-04-15T10:10:18Z</time>
      </trkpt>
      <trkpt lat="45.88517" lon="4.70509">
        <ele>230</ele>
        <time>2018-04-15T10:10:19Z</time>
      </trkpt>
      <trkpt lat="45.88522" lon="4.70505">
        <ele>230</ele>
        <time>2018-04-15T10:10:20Z</time>
      </trkpt>
      <trkpt lat="45.88526" lon="4.705">
        <ele>230</ele>
        <time>2018-04-15T10:10:21Z</time>
      </trkpt>
      <trkpt lat="45.88531" lon="4.70496">
        <ele>232</ele>
        <time>2018-04-15T10:10:22Z</time>
      </trkpt>
      <trkpt lat="45.88536" lon="4.70491">
        <ele>232</ele>
        <time>2018-04-15T10:10:23Z</time>
      </trkpt>
      <trkpt lat="45.88542" lon="4.70487">
        <ele>232</ele>
        <time>2018-04-15T10:10:24Z</time>
      </trkpt>
      <trkpt lat="45.88546" lon="4.70483">
        <ele>232</ele>
        <time>2018-04-15T10:10:25Z</time>
      </trkpt>
      <trkpt lat="45.88552" lon="4.70478">
        <ele>231</ele>
        <time>2018-04-15T10:10:26Z</time>
      </trkpt>
      <trkpt lat="45.88557" lon="4.70474">
        <ele>231</ele>
        <time>2018-04-15T10:10:27Z</time>
      </trkpt>
      <trkpt lat="45.88561" lon="4.70471">
        <ele>231</ele>
        <time>2018-04-15T10:10:28Z</time>
      </trkpt>
      <trkpt lat="45.88565" lon="4.70467">
        <ele>231</ele>
        <time>2018-04-15T10:10:29Z</time>
      </trkpt>
      <trkpt lat="45.8857" lon="4.70465">
        <ele>231</ele>
        <time>2018-04-15T10:10:30Z</time>
      </trkpt>
      <trkpt lat="45.88575" lon="4.70461">
        <ele>231</ele>
        <time>2018-04-15T10:10:31Z</time>
      </trkpt>
      <trkpt lat="45.8858" lon="4.70458">
        <ele>231</ele>
        <time>2018-04-15T10:10:32Z</time>
      </trkpt>
      <trkpt lat="45.88584" lon="4.70455">
        <ele>228</ele>
        <time>2018-04-15T10:10:33Z</time>
      </trkpt>
      <trkpt lat="45.88589" lon="4.70451">
        <ele>228</ele>
        <time>2018-04-15T10:10:34Z</time>
      </trkpt>
      <trkpt lat="45.88594" lon="4.70448">
        <ele>228</ele>
        <time>2018-04-15T10:10:35Z</time>
      </trkpt>
      <trkpt lat="45.88598" lon="4.70444">
        <ele>228</ele>
        <time>2018-04-15T10:10:36Z</time>
      </trkpt>
      <trkpt lat="45.88603" lon="4.7044">
        <ele>228</ele>
        <time>2018-04-15T10:10:37Z</time>
      </trkpt>
      <trkpt lat="45.88608" lon="4.70435">
        <ele>228</ele>
        <time>2018-04-15T10:10:38Z</time>
      </trkpt>
      <trkpt lat="45.88614" lon="4.7043">
        <ele>228</ele>
        <time>2018-04-15T10:10:39Z</time>
      </trkpt>
      <trkpt lat="45.88618" lon="4.70425">
        <ele>228</ele>
        <time>2018-04-15T10:10:40Z</time>
      </trkpt>
      <trkpt lat="45.88624" lon="4.70421">
        <ele>228</ele>
        <time>2018-04-15T10:10:41Z</time>
      </trkpt>
      <trkpt lat="45.8863" lon="4.70418">
        <ele>228</ele>
        <time>2018-04-15T10:10:42Z</time>
      </trkpt>
      <trkpt lat="45.88635" lon="4.70414">
        <ele>230</ele>
        <time>2018-04-15T10:10:43Z</time>
      </trkpt>
      <trkpt lat="45.8864" lon="4.7041">
        <ele>230</ele>
        <time>2018-04-15T10:10:44Z</time>
      </trkpt>
      <trkpt lat="45.88644" lon="4.70407">
        <ele>230</ele>
        <time>2018-04-15T10:10:45Z</time>
      </trkpt>
      <trkpt lat="45.88649" lon="4.70404">
        <ele>229</ele>
        <time>2018-04-15T10:10:46Z</time>
      </trkpt>
      <trkpt lat="45.88653" lon="4.704">
        <ele>229</ele>
        <time>2018-04-15T10:10:47Z</time>
      </trkpt>
      <trkpt lat="45.88657" lon="4.70397">
        <ele>229</ele>
        <time>2018-04-15T10:10:48Z</time>
      </trkpt>
      <trkpt lat="45.88661" lon="4.70393">
        <ele>230</ele>
        <time>2018-04-15T10:10:49Z</time>
      </trkpt>
      <trkpt lat="45.88665" lon="4.70389">
        <ele>230</ele>
        <time>2018-04-15T10:10:50Z</time>
      </trkpt>
      <trkpt lat="45.8867" lon="4.70385">
        <ele>228</ele>
        <time>2018-04-15T10:10:51Z</time>
      </trkpt>
      <trkpt lat="45.88674" lon="4.70382">
        <ele>228</ele>
        <time>2018-04-15T10:10:52Z</time>
      </trkpt>
      <trkpt lat="45.88678" lon="4.70378">
        <ele>228</ele>
        <time>2018-04-15T10:10:53Z</time>
      </trkpt>
      <trkpt lat="45.88683" lon="4.70373">
        <ele>229</ele>
        <time>2018-04-15T10:10:54Z</time>
      </trkpt>
      <trkpt lat="45.88688" lon="4.70369">
        <ele>229</ele>
        <time>2018-04-15T10:10:55Z</time>
      </trkpt>
      <trkpt lat="45.88693" lon="4.70365">
        <ele>229</ele>
        <time>2018-04-15T10:10:56Z</time>
      </trkpt>
      <trkpt lat="45.88698" lon="4.70361">
        <ele>229</ele>
        <time>2018-04-15T10:10:57Z</time>
      </trkpt>
      <trkpt lat="45.88703" lon="4.70356">
        <ele>229</ele>
        <time>2018-04-15T10:10:58Z</time>
      </trkpt>
      <trkpt lat="45.88708" lon="4.70352">
        <ele>229</ele>
        <time>2018-04-15T10:10:59Z</time>
      </trkpt>
      <trkpt lat="45.88712" lon="4.70349">
        <ele>229</ele>
        <time>2018-04-15T10:11:00Z</time>
      </trkpt>
      <trkpt lat="45.88717" lon="4.70345">
        <ele>229</ele>
        <time>2018-04-15T10:11:01Z</time>
      </trkpt>
      <trkpt lat="45.88721" lon="4.70343">
        <ele>229</ele>
        <time>2018-04-15T10:11:02Z</time>
      </trkpt>
      <trkpt lat="45.88725" lon="4.70339">
        <ele>229</ele>
        <time>2018-04-15T10:11:03Z</time>
      </trkpt>
      <trkpt lat="45.88731" lon="4.70335">
        <ele>229</ele>
        <time>2018-04-15T10:11:04Z</time>
      </trkpt>
      <trkpt lat="45.88735" lon="4.70332">
        <ele>232</ele>
        <time>2018-04-15T10:11:05Z</time>
      </trkpt>
      <trkpt lat="45.8874" lon="4.70328">
        <ele>231</ele>
        <time>2018-04-15T10:11:06Z</time>
      </trkpt>
      <trkpt lat="45.88744" lon="4.70325">
        <ele>231</ele>
        <time>2018-04-15T10:11:07Z</time>
      </trkpt>
      <trkpt lat="45.88748" lon="4.70321">
        <ele>232</ele>
        <time>2018-04-15T10:11:08Z</time>
      </trkpt>
      <trkpt lat="45.88753" lon="4.70317">
        <ele>231</ele>
        <time>2018-04-15T10:11:09Z</time>
      </trkpt>
      <trkpt lat="45.88757" lon="4.70313">
        <ele>232</ele>
        <time>2018-04-15T10:11:10Z</time>
      </trkpt>
      <trkpt lat="45.88761" lon="4.7031">
        <ele>232</ele>
        <time>2018-04-15T10:11:11Z</time>
      </trkpt>
      <trkpt lat="45.88765" lon="4.70306">
        <ele>233</ele>
        <time>2018-04-15T10:11:12Z</time>
      </trkpt>
      <trkpt lat="45.88769" lon="4.70304">
        <ele>233</ele>
        <time>2018-04-15T10:11:13Z</time>
      </trkpt>
      <trkpt lat="45.88773" lon="4.70301">
        <ele>233</ele>
        <time>2018-04-15T10:11:14Z</time>
      </trkpt>
      <trkpt lat="45.88778" lon="4.70297">
        <ele>233</ele>
        <time>2018-04-15T10:11:15Z</time>
      </trkpt>
      <trkpt lat="45.88783" lon="4.70294">
        <ele>234</ele>
        <time>2018-04-15T10:11:16Z</time>
      </trkpt>
      <trkpt lat="45.88787" lon="4.70288">
        <ele>234</ele>
        <time>2018-04-15T10:11:17Z</time>
      </trkpt>
      <trkpt lat="45.88792" lon="4.70284">
        <ele>234</ele>
        <time>2018-04-15T10:11:18Z</time>
      </trkpt>
      <trkpt lat="45.88797" lon="4.7028">
        <ele>234</ele>
        <time>2018-04-15T10:11:19Z</time>
      </trkpt>
      <trkpt lat="45.88802" lon="4.70277">
        <ele>234</ele>
        <time>2018-04-15T10:11:20Z</time>
      </trkpt>
      <trkpt lat="45.88807" lon="4.70273">
        <ele>234</ele>
        <time>2018-04-15T10:11:21Z</time>
      </trkpt>
      <trkpt lat="45.88813" lon="4.70267">
        <ele>235</ele>
        <time>2018-04-15T10:11:22Z</time>
      </trkpt>
      <trkpt lat="45.88818" lon="4.70262">
        <ele>235</ele>
        <time>2018-04-15T10:11:23Z</time>
      </trkpt>
      <trkpt lat="45.88823" lon="4.70259">
        <ele>236</ele>
        <time>2018-04-15T10:11:24Z</time>
      </trkpt>
      <trkpt lat="45.88827" lon="4.70256">
        <ele>236</ele>
        <time>2018-04-15T10:11:25Z</time>
      </trkpt>
      <trkpt lat="45.88831" lon="4.70253">
        <ele>237</ele>
        <time>2018-04-15T10:11:26Z</time>
      </trkpt>
      <trkpt lat="45.88837" lon="4.70249">
        <ele>237</ele>
        <time>2018-04-15T10:11:27Z</time>
      </trkpt>
      <trkpt lat="45.88841" lon="4.70243">
        <ele>238</ele>
        <time>2018-04-15T10:11:28Z</time>
      </trkpt>
      <trkpt lat="45.88846" lon="4.7024">
        <ele>238</ele>
        <time>2018-04-15T10:11:29Z</time>
      </trkpt>
      <trkpt lat="45.8885" lon="4.70237">
        <ele>238</ele>
        <time>2018-04-15T10:11:30Z</time>
      </trkpt>
      <trkpt lat="45.88856" lon="4.70235">
        <ele>238</ele>
        <time>2018-04-15T10:11:31Z</time>
      </trkpt>
      <trkpt lat="45.88862" lon="4.70233">
        <ele>238</ele>
        <time>2018-04-15T10:11:32Z</time>
      </trkpt>
      <trkpt lat="45.88867" lon="4.7023">
        <ele>238</ele>
        <time>2018-04-15T10:11:33Z</time>
      </trkpt>
      <trkpt lat="45.88873" lon="4.70226">
        <ele>238</ele>
        <time>2018-04-15T10:11:34Z</time>
      </trkpt>
      <trkpt lat="45.88878" lon="4.70222">
        <ele>238</ele>
        <time>2018-04-15T10:11:35Z</time>
      </trkpt>
      <trkpt lat="45.88884" lon="4.70218">
        <ele>238</ele>
        <time>2018-04-15T10:11:36Z</time>
      </trkpt>
      <trkpt lat="45.88888" lon="4.70215">
        <ele>238</ele>
        <time>2018-04-15T10:11:37Z</time>
      </trkpt>
      <trkpt lat="45.88893" lon="4.70212">
        <ele>239</ele>
        <time>2018-04-15T10:11:38Z</time>
      </trkpt>
      <trkpt lat="45.88898" lon="4.70209">
        <ele>239</ele>
        <time>2018-04-15T10:11:39Z</time>
      </trkpt>
      <trkpt lat="45.88903" lon="4.70207">
        <ele>239</ele>
        <time>2018-04-15T10:11:40Z</time>
      </trkpt>
      <trkpt lat="45.88909" lon="4.70205">
        <ele>239</ele>
        <time>2018-04-15T10:11:41Z</time>
      </trkpt>
      <trkpt lat="45.88915" lon="4.70202">
        <ele>239</ele>
        <time>2018-04-15T10:11:42Z</time>
      </trkpt>
      <trkpt lat="45.88919" lon="4.702">
        <ele>235</ele>
        <time>2018-04-15T10:11:43Z</time>
      </trkpt>
      <trkpt lat="45.88923" lon="4.70198">
        <ele>235</ele>
        <time>2018-04-15T10:11:44Z</time>
      </trkpt>
      <trkpt lat="45.88928" lon="4.70195">
        <ele>235</ele>
        <time>2018-04-15T10:11:45Z</time>
      </trkpt>
      <trkpt lat="45.88932" lon="4.70193">
        <ele>235</ele>
        <time>2018-04-15T10:11:46Z</time>
      </trkpt>
      <trkpt lat="45.88938" lon="4.7019">
        <ele>235</ele>
        <time>2018-04-15T10:11:47Z</time>
      </trkpt>
      <trkpt lat="45.88943" lon="4.70188">
        <ele>235</ele>
        <time>2018-04-15T10:11:48Z</time>
      </trkpt>
      <trkpt lat="45.88948" lon="4.70185">
        <ele>235</ele>
        <time>2018-04-15T10:11:49Z</time>
      </trkpt>
      <trkpt lat="45.88953" lon="4.70183">
        <ele>234</ele>
        <time>2018-04-15T10:11:50Z</time>
      </trkpt>
      <trkpt lat="45.88958" lon="4.70181">
        <ele>234</ele>
        <time>2018-04-15T10:11:51Z</time>
      </trkpt>
      <trkpt lat="45.88962" lon="4.70177">
        <ele>234</ele>
        <time>2018-04-15T10:11:52Z</time>
      </trkpt>
      <trkpt lat="45.88967" lon="4.70175">
        <ele>234</ele>
        <time>2018-04-15T10:11:53Z</time>
      </trkpt>
      <trkpt lat="45.88972" lon="4.70172">
        <ele>233</ele>
        <time>2018-04-15T10:11:54Z</time>
      </trkpt>
      <trkpt lat="45.88978" lon="4.7017">
        <ele>233</ele>
        <time>2018-04-15T10:11:55Z</time>
      </trkpt>
      <trkpt lat="45.88983" lon="4.70167">
        <ele>235</ele>
        <time>2018-04-15T10:11:56Z</time>
      </trkpt>
      <trkpt lat="45.88988" lon="4.70163">
        <ele>235</ele>
        <time>2018-04-15T10:11:57Z</time>
      </trkpt>
      <trkpt lat="45.88993" lon="4.7016">
        <ele>234</ele>
        <time>2018-04-15T10:11:58Z</time>
      </trkpt>
      <trkpt lat="45.89" lon="4.70156">
        <ele>232</ele>
        <time>2018-04-15T10:11:59Z</time>
      </trkpt>
      <trkpt lat="45.89005" lon="4.70153">
        <ele>232</ele>
        <time>2018-04-15T10:12:00Z</time>
      </trkpt>
      <trkpt lat="45.8901" lon="4.7015">
        <ele>232</ele>
        <time>2018-04-15T10:12:01Z</time>
      </trkpt>
      <trkpt lat="45.89015" lon="4.70148">
        <ele>231</ele>
        <time>2018-04-15T10:12:02Z</time>
      </trkpt>
      <trkpt lat="45.89021" lon="4.70146">
        <ele>231</ele>
        <time>2018-04-15T10:12:03Z</time>
      </trkpt>
      <trkpt lat="45.89026" lon="4.70142">
        <ele>231</ele>
        <time>2018-04-15T10:12:04Z</time>
      </trkpt>
      <trkpt lat="45.8903" lon="4.7014">
        <ele>231</ele>
        <time>2018-04-15T10:12:05Z</time>
      </trkpt>
      <trkpt lat="45.89034" lon="4.70137">
        <ele>231</ele>
        <time>2018-04-15T10:12:06Z</time>
      </trkpt>
      <trkpt lat="45.89039" lon="4.70135">
        <ele>231</ele>
        <time>2018-04-15T10:12:07Z</time>
      </trkpt>
      <trkpt lat="45.89044" lon="4.70133">
        <ele>231</ele>
        <time>2018-04-15T10:12:08Z</time>
      </trkpt>
      <trkpt lat="45.89049" lon="4.70131">
        <ele>231</ele>
        <time>2018-04-15T10:12:09Z</time>
      </trkpt>
      <trkpt lat="45.89054" lon="4.70128">
        <ele>230</ele>
        <time>2018-04-15T10:12:10Z</time>
      </trkpt>
      <trkpt lat="45.89059" lon="4.70125">
        <ele>230</ele>
        <time>2018-04-15T10:12:11Z</time>
      </trkpt>
      <trkpt lat="45.89064" lon="4.70122">
        <ele>230</ele>
        <time>2018-04-15T10:12:12Z</time>
      </trkpt>
      <trkpt lat="45.8907" lon="4.70118">
        <ele>230</ele>
        <time>2018-04-15T10:12:13Z</time>
      </trkpt>
      <trkpt lat="45.89075" lon="4.70115">
        <ele>230</ele>
        <time>2018-04-15T10:12:14Z</time>
      </trkpt>
      <trkpt lat="45.89079" lon="4.70112">
        <ele>230</ele>
        <time>2018-04-15T10:12:15Z</time>
      </trkpt>
      <trkpt lat="45.89084" lon="4.70108">
        <ele>228</ele>
        <time>2018-04-15T10:12:16Z</time>
      </trkpt>
      <trkpt lat="45.89088" lon="4.70106">
        <ele>228</ele>
        <time>2018-04-15T10:12:17Z</time>
      </trkpt>
      <trkpt lat="45.89093" lon="4.70102">
        <ele>228</ele>
        <time>2018-04-15T10:12:18Z</time>
      </trkpt>
      <trkpt lat="45.89099" lon="4.701">
        <ele>228</ele>
        <time>2018-04-15T10:12:19Z</time>
      </trkpt>
      <trkpt lat="45.89105" lon="4.70094">
        <ele>228</ele>
        <time>2018-04-15T10:12:20Z</time>
      </trkpt>
      <trkpt lat="45.89111" lon="4.70091">
        <ele>228</ele>
        <time>2018-04-15T10:12:21Z</time>
      </trkpt>
      <trkpt lat="45.89117" lon="4.70087">
        <ele>228</ele>
        <time>2018-04-15T10:12:22Z</time>
      </trkpt>
      <trkpt lat="45.89122" lon="4.70085">
        <ele>228</ele>
        <time>2018-04-15T10:12:23Z</time>
      </trkpt>
      <trkpt lat="45.89128" lon="4.70081">
        <ele>231</ele>
        <time>2018-04-15T10:12:24Z</time>
      </trkpt>
      <trkpt lat="45.89134" lon="4.70078">
        <ele>231</ele>
        <time>2018-04-15T10:12:25Z</time>
      </trkpt>
      <trkpt lat="45.89139" lon="4.70075">
        <ele>231</ele>
        <time>2018-04-15T10:12:26Z</time>
      </trkpt>
      <trkpt lat="45.89145" lon="4.70072">
        <ele>230</ele>
        <time>2018-04-15T10:12:27Z</time>
      </trkpt>
      <trkpt lat="45.8915" lon="4.70069">
        <ele>230</ele>
        <time>2018-04-15T10:12:28Z</time>
      </trkpt>
      <trkpt lat="45.89156" lon="4.70065">
        <ele>230</ele>
        <time>2018-04-15T10:12:29Z</time>
      </trkpt>
      <trkpt lat="45.89161" lon="4.70063">
        <ele>230</ele>
        <time>2018-04-15T10:12:30Z</time>
      </trkpt>
      <trkpt lat="45.89167" lon="4.7006">
        <ele>229</ele>
        <time>2018-04-15T10:12:31Z</time>
      </trkpt>
      <trkpt lat="45.89173" lon="4.70057">
        <ele>229</ele>
        <time>2018-04-15T10:12:32Z</time>
      </trkpt>
      <trkpt lat="45.89178" lon="4.70055">
        <ele>229</ele>
        <time>2018-04-15T10:12:33Z</time>
      </trkpt>
      <trkpt lat="45.89184" lon="4.70053">
        <ele>229</ele>
        <time>2018-04-15T10:12:34Z</time>
      </trkpt>
      <trkpt lat="45.89189" lon="4.7005">
        <ele>229</ele>
        <time>2018-04-15T10:12:35Z</time>
      </trkpt>
      <trkpt lat="45.89194" lon="4.70048">
        <ele>229</ele>
        <time>2018-04-15T10:12:36Z</time>
      </trkpt>
      <trkpt lat="45.89199" lon="4.70046">
        <ele>229</ele>
        <time>2018-04-15T10:12:37Z</time>
      </trkpt>
      <trkpt lat="45.89204" lon="4.70044">
        <ele>229</ele>
        <time>2018-04-15T10:12:38Z</time>
      </trkpt>
      <trkpt lat="45.8921" lon="4.70042">
        <ele>228</ele>
        <time>2018-04-15T10:12:39Z</time>
      </trkpt>
      <trkpt lat="45.89215" lon="4.70039">
        <ele>228</ele>
        <time>2018-04-15T10:12:40Z</time>
      </trkpt>
      <trkpt lat="45.8922" lon="4.70037">
        <ele>228</ele>
        <time>2018-04-15T10:12:41Z</time>
      </trkpt>
      <trkpt lat="45.89225" lon="4.70035">
        <ele>228</ele>
        <time>2018-04-15T10:12:42Z</time>
      </trkpt>
      <trkpt lat="45.8923" lon="4.70033">
        <ele>228</ele>
        <time>2018-04-15T10:12:43Z</time>
      </trkpt>
      <trkpt lat="45.89236" lon="4.70032">
        <ele>228</ele>
        <time>2018-04-15T10:12:44Z</time>
      </trkpt>
      <trkpt lat="45.89241" lon="4.70029">
        <ele>228</ele>
        <time>2018-04-15T10:12:45Z</time>
      </trkpt>
      <trkpt lat="45.89247" lon="4.70027">
        <ele>228</ele>
        <time>2018-04-15T10:12:46Z</time>
      </trkpt>
      <trkpt lat="45.89251" lon="4.70026">
        <ele>227</ele>
        <time>2018-04-15T10:12:47Z</time>
      </trkpt>
      <trkpt lat="45.89256" lon="4.70023">
        <ele>227</ele>
        <time>2018-04-15T10:12:48Z</time>
      </trkpt>
      <trkpt lat="45.89262" lon="4.70021">
        <ele>227</ele>
        <time>2018-04-15T10:12:49Z</time>
      </trkpt>
      <trkpt lat="45.89267" lon="4.70019">
        <ele>227</ele>
        <time>2018-04-15T10:12:50Z</time>
      </trkpt>
      <trkpt lat="45.89273" lon="4.70016">
        <ele>226</ele>
        <time>2018-04-15T10:12:51Z</time>
      </trkpt>
      <trkpt lat="45.89279" lon="4.70015">
        <ele>226</ele>
        <time>2018-04-15T10:12:52Z</time>
      </trkpt>
      <trkpt lat="45.89285" lon="4.70012">
        <ele>226</ele>
        <time>2018-04-15T10:12:53Z</time>
      </trkpt>
      <trkpt lat="45.8929" lon="4.70009">
        <ele>226</ele>
        <time>2018-04-15T10:12:54Z</time>
      </trkpt>
      <trkpt lat="45.89296" lon="4.70007">
        <ele>226</ele>
        <time>2018-04-15T10:12:55Z</time>
      </trkpt>
      <trkpt lat="45.89301" lon="4.70005">
        <ele>226</ele>
        <time>2018-04-15T10:12:56Z</time>
      </trkpt>
      <trkpt lat="45.89306" lon="4.70003">
        <ele>226</ele>
        <time>2018-04-15T10:12:57Z</time>
      </trkpt>
      <trkpt lat="45.89312" lon="4.70001">
        <ele>226</ele>
        <time>2018-04-15T10:12:58Z</time>
      </trkpt>
      <trkpt lat="45.89317" lon="4.69999">
        <ele>228</ele>
        <time>2018-04-15T10:12:59Z</time>
      </trkpt>
      <trkpt lat="45.89324" lon="4.69997">
        <ele>227</ele>
        <time>2018-04-15T10:13:00Z</time>
      </trkpt>
      <trkpt lat="45.8933" lon="4.69997">
        <ele>227</ele>
        <time>2018-04-15T10:13:01Z</time>
      </trkpt>
      <trkpt lat="45.89336" lon="4.69994">
        <ele>226</ele>
        <time>2018-04-15T10:13:02Z</time>
      </trkpt>
      <trkpt lat="45.89342" lon="4.69994">
        <ele>227</ele>
        <time>2018-04-15T10:13:03Z</time>
      </trkpt>
      <trkpt lat="45.89349" lon="4.69995">
        <ele>227</ele>
        <time>2018-04-15T10:13:04Z</time>
      </trkpt>
      <trkpt lat="45.89354" lon="4.69994">
        <ele>227</ele>
        <time>2018-04-15T10:13:05Z</time>
      </trkpt>
      <trkpt lat="45.89361" lon="4.69995">
        <ele>227</ele>
        <time>2018-04-15T10:13:06Z</time>
      </trkpt>
      <trkpt lat="45.89367" lon="4.69996">
        <ele>227</ele>
        <time>2018-04-15T10:13:07Z</time>
      </trkpt>
      <trkpt lat="45.89373" lon="4.69996">
        <ele>227</ele>
        <time>2018-04-15T10:13:08Z</time>
      </trkpt>
      <trkpt lat="45.89379" lon="4.69997">
        <ele>227</ele>
        <time>2018-04-15T10:13:09Z</time>
      </trkpt>
      <trkpt lat="45.89385" lon="4.69998">
        <ele>227</ele>
        <time>2018-04-15T10:13:10Z</time>
      </trkpt>
      <trkpt lat="45.89391" lon="4.69999">
        <ele>227</ele>
        <time>2018-04-15T10:13:11Z</time>
      </trkpt>
      <trkpt lat="45.89396" lon="4.7">
        <ele>227</ele>
        <time>2018-04-15T10:13:12Z</time>
      </trkpt>
      <trkpt lat="45.89402" lon="4.70002">
        <ele>226</ele>
        <time>2018-04-15T10:13:13Z</time>
      </trkpt>
      <trkpt lat="45.89407" lon="4.70002">
        <ele>226</ele>
        <time>2018-04-15T10:13:14Z</time>
      </trkpt>
      <trkpt lat="45.89413" lon="4.70003">
        <ele>227</ele>
        <time>2018-04-15T10:13:15Z</time>
      </trkpt>
      <trkpt lat="45.89419" lon="4.70007">
        <ele>226</ele>
        <time>2018-04-15T10:13:16Z</time>
      </trkpt>
      <trkpt lat="45.89426" lon="4.70008">
        <ele>226</ele>
        <time>2018-04-15T10:13:17Z</time>
      </trkpt>
      <trkpt lat="45.89431" lon="4.70008">
        <ele>226</ele>
        <time>2018-04-15T10:13:18Z</time>
      </trkpt>
      <trkpt lat="45.89437" lon="4.70008">
        <ele>225</ele>
        <time>2018-04-15T10:13:19Z</time>
      </trkpt>
      <trkpt lat="45.89444" lon="4.7001">
        <ele>225</ele>
        <time>2018-04-15T10:13:20Z</time>
      </trkpt>
      <trkpt lat="45.89451" lon="4.70011">
        <ele>225</ele>
        <time>2018-04-15T10:13:21Z</time>
      </trkpt>
      <trkpt lat="45.89457" lon="4.70012">
        <ele>225</ele>
        <time>2018-04-15T10:13:22Z</time>
      </trkpt>
      <trkpt lat="45.89463" lon="4.70014">
        <ele>225</ele>
        <time>2018-04-15T10:13:23Z</time>
      </trkpt>
      <trkpt lat="45.89468" lon="4.70016">
        <ele>225</ele>
        <time>2018-04-15T10:13:24Z</time>
      </trkpt>
      <trkpt lat="45.89474" lon="4.70018">
        <ele>225</ele>
        <time>2018-04-15T10:13:25Z</time>
      </trkpt>
      <trkpt lat="45.8948" lon="4.70019">
        <ele>224</ele>
        <time>2018-04-15T10:13:26Z</time>
      </trkpt>
      <trkpt lat="45.89487" lon="4.70021">
        <ele>224</ele>
        <time>2018-04-15T10:13:27Z</time>
      </trkpt>
      <trkpt lat="45.89494" lon="4.70022">
        <ele>224</ele>
        <time>2018-04-15T10:13:28Z</time>
      </trkpt>
      <trkpt lat="45.895" lon="4.70024">
        <ele>224</ele>
        <time>2018-04-15T10:13:29Z</time>
      </trkpt>
      <trkpt lat="45.89506" lon="4.70025">
        <ele>223</ele>
        <time>2018-04-15T10:13:30Z</time>
      </trkpt>
      <trkpt lat="45.89512" lon="4.70027">
        <ele>223</ele>
        <time>2018-04-15T10:13:31Z</time>
      </trkpt>
      <trkpt lat="45.89518" lon="4.70028">
        <ele>223</ele>
        <time>2018-04-15T10:13:32Z</time>
      </trkpt>
      <trkpt lat="45.89525" lon="4.70029">
        <ele>223</ele>
        <time>2018-04-15T10:13:33Z</time>
      </trkpt>
      <trkpt lat="45.89532" lon="4.70031">
        <ele>223</ele>
        <time>2018-04-15T10:13:34Z</time>
      </trkpt>
      <trkpt lat="45.8954" lon="4.70032">
        <ele>222</ele>
        <time>2018-04-15T10:13:35Z</time>
      </trkpt>
      <trkpt lat="45.89547" lon="4.70033">
        <ele>222</ele>
        <time>2018-04-15T10:13:36Z</time>
      </trkpt>
      <trkpt lat="45.89553" lon="4.70034">
        <ele>222</ele>
        <time>2018-04-15T10:13:37Z</time>
      </trkpt>
      <trkpt lat="45.89559" lon="4.70035">
        <ele>222</ele>
        <time>2018-04-15T10:13:38Z</time>
      </trkpt>
      <trkpt lat="45.89566" lon="4.70036">
        <ele>222</ele>
        <time>2018-04-15T10:13:39Z</time>
      </trkpt>
      <trkpt lat="45.89572" lon="4.70036">
        <ele>222</ele>
        <time>2018-04-15T10:13:40Z</time>
      </trkpt>
      <trkpt lat="45.89579" lon="4.70037">
        <ele>222</ele>
        <time>2018-04-15T10:13:41Z</time>
      </trkpt>
      <trkpt lat="45.89585" lon="4.70038">
        <ele>222</ele>
        <time>2018-04-15T10:13:42Z</time>
      </trkpt>
      <trkpt lat="45.89591" lon="4.70039">
        <ele>222</ele>
        <time>2018-04-15T10:13:43Z</time>
      </trkpt>
      <trkpt lat="45.89598" lon="4.7004">
        <ele>222</ele>
        <time>2018-04-15T10:13:44Z</time>
      </trkpt>
      <trkpt lat="45.89605" lon="4.70042">
        <ele>222</ele>
        <time>2018-04-15T10:13:45Z</time>
      </trkpt>
      <trkpt lat="45.89612" lon="4.70043">
        <ele>222</ele>
        <time>2018-04-15T10:13:46Z</time>
      </trkpt>
      <trkpt lat="45.89619" lon="4.70044">
        <ele>222</ele>
        <time>2018-04-15T10:13:47Z</time>
      </trkpt>
      <trkpt lat="45.89627" lon="4.70045">
        <ele>222</ele>
        <time>2018-04-15T10:13:48Z</time>
      </trkpt>
      <trkpt lat="45.89634" lon="4.70047">
        <ele>222</ele>
        <time>2018-04-15T10:13:49Z</time>
      </trkpt>
      <trkpt lat="45.89641" lon="4.70048">
        <ele>222</ele>
        <time>2018-04-15T10:13:50Z</time>
      </trkpt>
      <trkpt lat="45.89649" lon="4.7005">
        <ele>222</ele>
        <time>2018-04-15T10:13:51Z</time>
      </trkpt>
      <trkpt lat="45.89656" lon="4.70052">
        <ele>222</ele>
        <time>2018-04-15T10:13:52Z</time>
      </trkpt>
      <trkpt lat="45.89663" lon="4.70052">
        <ele>222</ele>
        <time>2018-04-15T10:13:53Z</time>
      </trkpt>
      <trkpt lat="45.8967" lon="4.70052">
        <ele>222</ele>
        <time>2018-04-15T10:13:54Z</time>
      </trkpt>
      <trkpt lat="45.89676" lon="4.70055">
        <ele>222</ele>
        <time>2018-04-15T10:13:55Z</time>
      </trkpt>
      <trkpt lat="45.89682" lon="4.70056">
        <ele>222</ele>
        <time>2018-04-15T10:13:56Z</time>
      </trkpt>
      <trkpt lat="45.89689" lon="4.70057">
        <ele>222</ele>
        <time>2018-04-15T10:13:57Z</time>
      </trkpt>
      <trkpt lat="45.89696" lon="4.70058">
        <ele>222</ele>
        <time>2018-04-15T10:13:58Z</time>
      </trkpt>
      <trkpt lat="45.89703" lon="4.7006">
        <ele>221</ele>
        <time>2018-04-15T10:13:59Z</time>
      </trkpt>
      <trkpt lat="45.8971" lon="4.70061">
        <ele>221</ele>
        <time>2018-04-15T10:14:00Z</time>
      </trkpt>
      <trkpt lat="45.89717" lon="4.70062">
        <ele>221</ele>
        <time>2018-04-15T10:14:01Z</time>
      </trkpt>
      <trkpt lat="45.89722" lon="4.70062">
        <ele>221</ele>
        <time>2018-04-15T10:14:02Z</time>
      </trkpt>
      <trkpt lat="45.89728" lon="4.70063">
        <ele>221</ele>
        <time>2018-04-15T10:14:03Z</time>
      </trkpt>
      <trkpt lat="45.89733" lon="4.70064">
        <ele>221</ele>
        <time>2018-04-15T10:14:04Z</time>
      </trkpt>
      <trkpt lat="45.89738" lon="4.70064">
        <ele>221</ele>
        <time>2018-04-15T10:14:05Z</time>
      </trkpt>
      <trkpt lat="45.89743" lon="4.70067">
        <ele>220</ele>
        <time>2018-04-15T10:14:06Z</time>
      </trkpt>
      <trkpt lat="45.89748" lon="4.70069">
        <ele>220</ele>
        <time>2018-04-15T10:14:07Z</time>
      </trkpt>
      <trkpt lat="45.89754" lon="4.70068">
        <ele>220</ele>
        <time>2018-04-15T10:14:08Z</time>
      </trkpt>
      <trkpt lat="45.89759" lon="4.70069">
        <ele>220</ele>
        <time>2018-04-15T10:14:09Z</time>
      </trkpt>
      <trkpt lat="45.89765" lon="4.7007">
        <ele>220</ele>
        <time>2018-04-15T10:14:10Z</time>
      </trkpt>
      <trkpt lat="45.89771" lon="4.70071">
        <ele>220</ele>
        <time>2018-04-15T10:14:11Z</time>
      </trkpt>
      <trkpt lat="45.89777" lon="4.70072">
        <ele>221</ele>
        <time>2018-04-15T10:14:12Z</time>
      </trkpt>
      <trkpt lat="45.89783" lon="4.70072">
        <ele>221</ele>
        <time>2018-04-15T10:14:14Z</time>
      </trkpt>
      <trkpt lat="45.89792" lon="4.70074">
        <ele>221</ele>
        <time>2018-04-15T10:14:15Z</time>
      </trkpt>
      <trkpt lat="45.89798" lon="4.70074">
        <ele>221</ele>
        <time>2018-04-15T10:14:16Z</time>
      </trkpt>
      <trkpt lat="45.89804" lon="4.70075">
        <ele>221</ele>
        <time>2018-04-15T10:14:17Z</time>
      </trkpt>
      <trkpt lat="45.8981" lon="4.70074">
        <ele>221</ele>
        <time>2018-04-15T10:14:18Z</time>
      </trkpt>
      <trkpt lat="45.89815" lon="4.70074">
        <ele>221</ele>
        <time>2018-04-15T10:14:19Z</time>
      </trkpt>
      <trkpt lat="45.89822" lon="4.70075">
        <ele>221</ele>
        <time>2018-04-15T10:14:20Z</time>
      </trkpt>
      <trkpt lat="45.89827" lon="4.70075">
        <ele>220</ele>
        <time>2018-04-15T10:14:21Z</time>
      </trkpt>
      <trkpt lat="45.89832" lon="4.70074">
        <ele>220</ele>
        <time>2018-04-15T10:14:22Z</time>
      </trkpt>
      <trkpt lat="45.89836" lon="4.70077">
        <ele>220</ele>
        <time>2018-04-15T10:14:23Z</time>
      </trkpt>
      <trkpt lat="45.89842" lon="4.70078">
        <ele>221</ele>
        <time>2018-04-15T10:14:24Z</time>
      </trkpt>
      <trkpt lat="45.89847" lon="4.70079">
        <ele>221</ele>
        <time>2018-04-15T10:14:25Z</time>
      </trkpt>
      <trkpt lat="45.89852" lon="4.7008">
        <ele>221</ele>
        <time>2018-04-15T10:14:26Z</time>
      </trkpt>
      <trkpt lat="45.89857" lon="4.70082">
        <ele>221</ele>
        <time>2018-04-15T10:14:27Z</time>
      </trkpt>
      <trkpt lat="45.89862" lon="4.70082">
        <ele>221</ele>
        <time>2018-04-15T10:14:28Z</time>
      </trkpt>
      <trkpt lat="45.89868" lon="4.70083">
        <ele>221</ele>
        <time>2018-04-15T10:14:29Z</time>
      </trkpt>
      <trkpt lat="45.89873" lon="4.70083">
        <ele>221</ele>
        <time>2018-04-15T10:14:30Z</time>
      </trkpt>
      <trkpt lat="45.89878" lon="4.70083">
        <ele>221</ele>
        <time>2018-04-15T10:14:31Z</time>
      </trkpt>
      <trkpt lat="45.89884" lon="4.70083">
        <ele>221</ele>
        <time>2018-04-15T10:14:32Z</time>
      </trkpt>
      <trkpt lat="45.89889" lon="4.70084">
        <ele>220</ele>
        <time>2018-04-15T10:14:33Z</time>
      </trkpt>
      <trkpt lat="45.89894" lon="4.70083">
        <ele>221</ele>
        <time>2018-04-15T10:14:34Z</time>
      </trkpt>
      <trkpt lat="45.89899" lon="4.70083">
        <ele>221</ele>
        <time>2018-04-15T10:14:35Z</time>
      </trkpt>
      <trkpt lat="45.89904" lon="4.70084">
        <ele>220</ele>
        <time>2018-04-15T10:14:36Z</time>
      </trkpt>
      <trkpt lat="45.89909" lon="4.70084">
        <ele>221</ele>
        <time>2018-04-15T10:14:37Z</time>
      </trkpt>
      <trkpt lat="45.89914" lon="4.70086">
        <ele>221</ele>
        <time>2018-04-15T10:14:38Z</time>
      </trkpt>
      <trkpt lat="45.8992" lon="4.70084">
        <ele>221</ele>
        <time>2018-04-15T10:14:39Z</time>
      </trkpt>
      <trkpt lat="45.89926" lon="4.70085">
        <ele>221</ele>
        <time>2018-04-15T10:14:40Z</time>
      </trkpt>
      <trkpt lat="45.8993" lon="4.70085">
        <ele>221</ele>
        <time>2018-04-15T10:14:41Z</time>
      </trkpt>
      <trkpt lat="45.89936" lon="4.70084">
        <ele>221</ele>
        <time>2018-04-15T10:14:42Z</time>
      </trkpt>
      <trkpt lat="45.89941" lon="4.70085">
        <ele>221</ele>
        <time>2018-04-15T10:14:43Z</time>
      </trkpt>
      <trkpt lat="45.89946" lon="4.70085">
        <ele>221</ele>
        <time>2018-04-15T10:14:44Z</time>
      </trkpt>
      <trkpt lat="45.89951" lon="4.70085">
        <ele>221</ele>
        <time>2018-04-15T10:14:45Z</time>
      </trkpt>
      <trkpt lat="45.89956" lon="4.70086">
        <ele>221</ele>
        <time>2018-04-15T10:14:46Z</time>
      </trkpt>
      <trkpt lat="45.89961" lon="4.70086">
        <ele>221</ele>
        <time>2018-04-15T10:14:47Z</time>
      </trkpt>
      <trkpt lat="45.89966" lon="4.70086">
        <ele>221</ele>
        <time>2018-04-15T10:14:48Z</time>
      </trkpt>
      <trkpt lat="45.89971" lon="4.70086">
        <ele>221</ele>
        <time>2018-04-15T10:14:49Z</time>
      </trkpt>
      <trkpt lat="45.89976" lon="4.70086">
        <ele>221</ele>
        <time>2018-04-15T10:14:50Z</time>
      </trkpt>
      <trkpt lat="45.89981" lon="4.70087">
        <ele>221</ele>
        <time>2018-04-15T10:14:51Z</time>
      </trkpt>
      <trkpt lat="45.89985" lon="4.70088">
        <ele>222</ele>
        <time>2018-04-15T10:14:52Z</time>
      </trkpt>
      <trkpt lat="45.8999" lon="4.70089">
        <ele>222</ele>
        <time>2018-04-15T10:14:53Z</time>
      </trkpt>
      <trkpt lat="45.89995" lon="4.7009">
        <ele>222</ele>
        <time>2018-04-15T10:14:54Z</time>
      </trkpt>
      <trkpt lat="45.9" lon="4.70091">
        <ele>222</ele>
        <time>2018-04-15T10:14:55Z</time>
      </trkpt>
      <trkpt lat="45.90005" lon="4.70091">
        <ele>222</ele>
        <time>2018-04-15T10:14:56Z</time>
      </trkpt>
      <trkpt lat="45.9001" lon="4.70092">
        <ele>222</ele>
        <time>2018-04-15T10:14:57Z</time>
      </trkpt>
      <trkpt lat="45.90018" lon="4.70091">
        <ele>222</ele>
        <time>2018-04-15T10:14:59Z</time>
      </trkpt>
      <trkpt lat="45.90023" lon="4.70091">
        <ele>222</ele>
        <time>2018-04-15T10:15:00Z</time>
      </trkpt>
      <trkpt lat="45.90028" lon="4.70091">
        <ele>222</ele>
        <time>2018-04-15T10:15:01Z</time>
      </trkpt>
      <trkpt lat="45.90033" lon="4.70092">
        <ele>222</ele>
        <time>2018-04-15T10:15:02Z</time>
      </trkpt>
      <trkpt lat="45.90037" lon="4.70092">
        <ele>222</ele>
        <time>2018-04-15T10:15:03Z</time>
      </trkpt>
      <trkpt lat="45.90042" lon="4.70093">
        <ele>222</ele>
        <time>2018-04-15T10:15:04Z</time>
      </trkpt>
      <trkpt lat="45.90046" lon="4.70093">
        <ele>222</ele>
        <time>2018-04-15T10:15:05Z</time>
      </trkpt>
      <trkpt lat="45.90051" lon="4.70094">
        <ele>222</ele>
        <time>2018-04-15T10:15:06Z</time>
      </trkpt>
      <trkpt lat="45.90058" lon="4.70091">
        <ele>223</ele>
        <time>2018-04-15T10:15:08Z</time>
      </trkpt>
      <trkpt lat="45.90063" lon="4.70091">
        <ele>223</ele>
        <time>2018-04-15T10:15:09Z</time>
      </trkpt>
      <trkpt lat="45.9007" lon="4.70091">
        <ele>223</ele>
        <time>2018-04-15T10:15:11Z</time>
      </trkpt>
      <trkpt lat="45.90075" lon="4.70091">
        <ele>223</ele>
        <time>2018-04-15T10:15:12Z</time>
      </trkpt>
      <trkpt lat="45.90083" lon="4.7009">
        <ele>223</ele>
        <time>2018-04-15T10:15:14Z</time>
      </trkpt>
      <trkpt lat="45.90088" lon="4.7009">
        <ele>224</ele>
        <time>2018-04-15T10:15:15Z</time>
      </trkpt>
      <trkpt lat="45.90094" lon="4.70087">
        <ele>224</ele>
        <time>2018-04-15T10:15:16Z</time>
      </trkpt>
      <trkpt lat="45.90098" lon="4.70087">
        <ele>224</ele>
        <time>2018-04-15T10:15:17Z</time>
      </trkpt>
      <trkpt lat="45.90103" lon="4.70086">
        <ele>223</ele>
        <time>2018-04-15T10:15:18Z</time>
      </trkpt>
      <trkpt lat="45.90107" lon="4.70085">
        <ele>223</ele>
        <time>2018-04-15T10:15:19Z</time>
      </trkpt>
      <trkpt lat="45.90111" lon="4.70085">
        <ele>223</ele>
        <time>2018-04-15T10:15:20Z</time>
      </trkpt>
      <trkpt lat="45.90116" lon="4.70084">
        <ele>223</ele>
        <time>2018-04-15T10:15:21Z</time>
      </trkpt>
      <trkpt lat="45.90121" lon="4.70083">
        <ele>226</ele>
        <time>2018-04-15T10:15:22Z</time>
      </trkpt>
      <trkpt lat="45.90125" lon="4.70083">
        <ele>226</ele>
        <time>2018-04-15T10:15:23Z</time>
      </trkpt>
      <trkpt lat="45.90129" lon="4.70082">
        <ele>226</ele>
        <time>2018-04-15T10:15:24Z</time>
      </trkpt>
      <trkpt lat="45.90135" lon="4.70081">
        <ele>226</ele>
        <time>2018-04-15T10:15:25Z</time>
      </trkpt>
      <trkpt lat="45.90144" lon="4.70078">
        <ele>226</ele>
        <time>2018-04-15T10:15:27Z</time>
      </trkpt>
      <trkpt lat="45.90149" lon="4.70078">
        <ele>226</ele>
        <time>2018-04-15T10:15:28Z</time>
      </trkpt>
      <trkpt lat="45.90154" lon="4.70077">
        <ele>226</ele>
        <time>2018-04-15T10:15:29Z</time>
      </trkpt>
      <trkpt lat="45.90159" lon="4.70077">
        <ele>226</ele>
        <time>2018-04-15T10:15:30Z</time>
      </trkpt>
      <trkpt lat="45.90164" lon="4.70076">
        <ele>226</ele>
        <time>2018-04-15T10:15:31Z</time>
      </trkpt>
      <trkpt lat="45.90169" lon="4.70075">
        <ele>225</ele>
        <time>2018-04-15T10:15:32Z</time>
      </trkpt>
      <trkpt lat="45.90174" lon="4.70073">
        <ele>225</ele>
        <time>2018-04-15T10:15:33Z</time>
      </trkpt>
      <trkpt lat="45.90178" lon="4.70073">
        <ele>226</ele>
        <time>2018-04-15T10:15:34Z</time>
      </trkpt>
      <trkpt lat="45.90183" lon="4.70072">
        <ele>226</ele>
        <time>2018-04-15T10:15:35Z</time>
      </trkpt>
      <trkpt lat="45.90188" lon="4.70071">
        <ele>226</ele>
        <time>2018-04-15T10:15:36Z</time>
      </trkpt>
      <trkpt lat="45.90193" lon="4.70072">
        <ele>226</ele>
        <time>2018-04-15T10:15:37Z</time>
      </trkpt>
      <trkpt lat="45.90197" lon="4.70072">
        <ele>226</ele>
        <time>2018-04-15T10:15:38Z</time>
      </trkpt>
      <trkpt lat="45.90202" lon="4.70071">
        <ele>226</ele>
        <time>2018-04-15T10:15:39Z</time>
      </trkpt>
      <trkpt lat="45.90207" lon="4.7007">
        <ele>226</ele>
        <time>2018-04-15T10:15:40Z</time>
      </trkpt>
      <trkpt lat="45.90216" lon="4.70068">
        <ele>225</ele>
        <time>2018-04-15T10:15:42Z</time>
      </trkpt>
      <trkpt lat="45.9022" lon="4.70068">
        <ele>225</ele>
        <time>2018-04-15T10:15:43Z</time>
      </trkpt>
      <trkpt lat="45.90225" lon="4.70067">
        <ele>225</ele>
        <time>2018-04-15T10:15:44Z</time>
      </trkpt>
      <trkpt lat="45.9023" lon="4.70066">
        <ele>225</ele>
        <time>2018-04-15T10:15:45Z</time>
      </trkpt>
      <trkpt lat="45.90239" lon="4.70064">
        <ele>225</ele>
        <time>2018-04-15T10:15:47Z</time>
      </trkpt>
      <trkpt lat="45.90244" lon="4.70063">
        <ele>225</ele>
        <time>2018-04-15T10:15:48Z</time>
      </trkpt>
      <trkpt lat="45.90249" lon="4.70062">
        <ele>225</ele>
        <time>2018-04-15T10:15:49Z</time>
      </trkpt>
      <trkpt lat="45.90254" lon="4.70062">
        <ele>224</ele>
        <time>2018-04-15T10:15:50Z</time>
      </trkpt>
      <trkpt lat="45.90262" lon="4.7006">
        <ele>224</ele>
        <time>2018-04-15T10:15:52Z</time>
      </trkpt>
      <trkpt lat="45.90266" lon="4.70059">
        <ele>224</ele>
        <time>2018-04-15T10:15:53Z</time>
      </trkpt>
      <trkpt lat="45.90274" lon="4.70058">
        <ele>224</ele>
        <time>2018-04-15T10:15:55Z</time>
      </trkpt>
      <trkpt lat="45.90277" lon="4.70057">
        <ele>224</ele>
        <time>2018-04-15T10:15:56Z</time>
      </trkpt>
      <trkpt lat="45.90283" lon="4.70056">
        <ele>224</ele>
        <time>2018-04-15T10:15:57Z</time>
      </trkpt>
      <trkpt lat="45.90287" lon="4.70054">
        <ele>224</ele>
        <time>2018-04-15T10:15:58Z</time>
      </trkpt>
      <trkpt lat="45.90295" lon="4.70052">
        <ele>224</ele>
        <time>2018-04-15T10:16:00Z</time>
      </trkpt>
      <trkpt lat="45.90299" lon="4.70051">
        <ele>224</ele>
        <time>2018-04-15T10:16:01Z</time>
      </trkpt>
      <trkpt lat="45.90308" lon="4.70049">
        <ele>224</ele>
        <time>2018-04-15T10:16:03Z</time>
      </trkpt>
      <trkpt lat="45.90313" lon="4.70047">
        <ele>224</ele>
        <time>2018-04-15T10:16:04Z</time>
      </trkpt>
      <trkpt lat="45.90321" lon="4.70046">
        <ele>224</ele>
        <time>2018-04-15T10:16:06Z</time>
      </trkpt>
      <trkpt lat="45.90326" lon="4.70044">
        <ele>224</ele>
        <time>2018-04-15T10:16:07Z</time>
      </trkpt>
      <trkpt lat="45.90334" lon="4.70044">
        <ele>224</ele>
        <time>2018-04-15T10:16:09Z</time>
      </trkpt>
      <trkpt lat="45.90339" lon="4.70043">
        <ele>224</ele>
        <time>2018-04-15T10:16:10Z</time>
      </trkpt>
      <trkpt lat="45.90343" lon="4.70042">
        <ele>224</ele>
        <time>2018-04-15T10:16:11Z</time>
      </trkpt>
      <trkpt lat="45.90348" lon="4.70041">
        <ele>224</ele>
        <time>2018-04-15T10:16:12Z</time>
      </trkpt>
      <trkpt lat="45.90353" lon="4.70041">
        <ele>224</ele>
        <time>2018-04-15T10:16:13Z</time>
      </trkpt>
      <trkpt lat="45.90358" lon="4.70039">
        <ele>224</ele>
        <time>2018-04-15T10:16:14Z</time>
      </trkpt>
      <trkpt lat="45.90363" lon="4.70038">
        <ele>224</ele>
        <time>2018-04-15T10:16:15Z</time>
      </trkpt>
      <trkpt lat="45.90368" lon="4.70038">
        <ele>224</ele>
        <time>2018-04-15T10:16:16Z</time>
      </trkpt>
      <trkpt lat="45.90373" lon="4.70037">
        <ele>224</ele>
        <time>2018-04-15T10:16:17Z</time>
      </trkpt>
      <trkpt lat="45.90377" lon="4.70035">
        <ele>224</ele>
        <time>2018-04-15T10:16:18Z</time>
      </trkpt>
      <trkpt lat="45.90383" lon="4.70035">
        <ele>225</ele>
        <time>2018-04-15T10:16:19Z</time>
      </trkpt>
      <trkpt lat="45.90389" lon="4.70033">
        <ele>225</ele>
        <time>2018-04-15T10:16:20Z</time>
      </trkpt>
      <trkpt lat="45.90394" lon="4.70032">
        <ele>225</ele>
        <time>2018-04-15T10:16:21Z</time>
      </trkpt>
      <trkpt lat="45.90398" lon="4.70031">
        <ele>225</ele>
        <time>2018-04-15T10:16:22Z</time>
      </trkpt>
      <trkpt lat="45.90403" lon="4.7003">
        <ele>225</ele>
        <time>2018-04-15T10:16:23Z</time>
      </trkpt>
      <trkpt lat="45.90408" lon="4.7003">
        <ele>225</ele>
        <time>2018-04-15T10:16:24Z</time>
      </trkpt>
      <trkpt lat="45.90413" lon="4.70029">
        <ele>225</ele>
        <time>2018-04-15T10:16:25Z</time>
      </trkpt>
      <trkpt lat="45.90419" lon="4.70028">
        <ele>225</ele>
        <time>2018-04-15T10:16:26Z</time>
      </trkpt>
      <trkpt lat="45.90424" lon="4.70028">
        <ele>225</ele>
        <time>2018-04-15T10:16:27Z</time>
      </trkpt>
      <trkpt lat="45.90429" lon="4.70028">
        <ele>225</ele>
        <time>2018-04-15T10:16:28Z</time>
      </trkpt>
      <trkpt lat="45.90433" lon="4.70028">
        <ele>225</ele>
        <time>2018-04-15T10:16:29Z</time>
      </trkpt>
      <trkpt lat="45.90438" lon="4.70027">
        <ele>225</ele>
        <time>2018-04-15T10:16:30Z</time>
      </trkpt>
      <trkpt lat="45.90444" lon="4.70026">
        <ele>225</ele>
        <time>2018-04-15T10:16:31Z</time>
      </trkpt>
      <trkpt lat="45.90449" lon="4.70027">
        <ele>225</ele>
        <time>2018-04-15T10:16:32Z</time>
      </trkpt>
      <trkpt lat="45.90454" lon="4.70027">
        <ele>225</ele>
        <time>2018-04-15T10:16:33Z</time>
      </trkpt>
      <trkpt lat="45.90459" lon="4.70027">
        <ele>225</ele>
        <time>2018-04-15T10:16:34Z</time>
      </trkpt>
      <trkpt lat="45.90465" lon="4.70027">
        <ele>225</ele>
        <time>2018-04-15T10:16:35Z</time>
      </trkpt>
      <trkpt lat="45.9047" lon="4.70028">
        <ele>225</ele>
        <time>2018-04-15T10:16:36Z</time>
      </trkpt>
      <trkpt lat="45.90475" lon="4.7003">
        <ele>225</ele>
        <time>2018-04-15T10:16:37Z</time>
      </trkpt>
      <trkpt lat="45.90481" lon="4.70031">
        <ele>225</ele>
        <time>2018-04-15T10:16:38Z</time>
      </trkpt>
      <trkpt lat="45.90486" lon="4.70032">
        <ele>225</ele>
        <time>2018-04-15T10:16:39Z</time>
      </trkpt>
      <trkpt lat="45.90492" lon="4.70033">
        <ele>225</ele>
        <time>2018-04-15T10:16:40Z</time>
      </trkpt>
      <trkpt lat="45.90498" lon="4.70033">
        <ele>225</ele>
        <time>2018-04-15T10:16:41Z</time>
      </trkpt>
      <trkpt lat="45.90504" lon="4.70034">
        <ele>224</ele>
        <time>2018-04-15T10:16:42Z</time>
      </trkpt>
      <trkpt lat="45.9051" lon="4.70035">
        <ele>224</ele>
        <time>2018-04-15T10:16:43Z</time>
      </trkpt>
      <trkpt lat="45.90516" lon="4.70036">
        <ele>224</ele>
        <time>2018-04-15T10:16:44Z</time>
      </trkpt>
      <trkpt lat="45.90522" lon="4.70039">
        <ele>224</ele>
        <time>2018-04-15T10:16:45Z</time>
      </trkpt>
      <trkpt lat="45.90529" lon="4.70041">
        <ele>224</ele>
        <time>2018-04-15T10:16:46Z</time>
      </trkpt>
      <trkpt lat="45.90535" lon="4.70043">
        <ele>224</ele>
        <time>2018-04-15T10:16:47Z</time>
      </trkpt>
      <trkpt lat="45.90541" lon="4.70045">
        <ele>224</ele>
        <time>2018-04-15T10:16:48Z</time>
      </trkpt>
      <trkpt lat="45.90547" lon="4.70048">
        <ele>224</ele>
        <time>2018-04-15T10:16:49Z</time>
      </trkpt>
      <trkpt lat="45.90553" lon="4.70051">
        <ele>224</ele>
        <time>2018-04-15T10:16:50Z</time>
      </trkpt>
      <trkpt lat="45.90559" lon="4.70053">
        <ele>224</ele>
        <time>2018-04-15T10:16:51Z</time>
      </trkpt>
      <trkpt lat="45.90566" lon="4.70056">
        <ele>223</ele>
        <time>2018-04-15T10:16:52Z</time>
      </trkpt>
      <trkpt lat="45.90571" lon="4.70059">
        <ele>223</ele>
        <time>2018-04-15T10:16:53Z</time>
      </trkpt>
      <trkpt lat="45.90577" lon="4.70061">
        <ele>223</ele>
        <time>2018-04-15T10:16:54Z</time>
      </trkpt>
      <trkpt lat="45.90582" lon="4.70064">
        <ele>223</ele>
        <time>2018-04-15T10:16:55Z</time>
      </trkpt>
      <trkpt lat="45.90587" lon="4.70067">
        <ele>223</ele>
        <time>2018-04-15T10:16:56Z</time>
      </trkpt>
      <trkpt lat="45.90593" lon="4.70071">
        <ele>223</ele>
        <time>2018-04-15T10:16:57Z</time>
      </trkpt>
      <trkpt lat="45.90598" lon="4.70074">
        <ele>223</ele>
        <time>2018-04-15T10:16:58Z</time>
      </trkpt>
      <trkpt lat="45.90605" lon="4.70076">
        <ele>223</ele>
        <time>2018-04-15T10:16:59Z</time>
      </trkpt>
      <trkpt lat="45.9061" lon="4.70079">
        <ele>223</ele>
        <time>2018-04-15T10:17:00Z</time>
      </trkpt>
      <trkpt lat="45.90615" lon="4.70082">
        <ele>224</ele>
        <time>2018-04-15T10:17:01Z</time>
      </trkpt>
      <trkpt lat="45.90621" lon="4.70086">
        <ele>221</ele>
        <time>2018-04-15T10:17:02Z</time>
      </trkpt>
      <trkpt lat="45.90627" lon="4.70088">
        <ele>221</ele>
        <time>2018-04-15T10:17:03Z</time>
      </trkpt>
      <trkpt lat="45.90633" lon="4.70091">
        <ele>221</ele>
        <time>2018-04-15T10:17:04Z</time>
      </trkpt>
      <trkpt lat="45.90639" lon="4.70094">
        <ele>221</ele>
        <time>2018-04-15T10:17:05Z</time>
      </trkpt>
      <trkpt lat="45.90645" lon="4.70096">
        <ele>221</ele>
        <time>2018-04-15T10:17:06Z</time>
      </trkpt>
      <trkpt lat="45.90651" lon="4.701">
        <ele>222</ele>
        <time>2018-04-15T10:17:07Z</time>
      </trkpt>
      <trkpt lat="45.90656" lon="4.70104">
        <ele>222</ele>
        <time>2018-04-15T10:17:08Z</time>
      </trkpt>
      <trkpt lat="45.90662" lon="4.70107">
        <ele>222</ele>
        <time>2018-04-15T10:17:09Z</time>
      </trkpt>
      <trkpt lat="45.90666" lon="4.7011">
        <ele>221</ele>
        <time>2018-04-15T10:17:10Z</time>
      </trkpt>
      <trkpt lat="45.90671" lon="4.70115">
        <ele>222</ele>
        <time>2018-04-15T10:17:11Z</time>
      </trkpt>
      <trkpt lat="45.90677" lon="4.7012">
        <ele>221</ele>
        <time>2018-04-15T10:17:12Z</time>
      </trkpt>
      <trkpt lat="45.90682" lon="4.70126">
        <ele>221</ele>
        <time>2018-04-15T10:17:13Z</time>
      </trkpt>
      <trkpt lat="45.90686" lon="4.70132">
        <ele>221</ele>
        <time>2018-04-15T10:17:14Z</time>
      </trkpt>
      <trkpt lat="45.90691" lon="4.70137">
        <ele>221</ele>
        <time>2018-04-15T10:17:15Z</time>
      </trkpt>
      <trkpt lat="45.90697" lon="4.70141">
        <ele>221</ele>
        <time>2018-04-15T10:17:16Z</time>
      </trkpt>
      <trkpt lat="45.90703" lon="4.70143">
        <ele>221</ele>
        <time>2018-04-15T10:17:17Z</time>
      </trkpt>
      <trkpt lat="45.90709" lon="4.70142">
        <ele>220</ele>
        <time>2018-04-15T10:17:18Z</time>
      </trkpt>
      <trkpt lat="45.90715" lon="4.70141">
        <ele>220</ele>
        <time>2018-04-15T10:17:19Z</time>
      </trkpt>
      <trkpt lat="45.90721" lon="4.7014">
        <ele>220</ele>
        <time>2018-04-15T10:17:20Z</time>
      </trkpt>
      <trkpt lat="45.90727" lon="4.7014">
        <ele>220</ele>
        <time>2018-04-15T10:17:21Z</time>
      </trkpt>
      <trkpt lat="45.90733" lon="4.70141">
        <ele>220</ele>
        <time>2018-04-15T10:17:22Z</time>
      </trkpt>
      <trkpt lat="45.9074" lon="4.70141">
        <ele>220</ele>
        <time>2018-04-15T10:17:23Z</time>
      </trkpt>
      <trkpt lat="45.90748" lon="4.7014">
        <ele>220</ele>
        <time>2018-04-15T10:17:24Z</time>
      </trkpt>
      <trkpt lat="45.90754" lon="4.7014">
        <ele>219</ele>
        <time>2018-04-15T10:17:25Z</time>
      </trkpt>
      <trkpt lat="45.90761" lon="4.70139">
        <ele>219</ele>
        <time>2018-04-15T10:17:26Z</time>
      </trkpt>
      <trkpt lat="45.90769" lon="4.70139">
        <ele>219</ele>
        <time>2018-04-15T10:17:27Z</time>
      </trkpt>
      <trkpt lat="45.90777" lon="4.7014">
        <ele>219</ele>
        <time>2018-04-15T10:17:28Z</time>
      </trkpt>
      <trkpt lat="45.90783" lon="4.70141">
        <ele>219</ele>
        <time>2018-04-15T10:17:29Z</time>
      </trkpt>
      <trkpt lat="45.9079" lon="4.70141">
        <ele>219</ele>
        <time>2018-04-15T10:17:30Z</time>
      </trkpt>
      <trkpt lat="45.90797" lon="4.70141">
        <ele>219</ele>
        <time>2018-04-15T10:17:31Z</time>
      </trkpt>
      <trkpt lat="45.90803" lon="4.7014">
        <ele>219</ele>
        <time>2018-04-15T10:17:32Z</time>
      </trkpt>
      <trkpt lat="45.90809" lon="4.7014">
        <ele>219</ele>
        <time>2018-04-15T10:17:33Z</time>
      </trkpt>
      <trkpt lat="45.90816" lon="4.70141">
        <ele>219</ele>
        <time>2018-04-15T10:17:34Z</time>
      </trkpt>
      <trkpt lat="45.90822" lon="4.7014">
        <ele>218</ele>
        <time>2018-04-15T10:17:35Z</time>
      </trkpt>
      <trkpt lat="45.90829" lon="4.7014">
        <ele>218</ele>
        <time>2018-04-15T10:17:36Z</time>
      </trkpt>
      <trkpt lat="45.90836" lon="4.70139">
        <ele>218</ele>
        <time>2018-04-15T10:17:37Z</time>
      </trkpt>
      <trkpt lat="45.90843" lon="4.70138">
        <ele>218</ele>
        <time>2018-04-15T10:17:38Z</time>
      </trkpt>
      <trkpt lat="45.9085" lon="4.70137">
        <ele>218</ele>
        <time>2018-04-15T10:17:39Z</time>
      </trkpt>
      <trkpt lat="45.90856" lon="4.70137">
        <ele>218</ele>
        <time>2018-04-15T10:17:40Z</time>
      </trkpt>
      <trkpt lat="45.90862" lon="4.70137">
        <ele>218</ele>
        <time>2018-04-15T10:17:41Z</time>
      </trkpt>
      <trkpt lat="45.90868" lon="4.70137">
        <ele>218</ele>
        <time>2018-04-15T10:17:42Z</time>
      </trkpt>
      <trkpt lat="45.90873" lon="4.70136">
        <ele>218</ele>
        <time>2018-04-15T10:17:43Z</time>
      </trkpt>
      <trkpt lat="45.90879" lon="4.70136">
        <ele>218</ele>
        <time>2018-04-15T10:17:44Z</time>
      </trkpt>
      <trkpt lat="45.90885" lon="4.70136">
        <ele>218</ele>
        <time>2018-04-15T10:17:45Z</time>
      </trkpt>
      <trkpt lat="45.90891" lon="4.70135">
        <ele>218</ele>
        <time>2018-04-15T10:17:46Z</time>
      </trkpt>
      <trkpt lat="45.90897" lon="4.70135">
        <ele>218</ele>
        <time>2018-04-15T10:17:47Z</time>
      </trkpt>
      <trkpt lat="45.90904" lon="4.70135">
        <ele>218</ele>
        <time>2018-04-15T10:17:48Z</time>
      </trkpt>
      <trkpt lat="45.9091" lon="4.70133">
        <ele>218</ele>
        <time>2018-04-15T10:17:49Z</time>
      </trkpt>
      <trkpt lat="45.90917" lon="4.70133">
        <ele>218</ele>
        <time>2018-04-15T10:17:50Z</time>
      </trkpt>
      <trkpt lat="45.90924" lon="4.70134">
        <ele>219</ele>
        <time>2018-04-15T10:17:51Z</time>
      </trkpt>
      <trkpt lat="45.90929" lon="4.70132">
        <ele>219</ele>
        <time>2018-04-15T10:17:52Z</time>
      </trkpt>
      <trkpt lat="45.90935" lon="4.70132">
        <ele>219</ele>
        <time>2018-04-15T10:17:53Z</time>
      </trkpt>
      <trkpt lat="45.90941" lon="4.70133">
        <ele>219</ele>
        <time>2018-04-15T10:17:54Z</time>
      </trkpt>
      <trkpt lat="45.90947" lon="4.70135">
        <ele>219</ele>
        <time>2018-04-15T10:17:55Z</time>
      </trkpt>
      <trkpt lat="45.90953" lon="4.70136">
        <ele>219</ele>
        <time>2018-04-15T10:17:56Z</time>
      </trkpt>
      <trkpt lat="45.90959" lon="4.70138">
        <ele>219</ele>
        <time>2018-04-15T10:17:57Z</time>
      </trkpt>
      <trkpt lat="45.90965" lon="4.7014">
        <ele>218</ele>
        <time>2018-04-15T10:17:58Z</time>
      </trkpt>
      <trkpt lat="45.90971" lon="4.70143">
        <ele>218</ele>
        <time>2018-04-15T10:17:59Z</time>
      </trkpt>
      <trkpt lat="45.90977" lon="4.70144">
        <ele>218</ele>
        <time>2018-04-15T10:18:00Z</time>
      </trkpt>
      <trkpt lat="45.90984" lon="4.70146">
        <ele>218</ele>
        <time>2018-04-15T10:18:01Z</time>
      </trkpt>
      <trkpt lat="45.90991" lon="4.70148">
        <ele>218</ele>
        <time>2018-04-15T10:18:02Z</time>
      </trkpt>
      <trkpt lat="45.90997" lon="4.70151">
        <ele>217</ele>
        <time>2018-04-15T10:18:03Z</time>
      </trkpt>
      <trkpt lat="45.91004" lon="4.70153">
        <ele>217</ele>
        <time>2018-04-15T10:18:04Z</time>
      </trkpt>
      <trkpt lat="45.91011" lon="4.70155">
        <ele>218</ele>
        <time>2018-04-15T10:18:05Z</time>
      </trkpt>
      <trkpt lat="45.91017" lon="4.70157">
        <ele>218</ele>
        <time>2018-04-15T10:18:06Z</time>
      </trkpt>
      <trkpt lat="45.91023" lon="4.70158">
        <ele>218</ele>
        <time>2018-04-15T10:18:07Z</time>
      </trkpt>
      <trkpt lat="45.91029" lon="4.7016">
        <ele>218</ele>
        <time>2018-04-15T10:18:08Z</time>
      </trkpt>
      <trkpt lat="45.91035" lon="4.70163">
        <ele>218</ele>
        <time>2018-04-15T10:18:09Z</time>
      </trkpt>
      <trkpt lat="45.91041" lon="4.70164">
        <ele>218</ele>
        <time>2018-04-15T10:18:10Z</time>
      </trkpt>
      <trkpt lat="45.91047" lon="4.70166">
        <ele>218</ele>
        <time>2018-04-15T10:18:11Z</time>
      </trkpt>
      <trkpt lat="45.91053" lon="4.70168">
        <ele>216</ele>
        <time>2018-04-15T10:18:12Z</time>
      </trkpt>
      <trkpt lat="45.91061" lon="4.7017">
        <ele>216</ele>
        <time>2018-04-15T10:18:13Z</time>
      </trkpt>
      <trkpt lat="45.91068" lon="4.70173">
        <ele>216</ele>
        <time>2018-04-15T10:18:14Z</time>
      </trkpt>
      <trkpt lat="45.91074" lon="4.70175">
        <ele>216</ele>
        <time>2018-04-15T10:18:15Z</time>
      </trkpt>
      <trkpt lat="45.91081" lon="4.70179">
        <ele>216</ele>
        <time>2018-04-15T10:18:16Z</time>
      </trkpt>
      <trkpt lat="45.91087" lon="4.7018">
        <ele>216</ele>
        <time>2018-04-15T10:18:17Z</time>
      </trkpt>
      <trkpt lat="45.91094" lon="4.70182">
        <ele>216</ele>
        <time>2018-04-15T10:18:18Z</time>
      </trkpt>
      <trkpt lat="45.91101" lon="4.70185">
        <ele>215</ele>
        <time>2018-04-15T10:18:19Z</time>
      </trkpt>
      <trkpt lat="45.91106" lon="4.70188">
        <ele>215</ele>
        <time>2018-04-15T10:18:20Z</time>
      </trkpt>
      <trkpt lat="45.91112" lon="4.7019">
        <ele>215</ele>
        <time>2018-04-15T10:18:21Z</time>
      </trkpt>
      <trkpt lat="45.91118" lon="4.70191">
        <ele>215</ele>
        <time>2018-04-15T10:18:22Z</time>
      </trkpt>
      <trkpt lat="45.91124" lon="4.70193">
        <ele>215</ele>
        <time>2018-04-15T10:18:23Z</time>
      </trkpt>
      <trkpt lat="45.91131" lon="4.70194">
        <ele>215</ele>
        <time>2018-04-15T10:18:24Z</time>
      </trkpt>
      <trkpt lat="45.91137" lon="4.70196">
        <ele>215</ele>
        <time>2018-04-15T10:18:25Z</time>
      </trkpt>
      <trkpt lat="45.91144" lon="4.70198">
        <ele>215</ele>
        <time>2018-04-15T10:18:26Z</time>
      </trkpt>
      <trkpt lat="45.91151" lon="4.70201">
        <ele>215</ele>
        <time>2018-04-15T10:18:27Z</time>
      </trkpt>
      <trkpt lat="45.91157" lon="4.70203">
        <ele>215</ele>
        <time>2018-04-15T10:18:28Z</time>
      </trkpt>
      <trkpt lat="45.91163" lon="4.70205">
        <ele>214</ele>
        <time>2018-04-15T10:18:29Z</time>
      </trkpt>
      <trkpt lat="45.9117" lon="4.70209">
        <ele>214</ele>
        <time>2018-04-15T10:18:30Z</time>
      </trkpt>
      <trkpt lat="45.91176" lon="4.7021">
        <ele>214</ele>
        <time>2018-04-15T10:18:31Z</time>
      </trkpt>
      <trkpt lat="45.91182" lon="4.70212">
        <ele>214</ele>
        <time>2018-04-15T10:18:32Z</time>
      </trkpt>
      <trkpt lat="45.91187" lon="4.70213">
        <ele>214</ele>
        <time>2018-04-15T10:18:33Z</time>
      </trkpt>
      <trkpt lat="45.91194" lon="4.70216">
        <ele>214</ele>
        <time>2018-04-15T10:18:34Z</time>
      </trkpt>
      <trkpt lat="45.91201" lon="4.70217">
        <ele>214</ele>
        <time>2018-04-15T10:18:35Z</time>
      </trkpt>
      <trkpt lat="45.91208" lon="4.70218">
        <ele>214</ele>
        <time>2018-04-15T10:18:36Z</time>
      </trkpt>
      <trkpt lat="45.91215" lon="4.70222">
        <ele>214</ele>
        <time>2018-04-15T10:18:37Z</time>
      </trkpt>
      <trkpt lat="45.91221" lon="4.70224">
        <ele>213</ele>
        <time>2018-04-15T10:18:38Z</time>
      </trkpt>
      <trkpt lat="45.91229" lon="4.70227">
        <ele>213</ele>
        <time>2018-04-15T10:18:39Z</time>
      </trkpt>
      <trkpt lat="45.91236" lon="4.7023">
        <ele>213</ele>
        <time>2018-04-15T10:18:40Z</time>
      </trkpt>
      <trkpt lat="45.91243" lon="4.70232">
        <ele>213</ele>
        <time>2018-04-15T10:18:41Z</time>
      </trkpt>
      <trkpt lat="45.91249" lon="4.70234">
        <ele>212</ele>
        <time>2018-04-15T10:18:42Z</time>
      </trkpt>
      <trkpt lat="45.91255" lon="4.70236">
        <ele>213</ele>
        <time>2018-04-15T10:18:43Z</time>
      </trkpt>
      <trkpt lat="45.91262" lon="4.70237">
        <ele>213</ele>
        <time>2018-04-15T10:18:44Z</time>
      </trkpt>
      <trkpt lat="45.91268" lon="4.70239">
        <ele>213</ele>
        <time>2018-04-15T10:18:45Z</time>
      </trkpt>
      <trkpt lat="45.91276" lon="4.70242">
        <ele>213</ele>
        <time>2018-04-15T10:18:46Z</time>
      </trkpt>
      <trkpt lat="45.91282" lon="4.70243">
        <ele>213</ele>
        <time>2018-04-15T10:18:47Z</time>
      </trkpt>
      <trkpt lat="45.91288" lon="4.70246">
        <ele>214</ele>
        <time>2018-04-15T10:18:48Z</time>
      </trkpt>
      <trkpt lat="45.91295" lon="4.70248">
        <ele>214</ele>
        <time>2018-04-15T10:18:49Z</time>
      </trkpt>
      <trkpt lat="45.913" lon="4.7025">
        <ele>214</ele>
        <time>2018-04-15T10:18:50Z</time>
      </trkpt>
      <trkpt lat="45.91306" lon="4.70252">
        <ele>210</ele>
        <time>2018-04-15T10:18:51Z</time>
      </trkpt>
      <trkpt lat="45.91312" lon="4.70255">
        <ele>210</ele>
        <time>2018-04-15T10:18:52Z</time>
      </trkpt>
      <trkpt lat="45.91318" lon="4.70258">
        <ele>211</ele>
        <time>2018-04-15T10:18:53Z</time>
      </trkpt>
      <trkpt lat="45.91324" lon="4.70262">
        <ele>211</ele>
        <time>2018-04-15T10:18:54Z</time>
      </trkpt>
      <trkpt lat="45.91331" lon="4.70264">
        <ele>211</ele>
        <time>2018-04-15T10:18:55Z</time>
      </trkpt>
      <trkpt lat="45.91337" lon="4.70267">
        <ele>211</ele>
        <time>2018-04-15T10:18:56Z</time>
      </trkpt>
      <trkpt lat="45.91342" lon="4.70272">
        <ele>210</ele>
        <time>2018-04-15T10:18:57Z</time>
      </trkpt>
      <trkpt lat="45.91349" lon="4.70275">
        <ele>210</ele>
        <time>2018-04-15T10:18:58Z</time>
      </trkpt>
      <trkpt lat="45.91355" lon="4.7028">
        <ele>210</ele>
        <time>2018-04-15T10:18:59Z</time>
      </trkpt>
      <trkpt lat="45.91362" lon="4.70287">
        <ele>210</ele>
        <time>2018-04-15T10:19:00Z</time>
      </trkpt>
      <trkpt lat="45.91368" lon="4.70291">
        <ele>210</ele>
        <time>2018-04-15T10:19:01Z</time>
      </trkpt>
      <trkpt lat="45.91373" lon="4.70296">
        <ele>209</ele>
        <time>2018-04-15T10:19:02Z</time>
      </trkpt>
      <trkpt lat="45.9138" lon="4.70302">
        <ele>209</ele>
        <time>2018-04-15T10:19:03Z</time>
      </trkpt>
      <trkpt lat="45.91386" lon="4.70307">
        <ele>209</ele>
        <time>2018-04-15T10:19:04Z</time>
      </trkpt>
      <trkpt lat="45.91392" lon="4.70312">
        <ele>209</ele>
        <time>2018-04-15T10:19:05Z</time>
      </trkpt>
      <trkpt lat="45.91398" lon="4.70316">
        <ele>209</ele>
        <time>2018-04-15T10:19:06Z</time>
      </trkpt>
      <trkpt lat="45.91404" lon="4.70322">
        <ele>209</ele>
        <time>2018-04-15T10:19:07Z</time>
      </trkpt>
      <trkpt lat="45.91409" lon="4.70327">
        <ele>208</ele>
        <time>2018-04-15T10:19:08Z</time>
      </trkpt>
      <trkpt lat="45.91416" lon="4.70332">
        <ele>208</ele>
        <time>2018-04-15T10:19:09Z</time>
      </trkpt>
      <trkpt lat="45.91422" lon="4.70336">
        <ele>208</ele>
        <time>2018-04-15T10:19:10Z</time>
      </trkpt>
      <trkpt lat="45.91428" lon="4.70341">
        <ele>207</ele>
        <time>2018-04-15T10:19:11Z</time>
      </trkpt>
      <trkpt lat="45.91434" lon="4.70347">
        <ele>207</ele>
        <time>2018-04-15T10:19:12Z</time>
      </trkpt>
      <trkpt lat="45.91441" lon="4.70352">
        <ele>207</ele>
        <time>2018-04-15T10:19:13Z</time>
      </trkpt>
      <trkpt lat="45.91447" lon="4.70357">
        <ele>207</ele>
        <time>2018-04-15T10:19:14Z</time>
      </trkpt>
      <trkpt lat="45.91453" lon="4.70362">
        <ele>206</ele>
        <time>2018-04-15T10:19:15Z</time>
      </trkpt>
      <trkpt lat="45.9146" lon="4.70368">
        <ele>206</ele>
        <time>2018-04-15T10:19:16Z</time>
      </trkpt>
      <trkpt lat="45.91466" lon="4.70373">
        <ele>206</ele>
        <time>2018-04-15T10:19:17Z</time>
      </trkpt>
      <trkpt lat="45.91473" lon="4.70378">
        <ele>206</ele>
        <time>2018-04-15T10:19:18Z</time>
      </trkpt>
      <trkpt lat="45.91479" lon="4.70384">
        <ele>206</ele>
        <time>2018-04-15T10:19:19Z</time>
      </trkpt>
      <trkpt lat="45.91485" lon="4.70389">
        <ele>205</ele>
        <time>2018-04-15T10:19:20Z</time>
      </trkpt>
      <trkpt lat="45.91492" lon="4.70394">
        <ele>205</ele>
        <time>2018-04-15T10:19:21Z</time>
      </trkpt>
      <trkpt lat="45.91498" lon="4.704">
        <ele>205</ele>
        <time>2018-04-15T10:19:22Z</time>
      </trkpt>
      <trkpt lat="45.91504" lon="4.70405">
        <ele>205</ele>
        <time>2018-04-15T10:19:23Z</time>
      </trkpt>
      <trkpt lat="45.91512" lon="4.7041">
        <ele>205</ele>
        <time>2018-04-15T10:19:24Z</time>
      </trkpt>
      <trkpt lat="45.91517" lon="4.70415">
        <ele>205</ele>
        <time>2018-04-15T10:19:25Z</time>
      </trkpt>
      <trkpt lat="45.91523" lon="4.70419">
        <ele>203</ele>
        <time>2018-04-15T10:19:26Z</time>
      </trkpt>
      <trkpt lat="45.9153" lon="4.70423">
        <ele>203</ele>
        <time>2018-04-15T10:19:27Z</time>
      </trkpt>
      <trkpt lat="45.91536" lon="4.70428">
        <ele>203</ele>
        <time>2018-04-15T10:19:28Z</time>
      </trkpt>
      <trkpt lat="45.91542" lon="4.70434">
        <ele>203</ele>
        <time>2018-04-15T10:19:29Z</time>
      </trkpt>
      <trkpt lat="45.91548" lon="4.70439">
        <ele>203</ele>
        <time>2018-04-15T10:19:30Z</time>
      </trkpt>
      <trkpt lat="45.91555" lon="4.70444">
        <ele>203</ele>
        <time>2018-04-15T10:19:31Z</time>
      </trkpt>
      <trkpt lat="45.91562" lon="4.7045">
        <ele>203</ele>
        <time>2018-04-15T10:19:32Z</time>
      </trkpt>
      <trkpt lat="45.91569" lon="4.70455">
        <ele>203</ele>
        <time>2018-04-15T10:19:33Z</time>
      </trkpt>
      <trkpt lat="45.91575" lon="4.70461">
        <ele>203</ele>
        <time>2018-04-15T10:19:34Z</time>
      </trkpt>
      <trkpt lat="45.91581" lon="4.70467">
        <ele>203</ele>
        <time>2018-04-15T10:19:35Z</time>
      </trkpt>
      <trkpt lat="45.91588" lon="4.70473">
        <ele>202</ele>
        <time>2018-04-15T10:19:36Z</time>
      </trkpt>
      <trkpt lat="45.91594" lon="4.70478">
        <ele>202</ele>
        <time>2018-04-15T10:19:37Z</time>
      </trkpt>
      <trkpt lat="45.916" lon="4.70483">
        <ele>202</ele>
        <time>2018-04-15T10:19:38Z</time>
      </trkpt>
      <trkpt lat="45.91606" lon="4.70489">
        <ele>202</ele>
        <time>2018-04-15T10:19:39Z</time>
      </trkpt>
      <trkpt lat="45.91613" lon="4.70494">
        <ele>202</ele>
        <time>2018-04-15T10:19:40Z</time>
      </trkpt>
      <trkpt lat="45.91619" lon="4.705">
        <ele>201</ele>
        <time>2018-04-15T10:19:41Z</time>
      </trkpt>
      <trkpt lat="45.91626" lon="4.70506">
        <ele>199</ele>
        <time>2018-04-15T10:19:42Z</time>
      </trkpt>
      <trkpt lat="45.91632" lon="4.70511">
        <ele>199</ele>
        <time>2018-04-15T10:19:43Z</time>
      </trkpt>
      <trkpt lat="45.91639" lon="4.70515">
        <ele>199</ele>
        <time>2018-04-15T10:19:44Z</time>
      </trkpt>
      <trkpt lat="45.91645" lon="4.70521">
        <ele>199</ele>
        <time>2018-04-15T10:19:45Z</time>
      </trkpt>
      <trkpt lat="45.91652" lon="4.70526">
        <ele>198</ele>
        <time>2018-04-15T10:19:46Z</time>
      </trkpt>
      <trkpt lat="45.91657" lon="4.7053">
        <ele>198</ele>
        <time>2018-04-15T10:19:47Z</time>
      </trkpt>
      <trkpt lat="45.91664" lon="4.70535">
        <ele>198</ele>
        <time>2018-04-15T10:19:48Z</time>
      </trkpt>
      <trkpt lat="45.91669" lon="4.70541">
        <ele>198</ele>
        <time>2018-04-15T10:19:49Z</time>
      </trkpt>
      <trkpt lat="45.91675" lon="4.70546">
        <ele>198</ele>
        <time>2018-04-15T10:19:50Z</time>
      </trkpt>
      <trkpt lat="45.91681" lon="4.70552">
        <ele>198</ele>
        <time>2018-04-15T10:19:51Z</time>
      </trkpt>
      <trkpt lat="45.91687" lon="4.70557">
        <ele>198</ele>
        <time>2018-04-15T10:19:52Z</time>
      </trkpt>
      <trkpt lat="45.91692" lon="4.70562">
        <ele>198</ele>
        <time>2018-04-15T10:19:53Z</time>
      </trkpt>
      <trkpt lat="45.91697" lon="4.70568">
        <ele>197</ele>
        <time>2018-04-15T10:19:54Z</time>
      </trkpt>
      <trkpt lat="45.91701" lon="4.70575">
        <ele>197</ele>
        <time>2018-04-15T10:19:55Z</time>
      </trkpt>
      <trkpt lat="45.91704" lon="4.70583">
        <ele>197</ele>
        <time>2018-04-15T10:19:56Z</time>
      </trkpt>
      <trkpt lat="45.91708" lon="4.70589">
        <ele>196</ele>
        <time>2018-04-15T10:19:57Z</time>
      </trkpt>
      <trkpt lat="45.91714" lon="4.70593">
        <ele>195</ele>
        <time>2018-04-15T10:19:58Z</time>
      </trkpt>
      <trkpt lat="45.9172" lon="4.70595">
        <ele>195</ele>
        <time>2018-04-15T10:19:59Z</time>
      </trkpt>
      <trkpt lat="45.91726" lon="4.70596">
        <ele>195</ele>
        <time>2018-04-15T10:20:00Z</time>
      </trkpt>
      <trkpt lat="45.91732" lon="4.70597">
        <ele>195</ele>
        <time>2018-04-15T10:20:01Z</time>
      </trkpt>
      <trkpt lat="45.91738" lon="4.70599">
        <ele>195</ele>
        <time>2018-04-15T10:20:02Z</time>
      </trkpt>
      <trkpt lat="45.91744" lon="4.70602">
        <ele>195</ele>
        <time>2018-04-15T10:20:03Z</time>
      </trkpt>
      <trkpt lat="45.91751" lon="4.70606">
        <ele>195</ele>
        <time>2018-04-15T10:20:04Z</time>
      </trkpt>
      <trkpt lat="45.91757" lon="4.70609">
        <ele>195</ele>
        <time>2018-04-15T10:20:05Z</time>
      </trkpt>
      <trkpt lat="45.91763" lon="4.7061">
        <ele>195</ele>
        <time>2018-04-15T10:20:06Z</time>
      </trkpt>
      <trkpt lat="45.91769" lon="4.70611">
        <ele>195</ele>
        <time>2018-04-15T10:20:07Z</time>
      </trkpt>
      <trkpt lat="45.91776" lon="4.70614">
        <ele>195</ele>
        <time>2018-04-15T10:20:08Z</time>
      </trkpt>
      <trkpt lat="45.91782" lon="4.70615">
        <ele>194</ele>
        <time>2018-04-15T10:20:09Z</time>
      </trkpt>
      <trkpt lat="45.9179" lon="4.70616">
        <ele>194</ele>
        <time>2018-04-15T10:20:10Z</time>
      </trkpt>
      <trkpt lat="45.91797" lon="4.70618">
        <ele>194</ele>
        <time>2018-04-15T10:20:11Z</time>
      </trkpt>
      <trkpt lat="45.91804" lon="4.70619">
        <ele>194</ele>
        <time>2018-04-15T10:20:12Z</time>
      </trkpt>
      <trkpt lat="45.91812" lon="4.70621">
        <ele>194</ele>
        <time>2018-04-15T10:20:13Z</time>
      </trkpt>
      <trkpt lat="45.9182" lon="4.70621">
        <ele>194</ele>
        <time>2018-04-15T10:20:14Z</time>
      </trkpt>
      <trkpt lat="45.91827" lon="4.70622">
        <ele>194</ele>
        <time>2018-04-15T10:20:15Z</time>
      </trkpt>
      <trkpt lat="45.91835" lon="4.70622">
        <ele>194</ele>
        <time>2018-04-15T10:20:16Z</time>
      </trkpt>
      <trkpt lat="45.91843" lon="4.70623">
        <ele>194</ele>
        <time>2018-04-15T10:20:17Z</time>
      </trkpt>
      <trkpt lat="45.91851" lon="4.70622">
        <ele>194</ele>
        <time>2018-04-15T10:20:18Z</time>
      </trkpt>
      <trkpt lat="45.91859" lon="4.70621">
        <ele>194</ele>
        <time>2018-04-15T10:20:19Z</time>
      </trkpt>
      <trkpt lat="45.91866" lon="4.7062">
        <ele>194</ele>
        <time>2018-04-15T10:20:20Z</time>
      </trkpt>
      <trkpt lat="45.91873" lon="4.70621">
        <ele>194</ele>
        <time>2018-04-15T10:20:21Z</time>
      </trkpt>
      <trkpt lat="45.9188" lon="4.70621">
        <ele>194</ele>
        <time>2018-04-15T10:20:22Z</time>
      </trkpt>
      <trkpt lat="45.91887" lon="4.70619">
        <ele>194</ele>
        <time>2018-04-15T10:20:23Z</time>
      </trkpt>
      <trkpt lat="45.91894" lon="4.70619">
        <ele>194</ele>
        <time>2018-04-15T10:20:24Z</time>
      </trkpt>
      <trkpt lat="45.91901" lon="4.70618">
        <ele>194</ele>
        <time>2018-04-15T10:20:25Z</time>
      </trkpt>
      <trkpt lat="45.91908" lon="4.70618">
        <ele>194</ele>
        <time>2018-04-15T10:20:26Z</time>
      </trkpt>
      <trkpt lat="45.91914" lon="4.70618">
        <ele>194</ele>
        <time>2018-04-15T10:20:27Z</time>
      </trkpt>
      <trkpt lat="45.9192" lon="4.70617">
        <ele>194</ele>
        <time>2018-04-15T10:20:28Z</time>
      </trkpt>
      <trkpt lat="45.91926" lon="4.70616">
        <ele>194</ele>
        <time>2018-04-15T10:20:29Z</time>
      </trkpt>
      <trkpt lat="45.91933" lon="4.70615">
        <ele>194</ele>
        <time>2018-04-15T10:20:30Z</time>
      </trkpt>
      <trkpt lat="45.91939" lon="4.70615">
        <ele>194</ele>
        <time>2018-04-15T10:20:31Z</time>
      </trkpt>
      <trkpt lat="45.91946" lon="4.70614">
        <ele>194</ele>
        <time>2018-04-15T10:20:32Z</time>
      </trkpt>
      <trkpt lat="45.91953" lon="4.70613">
        <ele>194</ele>
        <time>2018-04-15T10:20:33Z</time>
      </trkpt>
      <trkpt lat="45.9196" lon="4.70612">
        <ele>194</ele>
        <time>2018-04-15T10:20:34Z</time>
      </trkpt>
      <trkpt lat="45.91967" lon="4.70611">
        <ele>194</ele>
        <time>2018-04-15T10:20:35Z</time>
      </trkpt>
      <trkpt lat="45.91974" lon="4.7061">
        <ele>194</ele>
        <time>2018-04-15T10:20:36Z</time>
      </trkpt>
      <trkpt lat="45.9198" lon="4.7061">
        <ele>194</ele>
        <time>2018-04-15T10:20:37Z</time>
      </trkpt>
      <trkpt lat="45.91986" lon="4.70607">
        <ele>194</ele>
        <time>2018-04-15T10:20:38Z</time>
      </trkpt>
      <trkpt lat="45.91993" lon="4.70604">
        <ele>194</ele>
        <time>2018-04-15T10:20:39Z</time>
      </trkpt>
      <trkpt lat="45.92" lon="4.70602">
        <ele>194</ele>
        <time>2018-04-15T10:20:40Z</time>
      </trkpt>
      <trkpt lat="45.92007" lon="4.70601">
        <ele>194</ele>
        <time>2018-04-15T10:20:41Z</time>
      </trkpt>
      <trkpt lat="45.92014" lon="4.706">
        <ele>194</ele>
        <time>2018-04-15T10:20:42Z</time>
      </trkpt>
      <trkpt lat="45.92021" lon="4.70598">
        <ele>194</ele>
        <time>2018-04-15T10:20:43Z</time>
      </trkpt>
      <trkpt lat="45.92028" lon="4.70597">
        <ele>194</ele>
        <time>2018-04-15T10:20:44Z</time>
      </trkpt>
      <trkpt lat="45.92034" lon="4.70596">
        <ele>194</ele>
        <time>2018-04-15T10:20:45Z</time>
      </trkpt>
      <trkpt lat="45.92041" lon="4.70595">
        <ele>193</ele>
        <time>2018-04-15T10:20:46Z</time>
      </trkpt>
      <trkpt lat="45.92048" lon="4.70594">
        <ele>193</ele>
        <time>2018-04-15T10:20:47Z</time>
      </trkpt>
      <trkpt lat="45.92055" lon="4.70593">
        <ele>193</ele>
        <time>2018-04-15T10:20:48Z</time>
      </trkpt>
      <trkpt lat="45.92062" lon="4.70593">
        <ele>193</ele>
        <time>2018-04-15T10:20:49Z</time>
      </trkpt>
      <trkpt lat="45.9207" lon="4.70593">
        <ele>194</ele>
        <time>2018-04-15T10:20:50Z</time>
      </trkpt>
      <trkpt lat="45.92076" lon="4.70592">
        <ele>194</ele>
        <time>2018-04-15T10:20:51Z</time>
      </trkpt>
      <trkpt lat="45.92083" lon="4.70591">
        <ele>194</ele>
        <time>2018-04-15T10:20:52Z</time>
      </trkpt>
      <trkpt lat="45.9209" lon="4.7059">
        <ele>193</ele>
        <time>2018-04-15T10:20:53Z</time>
      </trkpt>
      <trkpt lat="45.92097" lon="4.7059">
        <ele>193</ele>
        <time>2018-04-15T10:20:54Z</time>
      </trkpt>
      <trkpt lat="45.92103" lon="4.70591">
        <ele>192</ele>
        <time>2018-04-15T10:20:55Z</time>
      </trkpt>
      <trkpt lat="45.9211" lon="4.7059">
        <ele>192</ele>
        <time>2018-04-15T10:20:56Z</time>
      </trkpt>
      <trkpt lat="45.92116" lon="4.7059">
        <ele>192</ele>
        <time>2018-04-15T10:20:57Z</time>
      </trkpt>
      <trkpt lat="45.92123" lon="4.70589">
        <ele>191</ele>
        <time>2018-04-15T10:20:58Z</time>
      </trkpt>
      <trkpt lat="45.92129" lon="4.70589">
        <ele>191</ele>
        <time>2018-04-15T10:20:59Z</time>
      </trkpt>
      <trkpt lat="45.92135" lon="4.70589">
        <ele>191</ele>
        <time>2018-04-15T10:21:00Z</time>
      </trkpt>
      <trkpt lat="45.92141" lon="4.70588">
        <ele>191</ele>
        <time>2018-04-15T10:21:01Z</time>
      </trkpt>
      <trkpt lat="45.92148" lon="4.70589">
        <ele>191</ele>
        <time>2018-04-15T10:21:02Z</time>
      </trkpt>
      <trkpt lat="45.92154" lon="4.70589">
        <ele>190</ele>
        <time>2018-04-15T10:21:03Z</time>
      </trkpt>
      <trkpt lat="45.9216" lon="4.7059">
        <ele>190</ele>
        <time>2018-04-15T10:21:04Z</time>
      </trkpt>
      <trkpt lat="45.92166" lon="4.70589">
        <ele>190</ele>
        <time>2018-04-15T10:21:05Z</time>
      </trkpt>
      <trkpt lat="45.92173" lon="4.7059">
        <ele>191</ele>
        <time>2018-04-15T10:21:06Z</time>
      </trkpt>
      <trkpt lat="45.92178" lon="4.70592">
        <ele>191</ele>
        <time>2018-04-15T10:21:07Z</time>
      </trkpt>
      <trkpt lat="45.92184" lon="4.70593">
        <ele>191</ele>
        <time>2018-04-15T10:21:08Z</time>
      </trkpt>
      <trkpt lat="45.92189" lon="4.70594">
        <ele>192</ele>
        <time>2018-04-15T10:21:09Z</time>
      </trkpt>
      <trkpt lat="45.92195" lon="4.70594">
        <ele>192</ele>
        <time>2018-04-15T10:21:10Z</time>
      </trkpt>
      <trkpt lat="45.922" lon="4.70596">
        <ele>192</ele>
        <time>2018-04-15T10:21:11Z</time>
      </trkpt>
      <trkpt lat="45.92206" lon="4.70595">
        <ele>192</ele>
        <time>2018-04-15T10:21:12Z</time>
      </trkpt>
      <trkpt lat="45.92212" lon="4.70595">
        <ele>193</ele>
        <time>2018-04-15T10:21:13Z</time>
      </trkpt>
      <trkpt lat="45.92218" lon="4.70596">
        <ele>193</ele>
        <time>2018-04-15T10:21:14Z</time>
      </trkpt>
      <trkpt lat="45.92225" lon="4.70597">
        <ele>193</ele>
        <time>2018-04-15T10:21:15Z</time>
      </trkpt>
      <trkpt lat="45.9223" lon="4.70599">
        <ele>194</ele>
        <time>2018-04-15T10:21:16Z</time>
      </trkpt>
      <trkpt lat="45.92236" lon="4.70601">
        <ele>194</ele>
        <time>2018-04-15T10:21:17Z</time>
      </trkpt>
      <trkpt lat="45.92241" lon="4.70603">
        <ele>194</ele>
        <time>2018-04-15T10:21:18Z</time>
      </trkpt>
      <trkpt lat="45.92247" lon="4.70603">
        <ele>194</ele>
        <time>2018-04-15T10:21:19Z</time>
      </trkpt>
      <trkpt lat="45.92253" lon="4.70605">
        <ele>196</ele>
        <time>2018-04-15T10:21:20Z</time>
      </trkpt>
      <trkpt lat="45.92259" lon="4.70607">
        <ele>196</ele>
        <time>2018-04-15T10:21:21Z</time>
      </trkpt>
      <trkpt lat="45.92265" lon="4.70609">
        <ele>196</ele>
        <time>2018-04-15T10:21:22Z</time>
      </trkpt>
      <trkpt lat="45.9227" lon="4.70611">
        <ele>196</ele>
        <time>2018-04-15T10:21:23Z</time>
      </trkpt>
      <trkpt lat="45.92276" lon="4.70613">
        <ele>196</ele>
        <time>2018-04-15T10:21:24Z</time>
      </trkpt>
      <trkpt lat="45.92281" lon="4.70615">
        <ele>196</ele>
        <time>2018-04-15T10:21:25Z</time>
      </trkpt>
      <trkpt lat="45.92287" lon="4.70617">
        <ele>196</ele>
        <time>2018-04-15T10:21:26Z</time>
      </trkpt>
      <trkpt lat="45.92293" lon="4.70621">
        <ele>196</ele>
        <time>2018-04-15T10:21:27Z</time>
      </trkpt>
      <trkpt lat="45.92298" lon="4.70624">
        <ele>196</ele>
        <time>2018-04-15T10:21:28Z</time>
      </trkpt>
      <trkpt lat="45.92304" lon="4.70626">
        <ele>196</ele>
        <time>2018-04-15T10:21:29Z</time>
      </trkpt>
      <trkpt lat="45.9231" lon="4.70629">
        <ele>196</ele>
        <time>2018-04-15T10:21:30Z</time>
      </trkpt>
      <trkpt lat="45.92316" lon="4.70632">
        <ele>196</ele>
        <time>2018-04-15T10:21:31Z</time>
      </trkpt>
      <trkpt lat="45.92322" lon="4.70634">
        <ele>196</ele>
        <time>2018-04-15T10:21:32Z</time>
      </trkpt>
      <trkpt lat="45.92328" lon="4.70637">
        <ele>196</ele>
        <time>2018-04-15T10:21:33Z</time>
      </trkpt>
      <trkpt lat="45.92332" lon="4.70641">
        <ele>196</ele>
        <time>2018-04-15T10:21:34Z</time>
      </trkpt>
      <trkpt lat="45.92338" lon="4.70645">
        <ele>197</ele>
        <time>2018-04-15T10:21:35Z</time>
      </trkpt>
      <trkpt lat="45.92343" lon="4.70647">
        <ele>196</ele>
        <time>2018-04-15T10:21:36Z</time>
      </trkpt>
      <trkpt lat="45.92348" lon="4.70651">
        <ele>196</ele>
        <time>2018-04-15T10:21:37Z</time>
      </trkpt>
      <trkpt lat="45.92354" lon="4.70654">
        <ele>196</ele>
        <time>2018-04-15T10:21:38Z</time>
      </trkpt>
      <trkpt lat="45.92359" lon="4.70657">
        <ele>196</ele>
        <time>2018-04-15T10:21:39Z</time>
      </trkpt>
      <trkpt lat="45.92364" lon="4.70661">
        <ele>196</ele>
        <time>2018-04-15T10:21:40Z</time>
      </trkpt>
      <trkpt lat="45.92369" lon="4.70664">
        <ele>196</ele>
        <time>2018-04-15T10:21:41Z</time>
      </trkpt>
      <trkpt lat="45.92376" lon="4.70672">
        <ele>194</ele>
        <time>2018-04-15T10:21:42Z</time>
      </trkpt>
      <trkpt lat="45.92382" lon="4.70674">
        <ele>194</ele>
        <time>2018-04-15T10:21:43Z</time>
      </trkpt>
      <trkpt lat="45.92389" lon="4.70677">
        <ele>194</ele>
        <time>2018-04-15T10:21:44Z</time>
      </trkpt>
      <trkpt lat="45.92394" lon="4.7068">
        <ele>194</ele>
        <time>2018-04-15T10:21:45Z</time>
      </trkpt>
      <trkpt lat="45.92399" lon="4.70683">
        <ele>194</ele>
        <time>2018-04-15T10:21:46Z</time>
      </trkpt>
      <trkpt lat="45.92405" lon="4.70686">
        <ele>194</ele>
        <time>2018-04-15T10:21:47Z</time>
      </trkpt>
      <trkpt lat="45.9241" lon="4.70689">
        <ele>194</ele>
        <time>2018-04-15T10:21:48Z</time>
      </trkpt>
      <trkpt lat="45.92415" lon="4.70691">
        <ele>194</ele>
        <time>2018-04-15T10:21:49Z</time>
      </trkpt>
      <trkpt lat="45.92421" lon="4.70694">
        <ele>195</ele>
        <time>2018-04-15T10:21:50Z</time>
      </trkpt>
      <trkpt lat="45.92427" lon="4.70697">
        <ele>195</ele>
        <time>2018-04-15T10:21:51Z</time>
      </trkpt>
      <trkpt lat="45.92432" lon="4.707">
        <ele>195</ele>
        <time>2018-04-15T10:21:52Z</time>
      </trkpt>
      <trkpt lat="45.92438" lon="4.70703">
        <ele>194</ele>
        <time>2018-04-15T10:21:53Z</time>
      </trkpt>
      <trkpt lat="45.92444" lon="4.70706">
        <ele>194</ele>
        <time>2018-04-15T10:21:54Z</time>
      </trkpt>
      <trkpt lat="45.9245" lon="4.70711">
        <ele>194</ele>
        <time>2018-04-15T10:21:55Z</time>
      </trkpt>
      <trkpt lat="45.92456" lon="4.70714">
        <ele>194</ele>
        <time>2018-04-15T10:21:56Z</time>
      </trkpt>
      <trkpt lat="45.92462" lon="4.70716">
        <ele>194</ele>
        <time>2018-04-15T10:21:57Z</time>
      </trkpt>
      <trkpt lat="45.92468" lon="4.70719">
        <ele>194</ele>
        <time>2018-04-15T10:21:58Z</time>
      </trkpt>
      <trkpt lat="45.92473" lon="4.70723">
        <ele>194</ele>
        <time>2018-04-15T10:21:59Z</time>
      </trkpt>
      <trkpt lat="45.92479" lon="4.70726">
        <ele>194</ele>
        <time>2018-04-15T10:22:00Z</time>
      </trkpt>
      <trkpt lat="45.92485" lon="4.70727">
        <ele>194</ele>
        <time>2018-04-15T10:22:01Z</time>
      </trkpt>
      <trkpt lat="45.9249" lon="4.70731">
        <ele>194</ele>
        <time>2018-04-15T10:22:02Z</time>
      </trkpt>
      <trkpt lat="45.92496" lon="4.70734">
        <ele>194</ele>
        <time>2018-04-15T10:22:03Z</time>
      </trkpt>
      <trkpt lat="45.925" lon="4.70737">
        <ele>195</ele>
        <time>2018-04-15T10:22:04Z</time>
      </trkpt>
      <trkpt lat="45.92506" lon="4.7074">
        <ele>195</ele>
        <time>2018-04-15T10:22:05Z</time>
      </trkpt>
      <trkpt lat="45.92511" lon="4.70743">
        <ele>195</ele>
        <time>2018-04-15T10:22:06Z</time>
      </trkpt>
      <trkpt lat="45.92516" lon="4.70747">
        <ele>196</ele>
        <time>2018-04-15T10:22:07Z</time>
      </trkpt>
      <trkpt lat="45.92521" lon="4.70749">
        <ele>196</ele>
        <time>2018-04-15T10:22:08Z</time>
      </trkpt>
      <trkpt lat="45.92527" lon="4.70753">
        <ele>195</ele>
        <time>2018-04-15T10:22:09Z</time>
      </trkpt>
      <trkpt lat="45.92531" lon="4.70756">
        <ele>195</ele>
        <time>2018-04-15T10:22:10Z</time>
      </trkpt>
      <trkpt lat="45.92536" lon="4.70759">
        <ele>195</ele>
        <time>2018-04-15T10:22:11Z</time>
      </trkpt>
      <trkpt lat="45.92541" lon="4.70761">
        <ele>195</ele>
        <time>2018-04-15T10:22:12Z</time>
      </trkpt>
      <trkpt lat="45.92546" lon="4.70765">
        <ele>195</ele>
        <time>2018-04-15T10:22:13Z</time>
      </trkpt>
      <trkpt lat="45.9255" lon="4.70768">
        <ele>196</ele>
        <time>2018-04-15T10:22:14Z</time>
      </trkpt>
      <trkpt lat="45.92554" lon="4.70771">
        <ele>196</ele>
        <time>2018-04-15T10:22:15Z</time>
      </trkpt>
      <trkpt lat="45.92559" lon="4.70775">
        <ele>196</ele>
        <time>2018-04-15T10:22:16Z</time>
      </trkpt>
      <trkpt lat="45.92566" lon="4.7078">
        <ele>196</ele>
        <time>2018-04-15T10:22:18Z</time>
      </trkpt>
      <trkpt lat="45.9257" lon="4.70784">
        <ele>196</ele>
        <time>2018-04-15T10:22:19Z</time>
      </trkpt>
      <trkpt lat="45.92578" lon="4.7079">
        <ele>196</ele>
        <time>2018-04-15T10:22:21Z</time>
      </trkpt>
      <trkpt lat="45.92581" lon="4.70794">
        <ele>196</ele>
        <time>2018-04-15T10:22:22Z</time>
      </trkpt>
      <trkpt lat="45.92585" lon="4.70797">
        <ele>198</ele>
        <time>2018-04-15T10:22:23Z</time>
      </trkpt>
      <trkpt lat="45.92589" lon="4.708">
        <ele>198</ele>
        <time>2018-04-15T10:22:24Z</time>
      </trkpt>
      <trkpt lat="45.92593" lon="4.70803">
        <ele>198</ele>
        <time>2018-04-15T10:22:25Z</time>
      </trkpt>
      <trkpt lat="45.92597" lon="4.70806">
        <ele>198</ele>
        <time>2018-04-15T10:22:26Z</time>
      </trkpt>
      <trkpt lat="45.92601" lon="4.7081">
        <ele>198</ele>
        <time>2018-04-15T10:22:27Z</time>
      </trkpt>
      <trkpt lat="45.92605" lon="4.70814">
        <ele>198</ele>
        <time>2018-04-15T10:22:28Z</time>
      </trkpt>
      <trkpt lat="45.92612" lon="4.70821">
        <ele>198</ele>
        <time>2018-04-15T10:22:30Z</time>
      </trkpt>
      <trkpt lat="45.92617" lon="4.70825">
        <ele>199</ele>
        <time>2018-04-15T10:22:31Z</time>
      </trkpt>
      <trkpt lat="45.92621" lon="4.70829">
        <ele>199</ele>
        <time>2018-04-15T10:22:32Z</time>
      </trkpt>
      <trkpt lat="45.92624" lon="4.70833">
        <ele>199</ele>
        <time>2018-04-15T10:22:33Z</time>
      </trkpt>
      <trkpt lat="45.92629" lon="4.70835">
        <ele>198</ele>
        <time>2018-04-15T10:22:34Z</time>
      </trkpt>
      <trkpt lat="45.92633" lon="4.7084">
        <ele>198</ele>
        <time>2018-04-15T10:22:35Z</time>
      </trkpt>
      <trkpt lat="45.92637" lon="4.70844">
        <ele>198</ele>
        <time>2018-04-15T10:22:36Z</time>
      </trkpt>
      <trkpt lat="45.92641" lon="4.70848">
        <ele>198</ele>
        <time>2018-04-15T10:22:37Z</time>
      </trkpt>
      <trkpt lat="45.92645" lon="4.70852">
        <ele>198</ele>
        <time>2018-04-15T10:22:38Z</time>
      </trkpt>
      <trkpt lat="45.92649" lon="4.70856">
        <ele>198</ele>
        <time>2018-04-15T10:22:39Z</time>
      </trkpt>
      <trkpt lat="45.92652" lon="4.70861">
        <ele>198</ele>
        <time>2018-04-15T10:22:40Z</time>
      </trkpt>
      <trkpt lat="45.92657" lon="4.70864">
        <ele>198</ele>
        <time>2018-04-15T10:22:41Z</time>
      </trkpt>
      <trkpt lat="45.92664" lon="4.70871">
        <ele>198</ele>
        <time>2018-04-15T10:22:43Z</time>
      </trkpt>
      <trkpt lat="45.92668" lon="4.70875">
        <ele>198</ele>
        <time>2018-04-15T10:22:44Z</time>
      </trkpt>
      <trkpt lat="45.92671" lon="4.70879">
        <ele>198</ele>
        <time>2018-04-15T10:22:45Z</time>
      </trkpt>
      <trkpt lat="45.92675" lon="4.70883">
        <ele>198</ele>
        <time>2018-04-15T10:22:46Z</time>
      </trkpt>
      <trkpt lat="45.92679" lon="4.70887">
        <ele>198</ele>
        <time>2018-04-15T10:22:47Z</time>
      </trkpt>
      <trkpt lat="45.92683" lon="4.70891">
        <ele>198</ele>
        <time>2018-04-15T10:22:48Z</time>
      </trkpt>
      <trkpt lat="45.92688" lon="4.70894">
        <ele>198</ele>
        <time>2018-04-15T10:22:49Z</time>
      </trkpt>
      <trkpt lat="45.92692" lon="4.70898">
        <ele>197</ele>
        <time>2018-04-15T10:22:50Z</time>
      </trkpt>
      <trkpt lat="45.92697" lon="4.70901">
        <ele>197</ele>
        <time>2018-04-15T10:22:51Z</time>
      </trkpt>
      <trkpt lat="45.92701" lon="4.70903">
        <ele>197</ele>
        <time>2018-04-15T10:22:52Z</time>
      </trkpt>
      <trkpt lat="45.92706" lon="4.70906">
        <ele>197</ele>
        <time>2018-04-15T10:22:53Z</time>
      </trkpt>
      <trkpt lat="45.92712" lon="4.70908">
        <ele>197</ele>
        <time>2018-04-15T10:22:54Z</time>
      </trkpt>
      <trkpt lat="45.92717" lon="4.7091">
        <ele>197</ele>
        <time>2018-04-15T10:22:55Z</time>
      </trkpt>
      <trkpt lat="45.92722" lon="4.70913">
        <ele>197</ele>
        <time>2018-04-15T10:22:56Z</time>
      </trkpt>
      <trkpt lat="45.92726" lon="4.70915">
        <ele>197</ele>
        <time>2018-04-15T10:22:57Z</time>
      </trkpt>
      <trkpt lat="45.92732" lon="4.70918">
        <ele>195</ele>
        <time>2018-04-15T10:22:58Z</time>
      </trkpt>
      <trkpt lat="45.92737" lon="4.70918">
        <ele>195</ele>
        <time>2018-04-15T10:22:59Z</time>
      </trkpt>
      <trkpt lat="45.92742" lon="4.70919">
        <ele>195</ele>
        <time>2018-04-15T10:23:00Z</time>
      </trkpt>
      <trkpt lat="45.92747" lon="4.70921">
        <ele>196</ele>
        <time>2018-04-15T10:23:01Z</time>
      </trkpt>
      <trkpt lat="45.92752" lon="4.70921">
        <ele>196</ele>
        <time>2018-04-15T10:23:02Z</time>
      </trkpt>
      <trkpt lat="45.92757" lon="4.70923">
        <ele>196</ele>
        <time>2018-04-15T10:23:03Z</time>
      </trkpt>
      <trkpt lat="45.92762" lon="4.70924">
        <ele>196</ele>
        <time>2018-04-15T10:23:04Z</time>
      </trkpt>
      <trkpt lat="45.92767" lon="4.70926">
        <ele>196</ele>
        <time>2018-04-15T10:23:05Z</time>
      </trkpt>
      <trkpt lat="45.92771" lon="4.70927">
        <ele>196</ele>
        <time>2018-04-15T10:23:06Z</time>
      </trkpt>
      <trkpt lat="45.92776" lon="4.70928">
        <ele>196</ele>
        <time>2018-04-15T10:23:07Z</time>
      </trkpt>
      <trkpt lat="45.92781" lon="4.70929">
        <ele>196</ele>
        <time>2018-04-15T10:23:08Z</time>
      </trkpt>
      <trkpt lat="45.92785" lon="4.7093">
        <ele>196</ele>
        <time>2018-04-15T10:23:09Z</time>
      </trkpt>
      <trkpt lat="45.9279" lon="4.70931">
        <ele>196</ele>
        <time>2018-04-15T10:23:10Z</time>
      </trkpt>
      <trkpt lat="45.92795" lon="4.70933">
        <ele>196</ele>
        <time>2018-04-15T10:23:11Z</time>
      </trkpt>
      <trkpt lat="45.92799" lon="4.70935">
        <ele>196</ele>
        <time>2018-04-15T10:23:12Z</time>
      </trkpt>
      <trkpt lat="45.92806" lon="4.70941">
        <ele>196</ele>
        <time>2018-04-15T10:23:14Z</time>
      </trkpt>
      <trkpt lat="45.9281" lon="4.70946">
        <ele>196</ele>
        <time>2018-04-15T10:23:15Z</time>
      </trkpt>
      <trkpt lat="45.92818" lon="4.70948">
        <ele>197</ele>
        <time>2018-04-15T10:23:17Z</time>
      </trkpt>
      <trkpt lat="45.92823" lon="4.70946">
        <ele>197</ele>
        <time>2018-04-15T10:23:18Z</time>
      </trkpt>
      <trkpt lat="45.92832" lon="4.70942">
        <ele>197</ele>
        <time>2018-04-15T10:23:20Z</time>
      </trkpt>
      <trkpt lat="45.92836" lon="4.70941">
        <ele>198</ele>
        <time>2018-04-15T10:23:21Z</time>
      </trkpt>
      <trkpt lat="45.92841" lon="4.70941">
        <ele>198</ele>
        <time>2018-04-15T10:23:22Z</time>
      </trkpt>
      <trkpt lat="45.92847" lon="4.70941">
        <ele>198</ele>
        <time>2018-04-15T10:23:23Z</time>
      </trkpt>
      <trkpt lat="45.92852" lon="4.70942">
        <ele>198</ele>
        <time>2018-04-15T10:23:24Z</time>
      </trkpt>
      <trkpt lat="45.92858" lon="4.70944">
        <ele>198</ele>
        <time>2018-04-15T10:23:25Z</time>
      </trkpt>
      <trkpt lat="45.92863" lon="4.70945">
        <ele>198</ele>
        <time>2018-04-15T10:23:26Z</time>
      </trkpt>
      <trkpt lat="45.92869" lon="4.70947">
        <ele>198</ele>
        <time>2018-04-15T10:23:27Z</time>
      </trkpt>
      <trkpt lat="45.92874" lon="4.70949">
        <ele>198</ele>
        <time>2018-04-15T10:23:28Z</time>
      </trkpt>
      <trkpt lat="45.92881" lon="4.7095">
        <ele>198</ele>
        <time>2018-04-15T10:23:29Z</time>
      </trkpt>
      <trkpt lat="45.92887" lon="4.70951">
        <ele>198</ele>
        <time>2018-04-15T10:23:30Z</time>
      </trkpt>
      <trkpt lat="45.92893" lon="4.70952">
        <ele>198</ele>
        <time>2018-04-15T10:23:31Z</time>
      </trkpt>
      <trkpt lat="45.92899" lon="4.70954">
        <ele>198</ele>
        <time>2018-04-15T10:23:32Z</time>
      </trkpt>
      <trkpt lat="45.92905" lon="4.70955">
        <ele>198</ele>
        <time>2018-04-15T10:23:33Z</time>
      </trkpt>
      <trkpt lat="45.9291" lon="4.70958">
        <ele>198</ele>
        <time>2018-04-15T10:23:34Z</time>
      </trkpt>
      <trkpt lat="45.92916" lon="4.7096">
        <ele>197</ele>
        <time>2018-04-15T10:23:35Z</time>
      </trkpt>
      <trkpt lat="45.92923" lon="4.70962">
        <ele>198</ele>
        <time>2018-04-15T10:23:36Z</time>
      </trkpt>
      <trkpt lat="45.92929" lon="4.7096">
        <ele>198</ele>
        <time>2018-04-15T10:23:37Z</time>
      </trkpt>
      <trkpt lat="45.92935" lon="4.70963">
        <ele>198</ele>
        <time>2018-04-15T10:23:38Z</time>
      </trkpt>
      <trkpt lat="45.92942" lon="4.70963">
        <ele>198</ele>
        <time>2018-04-15T10:23:39Z</time>
      </trkpt>
      <trkpt lat="45.92948" lon="4.70965">
        <ele>198</ele>
        <time>2018-04-15T10:23:40Z</time>
      </trkpt>
      <trkpt lat="45.92955" lon="4.70966">
        <ele>198</ele>
        <time>2018-04-15T10:23:41Z</time>
      </trkpt>
      <trkpt lat="45.92961" lon="4.70968">
        <ele>198</ele>
        <time>2018-04-15T10:23:42Z</time>
      </trkpt>
      <trkpt lat="45.92968" lon="4.70971">
        <ele>198</ele>
        <time>2018-04-15T10:23:43Z</time>
      </trkpt>
      <trkpt lat="45.92974" lon="4.70973">
        <ele>198</ele>
        <time>2018-04-15T10:23:44Z</time>
      </trkpt>
      <trkpt lat="45.9298" lon="4.70975">
        <ele>198</ele>
        <time>2018-04-15T10:23:45Z</time>
      </trkpt>
      <trkpt lat="45.92986" lon="4.70978">
        <ele>198</ele>
        <time>2018-04-15T10:23:46Z</time>
      </trkpt>
      <trkpt lat="45.92993" lon="4.7098">
        <ele>198</ele>
        <time>2018-04-15T10:23:47Z</time>
      </trkpt>
      <trkpt lat="45.92999" lon="4.70983">
        <ele>198</ele>
        <time>2018-04-15T10:23:48Z</time>
      </trkpt>
      <trkpt lat="45.93005" lon="4.70986">
        <ele>198</ele>
        <time>2018-04-15T10:23:49Z</time>
      </trkpt>
      <trkpt lat="45.93012" lon="4.70989">
        <ele>198</ele>
        <time>2018-04-15T10:23:50Z</time>
      </trkpt>
      <trkpt lat="45.93018" lon="4.70991">
        <ele>198</ele>
        <time>2018-04-15T10:23:51Z</time>
      </trkpt>
      <trkpt lat="45.93024" lon="4.70994">
        <ele>198</ele>
        <time>2018-04-15T10:23:52Z</time>
      </trkpt>
      <trkpt lat="45.9303" lon="4.70998">
        <ele>198</ele>
        <time>2018-04-15T10:23:53Z</time>
      </trkpt>
      <trkpt lat="45.93036" lon="4.71002">
        <ele>197</ele>
        <time>2018-04-15T10:23:54Z</time>
      </trkpt>
      <trkpt lat="45.93041" lon="4.71006">
        <ele>197</ele>
        <time>2018-04-15T10:23:55Z</time>
      </trkpt>
      <trkpt lat="45.93048" lon="4.71011">
        <ele>197</ele>
        <time>2018-04-15T10:23:56Z</time>
      </trkpt>
      <trkpt lat="45.93054" lon="4.71015">
        <ele>197</ele>
        <time>2018-04-15T10:23:57Z</time>
      </trkpt>
      <trkpt lat="45.93059" lon="4.7102">
        <ele>197</ele>
        <time>2018-04-15T10:23:58Z</time>
      </trkpt>
      <trkpt lat="45.93065" lon="4.71026">
        <ele>197</ele>
        <time>2018-04-15T10:23:59Z</time>
      </trkpt>
      <trkpt lat="45.9307" lon="4.71031">
        <ele>197</ele>
        <time>2018-04-15T10:24:00Z</time>
      </trkpt>
      <trkpt lat="45.93076" lon="4.71038">
        <ele>196</ele>
        <time>2018-04-15T10:24:01Z</time>
      </trkpt>
      <trkpt lat="45.93081" lon="4.71042">
        <ele>196</ele>
        <time>2018-04-15T10:24:02Z</time>
      </trkpt>
      <trkpt lat="45.93086" lon="4.71049">
        <ele>196</ele>
        <time>2018-04-15T10:24:03Z</time>
      </trkpt>
      <trkpt lat="45.93092" lon="4.71056">
        <ele>195</ele>
        <time>2018-04-15T10:24:04Z</time>
      </trkpt>
      <trkpt lat="45.93097" lon="4.71063">
        <ele>195</ele>
        <time>2018-04-15T10:24:05Z</time>
      </trkpt>
      <trkpt lat="45.93101" lon="4.71072">
        <ele>195</ele>
        <time>2018-04-15T10:24:06Z</time>
      </trkpt>
      <trkpt lat="45.93107" lon="4.71079">
        <ele>195</ele>
        <time>2018-04-15T10:24:07Z</time>
      </trkpt>
      <trkpt lat="45.93112" lon="4.71089">
        <ele>193</ele>
        <time>2018-04-15T10:24:08Z</time>
      </trkpt>
      <trkpt lat="45.93117" lon="4.71098">
        <ele>193</ele>
        <time>2018-04-15T10:24:09Z</time>
      </trkpt>
      <trkpt lat="45.93122" lon="4.71107">
        <ele>192</ele>
        <time>2018-04-15T10:24:10Z</time>
      </trkpt>
      <trkpt lat="45.93126" lon="4.71115">
        <ele>192</ele>
        <time>2018-04-15T10:24:11Z</time>
      </trkpt>
      <trkpt lat="45.93131" lon="4.71123">
        <ele>192</ele>
        <time>2018-04-15T10:24:12Z</time>
      </trkpt>
      <trkpt lat="45.93134" lon="4.71132">
        <ele>192</ele>
        <time>2018-04-15T10:24:13Z</time>
      </trkpt>
      <trkpt lat="45.93139" lon="4.71141">
        <ele>192</ele>
        <time>2018-04-15T10:24:14Z</time>
      </trkpt>
      <trkpt lat="45.93144" lon="4.7115">
        <ele>191</ele>
        <time>2018-04-15T10:24:15Z</time>
      </trkpt>
      <trkpt lat="45.93149" lon="4.71158">
        <ele>191</ele>
        <time>2018-04-15T10:24:16Z</time>
      </trkpt>
      <trkpt lat="45.93153" lon="4.71167">
        <ele>191</ele>
        <time>2018-04-15T10:24:17Z</time>
      </trkpt>
      <trkpt lat="45.93156" lon="4.71176">
        <ele>190</ele>
        <time>2018-04-15T10:24:18Z</time>
      </trkpt>
      <trkpt lat="45.93161" lon="4.71185">
        <ele>190</ele>
        <time>2018-04-15T10:24:19Z</time>
      </trkpt>
      <trkpt lat="45.93165" lon="4.71194">
        <ele>190</ele>
        <time>2018-04-15T10:24:20Z</time>
      </trkpt>
      <trkpt lat="45.93168" lon="4.71202">
        <ele>190</ele>
        <time>2018-04-15T10:24:21Z</time>
      </trkpt>
      <trkpt lat="45.93172" lon="4.71211">
        <ele>190</ele>
        <time>2018-04-15T10:24:22Z</time>
      </trkpt>
      <trkpt lat="45.93176" lon="4.7122">
        <ele>190</ele>
        <time>2018-04-15T10:24:23Z</time>
      </trkpt>
      <trkpt lat="45.9318" lon="4.7123">
        <ele>190</ele>
        <time>2018-04-15T10:24:24Z</time>
      </trkpt>
      <trkpt lat="45.93186" lon="4.7124">
        <ele>190</ele>
        <time>2018-04-15T10:24:25Z</time>
      </trkpt>
      <trkpt lat="45.9319" lon="4.71249">
        <ele>190</ele>
        <time>2018-04-15T10:24:26Z</time>
      </trkpt>
      <trkpt lat="45.93193" lon="4.71259">
        <ele>189</ele>
        <time>2018-04-15T10:24:27Z</time>
      </trkpt>
      <trkpt lat="45.93197" lon="4.71268">
        <ele>189</ele>
        <time>2018-04-15T10:24:28Z</time>
      </trkpt>
      <trkpt lat="45.93201" lon="4.71277">
        <ele>188</ele>
        <time>2018-04-15T10:24:29Z</time>
      </trkpt>
      <trkpt lat="45.93205" lon="4.71286">
        <ele>188</ele>
        <time>2018-04-15T10:24:30Z</time>
      </trkpt>
      <trkpt lat="45.9321" lon="4.71294">
        <ele>188</ele>
        <time>2018-04-15T10:24:31Z</time>
      </trkpt>
      <trkpt lat="45.93214" lon="4.71302">
        <ele>188</ele>
        <time>2018-04-15T10:24:32Z</time>
      </trkpt>
      <trkpt lat="45.93216" lon="4.71311">
        <ele>188</ele>
        <time>2018-04-15T10:24:33Z</time>
      </trkpt>
      <trkpt lat="45.9322" lon="4.71318">
        <ele>187</ele>
        <time>2018-04-15T10:24:34Z</time>
      </trkpt>
      <trkpt lat="45.93222" lon="4.71325">
        <ele>187</ele>
        <time>2018-04-15T10:24:35Z</time>
      </trkpt>
      <trkpt lat="45.93225" lon="4.71331">
        <ele>187</ele>
        <time>2018-04-15T10:24:36Z</time>
      </trkpt>
      <trkpt lat="45.93228" lon="4.71337">
        <ele>186</ele>
        <time>2018-04-15T10:24:37Z</time>
      </trkpt>
      <trkpt lat="45.93231" lon="4.71347">
        <ele>186</ele>
        <time>2018-04-15T10:24:42Z</time>
      </trkpt>
      <trkpt lat="45.93232" lon="4.71349">
        <ele>186</ele>
        <time>2018-04-15T10:24:43Z</time>
      </trkpt>
      <trkpt lat="45.93235" lon="4.71358">
        <ele>186</ele>
        <time>2018-04-15T10:24:50Z</time>
      </trkpt>
      <trkpt lat="45.93237" lon="4.71361">
        <ele>186</ele>
        <time>2018-04-15T10:24:51Z</time>
      </trkpt>
      <trkpt lat="45.9324" lon="4.7137">
        <ele>186</ele>
        <time>2018-04-15T10:24:52Z</time>
      </trkpt>
      <trkpt lat="45.93242" lon="4.71375">
        <ele>186</ele>
        <time>2018-04-15T10:24:53Z</time>
      </trkpt>
      <trkpt lat="45.93245" lon="4.7138">
        <ele>186</ele>
        <time>2018-04-15T10:24:54Z</time>
      </trkpt>
      <trkpt lat="45.93247" lon="4.71386">
        <ele>186</ele>
        <time>2018-04-15T10:24:55Z</time>
      </trkpt>
      <trkpt lat="45.9325" lon="4.71392">
        <ele>186</ele>
        <time>2018-04-15T10:24:56Z</time>
      </trkpt>
      <trkpt lat="45.93254" lon="4.71398">
        <ele>186</ele>
        <time>2018-04-15T10:24:57Z</time>
      </trkpt>
      <trkpt lat="45.93257" lon="4.71404">
        <ele>186</ele>
        <time>2018-04-15T10:24:58Z</time>
      </trkpt>
      <trkpt lat="45.9326" lon="4.71411">
        <ele>186</ele>
        <time>2018-04-15T10:24:59Z</time>
      </trkpt>
      <trkpt lat="45.93263" lon="4.71418">
        <ele>186</ele>
        <time>2018-04-15T10:25:00Z</time>
      </trkpt>
      <trkpt lat="45.93266" lon="4.71426">
        <ele>186</ele>
        <time>2018-04-15T10:25:01Z</time>
      </trkpt>
      <trkpt lat="45.93268" lon="4.71433">
        <ele>185</ele>
        <time>2018-04-15T10:25:02Z</time>
      </trkpt>
      <trkpt lat="45.93271" lon="4.7144">
        <ele>185</ele>
        <time>2018-04-15T10:25:03Z</time>
      </trkpt>
      <trkpt lat="45.93275" lon="4.71448">
        <ele>185</ele>
        <time>2018-04-15T10:25:04Z</time>
      </trkpt>
      <trkpt lat="45.93278" lon="4.71455">
        <ele>185</ele>
        <time>2018-04-15T10:25:05Z</time>
      </trkpt>
      <trkpt lat="45.93281" lon="4.71462">
        <ele>185</ele>
        <time>2018-04-15T10:25:06Z</time>
      </trkpt>
      <trkpt lat="45.93284" lon="4.7147">
        <ele>185</ele>
        <time>2018-04-15T10:25:07Z</time>
      </trkpt>
      <trkpt lat="45.93287" lon="4.71476">
        <ele>185</ele>
        <time>2018-04-15T10:25:08Z</time>
      </trkpt>
      <trkpt lat="45.93289" lon="4.71481">
        <ele>185</ele>
        <time>2018-04-15T10:25:09Z</time>
      </trkpt>
      <trkpt lat="45.93291" lon="4.71486">
        <ele>185</ele>
        <time>2018-04-15T10:25:10Z</time>
      </trkpt>
      <trkpt lat="45.93295" lon="4.71497">
        <ele>185</ele>
        <time>2018-04-15T10:25:11Z</time>
      </trkpt>
      <trkpt lat="45.93298" lon="4.71504">
        <ele>184</ele>
        <time>2018-04-15T10:25:12Z</time>
      </trkpt>
      <trkpt lat="45.93302" lon="4.7151">
        <ele>184</ele>
        <time>2018-04-15T10:25:13Z</time>
      </trkpt>
      <trkpt lat="45.93305" lon="4.71518">
        <ele>184</ele>
        <time>2018-04-15T10:25:14Z</time>
      </trkpt>
      <trkpt lat="45.93307" lon="4.71523">
        <ele>184</ele>
        <time>2018-04-15T10:25:15Z</time>
      </trkpt>
      <trkpt lat="45.9331" lon="4.71529">
        <ele>184</ele>
        <time>2018-04-15T10:25:16Z</time>
      </trkpt>
      <trkpt lat="45.93312" lon="4.71535">
        <ele>184</ele>
        <time>2018-04-15T10:25:17Z</time>
      </trkpt>
      <trkpt lat="45.93315" lon="4.71541">
        <ele>184</ele>
        <time>2018-04-15T10:25:18Z</time>
      </trkpt>
      <trkpt lat="45.93318" lon="4.71546">
        <ele>184</ele>
        <time>2018-04-15T10:25:19Z</time>
      </trkpt>
      <trkpt lat="45.93321" lon="4.71552">
        <ele>184</ele>
        <time>2018-04-15T10:25:20Z</time>
      </trkpt>
      <trkpt lat="45.93323" lon="4.71559">
        <ele>184</ele>
        <time>2018-04-15T10:25:21Z</time>
      </trkpt>
      <trkpt lat="45.93326" lon="4.71565">
        <ele>185</ele>
        <time>2018-04-15T10:25:22Z</time>
      </trkpt>
      <trkpt lat="45.9333" lon="4.7157">
        <ele>185</ele>
        <time>2018-04-15T10:25:23Z</time>
      </trkpt>
      <trkpt lat="45.93334" lon="4.71576">
        <ele>185</ele>
        <time>2018-04-15T10:25:24Z</time>
      </trkpt>
      <trkpt lat="45.93338" lon="4.71584">
        <ele>185</ele>
        <time>2018-04-15T10:25:25Z</time>
      </trkpt>
      <trkpt lat="45.93341" lon="4.7159">
        <ele>185</ele>
        <time>2018-04-15T10:25:26Z</time>
      </trkpt>
      <trkpt lat="45.93344" lon="4.71597">
        <ele>185</ele>
        <time>2018-04-15T10:25:27Z</time>
      </trkpt>
      <trkpt lat="45.93347" lon="4.71603">
        <ele>185</ele>
        <time>2018-04-15T10:25:28Z</time>
      </trkpt>
      <trkpt lat="45.9335" lon="4.71611">
        <ele>185</ele>
        <time>2018-04-15T10:25:29Z</time>
      </trkpt>
      <trkpt lat="45.93353" lon="4.71617">
        <ele>185</ele>
        <time>2018-04-15T10:25:30Z</time>
      </trkpt>
      <trkpt lat="45.93356" lon="4.71623">
        <ele>185</ele>
        <time>2018-04-15T10:25:31Z</time>
      </trkpt>
      <trkpt lat="45.93358" lon="4.7163">
        <ele>185</ele>
        <time>2018-04-15T10:25:32Z</time>
      </trkpt>
      <trkpt lat="45.93361" lon="4.71636">
        <ele>185</ele>
        <time>2018-04-15T10:25:33Z</time>
      </trkpt>
      <trkpt lat="45.93364" lon="4.71643">
        <ele>185</ele>
        <time>2018-04-15T10:25:34Z</time>
      </trkpt>
      <trkpt lat="45.93367" lon="4.71649">
        <ele>185</ele>
        <time>2018-04-15T10:25:35Z</time>
      </trkpt>
      <trkpt lat="45.9337" lon="4.71656">
        <ele>185</ele>
        <time>2018-04-15T10:25:36Z</time>
      </trkpt>
      <trkpt lat="45.93374" lon="4.71665">
        <ele>185</ele>
        <time>2018-04-15T10:25:37Z</time>
      </trkpt>
      <trkpt lat="45.93378" lon="4.71672">
        <ele>185</ele>
        <time>2018-04-15T10:25:38Z</time>
      </trkpt>
      <trkpt lat="45.93381" lon="4.71681">
        <ele>185</ele>
        <time>2018-04-15T10:25:39Z</time>
      </trkpt>
      <trkpt lat="45.93384" lon="4.71689">
        <ele>184</ele>
        <time>2018-04-15T10:25:40Z</time>
      </trkpt>
      <trkpt lat="45.93388" lon="4.71697">
        <ele>184</ele>
        <time>2018-04-15T10:25:41Z</time>
      </trkpt>
      <trkpt lat="45.9339" lon="4.71703">
        <ele>184</ele>
        <time>2018-04-15T10:25:42Z</time>
      </trkpt>
      <trkpt lat="45.93393" lon="4.71709">
        <ele>184</ele>
        <time>2018-04-15T10:25:43Z</time>
      </trkpt>
      <trkpt lat="45.93398" lon="4.71721">
        <ele>184</ele>
        <time>2018-04-15T10:25:44Z</time>
      </trkpt>
      <trkpt lat="45.93403" lon="4.71728">
        <ele>184</ele>
        <time>2018-04-15T10:25:45Z</time>
      </trkpt>
      <trkpt lat="45.93408" lon="4.71736">
        <ele>184</ele>
        <time>2018-04-15T10:25:46Z</time>
      </trkpt>
      <trkpt lat="45.93411" lon="4.71745">
        <ele>183</ele>
        <time>2018-04-15T10:25:47Z</time>
      </trkpt>
      <trkpt lat="45.93415" lon="4.71753">
        <ele>183</ele>
        <time>2018-04-15T10:25:48Z</time>
      </trkpt>
      <trkpt lat="45.93418" lon="4.71762">
        <ele>182</ele>
        <time>2018-04-15T10:25:49Z</time>
      </trkpt>
      <trkpt lat="45.93421" lon="4.7177">
        <ele>182</ele>
        <time>2018-04-15T10:25:50Z</time>
      </trkpt>
      <trkpt lat="45.93425" lon="4.71779">
        <ele>182</ele>
        <time>2018-04-15T10:25:51Z</time>
      </trkpt>
      <trkpt lat="45.93429" lon="4.71789">
        <ele>182</ele>
        <time>2018-04-15T10:25:52Z</time>
      </trkpt>
      <trkpt lat="45.93432" lon="4.71797">
        <ele>182</ele>
        <time>2018-04-15T10:25:53Z</time>
      </trkpt>
      <trkpt lat="45.93436" lon="4.71805">
        <ele>182</ele>
        <time>2018-04-15T10:25:54Z</time>
      </trkpt>
      <trkpt lat="45.9344" lon="4.71814">
        <ele>182</ele>
        <time>2018-04-15T10:25:55Z</time>
      </trkpt>
      <trkpt lat="45.93445" lon="4.71821">
        <ele>182</ele>
        <time>2018-04-15T10:25:56Z</time>
      </trkpt>
      <trkpt lat="45.93449" lon="4.71829">
        <ele>182</ele>
        <time>2018-04-15T10:25:57Z</time>
      </trkpt>
      <trkpt lat="45.93454" lon="4.71836">
        <ele>181</ele>
        <time>2018-04-15T10:25:58Z</time>
      </trkpt>
      <trkpt lat="45.93459" lon="4.71844">
        <ele>181</ele>
        <time>2018-04-15T10:25:59Z</time>
      </trkpt>
      <trkpt lat="45.93466" lon="4.71849">
        <ele>180</ele>
        <time>2018-04-15T10:26:00Z</time>
      </trkpt>
      <trkpt lat="45.93473" lon="4.71852">
        <ele>180</ele>
        <time>2018-04-15T10:26:01Z</time>
      </trkpt>
      <trkpt lat="45.9348" lon="4.71853">
        <ele>180</ele>
        <time>2018-04-15T10:26:02Z</time>
      </trkpt>
      <trkpt lat="45.93488" lon="4.71853">
        <ele>180</ele>
        <time>2018-04-15T10:26:03Z</time>
      </trkpt>
      <trkpt lat="45.93495" lon="4.71852">
        <ele>180</ele>
        <time>2018-04-15T10:26:04Z</time>
      </trkpt>
      <trkpt lat="45.93503" lon="4.71851">
        <ele>179</ele>
        <time>2018-04-15T10:26:05Z</time>
      </trkpt>
      <trkpt lat="45.9351" lon="4.71849">
        <ele>179</ele>
        <time>2018-04-15T10:26:06Z</time>
      </trkpt>
      <trkpt lat="45.93518" lon="4.71847">
        <ele>179</ele>
        <time>2018-04-15T10:26:07Z</time>
      </trkpt>
      <trkpt lat="45.93525" lon="4.71848">
        <ele>179</ele>
        <time>2018-04-15T10:26:08Z</time>
      </trkpt>
      <trkpt lat="45.93533" lon="4.71845">
        <ele>179</ele>
        <time>2018-04-15T10:26:09Z</time>
      </trkpt>
      <trkpt lat="45.93541" lon="4.71845">
        <ele>179</ele>
        <time>2018-04-15T10:26:10Z</time>
      </trkpt>
      <trkpt lat="45.93547" lon="4.71843">
        <ele>179</ele>
        <time>2018-04-15T10:26:11Z</time>
      </trkpt>
      <trkpt lat="45.93555" lon="4.71843">
        <ele>179</ele>
        <time>2018-04-15T10:26:12Z</time>
      </trkpt>
      <trkpt lat="45.93562" lon="4.71842">
        <ele>179</ele>
        <time>2018-04-15T10:26:13Z</time>
      </trkpt>
      <trkpt lat="45.93569" lon="4.71841">
        <ele>179</ele>
        <time>2018-04-15T10:26:14Z</time>
      </trkpt>
      <trkpt lat="45.93575" lon="4.71838">
        <ele>180</ele>
        <time>2018-04-15T10:26:15Z</time>
      </trkpt>
      <trkpt lat="45.93581" lon="4.71836">
        <ele>180</ele>
        <time>2018-04-15T10:26:16Z</time>
      </trkpt>
      <trkpt lat="45.93588" lon="4.71835">
        <ele>180</ele>
        <time>2018-04-15T10:26:17Z</time>
      </trkpt>
      <trkpt lat="45.93594" lon="4.71833">
        <ele>180</ele>
        <time>2018-04-15T10:26:18Z</time>
      </trkpt>
      <trkpt lat="45.93602" lon="4.71831">
        <ele>179</ele>
        <time>2018-04-15T10:26:20Z</time>
      </trkpt>
      <trkpt lat="45.93604" lon="4.7183">
        <ele>179</ele>
        <time>2018-04-15T10:26:21Z</time>
      </trkpt>
      <trkpt lat="45.9361" lon="4.71826">
        <ele>179</ele>
        <time>2018-04-15T10:26:24Z</time>
      </trkpt>
      <trkpt lat="45.93617" lon="4.71814">
        <ele>179</ele>
        <time>2018-04-15T10:26:25Z</time>
      </trkpt>
      <trkpt lat="45.93623" lon="4.71807">
        <ele>179</ele>
        <time>2018-04-15T10:26:27Z</time>
      </trkpt>
      <trkpt lat="45.93627" lon="4.71805">
        <ele>179</ele>
        <time>2018-04-15T10:26:28Z</time>
      </trkpt>
      <trkpt lat="45.93631" lon="4.71802">
        <ele>179</ele>
        <time>2018-04-15T10:26:29Z</time>
      </trkpt>
      <trkpt lat="45.93636" lon="4.718">
        <ele>179</ele>
        <time>2018-04-15T10:26:30Z</time>
      </trkpt>
      <trkpt lat="45.93642" lon="4.718">
        <ele>179</ele>
        <time>2018-04-15T10:26:31Z</time>
      </trkpt>
      <trkpt lat="45.93647" lon="4.71797">
        <ele>179</ele>
        <time>2018-04-15T10:26:32Z</time>
      </trkpt>
      <trkpt lat="45.93652" lon="4.71795">
        <ele>179</ele>
        <time>2018-04-15T10:26:33Z</time>
      </trkpt>
      <trkpt lat="45.93656" lon="4.71792">
        <ele>179</ele>
        <time>2018-04-15T10:26:34Z</time>
      </trkpt>
      <trkpt lat="45.93662" lon="4.7179">
        <ele>179</ele>
        <time>2018-04-15T10:26:35Z</time>
      </trkpt>
      <trkpt lat="45.93667" lon="4.71788">
        <ele>177</ele>
        <time>2018-04-15T10:26:36Z</time>
      </trkpt>
      <trkpt lat="45.93674" lon="4.71783">
        <ele>177</ele>
        <time>2018-04-15T10:26:39Z</time>
      </trkpt>
      <trkpt lat="45.93677" lon="4.71783">
        <ele>177</ele>
        <time>2018-04-15T10:26:40Z</time>
      </trkpt>
      <trkpt lat="45.93685" lon="4.71785">
        <ele>177</ele>
        <time>2018-04-15T10:26:42Z</time>
      </trkpt>
      <trkpt lat="45.93686" lon="4.71788">
        <ele>177</ele>
        <time>2018-04-15T10:26:43Z</time>
      </trkpt>
      <trkpt lat="45.93687" lon="4.718">
        <ele>177</ele>
        <time>2018-04-15T10:26:45Z</time>
      </trkpt>
      <trkpt lat="45.93689" lon="4.71806">
        <ele>177</ele>
        <time>2018-04-15T10:26:46Z</time>
      </trkpt>
      <trkpt lat="45.93689" lon="4.71812">
        <ele>176</ele>
        <time>2018-04-15T10:26:47Z</time>
      </trkpt>
      <trkpt lat="45.93691" lon="4.7182">
        <ele>176</ele>
        <time>2018-04-15T10:26:48Z</time>
      </trkpt>
      <trkpt lat="45.93692" lon="4.71831">
        <ele>176</ele>
        <time>2018-04-15T10:26:50Z</time>
      </trkpt>
      <trkpt lat="45.93693" lon="4.71833">
        <ele>176</ele>
        <time>2018-04-15T10:26:51Z</time>
      </trkpt>
      <trkpt lat="45.93693" lon="4.71839">
        <ele>175</ele>
        <time>2018-04-15T10:26:53Z</time>
      </trkpt>
      <trkpt lat="45.93691" lon="4.71849">
        <ele>175</ele>
        <time>2018-04-15T10:26:54Z</time>
      </trkpt>
      <trkpt lat="45.93688" lon="4.71861">
        <ele>175</ele>
        <time>2018-04-15T10:26:56Z</time>
      </trkpt>
      <trkpt lat="45.93686" lon="4.71867">
        <ele>175</ele>
        <time>2018-04-15T10:26:57Z</time>
      </trkpt>
      <trkpt lat="45.93683" lon="4.71872">
        <ele>175</ele>
        <time>2018-04-15T10:26:58Z</time>
      </trkpt>
      <trkpt lat="45.9368" lon="4.71882">
        <ele>175</ele>
        <time>2018-04-15T10:26:59Z</time>
      </trkpt>
      <trkpt lat="45.93677" lon="4.71891">
        <ele>175</ele>
        <time>2018-04-15T10:27:00Z</time>
      </trkpt>
      <trkpt lat="45.93674" lon="4.71899">
        <ele>175</ele>
        <time>2018-04-15T10:27:01Z</time>
      </trkpt>
      <trkpt lat="45.93671" lon="4.71906">
        <ele>175</ele>
        <time>2018-04-15T10:27:02Z</time>
      </trkpt>
      <trkpt lat="45.93668" lon="4.71913">
        <ele>175</ele>
        <time>2018-04-15T10:27:03Z</time>
      </trkpt>
      <trkpt lat="45.93664" lon="4.71921">
        <ele>175</ele>
        <time>2018-04-15T10:27:04Z</time>
      </trkpt>
      <trkpt lat="45.93661" lon="4.71928">
        <ele>175</ele>
        <time>2018-04-15T10:27:05Z</time>
      </trkpt>
      <trkpt lat="45.93658" lon="4.71935">
        <ele>175</ele>
        <time>2018-04-15T10:27:06Z</time>
      </trkpt>
      <trkpt lat="45.93656" lon="4.71943">
        <ele>175</ele>
        <time>2018-04-15T10:27:07Z</time>
      </trkpt>
      <trkpt lat="45.93654" lon="4.7195">
        <ele>175</ele>
        <time>2018-04-15T10:27:08Z</time>
      </trkpt>
      <trkpt lat="45.93652" lon="4.71957">
        <ele>175</ele>
        <time>2018-04-15T10:27:09Z</time>
      </trkpt>
      <trkpt lat="45.93649" lon="4.71964">
        <ele>175</ele>
        <time>2018-04-15T10:27:10Z</time>
      </trkpt>
      <trkpt lat="45.93646" lon="4.71973">
        <ele>175</ele>
        <time>2018-04-15T10:27:11Z</time>
      </trkpt>
      <trkpt lat="45.93642" lon="4.71981">
        <ele>175</ele>
        <time>2018-04-15T10:27:12Z</time>
      </trkpt>
      <trkpt lat="45.9364" lon="4.71989">
        <ele>175</ele>
        <time>2018-04-15T10:27:13Z</time>
      </trkpt>
      <trkpt lat="45.93637" lon="4.71996">
        <ele>175</ele>
        <time>2018-04-15T10:27:14Z</time>
      </trkpt>
      <trkpt lat="45.93633" lon="4.72004">
        <ele>174</ele>
        <time>2018-04-15T10:27:15Z</time>
      </trkpt>
      <trkpt lat="45.93631" lon="4.7201">
        <ele>174</ele>
        <time>2018-04-15T10:27:16Z</time>
      </trkpt>
      <trkpt lat="45.93628" lon="4.72018">
        <ele>175</ele>
        <time>2018-04-15T10:27:17Z</time>
      </trkpt>
      <trkpt lat="45.93626" lon="4.72025">
        <ele>175</ele>
        <time>2018-04-15T10:27:18Z</time>
      </trkpt>
      <trkpt lat="45.93622" lon="4.72032">
        <ele>175</ele>
        <time>2018-04-15T10:27:19Z</time>
      </trkpt>
      <trkpt lat="45.93618" lon="4.72041">
        <ele>175</ele>
        <time>2018-04-15T10:27:20Z</time>
      </trkpt>
      <trkpt lat="45.93616" lon="4.72047">
        <ele>175</ele>
        <time>2018-04-15T10:27:21Z</time>
      </trkpt>
      <trkpt lat="45.93613" lon="4.72051">
        <ele>175</ele>
        <time>2018-04-15T10:27:22Z</time>
      </trkpt>
      <trkpt lat="45.93609" lon="4.72055">
        <ele>175</ele>
        <time>2018-04-15T10:27:23Z</time>
      </trkpt>
      <trkpt lat="45.93607" lon="4.72064">
        <ele>175</ele>
        <time>2018-04-15T10:27:24Z</time>
      </trkpt>
      <trkpt lat="45.93604" lon="4.72072">
        <ele>175</ele>
        <time>2018-04-15T10:27:25Z</time>
      </trkpt>
      <trkpt lat="45.93599" lon="4.72077">
        <ele>175</ele>
        <time>2018-04-15T10:27:26Z</time>
      </trkpt>
      <trkpt lat="45.93597" lon="4.72087">
        <ele>175</ele>
        <time>2018-04-15T10:27:27Z</time>
      </trkpt>
      <trkpt lat="45.93594" lon="4.72096">
        <ele>175</ele>
        <time>2018-04-15T10:27:28Z</time>
      </trkpt>
      <trkpt lat="45.93592" lon="4.72103">
        <ele>174</ele>
        <time>2018-04-15T10:27:29Z</time>
      </trkpt>
      <trkpt lat="45.93589" lon="4.72109">
        <ele>174</ele>
        <time>2018-04-15T10:27:30Z</time>
      </trkpt>
      <trkpt lat="45.93586" lon="4.72116">
        <ele>174</ele>
        <time>2018-04-15T10:27:31Z</time>
      </trkpt>
      <trkpt lat="45.93581" lon="4.7212">
        <ele>175</ele>
        <time>2018-04-15T10:27:32Z</time>
      </trkpt>
      <trkpt lat="45.93578" lon="4.72127">
        <ele>174</ele>
        <time>2018-04-15T10:27:33Z</time>
      </trkpt>
      <trkpt lat="45.93576" lon="4.72135">
        <ele>174</ele>
        <time>2018-04-15T10:27:34Z</time>
      </trkpt>
      <trkpt lat="45.93574" lon="4.72141">
        <ele>174</ele>
        <time>2018-04-15T10:27:35Z</time>
      </trkpt>
      <trkpt lat="45.93572" lon="4.72149">
        <ele>174</ele>
        <time>2018-04-15T10:27:36Z</time>
      </trkpt>
      <trkpt lat="45.93571" lon="4.72156">
        <ele>174</ele>
        <time>2018-04-15T10:27:37Z</time>
      </trkpt>
      <trkpt lat="45.93569" lon="4.72161">
        <ele>174</ele>
        <time>2018-04-15T10:27:38Z</time>
      </trkpt>
      <trkpt lat="45.93567" lon="4.72167">
        <ele>173</ele>
        <time>2018-04-15T10:27:39Z</time>
      </trkpt>
      <trkpt lat="45.93564" lon="4.72173">
        <ele>173</ele>
        <time>2018-04-15T10:27:40Z</time>
      </trkpt>
      <trkpt lat="45.93563" lon="4.72179">
        <ele>173</ele>
        <time>2018-04-15T10:27:41Z</time>
      </trkpt>
      <trkpt lat="45.93559" lon="4.7219">
        <ele>173</ele>
        <time>2018-04-15T10:27:43Z</time>
      </trkpt>
      <trkpt lat="45.93556" lon="4.72195">
        <ele>173</ele>
        <time>2018-04-15T10:27:44Z</time>
      </trkpt>
      <trkpt lat="45.93555" lon="4.72201">
        <ele>173</ele>
        <time>2018-04-15T10:27:45Z</time>
      </trkpt>
      <trkpt lat="45.93554" lon="4.72208">
        <ele>173</ele>
        <time>2018-04-15T10:27:46Z</time>
      </trkpt>
      <trkpt lat="45.93551" lon="4.72214">
        <ele>173</ele>
        <time>2018-04-15T10:27:47Z</time>
      </trkpt>
      <trkpt lat="45.93549" lon="4.72219">
        <ele>172</ele>
        <time>2018-04-15T10:27:48Z</time>
      </trkpt>
      <trkpt lat="45.93547" lon="4.72226">
        <ele>172</ele>
        <time>2018-04-15T10:27:49Z</time>
      </trkpt>
      <trkpt lat="45.93544" lon="4.72232">
        <ele>172</ele>
        <time>2018-04-15T10:27:50Z</time>
      </trkpt>
      <trkpt lat="45.93541" lon="4.72237">
        <ele>172</ele>
        <time>2018-04-15T10:27:51Z</time>
      </trkpt>
      <trkpt lat="45.93538" lon="4.72243">
        <ele>172</ele>
        <time>2018-04-15T10:27:52Z</time>
      </trkpt>
      <trkpt lat="45.93533" lon="4.72253">
        <ele>172</ele>
        <time>2018-04-15T10:27:54Z</time>
      </trkpt>
      <trkpt lat="45.93532" lon="4.72259">
        <ele>172</ele>
        <time>2018-04-15T10:27:55Z</time>
      </trkpt>
      <trkpt lat="45.93528" lon="4.72271">
        <ele>172</ele>
        <time>2018-04-15T10:27:57Z</time>
      </trkpt>
      <trkpt lat="45.93526" lon="4.72276">
        <ele>172</ele>
        <time>2018-04-15T10:27:58Z</time>
      </trkpt>
      <trkpt lat="45.93523" lon="4.72283">
        <ele>172</ele>
        <time>2018-04-15T10:27:59Z</time>
      </trkpt>
      <trkpt lat="45.93521" lon="4.7229">
        <ele>172</ele>
        <time>2018-04-15T10:28:00Z</time>
      </trkpt>
      <trkpt lat="45.93518" lon="4.72295">
        <ele>172</ele>
        <time>2018-04-15T10:28:01Z</time>
      </trkpt>
      <trkpt lat="45.93515" lon="4.72301">
        <ele>172</ele>
        <time>2018-04-15T10:28:02Z</time>
      </trkpt>
      <trkpt lat="45.93508" lon="4.7231">
        <ele>173</ele>
        <time>2018-04-15T10:28:04Z</time>
      </trkpt>
      <trkpt lat="45.93507" lon="4.72311">
        <ele>173</ele>
        <time>2018-04-15T10:28:05Z</time>
      </trkpt>
      <trkpt lat="45.935" lon="4.7232">
        <ele>173</ele>
        <time>2018-04-15T10:28:38Z</time>
      </trkpt>
      <trkpt lat="45.93499" lon="4.72322">
        <ele>173</ele>
        <time>2018-04-15T10:28:39Z</time>
      </trkpt>
      <trkpt lat="45.93493" lon="4.7233">
        <ele>173</ele>
        <time>2018-04-15T10:28:42Z</time>
      </trkpt>
      <trkpt lat="45.9349" lon="4.72333">
        <ele>173</ele>
        <time>2018-04-15T10:28:43Z</time>
      </trkpt>
      <trkpt lat="45.93488" lon="4.72336">
        <ele>173</ele>
        <time>2018-04-15T10:28:44Z</time>
      </trkpt>
      <trkpt lat="45.93481" lon="4.72346">
        <ele>173</ele>
        <time>2018-04-15T10:28:45Z</time>
      </trkpt>
      <trkpt lat="45.93475" lon="4.72355">
        <ele>173</ele>
        <time>2018-04-15T10:28:47Z</time>
      </trkpt>
      <trkpt lat="45.93472" lon="4.72359">
        <ele>173</ele>
        <time>2018-04-15T10:28:48Z</time>
      </trkpt>
      <trkpt lat="45.93469" lon="4.72364">
        <ele>173</ele>
        <time>2018-04-15T10:28:49Z</time>
      </trkpt>
      <trkpt lat="45.93465" lon="4.72369">
        <ele>173</ele>
        <time>2018-04-15T10:28:50Z</time>
      </trkpt>
      <trkpt lat="45.93461" lon="4.72375">
        <ele>173</ele>
        <time>2018-04-15T10:28:51Z</time>
      </trkpt>
      <trkpt lat="45.93457" lon="4.72379">
        <ele>173</ele>
        <time>2018-04-15T10:28:52Z</time>
      </trkpt>
      <trkpt lat="45.93453" lon="4.72384">
        <ele>173</ele>
        <time>2018-04-15T10:28:53Z</time>
      </trkpt>
      <trkpt lat="45.93449" lon="4.72389">
        <ele>173</ele>
        <time>2018-04-15T10:28:54Z</time>
      </trkpt>
      <trkpt lat="45.93444" lon="4.72392">
        <ele>173</ele>
        <time>2018-04-15T10:28:55Z</time>
      </trkpt>
      <trkpt lat="45.93439" lon="4.72394">
        <ele>173</ele>
        <time>2018-04-15T10:28:56Z</time>
      </trkpt>
      <trkpt lat="45.93434" lon="4.72397">
        <ele>173</ele>
        <time>2018-04-15T10:28:57Z</time>
      </trkpt>
      <trkpt lat="45.93429" lon="4.72396">
        <ele>174</ele>
        <time>2018-04-15T10:28:58Z</time>
      </trkpt>
      <trkpt lat="45.93425" lon="4.72398">
        <ele>174</ele>
        <time>2018-04-15T10:28:59Z</time>
      </trkpt>
      <trkpt lat="45.93421" lon="4.72401">
        <ele>174</ele>
        <time>2018-04-15T10:29:00Z</time>
      </trkpt>
      <trkpt lat="45.93413" lon="4.72403">
        <ele>174</ele>
        <time>2018-04-15T10:29:02Z</time>
      </trkpt>
      <trkpt lat="45.93408" lon="4.72404">
        <ele>174</ele>
        <time>2018-04-15T10:29:03Z</time>
      </trkpt>
      <trkpt lat="45.93401" lon="4.72406">
        <ele>174</ele>
        <time>2018-04-15T10:29:05Z</time>
      </trkpt>
      <trkpt lat="45.93396" lon="4.72406">
        <ele>174</ele>
        <time>2018-04-15T10:29:06Z</time>
      </trkpt>
      <trkpt lat="45.93391" lon="4.72407">
        <ele>174</ele>
        <time>2018-04-15T10:29:07Z</time>
      </trkpt>
      <trkpt lat="45.93386" lon="4.72412">
        <ele>174</ele>
        <time>2018-04-15T10:29:08Z</time>
      </trkpt>
      <trkpt lat="45.93384" lon="4.72418">
        <ele>173</ele>
        <time>2018-04-15T10:29:09Z</time>
      </trkpt>
      <trkpt lat="45.93384" lon="4.72426">
        <ele>173</ele>
        <time>2018-04-15T10:29:10Z</time>
      </trkpt>
      <trkpt lat="45.93385" lon="4.72433">
        <ele>173</ele>
        <time>2018-04-15T10:29:11Z</time>
      </trkpt>
      <trkpt lat="45.93388" lon="4.7244">
        <ele>173</ele>
        <time>2018-04-15T10:29:12Z</time>
      </trkpt>
      <trkpt lat="45.93389" lon="4.72447">
        <ele>173</ele>
        <time>2018-04-15T10:29:13Z</time>
      </trkpt>
      <trkpt lat="45.93389" lon="4.72455">
        <ele>173</ele>
        <time>2018-04-15T10:29:14Z</time>
      </trkpt>
      <trkpt lat="45.93387" lon="4.72461">
        <ele>173</ele>
        <time>2018-04-15T10:29:15Z</time>
      </trkpt>
      <trkpt lat="45.93384" lon="4.72468">
        <ele>173</ele>
        <time>2018-04-15T10:29:16Z</time>
      </trkpt>
      <trkpt lat="45.9338" lon="4.72474">
        <ele>173</ele>
        <time>2018-04-15T10:29:17Z</time>
      </trkpt>
      <trkpt lat="45.93376" lon="4.72479">
        <ele>173</ele>
        <time>2018-04-15T10:29:18Z</time>
      </trkpt>
      <trkpt lat="45.93372" lon="4.72485">
        <ele>173</ele>
        <time>2018-04-15T10:29:19Z</time>
      </trkpt>
      <trkpt lat="45.93367" lon="4.7249">
        <ele>173</ele>
        <time>2018-04-15T10:29:20Z</time>
      </trkpt>
      <trkpt lat="45.93363" lon="4.72499">
        <ele>173</ele>
        <time>2018-04-15T10:29:21Z</time>
      </trkpt>
      <trkpt lat="45.93358" lon="4.72505">
        <ele>172</ele>
        <time>2018-04-15T10:29:22Z</time>
      </trkpt>
      <trkpt lat="45.93353" lon="4.72511">
        <ele>172</ele>
        <time>2018-04-15T10:29:23Z</time>
      </trkpt>
      <trkpt lat="45.93349" lon="4.72516">
        <ele>172</ele>
        <time>2018-04-15T10:29:24Z</time>
      </trkpt>
      <trkpt lat="45.93344" lon="4.72522">
        <ele>172</ele>
        <time>2018-04-15T10:29:25Z</time>
      </trkpt>
      <trkpt lat="45.9334" lon="4.72527">
        <ele>172</ele>
        <time>2018-04-15T10:29:26Z</time>
      </trkpt>
      <trkpt lat="45.93335" lon="4.72531">
        <ele>172</ele>
        <time>2018-04-15T10:29:27Z</time>
      </trkpt>
      <trkpt lat="45.93331" lon="4.72536">
        <ele>172</ele>
        <time>2018-04-15T10:29:28Z</time>
      </trkpt>
      <trkpt lat="45.93327" lon="4.7254">
        <ele>172</ele>
        <time>2018-04-15T10:29:29Z</time>
      </trkpt>
      <trkpt lat="45.93324" lon="4.72545">
        <ele>172</ele>
        <time>2018-04-15T10:29:30Z</time>
      </trkpt>
      <trkpt lat="45.9332" lon="4.72549">
        <ele>172</ele>
        <time>2018-04-15T10:29:31Z</time>
      </trkpt>
      <trkpt lat="45.93316" lon="4.72554">
        <ele>172</ele>
        <time>2018-04-15T10:29:32Z</time>
      </trkpt>
      <trkpt lat="45.93312" lon="4.72559">
        <ele>171</ele>
        <time>2018-04-15T10:29:33Z</time>
      </trkpt>
      <trkpt lat="45.93309" lon="4.72564">
        <ele>171</ele>
        <time>2018-04-15T10:29:34Z</time>
      </trkpt>
      <trkpt lat="45.93305" lon="4.72568">
        <ele>171</ele>
        <time>2018-04-15T10:29:35Z</time>
      </trkpt>
      <trkpt lat="45.933" lon="4.72573">
        <ele>171</ele>
        <time>2018-04-15T10:29:36Z</time>
      </trkpt>
      <trkpt lat="45.93297" lon="4.72579">
        <ele>171</ele>
        <time>2018-04-15T10:29:37Z</time>
      </trkpt>
      <trkpt lat="45.93293" lon="4.72583">
        <ele>170</ele>
        <time>2018-04-15T10:29:38Z</time>
      </trkpt>
      <trkpt lat="45.93289" lon="4.7259">
        <ele>170</ele>
        <time>2018-04-15T10:29:39Z</time>
      </trkpt>
      <trkpt lat="45.93285" lon="4.72595">
        <ele>170</ele>
        <time>2018-04-15T10:29:40Z</time>
      </trkpt>
      <trkpt lat="45.9328" lon="4.726">
        <ele>170</ele>
        <time>2018-04-15T10:29:41Z</time>
      </trkpt>
      <trkpt lat="45.93276" lon="4.72604">
        <ele>170</ele>
        <time>2018-04-15T10:29:42Z</time>
      </trkpt>
      <trkpt lat="45.93271" lon="4.72608">
        <ele>170</ele>
        <time>2018-04-15T10:29:43Z</time>
      </trkpt>
      <trkpt lat="45.93266" lon="4.72614">
        <ele>170</ele>
        <time>2018-04-15T10:29:44Z</time>
      </trkpt>
      <trkpt lat="45.93262" lon="4.72619">
        <ele>170</ele>
        <time>2018-04-15T10:29:45Z</time>
      </trkpt>
      <trkpt lat="45.93257" lon="4.72624">
        <ele>170</ele>
        <time>2018-04-15T10:29:46Z</time>
      </trkpt>
      <trkpt lat="45.93253" lon="4.72629">
        <ele>170</ele>
        <time>2018-04-15T10:29:47Z</time>
      </trkpt>
      <trkpt lat="45.93248" lon="4.72634">
        <ele>170</ele>
        <time>2018-04-15T10:29:48Z</time>
      </trkpt>
      <trkpt lat="45.93242" lon="4.72637">
        <ele>170</ele>
        <time>2018-04-15T10:29:49Z</time>
      </trkpt>
      <trkpt lat="45.93238" lon="4.72642">
        <ele>170</ele>
        <time>2018-04-15T10:29:50Z</time>
      </trkpt>
      <trkpt lat="45.93233" lon="4.72647">
        <ele>170</ele>
        <time>2018-04-15T10:29:51Z</time>
      </trkpt>
      <trkpt lat="45.93228" lon="4.72654">
        <ele>170</ele>
        <time>2018-04-15T10:29:52Z</time>
      </trkpt>
      <trkpt lat="45.93223" lon="4.72659">
        <ele>170</ele>
        <time>2018-04-15T10:29:53Z</time>
      </trkpt>
      <trkpt lat="45.93219" lon="4.72664">
        <ele>170</ele>
        <time>2018-04-15T10:29:54Z</time>
      </trkpt>
      <trkpt lat="45.93215" lon="4.72669">
        <ele>169</ele>
        <time>2018-04-15T10:29:55Z</time>
      </trkpt>
      <trkpt lat="45.93211" lon="4.72675">
        <ele>169</ele>
        <time>2018-04-15T10:29:56Z</time>
      </trkpt>
      <trkpt lat="45.93206" lon="4.72679">
        <ele>169</ele>
        <time>2018-04-15T10:29:57Z</time>
      </trkpt>
      <trkpt lat="45.93202" lon="4.72684">
        <ele>169</ele>
        <time>2018-04-15T10:29:58Z</time>
      </trkpt>
      <trkpt lat="45.93198" lon="4.72689">
        <ele>169</ele>
        <time>2018-04-15T10:29:59Z</time>
      </trkpt>
      <trkpt lat="45.93194" lon="4.72694">
        <ele>169</ele>
        <time>2018-04-15T10:30:00Z</time>
      </trkpt>
      <trkpt lat="45.93189" lon="4.72699">
        <ele>169</ele>
        <time>2018-04-15T10:30:01Z</time>
      </trkpt>
      <trkpt lat="45.93185" lon="4.72703">
        <ele>169</ele>
        <time>2018-04-15T10:30:02Z</time>
      </trkpt>
      <trkpt lat="45.93181" lon="4.72708">
        <ele>169</ele>
        <time>2018-04-15T10:30:03Z</time>
      </trkpt>
      <trkpt lat="45.93177" lon="4.72715">
        <ele>169</ele>
        <time>2018-04-15T10:30:04Z</time>
      </trkpt>
      <trkpt lat="45.93173" lon="4.7272">
        <ele>170</ele>
        <time>2018-04-15T10:30:05Z</time>
      </trkpt>
      <trkpt lat="45.93169" lon="4.72725">
        <ele>170</ele>
        <time>2018-04-15T10:30:06Z</time>
      </trkpt>
      <trkpt lat="45.93165" lon="4.7273">
        <ele>170</ele>
        <time>2018-04-15T10:30:07Z</time>
      </trkpt>
      <trkpt lat="45.9316" lon="4.72735">
        <ele>170</ele>
        <time>2018-04-15T10:30:08Z</time>
      </trkpt>
      <trkpt lat="45.93156" lon="4.7274">
        <ele>170</ele>
        <time>2018-04-15T10:30:09Z</time>
      </trkpt>
      <trkpt lat="45.93151" lon="4.72746">
        <ele>170</ele>
        <time>2018-04-15T10:30:10Z</time>
      </trkpt>
      <trkpt lat="45.93146" lon="4.72751">
        <ele>170</ele>
        <time>2018-04-15T10:30:11Z</time>
      </trkpt>
      <trkpt lat="45.93141" lon="4.72757">
        <ele>171</ele>
        <time>2018-04-15T10:30:12Z</time>
      </trkpt>
      <trkpt lat="45.93137" lon="4.72763">
        <ele>171</ele>
        <time>2018-04-15T10:30:13Z</time>
      </trkpt>
      <trkpt lat="45.93132" lon="4.72769">
        <ele>171</ele>
        <time>2018-04-15T10:30:14Z</time>
      </trkpt>
      <trkpt lat="45.93127" lon="4.72775">
        <ele>171</ele>
        <time>2018-04-15T10:30:15Z</time>
      </trkpt>
      <trkpt lat="45.93122" lon="4.7278">
        <ele>171</ele>
        <time>2018-04-15T10:30:16Z</time>
      </trkpt>
      <trkpt lat="45.93117" lon="4.72786">
        <ele>171</ele>
        <time>2018-04-15T10:30:17Z</time>
      </trkpt>
      <trkpt lat="45.93112" lon="4.72792">
        <ele>171</ele>
        <time>2018-04-15T10:30:18Z</time>
      </trkpt>
      <trkpt lat="45.93107" lon="4.72798">
        <ele>171</ele>
        <time>2018-04-15T10:30:19Z</time>
      </trkpt>
      <trkpt lat="45.93101" lon="4.72803">
        <ele>171</ele>
        <time>2018-04-15T10:30:20Z</time>
      </trkpt>
      <trkpt lat="45.93096" lon="4.7281">
        <ele>172</ele>
        <time>2018-04-15T10:30:21Z</time>
      </trkpt>
      <trkpt lat="45.93091" lon="4.72815">
        <ele>172</ele>
        <time>2018-04-15T10:30:22Z</time>
      </trkpt>
      <trkpt lat="45.93086" lon="4.72821">
        <ele>172</ele>
        <time>2018-04-15T10:30:23Z</time>
      </trkpt>
      <trkpt lat="45.93082" lon="4.72826">
        <ele>173</ele>
        <time>2018-04-15T10:30:24Z</time>
      </trkpt>
      <trkpt lat="45.93047" lon="4.72848">
        <ele>172</ele>
        <time>2018-04-15T10:30:30Z</time>
      </trkpt>
      <trkpt lat="45.93042" lon="4.72858">
        <ele>172</ele>
        <time>2018-04-15T10:30:31Z</time>
      </trkpt>
      <trkpt lat="45.9304" lon="4.72865">
        <ele>172</ele>
        <time>2018-04-15T10:30:32Z</time>
      </trkpt>
      <trkpt lat="45.93035" lon="4.72873">
        <ele>172</ele>
        <time>2018-04-15T10:30:33Z</time>
      </trkpt>
      <trkpt lat="45.93031" lon="4.72878">
        <ele>172</ele>
        <time>2018-04-15T10:30:34Z</time>
      </trkpt>
      <trkpt lat="45.93025" lon="4.72885">
        <ele>172</ele>
        <time>2018-04-15T10:30:35Z</time>
      </trkpt>
      <trkpt lat="45.93021" lon="4.72891">
        <ele>172</ele>
        <time>2018-04-15T10:30:36Z</time>
      </trkpt>
      <trkpt lat="45.93017" lon="4.72896">
        <ele>172</ele>
        <time>2018-04-15T10:30:37Z</time>
      </trkpt>
      <trkpt lat="45.93012" lon="4.72902">
        <ele>172</ele>
        <time>2018-04-15T10:30:38Z</time>
      </trkpt>
      <trkpt lat="45.93008" lon="4.72907">
        <ele>171</ele>
        <time>2018-04-15T10:30:39Z</time>
      </trkpt>
      <trkpt lat="45.93003" lon="4.72913">
        <ele>171</ele>
        <time>2018-04-15T10:30:40Z</time>
      </trkpt>
      <trkpt lat="45.93" lon="4.72919">
        <ele>171</ele>
        <time>2018-04-15T10:30:41Z</time>
      </trkpt>
      <trkpt lat="45.92996" lon="4.72923">
        <ele>171</ele>
        <time>2018-04-15T10:30:42Z</time>
      </trkpt>
      <trkpt lat="45.92992" lon="4.72928">
        <ele>171</ele>
        <time>2018-04-15T10:30:43Z</time>
      </trkpt>
      <trkpt lat="45.92988" lon="4.72933">
        <ele>171</ele>
        <time>2018-04-15T10:30:44Z</time>
      </trkpt>
      <trkpt lat="45.92984" lon="4.72937">
        <ele>171</ele>
        <time>2018-04-15T10:30:45Z</time>
      </trkpt>
      <trkpt lat="45.92981" lon="4.72941">
        <ele>171</ele>
        <time>2018-04-15T10:30:46Z</time>
      </trkpt>
      <trkpt lat="45.92977" lon="4.72946">
        <ele>171</ele>
        <time>2018-04-15T10:30:47Z</time>
      </trkpt>
      <trkpt lat="45.92973" lon="4.7295">
        <ele>171</ele>
        <time>2018-04-15T10:30:48Z</time>
      </trkpt>
      <trkpt lat="45.92968" lon="4.72953">
        <ele>171</ele>
        <time>2018-04-15T10:30:49Z</time>
      </trkpt>
      <trkpt lat="45.92964" lon="4.72958">
        <ele>171</ele>
        <time>2018-04-15T10:30:50Z</time>
      </trkpt>
      <trkpt lat="45.9296" lon="4.72963">
        <ele>171</ele>
        <time>2018-04-15T10:30:51Z</time>
      </trkpt>
      <trkpt lat="45.92957" lon="4.72968">
        <ele>171</ele>
        <time>2018-04-15T10:30:52Z</time>
      </trkpt>
      <trkpt lat="45.92954" lon="4.72976">
        <ele>171</ele>
        <time>2018-04-15T10:30:53Z</time>
      </trkpt>
      <trkpt lat="45.92951" lon="4.7298">
        <ele>171</ele>
        <time>2018-04-15T10:30:54Z</time>
      </trkpt>
      <trkpt lat="45.92946" lon="4.72984">
        <ele>171</ele>
        <time>2018-04-15T10:30:55Z</time>
      </trkpt>
      <trkpt lat="45.92942" lon="4.72989">
        <ele>171</ele>
        <time>2018-04-15T10:30:56Z</time>
      </trkpt>
      <trkpt lat="45.92939" lon="4.72992">
        <ele>171</ele>
        <time>2018-04-15T10:30:57Z</time>
      </trkpt>
      <trkpt lat="45.92935" lon="4.72997">
        <ele>172</ele>
        <time>2018-04-15T10:30:58Z</time>
      </trkpt>
      <trkpt lat="45.92931" lon="4.73003">
        <ele>172</ele>
        <time>2018-04-15T10:30:59Z</time>
      </trkpt>
      <trkpt lat="45.92926" lon="4.73007">
        <ele>172</ele>
        <time>2018-04-15T10:31:00Z</time>
      </trkpt>
      <trkpt lat="45.92923" lon="4.73013">
        <ele>172</ele>
        <time>2018-04-15T10:31:01Z</time>
      </trkpt>
      <trkpt lat="45.92918" lon="4.73018">
        <ele>172</ele>
        <time>2018-04-15T10:31:02Z</time>
      </trkpt>
      <trkpt lat="45.92914" lon="4.73024">
        <ele>172</ele>
        <time>2018-04-15T10:31:03Z</time>
      </trkpt>
      <trkpt lat="45.9291" lon="4.73029">
        <ele>172</ele>
        <time>2018-04-15T10:31:04Z</time>
      </trkpt>
      <trkpt lat="45.92906" lon="4.73036">
        <ele>172</ele>
        <time>2018-04-15T10:31:05Z</time>
      </trkpt>
      <trkpt lat="45.92901" lon="4.73041">
        <ele>172</ele>
        <time>2018-04-15T10:31:06Z</time>
      </trkpt>
      <trkpt lat="45.92898" lon="4.73048">
        <ele>172</ele>
        <time>2018-04-15T10:31:07Z</time>
      </trkpt>
      <trkpt lat="45.92894" lon="4.73054">
        <ele>172</ele>
        <time>2018-04-15T10:31:08Z</time>
      </trkpt>
      <trkpt lat="45.9289" lon="4.7306">
        <ele>172</ele>
        <time>2018-04-15T10:31:09Z</time>
      </trkpt>
      <trkpt lat="45.92887" lon="4.73067">
        <ele>172</ele>
        <time>2018-04-15T10:31:10Z</time>
      </trkpt>
      <trkpt lat="45.92884" lon="4.73074">
        <ele>172</ele>
        <time>2018-04-15T10:31:11Z</time>
      </trkpt>
      <trkpt lat="45.92882" lon="4.7308">
        <ele>172</ele>
        <time>2018-04-15T10:31:12Z</time>
      </trkpt>
      <trkpt lat="45.92879" lon="4.73087">
        <ele>172</ele>
        <time>2018-04-15T10:31:13Z</time>
      </trkpt>
      <trkpt lat="45.92875" lon="4.73095">
        <ele>172</ele>
        <time>2018-04-15T10:31:14Z</time>
      </trkpt>
      <trkpt lat="45.92873" lon="4.73101">
        <ele>172</ele>
        <time>2018-04-15T10:31:15Z</time>
      </trkpt>
      <trkpt lat="45.92871" lon="4.7311">
        <ele>172</ele>
        <time>2018-04-15T10:31:16Z</time>
      </trkpt>
      <trkpt lat="45.92869" lon="4.73118">
        <ele>171</ele>
        <time>2018-04-15T10:31:17Z</time>
      </trkpt>
      <trkpt lat="45.92867" lon="4.73126">
        <ele>171</ele>
        <time>2018-04-15T10:31:18Z</time>
      </trkpt>
      <trkpt lat="45.92866" lon="4.73135">
        <ele>171</ele>
        <time>2018-04-15T10:31:19Z</time>
      </trkpt>
      <trkpt lat="45.92864" lon="4.73144">
        <ele>171</ele>
        <time>2018-04-15T10:31:20Z</time>
      </trkpt>
      <trkpt lat="45.92863" lon="4.73153">
        <ele>171</ele>
        <time>2018-04-15T10:31:21Z</time>
      </trkpt>
      <trkpt lat="45.92861" lon="4.73162">
        <ele>171</ele>
        <time>2018-04-15T10:31:22Z</time>
      </trkpt>
      <trkpt lat="45.92861" lon="4.73171">
        <ele>171</ele>
        <time>2018-04-15T10:31:23Z</time>
      </trkpt>
      <trkpt lat="45.9286" lon="4.73179">
        <ele>171</ele>
        <time>2018-04-15T10:31:24Z</time>
      </trkpt>
      <trkpt lat="45.92859" lon="4.73187">
        <ele>171</ele>
        <time>2018-04-15T10:31:25Z</time>
      </trkpt>
      <trkpt lat="45.92858" lon="4.73195">
        <ele>171</ele>
        <time>2018-04-15T10:31:26Z</time>
      </trkpt>
      <trkpt lat="45.92858" lon="4.73203">
        <ele>171</ele>
        <time>2018-04-15T10:31:27Z</time>
      </trkpt>
      <trkpt lat="45.92857" lon="4.73211">
        <ele>171</ele>
        <time>2018-04-15T10:31:28Z</time>
      </trkpt>
      <trkpt lat="45.92856" lon="4.7322">
        <ele>171</ele>
        <time>2018-04-15T10:31:29Z</time>
      </trkpt>
      <trkpt lat="45.92856" lon="4.73228">
        <ele>171</ele>
        <time>2018-04-15T10:31:30Z</time>
      </trkpt>
      <trkpt lat="45.92855" lon="4.73237">
        <ele>171</ele>
        <time>2018-04-15T10:31:31Z</time>
      </trkpt>
      <trkpt lat="45.92854" lon="4.73245">
        <ele>171</ele>
        <time>2018-04-15T10:31:32Z</time>
      </trkpt>
      <trkpt lat="45.92852" lon="4.73254">
        <ele>171</ele>
        <time>2018-04-15T10:31:33Z</time>
      </trkpt>
      <trkpt lat="45.92851" lon="4.73262">
        <ele>171</ele>
        <time>2018-04-15T10:31:34Z</time>
      </trkpt>
      <trkpt lat="45.9285" lon="4.7327">
        <ele>171</ele>
        <time>2018-04-15T10:31:35Z</time>
      </trkpt>
      <trkpt lat="45.92849" lon="4.73278">
        <ele>171</ele>
        <time>2018-04-15T10:31:36Z</time>
      </trkpt>
      <trkpt lat="45.92848" lon="4.73286">
        <ele>171</ele>
        <time>2018-04-15T10:31:37Z</time>
      </trkpt>
      <trkpt lat="45.92848" lon="4.73293">
        <ele>171</ele>
        <time>2018-04-15T10:31:38Z</time>
      </trkpt>
      <trkpt lat="45.92847" lon="4.73301">
        <ele>171</ele>
        <time>2018-04-15T10:31:39Z</time>
      </trkpt>
      <trkpt lat="45.92846" lon="4.73309">
        <ele>171</ele>
        <time>2018-04-15T10:31:40Z</time>
      </trkpt>
      <trkpt lat="45.92844" lon="4.73316">
        <ele>171</ele>
        <time>2018-04-15T10:31:41Z</time>
      </trkpt>
      <trkpt lat="45.92843" lon="4.73324">
        <ele>171</ele>
        <time>2018-04-15T10:31:42Z</time>
      </trkpt>
      <trkpt lat="45.92842" lon="4.73331">
        <ele>171</ele>
        <time>2018-04-15T10:31:43Z</time>
      </trkpt>
      <trkpt lat="45.92841" lon="4.73338">
        <ele>171</ele>
        <time>2018-04-15T10:31:44Z</time>
      </trkpt>
      <trkpt lat="45.9284" lon="4.73345">
        <ele>171</ele>
        <time>2018-04-15T10:31:45Z</time>
      </trkpt>
      <trkpt lat="45.9284" lon="4.73354">
        <ele>171</ele>
        <time>2018-04-15T10:31:46Z</time>
      </trkpt>
      <trkpt lat="45.92839" lon="4.73361">
        <ele>171</ele>
        <time>2018-04-15T10:31:47Z</time>
      </trkpt>
      <trkpt lat="45.92838" lon="4.73369">
        <ele>171</ele>
        <time>2018-04-15T10:31:48Z</time>
      </trkpt>
      <trkpt lat="45.92837" lon="4.73376">
        <ele>172</ele>
        <time>2018-04-15T10:31:49Z</time>
      </trkpt>
      <trkpt lat="45.92836" lon="4.73384">
        <ele>172</ele>
        <time>2018-04-15T10:31:50Z</time>
      </trkpt>
      <trkpt lat="45.92836" lon="4.73391">
        <ele>172</ele>
        <time>2018-04-15T10:31:51Z</time>
      </trkpt>
      <trkpt lat="45.92835" lon="4.73399">
        <ele>172</ele>
        <time>2018-04-15T10:31:52Z</time>
      </trkpt>
      <trkpt lat="45.92834" lon="4.73407">
        <ele>172</ele>
        <time>2018-04-15T10:31:53Z</time>
      </trkpt>
      <trkpt lat="45.92834" lon="4.73414">
        <ele>172</ele>
        <time>2018-04-15T10:31:54Z</time>
      </trkpt>
      <trkpt lat="45.92833" lon="4.73422">
        <ele>172</ele>
        <time>2018-04-15T10:31:55Z</time>
      </trkpt>
      <trkpt lat="45.92832" lon="4.73429">
        <ele>172</ele>
        <time>2018-04-15T10:31:56Z</time>
      </trkpt>
      <trkpt lat="45.92831" lon="4.73437">
        <ele>172</ele>
        <time>2018-04-15T10:31:57Z</time>
      </trkpt>
      <trkpt lat="45.9283" lon="4.73445">
        <ele>172</ele>
        <time>2018-04-15T10:31:58Z</time>
      </trkpt>
      <trkpt lat="45.92829" lon="4.73453">
        <ele>172</ele>
        <time>2018-04-15T10:31:59Z</time>
      </trkpt>
      <trkpt lat="45.92827" lon="4.7346">
        <ele>172</ele>
        <time>2018-04-15T10:32:00Z</time>
      </trkpt>
      <trkpt lat="45.92826" lon="4.73466">
        <ele>172</ele>
        <time>2018-04-15T10:32:01Z</time>
      </trkpt>
      <trkpt lat="45.92826" lon="4.73474">
        <ele>172</ele>
        <time>2018-04-15T10:32:02Z</time>
      </trkpt>
      <trkpt lat="45.92824" lon="4.73479">
        <ele>172</ele>
        <time>2018-04-15T10:32:03Z</time>
      </trkpt>
      <trkpt lat="45.92823" lon="4.73486">
        <ele>172</ele>
        <time>2018-04-15T10:32:04Z</time>
      </trkpt>
      <trkpt lat="45.92822" lon="4.73494">
        <ele>172</ele>
        <time>2018-04-15T10:32:05Z</time>
      </trkpt>
      <trkpt lat="45.92821" lon="4.73501">
        <ele>172</ele>
        <time>2018-04-15T10:32:06Z</time>
      </trkpt>
      <trkpt lat="45.92821" lon="4.73508">
        <ele>172</ele>
        <time>2018-04-15T10:32:07Z</time>
      </trkpt>
      <trkpt lat="45.9282" lon="4.73515">
        <ele>172</ele>
        <time>2018-04-15T10:32:08Z</time>
      </trkpt>
      <trkpt lat="45.92818" lon="4.73522">
        <ele>172</ele>
        <time>2018-04-15T10:32:09Z</time>
      </trkpt>
      <trkpt lat="45.92818" lon="4.73529">
        <ele>172</ele>
        <time>2018-04-15T10:32:10Z</time>
      </trkpt>
      <trkpt lat="45.92816" lon="4.73536">
        <ele>172</ele>
        <time>2018-04-15T10:32:11Z</time>
      </trkpt>
      <trkpt lat="45.92816" lon="4.73544">
        <ele>171</ele>
        <time>2018-04-15T10:32:12Z</time>
      </trkpt>
      <trkpt lat="45.92815" lon="4.73551">
        <ele>171</ele>
        <time>2018-04-15T10:32:13Z</time>
      </trkpt>
      <trkpt lat="45.92814" lon="4.7356">
        <ele>171</ele>
        <time>2018-04-15T10:32:14Z</time>
      </trkpt>
      <trkpt lat="45.92814" lon="4.73567">
        <ele>171</ele>
        <time>2018-04-15T10:32:15Z</time>
      </trkpt>
      <trkpt lat="45.92813" lon="4.73574">
        <ele>171</ele>
        <time>2018-04-15T10:32:16Z</time>
      </trkpt>
      <trkpt lat="45.92814" lon="4.73583">
        <ele>171</ele>
        <time>2018-04-15T10:32:17Z</time>
      </trkpt>
      <trkpt lat="45.92813" lon="4.73591">
        <ele>171</ele>
        <time>2018-04-15T10:32:18Z</time>
      </trkpt>
      <trkpt lat="45.92813" lon="4.73599">
        <ele>172</ele>
        <time>2018-04-15T10:32:19Z</time>
      </trkpt>
      <trkpt lat="45.92814" lon="4.73607">
        <ele>172</ele>
        <time>2018-04-15T10:32:20Z</time>
      </trkpt>
      <trkpt lat="45.92813" lon="4.73614">
        <ele>172</ele>
        <time>2018-04-15T10:32:21Z</time>
      </trkpt>
      <trkpt lat="45.92813" lon="4.73622">
        <ele>172</ele>
        <time>2018-04-15T10:32:22Z</time>
      </trkpt>
      <trkpt lat="45.92811" lon="4.73628">
        <ele>172</ele>
        <time>2018-04-15T10:32:23Z</time>
      </trkpt>
      <trkpt lat="45.92808" lon="4.73633">
        <ele>172</ele>
        <time>2018-04-15T10:32:24Z</time>
      </trkpt>
      <trkpt lat="45.92804" lon="4.73638">
        <ele>172</ele>
        <time>2018-04-15T10:32:25Z</time>
      </trkpt>
      <trkpt lat="45.92802" lon="4.73644">
        <ele>172</ele>
        <time>2018-04-15T10:32:26Z</time>
      </trkpt>
      <trkpt lat="45.92799" lon="4.73651">
        <ele>172</ele>
        <time>2018-04-15T10:32:27Z</time>
      </trkpt>
      <trkpt lat="45.92797" lon="4.73657">
        <ele>172</ele>
        <time>2018-04-15T10:32:28Z</time>
      </trkpt>
      <trkpt lat="45.92796" lon="4.73665">
        <ele>172</ele>
        <time>2018-04-15T10:32:29Z</time>
      </trkpt>
      <trkpt lat="45.92794" lon="4.73671">
        <ele>172</ele>
        <time>2018-04-15T10:32:30Z</time>
      </trkpt>
      <trkpt lat="45.92793" lon="4.73677">
        <ele>172</ele>
        <time>2018-04-15T10:32:31Z</time>
      </trkpt>
      <trkpt lat="45.92792" lon="4.73684">
        <ele>172</ele>
        <time>2018-04-15T10:32:32Z</time>
      </trkpt>
      <trkpt lat="45.92789" lon="4.73696">
        <ele>172</ele>
        <time>2018-04-15T10:32:34Z</time>
      </trkpt>
      <trkpt lat="45.92789" lon="4.73707">
        <ele>172</ele>
        <time>2018-04-15T10:32:35Z</time>
      </trkpt>
      <trkpt lat="45.92788" lon="4.73713">
        <ele>172</ele>
        <time>2018-04-15T10:32:36Z</time>
      </trkpt>
      <trkpt lat="45.92787" lon="4.73719">
        <ele>172</ele>
        <time>2018-04-15T10:32:37Z</time>
      </trkpt>
      <trkpt lat="45.92784" lon="4.73729">
        <ele>172</ele>
        <time>2018-04-15T10:32:39Z</time>
      </trkpt>
      <trkpt lat="45.92781" lon="4.73733">
        <ele>172</ele>
        <time>2018-04-15T10:32:40Z</time>
      </trkpt>
      <trkpt lat="45.92772" lon="4.73734">
        <ele>172</ele>
        <time>2018-04-15T10:32:42Z</time>
      </trkpt>
      <trkpt lat="45.92768" lon="4.73733">
        <ele>172</ele>
        <time>2018-04-15T10:32:43Z</time>
      </trkpt>
      <trkpt lat="45.92761" lon="4.73729">
        <ele>172</ele>
        <time>2018-04-15T10:32:45Z</time>
      </trkpt>
      <trkpt lat="45.92756" lon="4.73728">
        <ele>172</ele>
        <time>2018-04-15T10:32:46Z</time>
      </trkpt>
      <trkpt lat="45.92751" lon="4.73728">
        <ele>172</ele>
        <time>2018-04-15T10:32:47Z</time>
      </trkpt>
      <trkpt lat="45.92745" lon="4.73726">
        <ele>173</ele>
        <time>2018-04-15T10:32:48Z</time>
      </trkpt>
      <trkpt lat="45.9274" lon="4.73725">
        <ele>173</ele>
        <time>2018-04-15T10:32:49Z</time>
      </trkpt>
      <trkpt lat="45.92734" lon="4.73724">
        <ele>173</ele>
        <time>2018-04-15T10:32:50Z</time>
      </trkpt>
      <trkpt lat="45.92729" lon="4.73723">
        <ele>173</ele>
        <time>2018-04-15T10:32:51Z</time>
      </trkpt>
      <trkpt lat="45.92724" lon="4.73721">
        <ele>173</ele>
        <time>2018-04-15T10:32:52Z</time>
      </trkpt>
      <trkpt lat="45.92719" lon="4.73721">
        <ele>173</ele>
        <time>2018-04-15T10:32:53Z</time>
      </trkpt>
      <trkpt lat="45.92714" lon="4.73719">
        <ele>173</ele>
        <time>2018-04-15T10:32:54Z</time>
      </trkpt>
      <trkpt lat="45.92709" lon="4.73716">
        <ele>173</ele>
        <time>2018-04-15T10:32:55Z</time>
      </trkpt>
      <trkpt lat="45.92704" lon="4.73715">
        <ele>173</ele>
        <time>2018-04-15T10:32:56Z</time>
      </trkpt>
      <trkpt lat="45.927" lon="4.73714">
        <ele>173</ele>
        <time>2018-04-15T10:32:57Z</time>
      </trkpt>
      <trkpt lat="45.92695" lon="4.73713">
        <ele>173</ele>
        <time>2018-04-15T10:32:58Z</time>
      </trkpt>
      <trkpt lat="45.9269" lon="4.73712">
        <ele>173</ele>
        <time>2018-04-15T10:32:59Z</time>
      </trkpt>
      <trkpt lat="45.92685" lon="4.7371">
        <ele>173</ele>
        <time>2018-04-15T10:33:00Z</time>
      </trkpt>
      <trkpt lat="45.9268" lon="4.73709">
        <ele>173</ele>
        <time>2018-04-15T10:33:01Z</time>
      </trkpt>
      <trkpt lat="45.92674" lon="4.73706">
        <ele>174</ele>
        <time>2018-04-15T10:33:02Z</time>
      </trkpt>
      <trkpt lat="45.92669" lon="4.73704">
        <ele>174</ele>
        <time>2018-04-15T10:33:03Z</time>
      </trkpt>
      <trkpt lat="45.92664" lon="4.73702">
        <ele>173</ele>
        <time>2018-04-15T10:33:04Z</time>
      </trkpt>
      <trkpt lat="45.92659" lon="4.73697">
        <ele>173</ele>
        <time>2018-04-15T10:33:05Z</time>
      </trkpt>
      <trkpt lat="45.92655" lon="4.73691">
        <ele>173</ele>
        <time>2018-04-15T10:33:06Z</time>
      </trkpt>
      <trkpt lat="45.9265" lon="4.73686">
        <ele>173</ele>
        <time>2018-04-15T10:33:07Z</time>
      </trkpt>
      <trkpt lat="45.92645" lon="4.73678">
        <ele>173</ele>
        <time>2018-04-15T10:33:08Z</time>
      </trkpt>
      <trkpt lat="45.9264" lon="4.73671">
        <ele>173</ele>
        <time>2018-04-15T10:33:09Z</time>
      </trkpt>
      <trkpt lat="45.92636" lon="4.73664">
        <ele>173</ele>
        <time>2018-04-15T10:33:10Z</time>
      </trkpt>
      <trkpt lat="45.92632" lon="4.73657">
        <ele>173</ele>
        <time>2018-04-15T10:33:11Z</time>
      </trkpt>
      <trkpt lat="45.92629" lon="4.73651">
        <ele>173</ele>
        <time>2018-04-15T10:33:12Z</time>
      </trkpt>
      <trkpt lat="45.92626" lon="4.73645">
        <ele>173</ele>
        <time>2018-04-15T10:33:13Z</time>
      </trkpt>
      <trkpt lat="45.92622" lon="4.73638">
        <ele>173</ele>
        <time>2018-04-15T10:33:14Z</time>
      </trkpt>
      <trkpt lat="45.92619" lon="4.73631">
        <ele>173</ele>
        <time>2018-04-15T10:33:15Z</time>
      </trkpt>
      <trkpt lat="45.92616" lon="4.73627">
        <ele>173</ele>
        <time>2018-04-15T10:33:16Z</time>
      </trkpt>
      <trkpt lat="45.9261" lon="4.73624">
        <ele>173</ele>
        <time>2018-04-15T10:33:17Z</time>
      </trkpt>
      <trkpt lat="45.92604" lon="4.73622">
        <ele>173</ele>
        <time>2018-04-15T10:33:18Z</time>
      </trkpt>
      <trkpt lat="45.92599" lon="4.73621">
        <ele>173</ele>
        <time>2018-04-15T10:33:19Z</time>
      </trkpt>
      <trkpt lat="45.92594" lon="4.73621">
        <ele>173</ele>
        <time>2018-04-15T10:33:20Z</time>
      </trkpt>
      <trkpt lat="45.92588" lon="4.73621">
        <ele>173</ele>
        <time>2018-04-15T10:33:21Z</time>
      </trkpt>
      <trkpt lat="45.92583" lon="4.73621">
        <ele>173</ele>
        <time>2018-04-15T10:33:22Z</time>
      </trkpt>
      <trkpt lat="45.92577" lon="4.73622">
        <ele>173</ele>
        <time>2018-04-15T10:33:23Z</time>
      </trkpt>
      <trkpt lat="45.92572" lon="4.73624">
        <ele>173</ele>
        <time>2018-04-15T10:33:24Z</time>
      </trkpt>
      <trkpt lat="45.92567" lon="4.73627">
        <ele>173</ele>
        <time>2018-04-15T10:33:25Z</time>
      </trkpt>
      <trkpt lat="45.92561" lon="4.73626">
        <ele>173</ele>
        <time>2018-04-15T10:33:26Z</time>
      </trkpt>
      <trkpt lat="45.92556" lon="4.73627">
        <ele>173</ele>
        <time>2018-04-15T10:33:27Z</time>
      </trkpt>
      <trkpt lat="45.9255" lon="4.73628">
        <ele>173</ele>
        <time>2018-04-15T10:33:28Z</time>
      </trkpt>
      <trkpt lat="45.92545" lon="4.73629">
        <ele>173</ele>
        <time>2018-04-15T10:33:29Z</time>
      </trkpt>
      <trkpt lat="45.9254" lon="4.7363">
        <ele>173</ele>
        <time>2018-04-15T10:33:30Z</time>
      </trkpt>
      <trkpt lat="45.92534" lon="4.73632">
        <ele>173</ele>
        <time>2018-04-15T10:33:31Z</time>
      </trkpt>
      <trkpt lat="45.92529" lon="4.73633">
        <ele>173</ele>
        <time>2018-04-15T10:33:32Z</time>
      </trkpt>
      <trkpt lat="45.92524" lon="4.73637">
        <ele>173</ele>
        <time>2018-04-15T10:33:33Z</time>
      </trkpt>
      <trkpt lat="45.92518" lon="4.73638">
        <ele>173</ele>
        <time>2018-04-15T10:33:34Z</time>
      </trkpt>
      <trkpt lat="45.92512" lon="4.73638">
        <ele>174</ele>
        <time>2018-04-15T10:33:35Z</time>
      </trkpt>
      <trkpt lat="45.92507" lon="4.73639">
        <ele>174</ele>
        <time>2018-04-15T10:33:36Z</time>
      </trkpt>
      <trkpt lat="45.92498" lon="4.73638">
        <ele>174</ele>
        <time>2018-04-15T10:33:38Z</time>
      </trkpt>
      <trkpt lat="45.92494" lon="4.73638">
        <ele>174</ele>
        <time>2018-04-15T10:33:39Z</time>
      </trkpt>
      <trkpt lat="45.92485" lon="4.73639">
        <ele>174</ele>
        <time>2018-04-15T10:33:41Z</time>
      </trkpt>
      <trkpt lat="45.9248" lon="4.73642">
        <ele>174</ele>
        <time>2018-04-15T10:33:42Z</time>
      </trkpt>
      <trkpt lat="45.92473" lon="4.73642">
        <ele>174</ele>
        <time>2018-04-15T10:33:44Z</time>
      </trkpt>
      <trkpt lat="45.92469" lon="4.73647">
        <ele>174</ele>
        <time>2018-04-15T10:33:45Z</time>
      </trkpt>
      <trkpt lat="45.92468" lon="4.73654">
        <ele>174</ele>
        <time>2018-04-15T10:33:47Z</time>
      </trkpt>
      <trkpt lat="45.92468" lon="4.73661">
        <ele>174</ele>
        <time>2018-04-15T10:33:48Z</time>
      </trkpt>
      <trkpt lat="45.92467" lon="4.73672">
        <ele>174</ele>
        <time>2018-04-15T10:33:50Z</time>
      </trkpt>
      <trkpt lat="45.92467" lon="4.73678">
        <ele>174</ele>
        <time>2018-04-15T10:33:51Z</time>
      </trkpt>
      <trkpt lat="45.92466" lon="4.73689">
        <ele>174</ele>
        <time>2018-04-15T10:33:53Z</time>
      </trkpt>
      <trkpt lat="45.92466" lon="4.73694">
        <ele>174</ele>
        <time>2018-04-15T10:33:54Z</time>
      </trkpt>
      <trkpt lat="45.92464" lon="4.73706">
        <ele>174</ele>
        <time>2018-04-15T10:33:58Z</time>
      </trkpt>
      <trkpt lat="45.92463" lon="4.73709">
        <ele>174</ele>
        <time>2018-04-15T10:33:59Z</time>
      </trkpt>
      <trkpt lat="45.92463" lon="4.73713">
        <ele>174</ele>
        <time>2018-04-15T10:34:21Z</time>
      </trkpt>
      <trkpt lat="45.92462" lon="4.73713">
        <ele>174</ele>
        <time>2018-04-15T10:34:22Z</time>
      </trkpt>
      <trkpt lat="45.92462" lon="4.73714">
        <ele>174</ele>
        <time>2018-04-15T10:34:25Z</time>
      </trkpt>
      <trkpt lat="45.92462" lon="4.73714">
        <ele>174</ele>
        <time>2018-04-15T10:34:26Z</time>
      </trkpt>
      <trkpt lat="45.92457" lon="4.73716">
        <ele>174</ele>
        <time>2018-04-15T10:34:40.02Z</time>
      </trkpt>
    </trkseg>
  </trk>
</gpx>